<?xml version="1.0" encoding="utf-8"?>
<gpx xmlns:tc2="http://www.garmin.com/xmlschemas/TrainingCenterDatabase/v2" xmlns:xsi="http://www.w3.org/2001/XMLSchema-instance" xmlns:tp1="http://www.garmin.com/xmlschemas/TrackPointExtension/v1" xmlns="http://www.topografix.com/GPX/1/1" version="1.1" creator="TC2 to GPX11 XSLT stylesheet" xsi:schemaLocation="http://www.topografix.com/GPX/1/1 http://www.topografix.com/GPX/1/1/gpx.xsd http://www.garmin.com/xmlschemas/TrackPointExtension/v1 http://www.garmin.com/xmlschemas/TrackPointExtensionv1.xsd">
<trk>
<name>2014-12-04T10:57:52Z</name>
<trkseg>
<trkpt lat="46.1706985" lon="6.1157915">
<ele>400.0000000</ele>
<time>2014-12-04T10:57:52Z</time>
<extensions>
<tp1:TrackPointExtension>
<tp1:hr>83</tp1:hr>
</tp1:TrackPointExtension>
</extensions>
</trkpt>
<trkpt lat="46.1707025" lon="6.1157910">
<ele>400.0000000</ele>
<time>2014-12-04T10:57:53Z</time>
<extensions>
<tp1:TrackPointExtension>
<tp1:hr>83</tp1:hr>
</tp1:TrackPointExtension>
</extensions>
</trkpt>
<trkpt lat="46.1706956" lon="6.1158089">
<ele>399.8000000</ele>
<time>2014-12-04T10:57:56Z</time>
<extensions>
<tp1:TrackPointExtension>
<tp1:hr>82</tp1:hr>
</tp1:TrackPointExtension>
</extensions>
</trkpt>
<trkpt lat="46.1707303" lon="6.1158375">
<ele>399.8000000</ele>
<time>2014-12-04T10:58:01Z</time>
<extensions>
<tp1:TrackPointExtension>
<tp1:hr>82</tp1:hr>
</tp1:TrackPointExtension>
</extensions>
</trkpt>
<trkpt lat="46.1708054" lon="6.1157588">
<ele>399.8000000</ele>
<time>2014-12-04T10:58:04Z</time>
<extensions>
<tp1:TrackPointExtension>
<tp1:hr>83</tp1:hr>
</tp1:TrackPointExtension>
</extensions>
</trkpt>
<trkpt lat="46.1708364" lon="6.1157218">
<ele>399.8000000</ele>
<time>2014-12-04T10:58:05Z</time>
<extensions>
<tp1:TrackPointExtension>
<tp1:hr>83</tp1:hr>
</tp1:TrackPointExtension>
</extensions>
</trkpt>
<trkpt lat="46.1709026" lon="6.1155835">
<ele>399.8000000</ele>
<time>2014-12-04T10:58:08Z</time>
<extensions>
<tp1:TrackPointExtension>
<tp1:hr>86</tp1:hr>
</tp1:TrackPointExtension>
</extensions>
</trkpt>
<trkpt lat="46.1710081" lon="6.1154267">
<ele>399.8000000</ele>
<time>2014-12-04T10:58:12Z</time>
<extensions>
<tp1:TrackPointExtension>
<tp1:hr>89</tp1:hr>
</tp1:TrackPointExtension>
</extensions>
</trkpt>
<trkpt lat="46.1711692" lon="6.1151987">
<ele>399.8000000</ele>
<time>2014-12-04T10:58:18Z</time>
<extensions>
<tp1:TrackPointExtension>
<tp1:hr>92</tp1:hr>
</tp1:TrackPointExtension>
</extensions>
</trkpt>
<trkpt lat="46.1711958" lon="6.1151537">
<ele>399.8000000</ele>
<time>2014-12-04T10:58:19Z</time>
<extensions>
<tp1:TrackPointExtension>
<tp1:hr>92</tp1:hr>
</tp1:TrackPointExtension>
</extensions>
</trkpt>
<trkpt lat="46.1715170" lon="6.1146979">
<ele>399.8000000</ele>
<time>2014-12-04T10:58:30Z</time>
<extensions>
<tp1:TrackPointExtension>
<tp1:hr>93</tp1:hr>
</tp1:TrackPointExtension>
</extensions>
</trkpt>
<trkpt lat="46.1717254" lon="6.1143684">
<ele>399.8000000</ele>
<time>2014-12-04T10:58:37Z</time>
<extensions>
<tp1:TrackPointExtension>
<tp1:hr>93</tp1:hr>
</tp1:TrackPointExtension>
</extensions>
</trkpt>
<trkpt lat="46.1719385" lon="6.1141180">
<ele>399.8000000</ele>
<time>2014-12-04T10:58:43Z</time>
<extensions>
<tp1:TrackPointExtension>
<tp1:hr>94</tp1:hr>
</tp1:TrackPointExtension>
</extensions>
</trkpt>
<trkpt lat="46.1721254" lon="6.1137816">
<ele>399.8000000</ele>
<time>2014-12-04T10:58:49Z</time>
<extensions>
<tp1:TrackPointExtension>
<tp1:hr>95</tp1:hr>
</tp1:TrackPointExtension>
</extensions>
</trkpt>
<trkpt lat="46.1722778" lon="6.1136464">
<ele>399.8000000</ele>
<time>2014-12-04T10:58:54Z</time>
<extensions>
<tp1:TrackPointExtension>
<tp1:hr>94</tp1:hr>
</tp1:TrackPointExtension>
</extensions>
</trkpt>
<trkpt lat="46.1724010" lon="6.1134747">
<ele>399.8000000</ele>
<time>2014-12-04T10:58:59Z</time>
<extensions>
<tp1:TrackPointExtension>
<tp1:hr>95</tp1:hr>
</tp1:TrackPointExtension>
</extensions>
</trkpt>
<trkpt lat="46.1725362" lon="6.1133187">
<ele>399.8000000</ele>
<time>2014-12-04T10:59:03Z</time>
<extensions>
<tp1:TrackPointExtension>
<tp1:hr>97</tp1:hr>
</tp1:TrackPointExtension>
</extensions>
</trkpt>
<trkpt lat="46.1725784" lon="6.1132802">
<ele>399.8000000</ele>
<time>2014-12-04T10:59:04Z</time>
<extensions>
<tp1:TrackPointExtension>
<tp1:hr>97</tp1:hr>
</tp1:TrackPointExtension>
</extensions>
</trkpt>
<trkpt lat="46.1726692" lon="6.1131563">
<ele>399.8000000</ele>
<time>2014-12-04T10:59:07Z</time>
<extensions>
<tp1:TrackPointExtension>
<tp1:hr>97</tp1:hr>
</tp1:TrackPointExtension>
</extensions>
</trkpt>
<trkpt lat="46.1727418" lon="6.1130697">
<ele>399.8000000</ele>
<time>2014-12-04T10:59:09Z</time>
<extensions>
<tp1:TrackPointExtension>
<tp1:hr>98</tp1:hr>
</tp1:TrackPointExtension>
</extensions>
</trkpt>
<trkpt lat="46.1729704" lon="6.1127888">
<ele>399.8000000</ele>
<time>2014-12-04T10:59:15Z</time>
<extensions>
<tp1:TrackPointExtension>
<tp1:hr>98</tp1:hr>
</tp1:TrackPointExtension>
</extensions>
</trkpt>
<trkpt lat="46.1730479" lon="6.1126890">
<ele>399.8000000</ele>
<time>2014-12-04T10:59:17Z</time>
<extensions>
<tp1:TrackPointExtension>
<tp1:hr>98</tp1:hr>
</tp1:TrackPointExtension>
</extensions>
</trkpt>
<trkpt lat="46.1731344" lon="6.1126157">
<ele>399.8000000</ele>
<time>2014-12-04T10:59:19Z</time>
<extensions>
<tp1:TrackPointExtension>
<tp1:hr>98</tp1:hr>
</tp1:TrackPointExtension>
</extensions>
</trkpt>
<trkpt lat="46.1731701" lon="6.1125612">
<ele>399.8000000</ele>
<time>2014-12-04T10:59:22Z</time>
<extensions>
<tp1:TrackPointExtension>
<tp1:hr>97</tp1:hr>
</tp1:TrackPointExtension>
</extensions>
</trkpt>
<trkpt lat="46.1731636" lon="6.1125761">
<ele>399.8000000</ele>
<time>2014-12-04T10:59:27Z</time>
<extensions>
<tp1:TrackPointExtension>
<tp1:hr>96</tp1:hr>
</tp1:TrackPointExtension>
</extensions>
</trkpt>
<trkpt lat="46.1731842" lon="6.1125390">
<ele>399.8000000</ele>
<time>2014-12-04T10:59:32Z</time>
<extensions>
<tp1:TrackPointExtension>
<tp1:hr>95</tp1:hr>
</tp1:TrackPointExtension>
</extensions>
</trkpt>
<trkpt lat="46.1731886" lon="6.1124724">
<ele>399.8000000</ele>
<time>2014-12-04T10:59:34Z</time>
<extensions>
<tp1:TrackPointExtension>
<tp1:hr>96</tp1:hr>
</tp1:TrackPointExtension>
</extensions>
</trkpt>
<trkpt lat="46.1731220" lon="6.1122897">
<ele>399.8000000</ele>
<time>2014-12-04T10:59:38Z</time>
<extensions>
<tp1:TrackPointExtension>
<tp1:hr>97</tp1:hr>
</tp1:TrackPointExtension>
</extensions>
</trkpt>
<trkpt lat="46.1728344" lon="6.1117120">
<ele>399.8000000</ele>
<time>2014-12-04T10:59:47Z</time>
<extensions>
<tp1:TrackPointExtension>
<tp1:hr>100</tp1:hr>
</tp1:TrackPointExtension>
</extensions>
</trkpt>
<trkpt lat="46.1725223" lon="6.1110215">
<ele>399.8000000</ele>
<time>2014-12-04T10:59:57Z</time>
<extensions>
<tp1:TrackPointExtension>
<tp1:hr>101</tp1:hr>
</tp1:TrackPointExtension>
</extensions>
</trkpt>
<trkpt lat="46.1724714" lon="6.1108759">
<ele>399.8000000</ele>
<time>2014-12-04T10:59:59Z</time>
<extensions>
<tp1:TrackPointExtension>
<tp1:hr>101</tp1:hr>
</tp1:TrackPointExtension>
</extensions>
</trkpt>
<trkpt lat="46.1722115" lon="6.1102532">
<ele>399.8000000</ele>
<time>2014-12-04T11:00:08Z</time>
<extensions>
<tp1:TrackPointExtension>
<tp1:hr>102</tp1:hr>
</tp1:TrackPointExtension>
</extensions>
</trkpt>
<trkpt lat="46.1721857" lon="6.1101917">
<ele>399.8000000</ele>
<time>2014-12-04T11:00:09Z</time>
<extensions>
<tp1:TrackPointExtension>
<tp1:hr>103</tp1:hr>
</tp1:TrackPointExtension>
</extensions>
</trkpt>
<trkpt lat="46.1719176" lon="6.1096171">
<ele>399.8000000</ele>
<time>2014-12-04T11:00:18Z</time>
<extensions>
<tp1:TrackPointExtension>
<tp1:hr>105</tp1:hr>
</tp1:TrackPointExtension>
</extensions>
</trkpt>
<trkpt lat="46.1718228" lon="6.1093359">
<ele>399.8000000</ele>
<time>2014-12-04T11:00:22Z</time>
<extensions>
<tp1:TrackPointExtension>
<tp1:hr>107</tp1:hr>
</tp1:TrackPointExtension>
</extensions>
</trkpt>
<trkpt lat="46.1717510" lon="6.1091143">
<ele>399.8000000</ele>
<time>2014-12-04T11:00:25Z</time>
<extensions>
<tp1:TrackPointExtension>
<tp1:hr>106</tp1:hr>
</tp1:TrackPointExtension>
</extensions>
</trkpt>
<trkpt lat="46.1714926" lon="6.1085780">
<ele>399.8000000</ele>
<time>2014-12-04T11:00:33Z</time>
<extensions>
<tp1:TrackPointExtension>
<tp1:hr>107</tp1:hr>
</tp1:TrackPointExtension>
</extensions>
</trkpt>
<trkpt lat="46.1711932" lon="6.1079123">
<ele>399.8000000</ele>
<time>2014-12-04T11:00:43Z</time>
<extensions>
<tp1:TrackPointExtension>
<tp1:hr>107</tp1:hr>
</tp1:TrackPointExtension>
</extensions>
</trkpt>
<trkpt lat="46.1710979" lon="6.1077277">
<ele>399.8000000</ele>
<time>2014-12-04T11:00:46Z</time>
<extensions>
<tp1:TrackPointExtension>
<tp1:hr>106</tp1:hr>
</tp1:TrackPointExtension>
</extensions>
</trkpt>
<trkpt lat="46.1709763" lon="6.1074282">
<ele>399.8000000</ele>
<time>2014-12-04T11:00:51Z</time>
<extensions>
<tp1:TrackPointExtension>
<tp1:hr>106</tp1:hr>
</tp1:TrackPointExtension>
</extensions>
</trkpt>
<trkpt lat="46.1709499" lon="6.1073562">
<ele>399.8000000</ele>
<time>2014-12-04T11:00:52Z</time>
<extensions>
<tp1:TrackPointExtension>
<tp1:hr>106</tp1:hr>
</tp1:TrackPointExtension>
</extensions>
</trkpt>
<trkpt lat="46.1706729" lon="6.1068236">
<ele>399.8000000</ele>
<time>2014-12-04T11:01:00Z</time>
<extensions>
<tp1:TrackPointExtension>
<tp1:hr>107</tp1:hr>
</tp1:TrackPointExtension>
</extensions>
</trkpt>
<trkpt lat="46.1703547" lon="6.1061155">
<ele>399.8000000</ele>
<time>2014-12-04T11:01:11Z</time>
<extensions>
<tp1:TrackPointExtension>
<tp1:hr>109</tp1:hr>
</tp1:TrackPointExtension>
</extensions>
</trkpt>
<trkpt lat="46.1702982" lon="6.1059822">
<ele>399.8000000</ele>
<time>2014-12-04T11:01:13Z</time>
<extensions>
<tp1:TrackPointExtension>
<tp1:hr>109</tp1:hr>
</tp1:TrackPointExtension>
</extensions>
</trkpt>
<trkpt lat="46.1702685" lon="6.1059143">
<ele>399.8000000</ele>
<time>2014-12-04T11:01:14Z</time>
<extensions>
<tp1:TrackPointExtension>
<tp1:hr>109</tp1:hr>
</tp1:TrackPointExtension>
</extensions>
</trkpt>
<trkpt lat="46.1699789" lon="6.1052495">
<ele>399.8000000</ele>
<time>2014-12-04T11:01:24Z</time>
<extensions>
<tp1:TrackPointExtension>
<tp1:hr>108</tp1:hr>
</tp1:TrackPointExtension>
</extensions>
</trkpt>
<trkpt lat="46.1698261" lon="6.1049171">
<ele>399.8000000</ele>
<time>2014-12-04T11:01:29Z</time>
<extensions>
<tp1:TrackPointExtension>
<tp1:hr>107</tp1:hr>
</tp1:TrackPointExtension>
</extensions>
</trkpt>
<trkpt lat="46.1695676" lon="6.1043831">
<ele>400.2000000</ele>
<time>2014-12-04T11:01:37Z</time>
<extensions>
<tp1:TrackPointExtension>
<tp1:hr>108</tp1:hr>
</tp1:TrackPointExtension>
</extensions>
</trkpt>
<trkpt lat="46.1695376" lon="6.1043182">
<ele>400.6000000</ele>
<time>2014-12-04T11:01:38Z</time>
<extensions>
<tp1:TrackPointExtension>
<tp1:hr>107</tp1:hr>
</tp1:TrackPointExtension>
</extensions>
</trkpt>
<trkpt lat="46.1695057" lon="6.1042476">
<ele>401.0000000</ele>
<time>2014-12-04T11:01:39Z</time>
<extensions>
<tp1:TrackPointExtension>
<tp1:hr>107</tp1:hr>
</tp1:TrackPointExtension>
</extensions>
</trkpt>
<trkpt lat="46.1694779" lon="6.1041790">
<ele>401.4000000</ele>
<time>2014-12-04T11:01:40Z</time>
<extensions>
<tp1:TrackPointExtension>
<tp1:hr>108</tp1:hr>
</tp1:TrackPointExtension>
</extensions>
</trkpt>
<trkpt lat="46.1694490" lon="6.1041101">
<ele>401.8000000</ele>
<time>2014-12-04T11:01:41Z</time>
<extensions>
<tp1:TrackPointExtension>
<tp1:hr>108</tp1:hr>
</tp1:TrackPointExtension>
</extensions>
</trkpt>
<trkpt lat="46.1693863" lon="6.1039767">
<ele>401.8000000</ele>
<time>2014-12-04T11:01:43Z</time>
<extensions>
<tp1:TrackPointExtension>
<tp1:hr>107</tp1:hr>
</tp1:TrackPointExtension>
</extensions>
</trkpt>
<trkpt lat="46.1690503" lon="6.1032765">
<ele>401.8000000</ele>
<time>2014-12-04T11:01:54Z</time>
<extensions>
<tp1:TrackPointExtension>
<tp1:hr>108</tp1:hr>
</tp1:TrackPointExtension>
</extensions>
</trkpt>
<trkpt lat="46.1688169" lon="6.1027764">
<ele>401.8000000</ele>
<time>2014-12-04T11:02:02Z</time>
<extensions>
<tp1:TrackPointExtension>
<tp1:hr>108</tp1:hr>
</tp1:TrackPointExtension>
</extensions>
</trkpt>
<trkpt lat="46.1685534" lon="6.1022073">
<ele>401.8000000</ele>
<time>2014-12-04T11:02:11Z</time>
<extensions>
<tp1:TrackPointExtension>
<tp1:hr>108</tp1:hr>
</tp1:TrackPointExtension>
</extensions>
</trkpt>
<trkpt lat="46.1685547" lon="6.1021354">
<ele>401.8000000</ele>
<time>2014-12-04T11:02:12Z</time>
<extensions>
<tp1:TrackPointExtension>
<tp1:hr>107</tp1:hr>
</tp1:TrackPointExtension>
</extensions>
</trkpt>
<trkpt lat="46.1686511" lon="6.1019523">
<ele>401.8000000</ele>
<time>2014-12-04T11:02:15Z</time>
<extensions>
<tp1:TrackPointExtension>
<tp1:hr>108</tp1:hr>
</tp1:TrackPointExtension>
</extensions>
</trkpt>
<trkpt lat="46.1686916" lon="6.1019052">
<ele>401.8000000</ele>
<time>2014-12-04T11:02:16Z</time>
<extensions>
<tp1:TrackPointExtension>
<tp1:hr>108</tp1:hr>
</tp1:TrackPointExtension>
</extensions>
</trkpt>
<trkpt lat="46.1687292" lon="6.1018626">
<ele>402.2000000</ele>
<time>2014-12-04T11:02:17Z</time>
<extensions>
<tp1:TrackPointExtension>
<tp1:hr>108</tp1:hr>
</tp1:TrackPointExtension>
</extensions>
</trkpt>
<trkpt lat="46.1687677" lon="6.1018202">
<ele>402.6000000</ele>
<time>2014-12-04T11:02:18Z</time>
<extensions>
<tp1:TrackPointExtension>
<tp1:hr>108</tp1:hr>
</tp1:TrackPointExtension>
</extensions>
</trkpt>
<trkpt lat="46.1688079" lon="6.1017754">
<ele>403.0000000</ele>
<time>2014-12-04T11:02:19Z</time>
<extensions>
<tp1:TrackPointExtension>
<tp1:hr>109</tp1:hr>
</tp1:TrackPointExtension>
</extensions>
</trkpt>
<trkpt lat="46.1688880" lon="6.1016850">
<ele>403.4000000</ele>
<time>2014-12-04T11:02:21Z</time>
<extensions>
<tp1:TrackPointExtension>
<tp1:hr>109</tp1:hr>
</tp1:TrackPointExtension>
</extensions>
</trkpt>
<trkpt lat="46.1689272" lon="6.1016421">
<ele>403.8000000</ele>
<time>2014-12-04T11:02:22Z</time>
<extensions>
<tp1:TrackPointExtension>
<tp1:hr>109</tp1:hr>
</tp1:TrackPointExtension>
</extensions>
</trkpt>
<trkpt lat="46.1689675" lon="6.1015994">
<ele>403.8000000</ele>
<time>2014-12-04T11:02:23Z</time>
<extensions>
<tp1:TrackPointExtension>
<tp1:hr>109</tp1:hr>
</tp1:TrackPointExtension>
</extensions>
</trkpt>
<trkpt lat="46.1694161" lon="6.1011029">
<ele>403.8000000</ele>
<time>2014-12-04T11:02:34Z</time>
<extensions>
<tp1:TrackPointExtension>
<tp1:hr>116</tp1:hr>
</tp1:TrackPointExtension>
</extensions>
</trkpt>
<trkpt lat="46.1694576" lon="6.1010570">
<ele>403.8000000</ele>
<time>2014-12-04T11:02:35Z</time>
<extensions>
<tp1:TrackPointExtension>
<tp1:hr>116</tp1:hr>
</tp1:TrackPointExtension>
</extensions>
</trkpt>
<trkpt lat="46.1695851" lon="6.1009231">
<ele>403.8000000</ele>
<time>2014-12-04T11:02:38Z</time>
<extensions>
<tp1:TrackPointExtension>
<tp1:hr>113</tp1:hr>
</tp1:TrackPointExtension>
</extensions>
</trkpt>
<trkpt lat="46.1696679" lon="6.1008277">
<ele>403.8000000</ele>
<time>2014-12-04T11:02:40Z</time>
<extensions>
<tp1:TrackPointExtension>
<tp1:hr>110</tp1:hr>
</tp1:TrackPointExtension>
</extensions>
</trkpt>
<trkpt lat="46.1697134" lon="6.1007830">
<ele>403.8000000</ele>
<time>2014-12-04T11:02:41Z</time>
<extensions>
<tp1:TrackPointExtension>
<tp1:hr>110</tp1:hr>
</tp1:TrackPointExtension>
</extensions>
</trkpt>
<trkpt lat="46.1698001" lon="6.1006845">
<ele>403.8000000</ele>
<time>2014-12-04T11:02:43Z</time>
<extensions>
<tp1:TrackPointExtension>
<tp1:hr>118</tp1:hr>
</tp1:TrackPointExtension>
</extensions>
</trkpt>
<trkpt lat="46.1698445" lon="6.1006400">
<ele>403.8000000</ele>
<time>2014-12-04T11:02:44Z</time>
<extensions>
<tp1:TrackPointExtension>
<tp1:hr>118</tp1:hr>
</tp1:TrackPointExtension>
</extensions>
</trkpt>
<trkpt lat="46.1699750" lon="6.1005126">
<ele>403.8000000</ele>
<time>2014-12-04T11:02:47Z</time>
<extensions>
<tp1:TrackPointExtension>
<tp1:hr>126</tp1:hr>
</tp1:TrackPointExtension>
</extensions>
</trkpt>
<trkpt lat="46.1700149" lon="6.1004702">
<ele>403.8000000</ele>
<time>2014-12-04T11:02:48Z</time>
<extensions>
<tp1:TrackPointExtension>
<tp1:hr>126</tp1:hr>
</tp1:TrackPointExtension>
</extensions>
</trkpt>
<trkpt lat="46.1700554" lon="6.1004253">
<ele>403.8000000</ele>
<time>2014-12-04T11:02:49Z</time>
<extensions>
<tp1:TrackPointExtension>
<tp1:hr>124</tp1:hr>
</tp1:TrackPointExtension>
</extensions>
</trkpt>
<trkpt lat="46.1700956" lon="6.1003800">
<ele>403.8000000</ele>
<time>2014-12-04T11:02:50Z</time>
<extensions>
<tp1:TrackPointExtension>
<tp1:hr>128</tp1:hr>
</tp1:TrackPointExtension>
</extensions>
</trkpt>
<trkpt lat="46.1702936" lon="6.1001598">
<ele>403.8000000</ele>
<time>2014-12-04T11:02:55Z</time>
<extensions>
<tp1:TrackPointExtension>
<tp1:hr>125</tp1:hr>
</tp1:TrackPointExtension>
</extensions>
</trkpt>
<trkpt lat="46.1703770" lon="6.1000782">
<ele>403.8000000</ele>
<time>2014-12-04T11:02:57Z</time>
<extensions>
<tp1:TrackPointExtension>
<tp1:hr>121</tp1:hr>
</tp1:TrackPointExtension>
</extensions>
</trkpt>
<trkpt lat="46.1704572" lon="6.0999912">
<ele>403.8000000</ele>
<time>2014-12-04T11:02:59Z</time>
<extensions>
<tp1:TrackPointExtension>
<tp1:hr>116</tp1:hr>
</tp1:TrackPointExtension>
</extensions>
</trkpt>
<trkpt lat="46.1705381" lon="6.0998984">
<ele>403.8000000</ele>
<time>2014-12-04T11:03:01Z</time>
<extensions>
<tp1:TrackPointExtension>
<tp1:hr>113</tp1:hr>
</tp1:TrackPointExtension>
</extensions>
</trkpt>
<trkpt lat="46.1708177" lon="6.0995846">
<ele>403.8000000</ele>
<time>2014-12-04T11:03:08Z</time>
<extensions>
<tp1:TrackPointExtension>
<tp1:hr>111</tp1:hr>
</tp1:TrackPointExtension>
</extensions>
</trkpt>
<trkpt lat="46.1712038" lon="6.0991580">
<ele>403.8000000</ele>
<time>2014-12-04T11:03:18Z</time>
<extensions>
<tp1:TrackPointExtension>
<tp1:hr>110</tp1:hr>
</tp1:TrackPointExtension>
</extensions>
</trkpt>
<trkpt lat="46.1714971" lon="6.0988197">
<ele>403.8000000</ele>
<time>2014-12-04T11:03:25Z</time>
<extensions>
<tp1:TrackPointExtension>
<tp1:hr>109</tp1:hr>
</tp1:TrackPointExtension>
</extensions>
</trkpt>
<trkpt lat="46.1718160" lon="6.0985091">
<ele>403.8000000</ele>
<time>2014-12-04T11:03:32Z</time>
<extensions>
<tp1:TrackPointExtension>
<tp1:hr>106</tp1:hr>
</tp1:TrackPointExtension>
</extensions>
</trkpt>
<trkpt lat="46.1719151" lon="6.0984157">
<ele>403.4000000</ele>
<time>2014-12-04T11:03:34Z</time>
<extensions>
<tp1:TrackPointExtension>
<tp1:hr>105</tp1:hr>
</tp1:TrackPointExtension>
</extensions>
</trkpt>
<trkpt lat="46.1719658" lon="6.0983679">
<ele>402.8000000</ele>
<time>2014-12-04T11:03:35Z</time>
<extensions>
<tp1:TrackPointExtension>
<tp1:hr>104</tp1:hr>
</tp1:TrackPointExtension>
</extensions>
</trkpt>
<trkpt lat="46.1720182" lon="6.0983197">
<ele>402.4000000</ele>
<time>2014-12-04T11:03:36Z</time>
<extensions>
<tp1:TrackPointExtension>
<tp1:hr>103</tp1:hr>
</tp1:TrackPointExtension>
</extensions>
</trkpt>
<trkpt lat="46.1720740" lon="6.0982689">
<ele>401.8000000</ele>
<time>2014-12-04T11:03:37Z</time>
<extensions>
<tp1:TrackPointExtension>
<tp1:hr>103</tp1:hr>
</tp1:TrackPointExtension>
</extensions>
</trkpt>
<trkpt lat="46.1721274" lon="6.0982205">
<ele>401.4000000</ele>
<time>2014-12-04T11:03:38Z</time>
<extensions>
<tp1:TrackPointExtension>
<tp1:hr>102</tp1:hr>
</tp1:TrackPointExtension>
</extensions>
</trkpt>
<trkpt lat="46.1722428" lon="6.0981037">
<ele>400.8000000</ele>
<time>2014-12-04T11:03:40Z</time>
<extensions>
<tp1:TrackPointExtension>
<tp1:hr>99</tp1:hr>
</tp1:TrackPointExtension>
</extensions>
</trkpt>
<trkpt lat="46.1723030" lon="6.0980437">
<ele>400.4000000</ele>
<time>2014-12-04T11:03:41Z</time>
<extensions>
<tp1:TrackPointExtension>
<tp1:hr>99</tp1:hr>
</tp1:TrackPointExtension>
</extensions>
</trkpt>
<trkpt lat="46.1723659" lon="6.0979853">
<ele>400.0000000</ele>
<time>2014-12-04T11:03:42Z</time>
<extensions>
<tp1:TrackPointExtension>
<tp1:hr>98</tp1:hr>
</tp1:TrackPointExtension>
</extensions>
</trkpt>
<trkpt lat="46.1724299" lon="6.0979276">
<ele>399.6000000</ele>
<time>2014-12-04T11:03:43Z</time>
<extensions>
<tp1:TrackPointExtension>
<tp1:hr>98</tp1:hr>
</tp1:TrackPointExtension>
</extensions>
</trkpt>
<trkpt lat="46.1724979" lon="6.0978678">
<ele>399.0000000</ele>
<time>2014-12-04T11:03:44Z</time>
<extensions>
<tp1:TrackPointExtension>
<tp1:hr>97</tp1:hr>
</tp1:TrackPointExtension>
</extensions>
</trkpt>
<trkpt lat="46.1725629" lon="6.0978061">
<ele>398.4000000</ele>
<time>2014-12-04T11:03:45Z</time>
<extensions>
<tp1:TrackPointExtension>
<tp1:hr>97</tp1:hr>
</tp1:TrackPointExtension>
</extensions>
</trkpt>
<trkpt lat="46.1726278" lon="6.0977616">
<ele>397.8000000</ele>
<time>2014-12-04T11:03:46Z</time>
<extensions>
<tp1:TrackPointExtension>
<tp1:hr>96</tp1:hr>
</tp1:TrackPointExtension>
</extensions>
</trkpt>
<trkpt lat="46.1726880" lon="6.0977067">
<ele>397.4000000</ele>
<time>2014-12-04T11:03:47Z</time>
<extensions>
<tp1:TrackPointExtension>
<tp1:hr>95</tp1:hr>
</tp1:TrackPointExtension>
</extensions>
</trkpt>
<trkpt lat="46.1727421" lon="6.0976424">
<ele>396.8000000</ele>
<time>2014-12-04T11:03:48Z</time>
<extensions>
<tp1:TrackPointExtension>
<tp1:hr>95</tp1:hr>
</tp1:TrackPointExtension>
</extensions>
</trkpt>
<trkpt lat="46.1728129" lon="6.0974842">
<ele>396.8000000</ele>
<time>2014-12-04T11:03:50Z</time>
<extensions>
<tp1:TrackPointExtension>
<tp1:hr>94</tp1:hr>
</tp1:TrackPointExtension>
</extensions>
</trkpt>
<trkpt lat="46.1728391" lon="6.0973960">
<ele>396.4000000</ele>
<time>2014-12-04T11:03:51Z</time>
<extensions>
<tp1:TrackPointExtension>
<tp1:hr>94</tp1:hr>
</tp1:TrackPointExtension>
</extensions>
</trkpt>
<trkpt lat="46.1728693" lon="6.0973033">
<ele>396.0000000</ele>
<time>2014-12-04T11:03:52Z</time>
<extensions>
<tp1:TrackPointExtension>
<tp1:hr>94</tp1:hr>
</tp1:TrackPointExtension>
</extensions>
</trkpt>
<trkpt lat="46.1728986" lon="6.0972166">
<ele>395.6000000</ele>
<time>2014-12-04T11:03:53Z</time>
<extensions>
<tp1:TrackPointExtension>
<tp1:hr>94</tp1:hr>
</tp1:TrackPointExtension>
</extensions>
</trkpt>
<trkpt lat="46.1729285" lon="6.0971289">
<ele>395.2000000</ele>
<time>2014-12-04T11:03:54Z</time>
<extensions>
<tp1:TrackPointExtension>
<tp1:hr>94</tp1:hr>
</tp1:TrackPointExtension>
</extensions>
</trkpt>
<trkpt lat="46.1729546" lon="6.0970494">
<ele>394.8000000</ele>
<time>2014-12-04T11:03:55Z</time>
<extensions>
<tp1:TrackPointExtension>
<tp1:hr>94</tp1:hr>
</tp1:TrackPointExtension>
</extensions>
</trkpt>
<trkpt lat="46.1729817" lon="6.0969681">
<ele>394.8000000</ele>
<time>2014-12-04T11:03:56Z</time>
<extensions>
<tp1:TrackPointExtension>
<tp1:hr>94</tp1:hr>
</tp1:TrackPointExtension>
</extensions>
</trkpt>
<trkpt lat="46.1731883" lon="6.0963834">
<ele>394.8000000</ele>
<time>2014-12-04T11:04:04Z</time>
<extensions>
<tp1:TrackPointExtension>
<tp1:hr>95</tp1:hr>
</tp1:TrackPointExtension>
</extensions>
</trkpt>
<trkpt lat="46.1734193" lon="6.0958815">
<ele>394.4000000</ele>
<time>2014-12-04T11:04:11Z</time>
<extensions>
<tp1:TrackPointExtension>
<tp1:hr>95</tp1:hr>
</tp1:TrackPointExtension>
</extensions>
</trkpt>
<trkpt lat="46.1734561" lon="6.0958052">
<ele>393.8000000</ele>
<time>2014-12-04T11:04:12Z</time>
<extensions>
<tp1:TrackPointExtension>
<tp1:hr>96</tp1:hr>
</tp1:TrackPointExtension>
</extensions>
</trkpt>
<trkpt lat="46.1734902" lon="6.0957258">
<ele>393.4000000</ele>
<time>2014-12-04T11:04:13Z</time>
<extensions>
<tp1:TrackPointExtension>
<tp1:hr>96</tp1:hr>
</tp1:TrackPointExtension>
</extensions>
</trkpt>
<trkpt lat="46.1735223" lon="6.0956439">
<ele>393.0000000</ele>
<time>2014-12-04T11:04:14Z</time>
<extensions>
<tp1:TrackPointExtension>
<tp1:hr>96</tp1:hr>
</tp1:TrackPointExtension>
</extensions>
</trkpt>
<trkpt lat="46.1735545" lon="6.0955634">
<ele>392.6000000</ele>
<time>2014-12-04T11:04:15Z</time>
<extensions>
<tp1:TrackPointExtension>
<tp1:hr>96</tp1:hr>
</tp1:TrackPointExtension>
</extensions>
</trkpt>
<trkpt lat="46.1735733" lon="6.0954796">
<ele>392.6000000</ele>
<time>2014-12-04T11:04:16Z</time>
<extensions>
<tp1:TrackPointExtension>
<tp1:hr>96</tp1:hr>
</tp1:TrackPointExtension>
</extensions>
</trkpt>
<trkpt lat="46.1735987" lon="6.0953174">
<ele>392.6000000</ele>
<time>2014-12-04T11:04:18Z</time>
<extensions>
<tp1:TrackPointExtension>
<tp1:hr>96</tp1:hr>
</tp1:TrackPointExtension>
</extensions>
</trkpt>
<trkpt lat="46.1736208" lon="6.0951606">
<ele>392.6000000</ele>
<time>2014-12-04T11:04:20Z</time>
<extensions>
<tp1:TrackPointExtension>
<tp1:hr>96</tp1:hr>
</tp1:TrackPointExtension>
</extensions>
</trkpt>
<trkpt lat="46.1736099" lon="6.0950020">
<ele>392.6000000</ele>
<time>2014-12-04T11:04:22Z</time>
<extensions>
<tp1:TrackPointExtension>
<tp1:hr>98</tp1:hr>
</tp1:TrackPointExtension>
</extensions>
</trkpt>
<trkpt lat="46.1735383" lon="6.0945483">
<ele>392.6000000</ele>
<time>2014-12-04T11:04:28Z</time>
<extensions>
<tp1:TrackPointExtension>
<tp1:hr>99</tp1:hr>
</tp1:TrackPointExtension>
</extensions>
</trkpt>
<trkpt lat="46.1735315" lon="6.0944758">
<ele>392.6000000</ele>
<time>2014-12-04T11:04:29Z</time>
<extensions>
<tp1:TrackPointExtension>
<tp1:hr>99</tp1:hr>
</tp1:TrackPointExtension>
</extensions>
</trkpt>
<trkpt lat="46.1735586" lon="6.0942848">
<ele>392.6000000</ele>
<time>2014-12-04T11:04:32Z</time>
<extensions>
<tp1:TrackPointExtension>
<tp1:hr>99</tp1:hr>
</tp1:TrackPointExtension>
</extensions>
</trkpt>
<trkpt lat="46.1736091" lon="6.0942069">
<ele>393.0000000</ele>
<time>2014-12-04T11:04:34Z</time>
<extensions>
<tp1:TrackPointExtension>
<tp1:hr>100</tp1:hr>
</tp1:TrackPointExtension>
</extensions>
</trkpt>
<trkpt lat="46.1736422" lon="6.0941797">
<ele>393.4000000</ele>
<time>2014-12-04T11:04:35Z</time>
<extensions>
<tp1:TrackPointExtension>
<tp1:hr>100</tp1:hr>
</tp1:TrackPointExtension>
</extensions>
</trkpt>
<trkpt lat="46.1736726" lon="6.0941469">
<ele>393.8000000</ele>
<time>2014-12-04T11:04:36Z</time>
<extensions>
<tp1:TrackPointExtension>
<tp1:hr>101</tp1:hr>
</tp1:TrackPointExtension>
</extensions>
</trkpt>
<trkpt lat="46.1736995" lon="6.0941137">
<ele>394.2000000</ele>
<time>2014-12-04T11:04:37Z</time>
<extensions>
<tp1:TrackPointExtension>
<tp1:hr>101</tp1:hr>
</tp1:TrackPointExtension>
</extensions>
</trkpt>
<trkpt lat="46.1737281" lon="6.0940810">
<ele>394.6000000</ele>
<time>2014-12-04T11:04:38Z</time>
<extensions>
<tp1:TrackPointExtension>
<tp1:hr>102</tp1:hr>
</tp1:TrackPointExtension>
</extensions>
</trkpt>
<trkpt lat="46.1738446" lon="6.0939819">
<ele>395.0000000</ele>
<time>2014-12-04T11:04:42Z</time>
<extensions>
<tp1:TrackPointExtension>
<tp1:hr>104</tp1:hr>
</tp1:TrackPointExtension>
</extensions>
</trkpt>
<trkpt lat="46.1738795" lon="6.0939628">
<ele>395.4000000</ele>
<time>2014-12-04T11:04:43Z</time>
<extensions>
<tp1:TrackPointExtension>
<tp1:hr>105</tp1:hr>
</tp1:TrackPointExtension>
</extensions>
</trkpt>
<trkpt lat="46.1739169" lon="6.0939552">
<ele>395.8000000</ele>
<time>2014-12-04T11:04:44Z</time>
<extensions>
<tp1:TrackPointExtension>
<tp1:hr>106</tp1:hr>
</tp1:TrackPointExtension>
</extensions>
</trkpt>
<trkpt lat="46.1739547" lon="6.0939521">
<ele>396.2000000</ele>
<time>2014-12-04T11:04:45Z</time>
<extensions>
<tp1:TrackPointExtension>
<tp1:hr>106</tp1:hr>
</tp1:TrackPointExtension>
</extensions>
</trkpt>
<trkpt lat="46.1739923" lon="6.0939448">
<ele>396.8000000</ele>
<time>2014-12-04T11:04:46Z</time>
<extensions>
<tp1:TrackPointExtension>
<tp1:hr>107</tp1:hr>
</tp1:TrackPointExtension>
</extensions>
</trkpt>
<trkpt lat="46.1740880" lon="6.0939286">
<ele>396.8000000</ele>
<time>2014-12-04T11:04:49Z</time>
<extensions>
<tp1:TrackPointExtension>
<tp1:hr>109</tp1:hr>
</tp1:TrackPointExtension>
</extensions>
</trkpt>
<trkpt lat="46.1742486" lon="6.0938646">
<ele>397.6000000</ele>
<time>2014-12-04T11:04:53Z</time>
<extensions>
<tp1:TrackPointExtension>
<tp1:hr>112</tp1:hr>
</tp1:TrackPointExtension>
</extensions>
</trkpt>
<trkpt lat="46.1743253" lon="6.0938484">
<ele>398.4000000</ele>
<time>2014-12-04T11:04:55Z</time>
<extensions>
<tp1:TrackPointExtension>
<tp1:hr>112</tp1:hr>
</tp1:TrackPointExtension>
</extensions>
</trkpt>
<trkpt lat="46.1743629" lon="6.0938382">
<ele>399.0000000</ele>
<time>2014-12-04T11:04:56Z</time>
<extensions>
<tp1:TrackPointExtension>
<tp1:hr>113</tp1:hr>
</tp1:TrackPointExtension>
</extensions>
</trkpt>
<trkpt lat="46.1745105" lon="6.0937990">
<ele>399.4000000</ele>
<time>2014-12-04T11:05:00Z</time>
<extensions>
<tp1:TrackPointExtension>
<tp1:hr>115</tp1:hr>
</tp1:TrackPointExtension>
</extensions>
</trkpt>
<trkpt lat="46.1745413" lon="6.0937915">
<ele>400.0000000</ele>
<time>2014-12-04T11:05:01Z</time>
<extensions>
<tp1:TrackPointExtension>
<tp1:hr>116</tp1:hr>
</tp1:TrackPointExtension>
</extensions>
</trkpt>
<trkpt lat="46.1745746" lon="6.0937792">
<ele>400.4000000</ele>
<time>2014-12-04T11:05:02Z</time>
<extensions>
<tp1:TrackPointExtension>
<tp1:hr>116</tp1:hr>
</tp1:TrackPointExtension>
</extensions>
</trkpt>
<trkpt lat="46.1746093" lon="6.0937714">
<ele>400.8000000</ele>
<time>2014-12-04T11:05:03Z</time>
<extensions>
<tp1:TrackPointExtension>
<tp1:hr>117</tp1:hr>
</tp1:TrackPointExtension>
</extensions>
</trkpt>
<trkpt lat="46.1746476" lon="6.0937543">
<ele>401.4000000</ele>
<time>2014-12-04T11:05:04Z</time>
<extensions>
<tp1:TrackPointExtension>
<tp1:hr>117</tp1:hr>
</tp1:TrackPointExtension>
</extensions>
</trkpt>
<trkpt lat="46.1747966" lon="6.0937240">
<ele>401.4000000</ele>
<time>2014-12-04T11:05:08Z</time>
<extensions>
<tp1:TrackPointExtension>
<tp1:hr>118</tp1:hr>
</tp1:TrackPointExtension>
</extensions>
</trkpt>
<trkpt lat="46.1750210" lon="6.0936925">
<ele>401.8000000</ele>
<time>2014-12-04T11:05:14Z</time>
<extensions>
<tp1:TrackPointExtension>
<tp1:hr>119</tp1:hr>
</tp1:TrackPointExtension>
</extensions>
</trkpt>
<trkpt lat="46.1750520" lon="6.0936735">
<ele>402.2000000</ele>
<time>2014-12-04T11:05:15Z</time>
<extensions>
<tp1:TrackPointExtension>
<tp1:hr>119</tp1:hr>
</tp1:TrackPointExtension>
</extensions>
</trkpt>
<trkpt lat="46.1750904" lon="6.0936537">
<ele>402.6000000</ele>
<time>2014-12-04T11:05:16Z</time>
<extensions>
<tp1:TrackPointExtension>
<tp1:hr>120</tp1:hr>
</tp1:TrackPointExtension>
</extensions>
</trkpt>
<trkpt lat="46.1751378" lon="6.0936157">
<ele>403.0000000</ele>
<time>2014-12-04T11:05:17Z</time>
<extensions>
<tp1:TrackPointExtension>
<tp1:hr>120</tp1:hr>
</tp1:TrackPointExtension>
</extensions>
</trkpt>
<trkpt lat="46.1752019" lon="6.0935794">
<ele>403.4000000</ele>
<time>2014-12-04T11:05:19Z</time>
<extensions>
<tp1:TrackPointExtension>
<tp1:hr>120</tp1:hr>
</tp1:TrackPointExtension>
</extensions>
</trkpt>
<trkpt lat="46.1754310" lon="6.0934153">
<ele>403.4000000</ele>
<time>2014-12-04T11:05:26Z</time>
<extensions>
<tp1:TrackPointExtension>
<tp1:hr>120</tp1:hr>
</tp1:TrackPointExtension>
</extensions>
</trkpt>
<trkpt lat="46.1757026" lon="6.0932157">
<ele>403.4000000</ele>
<time>2014-12-04T11:05:34Z</time>
<extensions>
<tp1:TrackPointExtension>
<tp1:hr>121</tp1:hr>
</tp1:TrackPointExtension>
</extensions>
</trkpt>
<trkpt lat="46.1758306" lon="6.0931225">
<ele>403.8000000</ele>
<time>2014-12-04T11:05:38Z</time>
<extensions>
<tp1:TrackPointExtension>
<tp1:hr>121</tp1:hr>
</tp1:TrackPointExtension>
</extensions>
</trkpt>
<trkpt lat="46.1758621" lon="6.0930985">
<ele>404.2000000</ele>
<time>2014-12-04T11:05:39Z</time>
<extensions>
<tp1:TrackPointExtension>
<tp1:hr>121</tp1:hr>
</tp1:TrackPointExtension>
</extensions>
</trkpt>
<trkpt lat="46.1758928" lon="6.0930738">
<ele>404.8000000</ele>
<time>2014-12-04T11:05:40Z</time>
<extensions>
<tp1:TrackPointExtension>
<tp1:hr>121</tp1:hr>
</tp1:TrackPointExtension>
</extensions>
</trkpt>
<trkpt lat="46.1759201" lon="6.0930497">
<ele>405.2000000</ele>
<time>2014-12-04T11:05:41Z</time>
<extensions>
<tp1:TrackPointExtension>
<tp1:hr>121</tp1:hr>
</tp1:TrackPointExtension>
</extensions>
</trkpt>
<trkpt lat="46.1759495" lon="6.0930287">
<ele>405.6000000</ele>
<time>2014-12-04T11:05:42Z</time>
<extensions>
<tp1:TrackPointExtension>
<tp1:hr>121</tp1:hr>
</tp1:TrackPointExtension>
</extensions>
</trkpt>
<trkpt lat="46.1760359" lon="6.0929674">
<ele>405.6000000</ele>
<time>2014-12-04T11:05:45Z</time>
<extensions>
<tp1:TrackPointExtension>
<tp1:hr>122</tp1:hr>
</tp1:TrackPointExtension>
</extensions>
</trkpt>
<trkpt lat="46.1760861" lon="6.0929313">
<ele>406.0000000</ele>
<time>2014-12-04T11:05:47Z</time>
<extensions>
<tp1:TrackPointExtension>
<tp1:hr>122</tp1:hr>
</tp1:TrackPointExtension>
</extensions>
</trkpt>
<trkpt lat="46.1761118" lon="6.0929092">
<ele>406.4000000</ele>
<time>2014-12-04T11:05:48Z</time>
<extensions>
<tp1:TrackPointExtension>
<tp1:hr>122</tp1:hr>
</tp1:TrackPointExtension>
</extensions>
</trkpt>
<trkpt lat="46.1761368" lon="6.0928915">
<ele>406.8000000</ele>
<time>2014-12-04T11:05:49Z</time>
<extensions>
<tp1:TrackPointExtension>
<tp1:hr>122</tp1:hr>
</tp1:TrackPointExtension>
</extensions>
</trkpt>
<trkpt lat="46.1761663" lon="6.0928731">
<ele>407.2000000</ele>
<time>2014-12-04T11:05:50Z</time>
<extensions>
<tp1:TrackPointExtension>
<tp1:hr>122</tp1:hr>
</tp1:TrackPointExtension>
</extensions>
</trkpt>
<trkpt lat="46.1761935" lon="6.0928520">
<ele>407.6000000</ele>
<time>2014-12-04T11:05:51Z</time>
<extensions>
<tp1:TrackPointExtension>
<tp1:hr>122</tp1:hr>
</tp1:TrackPointExtension>
</extensions>
</trkpt>
<trkpt lat="46.1762202" lon="6.0928280">
<ele>407.6000000</ele>
<time>2014-12-04T11:05:52Z</time>
<extensions>
<tp1:TrackPointExtension>
<tp1:hr>122</tp1:hr>
</tp1:TrackPointExtension>
</extensions>
</trkpt>
<trkpt lat="46.1764294" lon="6.0926475">
<ele>408.0000000</ele>
<time>2014-12-04T11:06:00Z</time>
<extensions>
<tp1:TrackPointExtension>
<tp1:hr>123</tp1:hr>
</tp1:TrackPointExtension>
</extensions>
</trkpt>
<trkpt lat="46.1764589" lon="6.0926315">
<ele>408.4000000</ele>
<time>2014-12-04T11:06:01Z</time>
<extensions>
<tp1:TrackPointExtension>
<tp1:hr>123</tp1:hr>
</tp1:TrackPointExtension>
</extensions>
</trkpt>
<trkpt lat="46.1764872" lon="6.0926118">
<ele>408.8000000</ele>
<time>2014-12-04T11:06:02Z</time>
<extensions>
<tp1:TrackPointExtension>
<tp1:hr>124</tp1:hr>
</tp1:TrackPointExtension>
</extensions>
</trkpt>
<trkpt lat="46.1765108" lon="6.0925927">
<ele>409.2000000</ele>
<time>2014-12-04T11:06:03Z</time>
<extensions>
<tp1:TrackPointExtension>
<tp1:hr>124</tp1:hr>
</tp1:TrackPointExtension>
</extensions>
</trkpt>
<trkpt lat="46.1765332" lon="6.0925753">
<ele>409.6000000</ele>
<time>2014-12-04T11:06:04Z</time>
<extensions>
<tp1:TrackPointExtension>
<tp1:hr>124</tp1:hr>
</tp1:TrackPointExtension>
</extensions>
</trkpt>
<trkpt lat="46.1765816" lon="6.0925353">
<ele>409.6000000</ele>
<time>2014-12-04T11:06:06Z</time>
<extensions>
<tp1:TrackPointExtension>
<tp1:hr>124</tp1:hr>
</tp1:TrackPointExtension>
</extensions>
</trkpt>
<trkpt lat="46.1766474" lon="6.0924692">
<ele>409.6000000</ele>
<time>2014-12-04T11:06:09Z</time>
<extensions>
<tp1:TrackPointExtension>
<tp1:hr>124</tp1:hr>
</tp1:TrackPointExtension>
</extensions>
</trkpt>
<trkpt lat="46.1768019" lon="6.0923556">
<ele>410.2000000</ele>
<time>2014-12-04T11:06:15Z</time>
<extensions>
<tp1:TrackPointExtension>
<tp1:hr>125</tp1:hr>
</tp1:TrackPointExtension>
</extensions>
</trkpt>
<trkpt lat="46.1768296" lon="6.0923379">
<ele>410.6000000</ele>
<time>2014-12-04T11:06:16Z</time>
<extensions>
<tp1:TrackPointExtension>
<tp1:hr>125</tp1:hr>
</tp1:TrackPointExtension>
</extensions>
</trkpt>
<trkpt lat="46.1768582" lon="6.0923196">
<ele>411.0000000</ele>
<time>2014-12-04T11:06:17Z</time>
<extensions>
<tp1:TrackPointExtension>
<tp1:hr>125</tp1:hr>
</tp1:TrackPointExtension>
</extensions>
</trkpt>
<trkpt lat="46.1768911" lon="6.0922911">
<ele>411.4000000</ele>
<time>2014-12-04T11:06:18Z</time>
<extensions>
<tp1:TrackPointExtension>
<tp1:hr>125</tp1:hr>
</tp1:TrackPointExtension>
</extensions>
</trkpt>
<trkpt lat="46.1769188" lon="6.0922699">
<ele>411.8000000</ele>
<time>2014-12-04T11:06:19Z</time>
<extensions>
<tp1:TrackPointExtension>
<tp1:hr>126</tp1:hr>
</tp1:TrackPointExtension>
</extensions>
</trkpt>
<trkpt lat="46.1770402" lon="6.0921672">
<ele>412.2000000</ele>
<time>2014-12-04T11:06:24Z</time>
<extensions>
<tp1:TrackPointExtension>
<tp1:hr>127</tp1:hr>
</tp1:TrackPointExtension>
</extensions>
</trkpt>
<trkpt lat="46.1770623" lon="6.0921429">
<ele>412.6000000</ele>
<time>2014-12-04T11:06:25Z</time>
<extensions>
<tp1:TrackPointExtension>
<tp1:hr>127</tp1:hr>
</tp1:TrackPointExtension>
</extensions>
</trkpt>
<trkpt lat="46.1770837" lon="6.0921173">
<ele>413.2000000</ele>
<time>2014-12-04T11:06:26Z</time>
<extensions>
<tp1:TrackPointExtension>
<tp1:hr>127</tp1:hr>
</tp1:TrackPointExtension>
</extensions>
</trkpt>
<trkpt lat="46.1771127" lon="6.0921005">
<ele>413.6000000</ele>
<time>2014-12-04T11:06:27Z</time>
<extensions>
<tp1:TrackPointExtension>
<tp1:hr>127</tp1:hr>
</tp1:TrackPointExtension>
</extensions>
</trkpt>
<trkpt lat="46.1771411" lon="6.0920800">
<ele>414.0000000</ele>
<time>2014-12-04T11:06:28Z</time>
<extensions>
<tp1:TrackPointExtension>
<tp1:hr>127</tp1:hr>
</tp1:TrackPointExtension>
</extensions>
</trkpt>
<trkpt lat="46.1772031" lon="6.0919075">
<ele>414.4000000</ele>
<time>2014-12-04T11:06:33Z</time>
<extensions>
<tp1:TrackPointExtension>
<tp1:hr>128</tp1:hr>
</tp1:TrackPointExtension>
</extensions>
</trkpt>
<trkpt lat="46.1771984" lon="6.0918634">
<ele>414.8000000</ele>
<time>2014-12-04T11:06:34Z</time>
<extensions>
<tp1:TrackPointExtension>
<tp1:hr>128</tp1:hr>
</tp1:TrackPointExtension>
</extensions>
</trkpt>
<trkpt lat="46.1771968" lon="6.0918245">
<ele>415.2000000</ele>
<time>2014-12-04T11:06:35Z</time>
<extensions>
<tp1:TrackPointExtension>
<tp1:hr>128</tp1:hr>
</tp1:TrackPointExtension>
</extensions>
</trkpt>
<trkpt lat="46.1771958" lon="6.0917848">
<ele>415.6000000</ele>
<time>2014-12-04T11:06:36Z</time>
<extensions>
<tp1:TrackPointExtension>
<tp1:hr>128</tp1:hr>
</tp1:TrackPointExtension>
</extensions>
</trkpt>
<trkpt lat="46.1771913" lon="6.0917410">
<ele>416.0000000</ele>
<time>2014-12-04T11:06:37Z</time>
<extensions>
<tp1:TrackPointExtension>
<tp1:hr>128</tp1:hr>
</tp1:TrackPointExtension>
</extensions>
</trkpt>
<trkpt lat="46.1771662" lon="6.0916516">
<ele>416.0000000</ele>
<time>2014-12-04T11:06:39Z</time>
<extensions>
<tp1:TrackPointExtension>
<tp1:hr>128</tp1:hr>
</tp1:TrackPointExtension>
</extensions>
</trkpt>
<trkpt lat="46.1771574" lon="6.0916091">
<ele>416.0000000</ele>
<time>2014-12-04T11:06:40Z</time>
<extensions>
<tp1:TrackPointExtension>
<tp1:hr>129</tp1:hr>
</tp1:TrackPointExtension>
</extensions>
</trkpt>
<trkpt lat="46.1771304" lon="6.0914429">
<ele>416.4000000</ele>
<time>2014-12-04T11:06:44Z</time>
<extensions>
<tp1:TrackPointExtension>
<tp1:hr>129</tp1:hr>
</tp1:TrackPointExtension>
</extensions>
</trkpt>
<trkpt lat="46.1771268" lon="6.0914033">
<ele>417.0000000</ele>
<time>2014-12-04T11:06:45Z</time>
<extensions>
<tp1:TrackPointExtension>
<tp1:hr>130</tp1:hr>
</tp1:TrackPointExtension>
</extensions>
</trkpt>
<trkpt lat="46.1771255" lon="6.0913691">
<ele>417.4000000</ele>
<time>2014-12-04T11:06:46Z</time>
<extensions>
<tp1:TrackPointExtension>
<tp1:hr>130</tp1:hr>
</tp1:TrackPointExtension>
</extensions>
</trkpt>
<trkpt lat="46.1771224" lon="6.0913225">
<ele>417.8000000</ele>
<time>2014-12-04T11:06:47Z</time>
<extensions>
<tp1:TrackPointExtension>
<tp1:hr>130</tp1:hr>
</tp1:TrackPointExtension>
</extensions>
</trkpt>
<trkpt lat="46.1771194" lon="6.0912726">
<ele>418.2000000</ele>
<time>2014-12-04T11:06:48Z</time>
<extensions>
<tp1:TrackPointExtension>
<tp1:hr>130</tp1:hr>
</tp1:TrackPointExtension>
</extensions>
</trkpt>
<trkpt lat="46.1771232" lon="6.0912053">
<ele>418.2000000</ele>
<time>2014-12-04T11:06:50Z</time>
<extensions>
<tp1:TrackPointExtension>
<tp1:hr>130</tp1:hr>
</tp1:TrackPointExtension>
</extensions>
</trkpt>
<trkpt lat="46.1771205" lon="6.0909932">
<ele>418.6000000</ele>
<time>2014-12-04T11:06:55Z</time>
<extensions>
<tp1:TrackPointExtension>
<tp1:hr>131</tp1:hr>
</tp1:TrackPointExtension>
</extensions>
</trkpt>
<trkpt lat="46.1771236" lon="6.0909531">
<ele>419.0000000</ele>
<time>2014-12-04T11:06:56Z</time>
<extensions>
<tp1:TrackPointExtension>
<tp1:hr>131</tp1:hr>
</tp1:TrackPointExtension>
</extensions>
</trkpt>
<trkpt lat="46.1771292" lon="6.0909084">
<ele>419.4000000</ele>
<time>2014-12-04T11:06:57Z</time>
<extensions>
<tp1:TrackPointExtension>
<tp1:hr>130</tp1:hr>
</tp1:TrackPointExtension>
</extensions>
</trkpt>
<trkpt lat="46.1771274" lon="6.0908645">
<ele>420.0000000</ele>
<time>2014-12-04T11:06:58Z</time>
<extensions>
<tp1:TrackPointExtension>
<tp1:hr>130</tp1:hr>
</tp1:TrackPointExtension>
</extensions>
</trkpt>
<trkpt lat="46.1771280" lon="6.0908337">
<ele>420.4000000</ele>
<time>2014-12-04T11:06:59Z</time>
<extensions>
<tp1:TrackPointExtension>
<tp1:hr>130</tp1:hr>
</tp1:TrackPointExtension>
</extensions>
</trkpt>
<trkpt lat="46.1771186" lon="6.0907183">
<ele>420.4000000</ele>
<time>2014-12-04T11:07:02Z</time>
<extensions>
<tp1:TrackPointExtension>
<tp1:hr>130</tp1:hr>
</tp1:TrackPointExtension>
</extensions>
</trkpt>
<trkpt lat="46.1770947" lon="6.0905844">
<ele>420.8000000</ele>
<time>2014-12-04T11:07:05Z</time>
<extensions>
<tp1:TrackPointExtension>
<tp1:hr>131</tp1:hr>
</tp1:TrackPointExtension>
</extensions>
</trkpt>
<trkpt lat="46.1770888" lon="6.0905381">
<ele>421.2000000</ele>
<time>2014-12-04T11:07:06Z</time>
<extensions>
<tp1:TrackPointExtension>
<tp1:hr>131</tp1:hr>
</tp1:TrackPointExtension>
</extensions>
</trkpt>
<trkpt lat="46.1770818" lon="6.0904943">
<ele>421.6000000</ele>
<time>2014-12-04T11:07:07Z</time>
<extensions>
<tp1:TrackPointExtension>
<tp1:hr>131</tp1:hr>
</tp1:TrackPointExtension>
</extensions>
</trkpt>
<trkpt lat="46.1770783" lon="6.0904558">
<ele>422.0000000</ele>
<time>2014-12-04T11:07:08Z</time>
<extensions>
<tp1:TrackPointExtension>
<tp1:hr>132</tp1:hr>
</tp1:TrackPointExtension>
</extensions>
</trkpt>
<trkpt lat="46.1770700" lon="6.0904074">
<ele>422.4000000</ele>
<time>2014-12-04T11:07:09Z</time>
<extensions>
<tp1:TrackPointExtension>
<tp1:hr>131</tp1:hr>
</tp1:TrackPointExtension>
</extensions>
</trkpt>
<trkpt lat="46.1770644" lon="6.0903662">
<ele>422.4000000</ele>
<time>2014-12-04T11:07:10Z</time>
<extensions>
<tp1:TrackPointExtension>
<tp1:hr>131</tp1:hr>
</tp1:TrackPointExtension>
</extensions>
</trkpt>
<trkpt lat="46.1770744" lon="6.0900945">
<ele>422.4000000</ele>
<time>2014-12-04T11:07:17Z</time>
<extensions>
<tp1:TrackPointExtension>
<tp1:hr>132</tp1:hr>
</tp1:TrackPointExtension>
</extensions>
</trkpt>
<trkpt lat="46.1770764" lon="6.0900588">
<ele>422.8000000</ele>
<time>2014-12-04T11:07:18Z</time>
<extensions>
<tp1:TrackPointExtension>
<tp1:hr>132</tp1:hr>
</tp1:TrackPointExtension>
</extensions>
</trkpt>
<trkpt lat="46.1770767" lon="6.0900201">
<ele>423.2000000</ele>
<time>2014-12-04T11:07:19Z</time>
<extensions>
<tp1:TrackPointExtension>
<tp1:hr>133</tp1:hr>
</tp1:TrackPointExtension>
</extensions>
</trkpt>
<trkpt lat="46.1770795" lon="6.0899823">
<ele>423.8000000</ele>
<time>2014-12-04T11:07:20Z</time>
<extensions>
<tp1:TrackPointExtension>
<tp1:hr>133</tp1:hr>
</tp1:TrackPointExtension>
</extensions>
</trkpt>
<trkpt lat="46.1770739" lon="6.0898914">
<ele>424.6000000</ele>
<time>2014-12-04T11:07:22Z</time>
<extensions>
<tp1:TrackPointExtension>
<tp1:hr>133</tp1:hr>
</tp1:TrackPointExtension>
</extensions>
</trkpt>
<trkpt lat="46.1770801" lon="6.0897617">
<ele>424.6000000</ele>
<time>2014-12-04T11:07:25Z</time>
<extensions>
<tp1:TrackPointExtension>
<tp1:hr>133</tp1:hr>
</tp1:TrackPointExtension>
</extensions>
</trkpt>
<trkpt lat="46.1772178" lon="6.0894722">
<ele>424.6000000</ele>
<time>2014-12-04T11:07:32Z</time>
<extensions>
<tp1:TrackPointExtension>
<tp1:hr>132</tp1:hr>
</tp1:TrackPointExtension>
</extensions>
</trkpt>
<trkpt lat="46.1772944" lon="6.0893348">
<ele>424.6000000</ele>
<time>2014-12-04T11:07:36Z</time>
<extensions>
<tp1:TrackPointExtension>
<tp1:hr>131</tp1:hr>
</tp1:TrackPointExtension>
</extensions>
</trkpt>
<trkpt lat="46.1775045" lon="6.0890104">
<ele>424.6000000</ele>
<time>2014-12-04T11:07:45Z</time>
<extensions>
<tp1:TrackPointExtension>
<tp1:hr>129</tp1:hr>
</tp1:TrackPointExtension>
</extensions>
</trkpt>
<trkpt lat="46.1775774" lon="6.0888789">
<ele>425.0000000</ele>
<time>2014-12-04T11:07:49Z</time>
<extensions>
<tp1:TrackPointExtension>
<tp1:hr>128</tp1:hr>
</tp1:TrackPointExtension>
</extensions>
</trkpt>
<trkpt lat="46.1775962" lon="6.0888452">
<ele>425.6000000</ele>
<time>2014-12-04T11:07:50Z</time>
<extensions>
<tp1:TrackPointExtension>
<tp1:hr>127</tp1:hr>
</tp1:TrackPointExtension>
</extensions>
</trkpt>
<trkpt lat="46.1776122" lon="6.0888121">
<ele>426.0000000</ele>
<time>2014-12-04T11:07:51Z</time>
<extensions>
<tp1:TrackPointExtension>
<tp1:hr>127</tp1:hr>
</tp1:TrackPointExtension>
</extensions>
</trkpt>
<trkpt lat="46.1776312" lon="6.0887765">
<ele>426.4000000</ele>
<time>2014-12-04T11:07:52Z</time>
<extensions>
<tp1:TrackPointExtension>
<tp1:hr>127</tp1:hr>
</tp1:TrackPointExtension>
</extensions>
</trkpt>
<trkpt lat="46.1776544" lon="6.0887434">
<ele>426.8000000</ele>
<time>2014-12-04T11:07:53Z</time>
<extensions>
<tp1:TrackPointExtension>
<tp1:hr>127</tp1:hr>
</tp1:TrackPointExtension>
</extensions>
</trkpt>
<trkpt lat="46.1777851" lon="6.0885644">
<ele>426.8000000</ele>
<time>2014-12-04T11:07:58Z</time>
<extensions>
<tp1:TrackPointExtension>
<tp1:hr>127</tp1:hr>
</tp1:TrackPointExtension>
</extensions>
</trkpt>
<trkpt lat="46.1779353" lon="6.0885441">
<ele>426.8000000</ele>
<time>2014-12-04T11:08:03Z</time>
<extensions>
<tp1:TrackPointExtension>
<tp1:hr>127</tp1:hr>
</tp1:TrackPointExtension>
</extensions>
</trkpt>
<trkpt lat="46.1781444" lon="6.0886617">
<ele>426.8000000</ele>
<time>2014-12-04T11:08:10Z</time>
<extensions>
<tp1:TrackPointExtension>
<tp1:hr>126</tp1:hr>
</tp1:TrackPointExtension>
</extensions>
</trkpt>
<trkpt lat="46.1782768" lon="6.0887406">
<ele>426.8000000</ele>
<time>2014-12-04T11:08:16Z</time>
<extensions>
<tp1:TrackPointExtension>
<tp1:hr>124</tp1:hr>
</tp1:TrackPointExtension>
</extensions>
</trkpt>
<trkpt lat="46.1783738" lon="6.0887752">
<ele>426.8000000</ele>
<time>2014-12-04T11:08:23Z</time>
<extensions>
<tp1:TrackPointExtension>
<tp1:hr>122</tp1:hr>
</tp1:TrackPointExtension>
</extensions>
</trkpt>
<trkpt lat="46.1784093" lon="6.0887869">
<ele>427.2000000</ele>
<time>2014-12-04T11:08:30Z</time>
<extensions>
<tp1:TrackPointExtension>
<tp1:hr>119</tp1:hr>
</tp1:TrackPointExtension>
</extensions>
</trkpt>
<trkpt lat="46.1784110" lon="6.0887867">
<ele>427.6000000</ele>
<time>2014-12-04T11:08:31Z</time>
<extensions>
<tp1:TrackPointExtension>
<tp1:hr>119</tp1:hr>
</tp1:TrackPointExtension>
</extensions>
</trkpt>
<trkpt lat="46.1784112" lon="6.0887866">
<ele>428.0000000</ele>
<time>2014-12-04T11:08:32Z</time>
<extensions>
<tp1:TrackPointExtension>
<tp1:hr>118</tp1:hr>
</tp1:TrackPointExtension>
</extensions>
</trkpt>
<trkpt lat="46.1784112" lon="6.0887866">
<ele>428.4000000</ele>
<time>2014-12-04T11:08:33Z</time>
<extensions>
<tp1:TrackPointExtension>
<tp1:hr>118</tp1:hr>
</tp1:TrackPointExtension>
</extensions>
</trkpt>
<trkpt lat="46.1784112" lon="6.0887866">
<ele>428.8000000</ele>
<time>2014-12-04T11:08:34Z</time>
<extensions>
<tp1:TrackPointExtension>
<tp1:hr>118</tp1:hr>
</tp1:TrackPointExtension>
</extensions>
</trkpt>
<trkpt lat="46.1784109" lon="6.0887867">
<ele>428.8000000</ele>
<time>2014-12-04T11:08:43Z</time>
<extensions>
<tp1:TrackPointExtension>
<tp1:hr>115</tp1:hr>
</tp1:TrackPointExtension>
</extensions>
</trkpt>
<trkpt lat="46.1784109" lon="6.0887866">
<ele>428.8000000</ele>
<time>2014-12-04T11:08:47Z</time>
<extensions>
<tp1:TrackPointExtension>
<tp1:hr>112</tp1:hr>
</tp1:TrackPointExtension>
</extensions>
</trkpt>
<trkpt lat="46.1784720" lon="6.0887807">
<ele>428.8000000</ele>
<time>2014-12-04T11:08:50Z</time>
<extensions>
<tp1:TrackPointExtension>
<tp1:hr>113</tp1:hr>
</tp1:TrackPointExtension>
</extensions>
</trkpt>
<trkpt lat="46.1785558" lon="6.0887508">
<ele>428.8000000</ele>
<time>2014-12-04T11:08:52Z</time>
<extensions>
<tp1:TrackPointExtension>
<tp1:hr>114</tp1:hr>
</tp1:TrackPointExtension>
</extensions>
</trkpt>
<trkpt lat="46.1786298" lon="6.0886463">
<ele>428.8000000</ele>
<time>2014-12-04T11:08:54Z</time>
<extensions>
<tp1:TrackPointExtension>
<tp1:hr>115</tp1:hr>
</tp1:TrackPointExtension>
</extensions>
</trkpt>
<trkpt lat="46.1786166" lon="6.0884313">
<ele>428.8000000</ele>
<time>2014-12-04T11:08:57Z</time>
<extensions>
<tp1:TrackPointExtension>
<tp1:hr>115</tp1:hr>
</tp1:TrackPointExtension>
</extensions>
</trkpt>
<trkpt lat="46.1785965" lon="6.0877147">
<ele>428.8000000</ele>
<time>2014-12-04T11:09:07Z</time>
<extensions>
<tp1:TrackPointExtension>
<tp1:hr>113</tp1:hr>
</tp1:TrackPointExtension>
</extensions>
</trkpt>
<trkpt lat="46.1786095" lon="6.0871016">
<ele>428.8000000</ele>
<time>2014-12-04T11:09:16Z</time>
<extensions>
<tp1:TrackPointExtension>
<tp1:hr>112</tp1:hr>
</tp1:TrackPointExtension>
</extensions>
</trkpt>
<trkpt lat="46.1786284" lon="6.0869730">
<ele>428.8000000</ele>
<time>2014-12-04T11:09:18Z</time>
<extensions>
<tp1:TrackPointExtension>
<tp1:hr>112</tp1:hr>
</tp1:TrackPointExtension>
</extensions>
</trkpt>
<trkpt lat="46.1786628" lon="6.0867675">
<ele>428.8000000</ele>
<time>2014-12-04T11:09:21Z</time>
<extensions>
<tp1:TrackPointExtension>
<tp1:hr>111</tp1:hr>
</tp1:TrackPointExtension>
</extensions>
</trkpt>
<trkpt lat="46.1787185" lon="6.0863028">
<ele>428.8000000</ele>
<time>2014-12-04T11:09:28Z</time>
<extensions>
<tp1:TrackPointExtension>
<tp1:hr>112</tp1:hr>
</tp1:TrackPointExtension>
</extensions>
</trkpt>
<trkpt lat="46.1787791" lon="6.0860489">
<ele>428.8000000</ele>
<time>2014-12-04T11:09:32Z</time>
<extensions>
<tp1:TrackPointExtension>
<tp1:hr>112</tp1:hr>
</tp1:TrackPointExtension>
</extensions>
</trkpt>
<trkpt lat="46.1788294" lon="6.0858527">
<ele>428.8000000</ele>
<time>2014-12-04T11:09:35Z</time>
<extensions>
<tp1:TrackPointExtension>
<tp1:hr>112</tp1:hr>
</tp1:TrackPointExtension>
</extensions>
</trkpt>
<trkpt lat="46.1789125" lon="6.0853867">
<ele>428.8000000</ele>
<time>2014-12-04T11:09:41Z</time>
<extensions>
<tp1:TrackPointExtension>
<tp1:hr>111</tp1:hr>
</tp1:TrackPointExtension>
</extensions>
</trkpt>
<trkpt lat="46.1789497" lon="6.0852104">
<ele>428.4000000</ele>
<time>2014-12-04T11:09:43Z</time>
<extensions>
<tp1:TrackPointExtension>
<tp1:hr>111</tp1:hr>
</tp1:TrackPointExtension>
</extensions>
</trkpt>
<trkpt lat="46.1789682" lon="6.0851121">
<ele>428.0000000</ele>
<time>2014-12-04T11:09:44Z</time>
<extensions>
<tp1:TrackPointExtension>
<tp1:hr>111</tp1:hr>
</tp1:TrackPointExtension>
</extensions>
</trkpt>
<trkpt lat="46.1789873" lon="6.0850173">
<ele>427.6000000</ele>
<time>2014-12-04T11:09:45Z</time>
<extensions>
<tp1:TrackPointExtension>
<tp1:hr>111</tp1:hr>
</tp1:TrackPointExtension>
</extensions>
</trkpt>
<trkpt lat="46.1790070" lon="6.0849131">
<ele>427.2000000</ele>
<time>2014-12-04T11:09:46Z</time>
<extensions>
<tp1:TrackPointExtension>
<tp1:hr>111</tp1:hr>
</tp1:TrackPointExtension>
</extensions>
</trkpt>
<trkpt lat="46.1790378" lon="6.0848180">
<ele>426.6000000</ele>
<time>2014-12-04T11:09:47Z</time>
<extensions>
<tp1:TrackPointExtension>
<tp1:hr>111</tp1:hr>
</tp1:TrackPointExtension>
</extensions>
</trkpt>
<trkpt lat="46.1790828" lon="6.0847269">
<ele>426.0000000</ele>
<time>2014-12-04T11:09:48Z</time>
<extensions>
<tp1:TrackPointExtension>
<tp1:hr>111</tp1:hr>
</tp1:TrackPointExtension>
</extensions>
</trkpt>
<trkpt lat="46.1791331" lon="6.0846519">
<ele>425.4000000</ele>
<time>2014-12-04T11:09:49Z</time>
<extensions>
<tp1:TrackPointExtension>
<tp1:hr>110</tp1:hr>
</tp1:TrackPointExtension>
</extensions>
</trkpt>
<trkpt lat="46.1791845" lon="6.0845808">
<ele>424.8000000</ele>
<time>2014-12-04T11:09:50Z</time>
<extensions>
<tp1:TrackPointExtension>
<tp1:hr>110</tp1:hr>
</tp1:TrackPointExtension>
</extensions>
</trkpt>
<trkpt lat="46.1792876" lon="6.0844505">
<ele>424.8000000</ele>
<time>2014-12-04T11:09:52Z</time>
<extensions>
<tp1:TrackPointExtension>
<tp1:hr>108</tp1:hr>
</tp1:TrackPointExtension>
</extensions>
</trkpt>
<trkpt lat="46.1793785" lon="6.0842067">
<ele>424.8000000</ele>
<time>2014-12-04T11:09:55Z</time>
<extensions>
<tp1:TrackPointExtension>
<tp1:hr>106</tp1:hr>
</tp1:TrackPointExtension>
</extensions>
</trkpt>
<trkpt lat="46.1793817" lon="6.0841047">
<ele>424.8000000</ele>
<time>2014-12-04T11:09:56Z</time>
<extensions>
<tp1:TrackPointExtension>
<tp1:hr>105</tp1:hr>
</tp1:TrackPointExtension>
</extensions>
</trkpt>
<trkpt lat="46.1793669" lon="6.0840178">
<ele>424.8000000</ele>
<time>2014-12-04T11:09:57Z</time>
<extensions>
<tp1:TrackPointExtension>
<tp1:hr>105</tp1:hr>
</tp1:TrackPointExtension>
</extensions>
</trkpt>
<trkpt lat="46.1793540" lon="6.0839360">
<ele>424.8000000</ele>
<time>2014-12-04T11:09:58Z</time>
<extensions>
<tp1:TrackPointExtension>
<tp1:hr>105</tp1:hr>
</tp1:TrackPointExtension>
</extensions>
</trkpt>
<trkpt lat="46.1792945" lon="6.0836992">
<ele>424.8000000</ele>
<time>2014-12-04T11:10:01Z</time>
<extensions>
<tp1:TrackPointExtension>
<tp1:hr>106</tp1:hr>
</tp1:TrackPointExtension>
</extensions>
</trkpt>
<trkpt lat="46.1792904" lon="6.0834603">
<ele>424.8000000</ele>
<time>2014-12-04T11:10:04Z</time>
<extensions>
<tp1:TrackPointExtension>
<tp1:hr>109</tp1:hr>
</tp1:TrackPointExtension>
</extensions>
</trkpt>
<trkpt lat="46.1793158" lon="6.0831828">
<ele>425.2000000</ele>
<time>2014-12-04T11:10:08Z</time>
<extensions>
<tp1:TrackPointExtension>
<tp1:hr>111</tp1:hr>
</tp1:TrackPointExtension>
</extensions>
</trkpt>
<trkpt lat="46.1793230" lon="6.0831196">
<ele>425.6000000</ele>
<time>2014-12-04T11:10:09Z</time>
<extensions>
<tp1:TrackPointExtension>
<tp1:hr>111</tp1:hr>
</tp1:TrackPointExtension>
</extensions>
</trkpt>
<trkpt lat="46.1793315" lon="6.0830521">
<ele>426.2000000</ele>
<time>2014-12-04T11:10:10Z</time>
<extensions>
<tp1:TrackPointExtension>
<tp1:hr>111</tp1:hr>
</tp1:TrackPointExtension>
</extensions>
</trkpt>
<trkpt lat="46.1793385" lon="6.0829784">
<ele>426.6000000</ele>
<time>2014-12-04T11:10:11Z</time>
<extensions>
<tp1:TrackPointExtension>
<tp1:hr>112</tp1:hr>
</tp1:TrackPointExtension>
</extensions>
</trkpt>
<trkpt lat="46.1793466" lon="6.0829180">
<ele>427.0000000</ele>
<time>2014-12-04T11:10:12Z</time>
<extensions>
<tp1:TrackPointExtension>
<tp1:hr>112</tp1:hr>
</tp1:TrackPointExtension>
</extensions>
</trkpt>
<trkpt lat="46.1793719" lon="6.0827148">
<ele>427.4000000</ele>
<time>2014-12-04T11:10:15Z</time>
<extensions>
<tp1:TrackPointExtension>
<tp1:hr>114</tp1:hr>
</tp1:TrackPointExtension>
</extensions>
</trkpt>
<trkpt lat="46.1793870" lon="6.0826466">
<ele>427.8000000</ele>
<time>2014-12-04T11:10:16Z</time>
<extensions>
<tp1:TrackPointExtension>
<tp1:hr>114</tp1:hr>
</tp1:TrackPointExtension>
</extensions>
</trkpt>
<trkpt lat="46.1793974" lon="6.0825899">
<ele>428.4000000</ele>
<time>2014-12-04T11:10:17Z</time>
<extensions>
<tp1:TrackPointExtension>
<tp1:hr>115</tp1:hr>
</tp1:TrackPointExtension>
</extensions>
</trkpt>
<trkpt lat="46.1794062" lon="6.0825258">
<ele>428.8000000</ele>
<time>2014-12-04T11:10:18Z</time>
<extensions>
<tp1:TrackPointExtension>
<tp1:hr>115</tp1:hr>
</tp1:TrackPointExtension>
</extensions>
</trkpt>
<trkpt lat="46.1794132" lon="6.0824621">
<ele>429.2000000</ele>
<time>2014-12-04T11:10:19Z</time>
<extensions>
<tp1:TrackPointExtension>
<tp1:hr>116</tp1:hr>
</tp1:TrackPointExtension>
</extensions>
</trkpt>
<trkpt lat="46.1794218" lon="6.0823959">
<ele>429.2000000</ele>
<time>2014-12-04T11:10:20Z</time>
<extensions>
<tp1:TrackPointExtension>
<tp1:hr>116</tp1:hr>
</tp1:TrackPointExtension>
</extensions>
</trkpt>
<trkpt lat="46.1794444" lon="6.0822643">
<ele>429.2000000</ele>
<time>2014-12-04T11:10:22Z</time>
<extensions>
<tp1:TrackPointExtension>
<tp1:hr>117</tp1:hr>
</tp1:TrackPointExtension>
</extensions>
</trkpt>
<trkpt lat="46.1795087" lon="6.0819017">
<ele>429.2000000</ele>
<time>2014-12-04T11:10:27Z</time>
<extensions>
<tp1:TrackPointExtension>
<tp1:hr>118</tp1:hr>
</tp1:TrackPointExtension>
</extensions>
</trkpt>
<trkpt lat="46.1796191" lon="6.0811707">
<ele>429.2000000</ele>
<time>2014-12-04T11:10:37Z</time>
<extensions>
<tp1:TrackPointExtension>
<tp1:hr>118</tp1:hr>
</tp1:TrackPointExtension>
</extensions>
</trkpt>
<trkpt lat="46.1796765" lon="6.0806113">
<ele>429.2000000</ele>
<time>2014-12-04T11:10:45Z</time>
<extensions>
<tp1:TrackPointExtension>
<tp1:hr>119</tp1:hr>
</tp1:TrackPointExtension>
</extensions>
</trkpt>
<trkpt lat="46.1797231" lon="6.0799599">
<ele>429.2000000</ele>
<time>2014-12-04T11:10:54Z</time>
<extensions>
<tp1:TrackPointExtension>
<tp1:hr>119</tp1:hr>
</tp1:TrackPointExtension>
</extensions>
</trkpt>
<trkpt lat="46.1797487" lon="6.0794049">
<ele>429.2000000</ele>
<time>2014-12-04T11:11:02Z</time>
<extensions>
<tp1:TrackPointExtension>
<tp1:hr>118</tp1:hr>
</tp1:TrackPointExtension>
</extensions>
</trkpt>
<trkpt lat="46.1797592" lon="6.0790013">
<ele>429.2000000</ele>
<time>2014-12-04T11:11:08Z</time>
<extensions>
<tp1:TrackPointExtension>
<tp1:hr>117</tp1:hr>
</tp1:TrackPointExtension>
</extensions>
</trkpt>
<trkpt lat="46.1797840" lon="6.0788609">
<ele>429.2000000</ele>
<time>2014-12-04T11:11:10Z</time>
<extensions>
<tp1:TrackPointExtension>
<tp1:hr>117</tp1:hr>
</tp1:TrackPointExtension>
</extensions>
</trkpt>
<trkpt lat="46.1797591" lon="6.0785438">
<ele>429.2000000</ele>
<time>2014-12-04T11:11:15Z</time>
<extensions>
<tp1:TrackPointExtension>
<tp1:hr>116</tp1:hr>
</tp1:TrackPointExtension>
</extensions>
</trkpt>
<trkpt lat="46.1796975" lon="6.0783705">
<ele>429.2000000</ele>
<time>2014-12-04T11:11:18Z</time>
<extensions>
<tp1:TrackPointExtension>
<tp1:hr>116</tp1:hr>
</tp1:TrackPointExtension>
</extensions>
</trkpt>
<trkpt lat="46.1796928" lon="6.0783020">
<ele>429.2000000</ele>
<time>2014-12-04T11:11:19Z</time>
<extensions>
<tp1:TrackPointExtension>
<tp1:hr>117</tp1:hr>
</tp1:TrackPointExtension>
</extensions>
</trkpt>
<trkpt lat="46.1796818" lon="6.0781587">
<ele>429.6000000</ele>
<time>2014-12-04T11:11:21Z</time>
<extensions>
<tp1:TrackPointExtension>
<tp1:hr>117</tp1:hr>
</tp1:TrackPointExtension>
</extensions>
</trkpt>
<trkpt lat="46.1796740" lon="6.0780842">
<ele>430.2000000</ele>
<time>2014-12-04T11:11:22Z</time>
<extensions>
<tp1:TrackPointExtension>
<tp1:hr>117</tp1:hr>
</tp1:TrackPointExtension>
</extensions>
</trkpt>
<trkpt lat="46.1796669" lon="6.0780129">
<ele>430.6000000</ele>
<time>2014-12-04T11:11:23Z</time>
<extensions>
<tp1:TrackPointExtension>
<tp1:hr>117</tp1:hr>
</tp1:TrackPointExtension>
</extensions>
</trkpt>
<trkpt lat="46.1796615" lon="6.0779397">
<ele>431.0000000</ele>
<time>2014-12-04T11:11:24Z</time>
<extensions>
<tp1:TrackPointExtension>
<tp1:hr>118</tp1:hr>
</tp1:TrackPointExtension>
</extensions>
</trkpt>
<trkpt lat="46.1796551" lon="6.0778691">
<ele>431.4000000</ele>
<time>2014-12-04T11:11:25Z</time>
<extensions>
<tp1:TrackPointExtension>
<tp1:hr>118</tp1:hr>
</tp1:TrackPointExtension>
</extensions>
</trkpt>
<trkpt lat="46.1796324" lon="6.0777146">
<ele>431.4000000</ele>
<time>2014-12-04T11:11:27Z</time>
<extensions>
<tp1:TrackPointExtension>
<tp1:hr>118</tp1:hr>
</tp1:TrackPointExtension>
</extensions>
</trkpt>
<trkpt lat="46.1795663" lon="6.0770367">
<ele>431.4000000</ele>
<time>2014-12-04T11:11:36Z</time>
<extensions>
<tp1:TrackPointExtension>
<tp1:hr>115</tp1:hr>
</tp1:TrackPointExtension>
</extensions>
</trkpt>
<trkpt lat="46.1795444" lon="6.0768880">
<ele>431.4000000</ele>
<time>2014-12-04T11:11:38Z</time>
<extensions>
<tp1:TrackPointExtension>
<tp1:hr>115</tp1:hr>
</tp1:TrackPointExtension>
</extensions>
</trkpt>
<trkpt lat="46.1794025" lon="6.0761612">
<ele>431.4000000</ele>
<time>2014-12-04T11:11:48Z</time>
<extensions>
<tp1:TrackPointExtension>
<tp1:hr>115</tp1:hr>
</tp1:TrackPointExtension>
</extensions>
</trkpt>
<trkpt lat="46.1791888" lon="6.0754695">
<ele>431.4000000</ele>
<time>2014-12-04T11:11:58Z</time>
<extensions>
<tp1:TrackPointExtension>
<tp1:hr>115</tp1:hr>
</tp1:TrackPointExtension>
</extensions>
</trkpt>
<trkpt lat="46.1789211" lon="6.0747158">
<ele>431.4000000</ele>
<time>2014-12-04T11:12:09Z</time>
<extensions>
<tp1:TrackPointExtension>
<tp1:hr>115</tp1:hr>
</tp1:TrackPointExtension>
</extensions>
</trkpt>
<trkpt lat="46.1786574" lon="6.0739872">
<ele>431.4000000</ele>
<time>2014-12-04T11:12:19Z</time>
<extensions>
<tp1:TrackPointExtension>
<tp1:hr>115</tp1:hr>
</tp1:TrackPointExtension>
</extensions>
</trkpt>
<trkpt lat="46.1786308" lon="6.0739135">
<ele>431.4000000</ele>
<time>2014-12-04T11:12:20Z</time>
<extensions>
<tp1:TrackPointExtension>
<tp1:hr>115</tp1:hr>
</tp1:TrackPointExtension>
</extensions>
</trkpt>
<trkpt lat="46.1784736" lon="6.0734838">
<ele>431.0000000</ele>
<time>2014-12-04T11:12:26Z</time>
<extensions>
<tp1:TrackPointExtension>
<tp1:hr>114</tp1:hr>
</tp1:TrackPointExtension>
</extensions>
</trkpt>
<trkpt lat="46.1784491" lon="6.0734205">
<ele>430.6000000</ele>
<time>2014-12-04T11:12:27Z</time>
<extensions>
<tp1:TrackPointExtension>
<tp1:hr>114</tp1:hr>
</tp1:TrackPointExtension>
</extensions>
</trkpt>
<trkpt lat="46.1784219" lon="6.0733503">
<ele>430.2000000</ele>
<time>2014-12-04T11:12:28Z</time>
<extensions>
<tp1:TrackPointExtension>
<tp1:hr>114</tp1:hr>
</tp1:TrackPointExtension>
</extensions>
</trkpt>
<trkpt lat="46.1783953" lon="6.0732798">
<ele>429.8000000</ele>
<time>2014-12-04T11:12:29Z</time>
<extensions>
<tp1:TrackPointExtension>
<tp1:hr>114</tp1:hr>
</tp1:TrackPointExtension>
</extensions>
</trkpt>
<trkpt lat="46.1783655" lon="6.0732076">
<ele>429.4000000</ele>
<time>2014-12-04T11:12:30Z</time>
<extensions>
<tp1:TrackPointExtension>
<tp1:hr>114</tp1:hr>
</tp1:TrackPointExtension>
</extensions>
</trkpt>
<trkpt lat="46.1781939" lon="6.0726910">
<ele>429.4000000</ele>
<time>2014-12-04T11:12:37Z</time>
<extensions>
<tp1:TrackPointExtension>
<tp1:hr>114</tp1:hr>
</tp1:TrackPointExtension>
</extensions>
</trkpt>
<trkpt lat="46.1781957" lon="6.0724267">
<ele>429.4000000</ele>
<time>2014-12-04T11:12:41Z</time>
<extensions>
<tp1:TrackPointExtension>
<tp1:hr>113</tp1:hr>
</tp1:TrackPointExtension>
</extensions>
</trkpt>
<trkpt lat="46.1781073" lon="6.0722720">
<ele>429.4000000</ele>
<time>2014-12-04T11:12:45Z</time>
<extensions>
<tp1:TrackPointExtension>
<tp1:hr>112</tp1:hr>
</tp1:TrackPointExtension>
</extensions>
</trkpt>
<trkpt lat="46.1780763" lon="6.0722375">
<ele>429.4000000</ele>
<time>2014-12-04T11:12:46Z</time>
<extensions>
<tp1:TrackPointExtension>
<tp1:hr>112</tp1:hr>
</tp1:TrackPointExtension>
</extensions>
</trkpt>
<trkpt lat="46.1779185" lon="6.0718994">
<ele>429.4000000</ele>
<time>2014-12-04T11:12:52Z</time>
<extensions>
<tp1:TrackPointExtension>
<tp1:hr>114</tp1:hr>
</tp1:TrackPointExtension>
</extensions>
</trkpt>
<trkpt lat="46.1777120" lon="6.0713336">
<ele>429.4000000</ele>
<time>2014-12-04T11:13:00Z</time>
<extensions>
<tp1:TrackPointExtension>
<tp1:hr>117</tp1:hr>
</tp1:TrackPointExtension>
</extensions>
</trkpt>
<trkpt lat="46.1776580" lon="6.0711992">
<ele>429.4000000</ele>
<time>2014-12-04T11:13:02Z</time>
<extensions>
<tp1:TrackPointExtension>
<tp1:hr>117</tp1:hr>
</tp1:TrackPointExtension>
</extensions>
</trkpt>
<trkpt lat="46.1774087" lon="6.0705094">
<ele>429.4000000</ele>
<time>2014-12-04T11:13:12Z</time>
<extensions>
<tp1:TrackPointExtension>
<tp1:hr>115</tp1:hr>
</tp1:TrackPointExtension>
</extensions>
</trkpt>
<trkpt lat="46.1773106" lon="6.0702434">
<ele>429.4000000</ele>
<time>2014-12-04T11:13:16Z</time>
<extensions>
<tp1:TrackPointExtension>
<tp1:hr>115</tp1:hr>
</tp1:TrackPointExtension>
</extensions>
</trkpt>
<trkpt lat="46.1770593" lon="6.0695171">
<ele>429.4000000</ele>
<time>2014-12-04T11:13:27Z</time>
<extensions>
<tp1:TrackPointExtension>
<tp1:hr>114</tp1:hr>
</tp1:TrackPointExtension>
</extensions>
</trkpt>
<trkpt lat="46.1770407" lon="6.0694597">
<ele>429.4000000</ele>
<time>2014-12-04T11:13:28Z</time>
<extensions>
<tp1:TrackPointExtension>
<tp1:hr>115</tp1:hr>
</tp1:TrackPointExtension>
</extensions>
</trkpt>
<trkpt lat="46.1769324" lon="6.0691712">
<ele>429.4000000</ele>
<time>2014-12-04T11:13:34Z</time>
<extensions>
<tp1:TrackPointExtension>
<tp1:hr>114</tp1:hr>
</tp1:TrackPointExtension>
</extensions>
</trkpt>
<trkpt lat="46.1770504" lon="6.0689035">
<ele>429.4000000</ele>
<time>2014-12-04T11:13:40Z</time>
<extensions>
<tp1:TrackPointExtension>
<tp1:hr>114</tp1:hr>
</tp1:TrackPointExtension>
</extensions>
</trkpt>
<trkpt lat="46.1771316" lon="6.0687582">
<ele>429.8000000</ele>
<time>2014-12-04T11:13:43Z</time>
<extensions>
<tp1:TrackPointExtension>
<tp1:hr>115</tp1:hr>
</tp1:TrackPointExtension>
</extensions>
</trkpt>
<trkpt lat="46.1771919" lon="6.0686557">
<ele>430.2000000</ele>
<time>2014-12-04T11:13:45Z</time>
<extensions>
<tp1:TrackPointExtension>
<tp1:hr>115</tp1:hr>
</tp1:TrackPointExtension>
</extensions>
</trkpt>
<trkpt lat="46.1772225" lon="6.0686060">
<ele>430.6000000</ele>
<time>2014-12-04T11:13:46Z</time>
<extensions>
<tp1:TrackPointExtension>
<tp1:hr>116</tp1:hr>
</tp1:TrackPointExtension>
</extensions>
</trkpt>
<trkpt lat="46.1772546" lon="6.0685527">
<ele>431.0000000</ele>
<time>2014-12-04T11:13:47Z</time>
<extensions>
<tp1:TrackPointExtension>
<tp1:hr>116</tp1:hr>
</tp1:TrackPointExtension>
</extensions>
</trkpt>
<trkpt lat="46.1772860" lon="6.0685008">
<ele>431.4000000</ele>
<time>2014-12-04T11:13:48Z</time>
<extensions>
<tp1:TrackPointExtension>
<tp1:hr>116</tp1:hr>
</tp1:TrackPointExtension>
</extensions>
</trkpt>
<trkpt lat="46.1774112" lon="6.0682956">
<ele>431.4000000</ele>
<time>2014-12-04T11:13:52Z</time>
<extensions>
<tp1:TrackPointExtension>
<tp1:hr>117</tp1:hr>
</tp1:TrackPointExtension>
</extensions>
</trkpt>
<trkpt lat="46.1776852" lon="6.0677859">
<ele>431.4000000</ele>
<time>2014-12-04T11:14:02Z</time>
<extensions>
<tp1:TrackPointExtension>
<tp1:hr>119</tp1:hr>
</tp1:TrackPointExtension>
</extensions>
</trkpt>
<trkpt lat="46.1779304" lon="6.0672953">
<ele>431.4000000</ele>
<time>2014-12-04T11:14:11Z</time>
<extensions>
<tp1:TrackPointExtension>
<tp1:hr>117</tp1:hr>
</tp1:TrackPointExtension>
</extensions>
</trkpt>
<trkpt lat="46.1781336" lon="6.0668695">
<ele>431.0000000</ele>
<time>2014-12-04T11:14:16Z</time>
<extensions>
<tp1:TrackPointExtension>
<tp1:hr>116</tp1:hr>
</tp1:TrackPointExtension>
</extensions>
</trkpt>
<trkpt lat="46.1781837" lon="6.0667675">
<ele>430.4000000</ele>
<time>2014-12-04T11:14:17Z</time>
<extensions>
<tp1:TrackPointExtension>
<tp1:hr>116</tp1:hr>
</tp1:TrackPointExtension>
</extensions>
</trkpt>
<trkpt lat="46.1782349" lon="6.0666575">
<ele>429.8000000</ele>
<time>2014-12-04T11:14:18Z</time>
<extensions>
<tp1:TrackPointExtension>
<tp1:hr>115</tp1:hr>
</tp1:TrackPointExtension>
</extensions>
</trkpt>
<trkpt lat="46.1782880" lon="6.0665388">
<ele>429.0000000</ele>
<time>2014-12-04T11:14:19Z</time>
<extensions>
<tp1:TrackPointExtension>
<tp1:hr>115</tp1:hr>
</tp1:TrackPointExtension>
</extensions>
</trkpt>
<trkpt lat="46.1783418" lon="6.0664191">
<ele>428.2000000</ele>
<time>2014-12-04T11:14:20Z</time>
<extensions>
<tp1:TrackPointExtension>
<tp1:hr>114</tp1:hr>
</tp1:TrackPointExtension>
</extensions>
</trkpt>
<trkpt lat="46.1783984" lon="6.0662931">
<ele>427.2000000</ele>
<time>2014-12-04T11:14:21Z</time>
<extensions>
<tp1:TrackPointExtension>
<tp1:hr>113</tp1:hr>
</tp1:TrackPointExtension>
</extensions>
</trkpt>
<trkpt lat="46.1784548" lon="6.0661655">
<ele>426.2000000</ele>
<time>2014-12-04T11:14:22Z</time>
<extensions>
<tp1:TrackPointExtension>
<tp1:hr>113</tp1:hr>
</tp1:TrackPointExtension>
</extensions>
</trkpt>
<trkpt lat="46.1785115" lon="6.0660410">
<ele>425.4000000</ele>
<time>2014-12-04T11:14:23Z</time>
<extensions>
<tp1:TrackPointExtension>
<tp1:hr>112</tp1:hr>
</tp1:TrackPointExtension>
</extensions>
</trkpt>
<trkpt lat="46.1785691" lon="6.0659127">
<ele>424.4000000</ele>
<time>2014-12-04T11:14:24Z</time>
<extensions>
<tp1:TrackPointExtension>
<tp1:hr>112</tp1:hr>
</tp1:TrackPointExtension>
</extensions>
</trkpt>
<trkpt lat="46.1786244" lon="6.0657810">
<ele>423.4000000</ele>
<time>2014-12-04T11:14:25Z</time>
<extensions>
<tp1:TrackPointExtension>
<tp1:hr>111</tp1:hr>
</tp1:TrackPointExtension>
</extensions>
</trkpt>
<trkpt lat="46.1786745" lon="6.0656532">
<ele>422.6000000</ele>
<time>2014-12-04T11:14:26Z</time>
<extensions>
<tp1:TrackPointExtension>
<tp1:hr>111</tp1:hr>
</tp1:TrackPointExtension>
</extensions>
</trkpt>
<trkpt lat="46.1787201" lon="6.0655379">
<ele>421.8000000</ele>
<time>2014-12-04T11:14:27Z</time>
<extensions>
<tp1:TrackPointExtension>
<tp1:hr>110</tp1:hr>
</tp1:TrackPointExtension>
</extensions>
</trkpt>
<trkpt lat="46.1787654" lon="6.0654216">
<ele>420.8000000</ele>
<time>2014-12-04T11:14:28Z</time>
<extensions>
<tp1:TrackPointExtension>
<tp1:hr>110</tp1:hr>
</tp1:TrackPointExtension>
</extensions>
</trkpt>
<trkpt lat="46.1788076" lon="6.0653155">
<ele>420.2000000</ele>
<time>2014-12-04T11:14:29Z</time>
<extensions>
<tp1:TrackPointExtension>
<tp1:hr>109</tp1:hr>
</tp1:TrackPointExtension>
</extensions>
</trkpt>
<trkpt lat="46.1788526" lon="6.0652088">
<ele>419.6000000</ele>
<time>2014-12-04T11:14:30Z</time>
<extensions>
<tp1:TrackPointExtension>
<tp1:hr>109</tp1:hr>
</tp1:TrackPointExtension>
</extensions>
</trkpt>
<trkpt lat="46.1788936" lon="6.0651110">
<ele>419.0000000</ele>
<time>2014-12-04T11:14:31Z</time>
<extensions>
<tp1:TrackPointExtension>
<tp1:hr>108</tp1:hr>
</tp1:TrackPointExtension>
</extensions>
</trkpt>
<trkpt lat="46.1789318" lon="6.0650182">
<ele>418.4000000</ele>
<time>2014-12-04T11:14:32Z</time>
<extensions>
<tp1:TrackPointExtension>
<tp1:hr>107</tp1:hr>
</tp1:TrackPointExtension>
</extensions>
</trkpt>
<trkpt lat="46.1789662" lon="6.0649341">
<ele>417.8000000</ele>
<time>2014-12-04T11:14:33Z</time>
<extensions>
<tp1:TrackPointExtension>
<tp1:hr>107</tp1:hr>
</tp1:TrackPointExtension>
</extensions>
</trkpt>
<trkpt lat="46.1789955" lon="6.0648602">
<ele>417.8000000</ele>
<time>2014-12-04T11:14:34Z</time>
<extensions>
<tp1:TrackPointExtension>
<tp1:hr>106</tp1:hr>
</tp1:TrackPointExtension>
</extensions>
</trkpt>
<trkpt lat="46.1791195" lon="6.0645476">
<ele>417.8000000</ele>
<time>2014-12-04T11:14:39Z</time>
<extensions>
<tp1:TrackPointExtension>
<tp1:hr>104</tp1:hr>
</tp1:TrackPointExtension>
</extensions>
</trkpt>
<trkpt lat="46.1791552" lon="6.0644599">
<ele>417.4000000</ele>
<time>2014-12-04T11:14:41Z</time>
<extensions>
<tp1:TrackPointExtension>
<tp1:hr>103</tp1:hr>
</tp1:TrackPointExtension>
</extensions>
</trkpt>
<trkpt lat="46.1791771" lon="6.0644099">
<ele>417.0000000</ele>
<time>2014-12-04T11:14:42Z</time>
<extensions>
<tp1:TrackPointExtension>
<tp1:hr>103</tp1:hr>
</tp1:TrackPointExtension>
</extensions>
</trkpt>
<trkpt lat="46.1792015" lon="6.0643551">
<ele>416.6000000</ele>
<time>2014-12-04T11:14:43Z</time>
<extensions>
<tp1:TrackPointExtension>
<tp1:hr>104</tp1:hr>
</tp1:TrackPointExtension>
</extensions>
</trkpt>
<trkpt lat="46.1792251" lon="6.0642959">
<ele>416.2000000</ele>
<time>2014-12-04T11:14:44Z</time>
<extensions>
<tp1:TrackPointExtension>
<tp1:hr>104</tp1:hr>
</tp1:TrackPointExtension>
</extensions>
</trkpt>
<trkpt lat="46.1792497" lon="6.0642320">
<ele>415.8000000</ele>
<time>2014-12-04T11:14:45Z</time>
<extensions>
<tp1:TrackPointExtension>
<tp1:hr>105</tp1:hr>
</tp1:TrackPointExtension>
</extensions>
</trkpt>
<trkpt lat="46.1792759" lon="6.0641629">
<ele>415.8000000</ele>
<time>2014-12-04T11:14:46Z</time>
<extensions>
<tp1:TrackPointExtension>
<tp1:hr>105</tp1:hr>
</tp1:TrackPointExtension>
</extensions>
</trkpt>
<trkpt lat="46.1793179" lon="6.0640194">
<ele>415.8000000</ele>
<time>2014-12-04T11:14:48Z</time>
<extensions>
<tp1:TrackPointExtension>
<tp1:hr>107</tp1:hr>
</tp1:TrackPointExtension>
</extensions>
</trkpt>
<trkpt lat="46.1793402" lon="6.0639448">
<ele>415.4000000</ele>
<time>2014-12-04T11:14:49Z</time>
<extensions>
<tp1:TrackPointExtension>
<tp1:hr>107</tp1:hr>
</tp1:TrackPointExtension>
</extensions>
</trkpt>
<trkpt lat="46.1793608" lon="6.0638687">
<ele>415.0000000</ele>
<time>2014-12-04T11:14:50Z</time>
<extensions>
<tp1:TrackPointExtension>
<tp1:hr>107</tp1:hr>
</tp1:TrackPointExtension>
</extensions>
</trkpt>
<trkpt lat="46.1793834" lon="6.0637868">
<ele>414.6000000</ele>
<time>2014-12-04T11:14:51Z</time>
<extensions>
<tp1:TrackPointExtension>
<tp1:hr>107</tp1:hr>
</tp1:TrackPointExtension>
</extensions>
</trkpt>
<trkpt lat="46.1794048" lon="6.0637031">
<ele>414.2000000</ele>
<time>2014-12-04T11:14:52Z</time>
<extensions>
<tp1:TrackPointExtension>
<tp1:hr>107</tp1:hr>
</tp1:TrackPointExtension>
</extensions>
</trkpt>
<trkpt lat="46.1794256" lon="6.0636177">
<ele>413.6000000</ele>
<time>2014-12-04T11:14:53Z</time>
<extensions>
<tp1:TrackPointExtension>
<tp1:hr>107</tp1:hr>
</tp1:TrackPointExtension>
</extensions>
</trkpt>
<trkpt lat="46.1796203" lon="6.0628818">
<ele>413.6000000</ele>
<time>2014-12-04T11:15:01Z</time>
<extensions>
<tp1:TrackPointExtension>
<tp1:hr>108</tp1:hr>
</tp1:TrackPointExtension>
</extensions>
</trkpt>
<trkpt lat="46.1798244" lon="6.0621504">
<ele>413.6000000</ele>
<time>2014-12-04T11:15:08Z</time>
<extensions>
<tp1:TrackPointExtension>
<tp1:hr>111</tp1:hr>
</tp1:TrackPointExtension>
</extensions>
</trkpt>
<trkpt lat="46.1799415" lon="6.0617377">
<ele>413.6000000</ele>
<time>2014-12-04T11:15:12Z</time>
<extensions>
<tp1:TrackPointExtension>
<tp1:hr>113</tp1:hr>
</tp1:TrackPointExtension>
</extensions>
</trkpt>
<trkpt lat="46.1800332" lon="6.0614355">
<ele>413.6000000</ele>
<time>2014-12-04T11:15:15Z</time>
<extensions>
<tp1:TrackPointExtension>
<tp1:hr>114</tp1:hr>
</tp1:TrackPointExtension>
</extensions>
</trkpt>
<trkpt lat="46.1801365" lon="6.0610403">
<ele>413.2000000</ele>
<time>2014-12-04T11:15:19Z</time>
<extensions>
<tp1:TrackPointExtension>
<tp1:hr>116</tp1:hr>
</tp1:TrackPointExtension>
</extensions>
</trkpt>
<trkpt lat="46.1801620" lon="6.0609432">
<ele>412.8000000</ele>
<time>2014-12-04T11:15:21Z</time>
<extensions>
<tp1:TrackPointExtension>
<tp1:hr>117</tp1:hr>
</tp1:TrackPointExtension>
</extensions>
</trkpt>
<trkpt lat="46.1801866" lon="6.0608484">
<ele>412.4000000</ele>
<time>2014-12-04T11:15:22Z</time>
<extensions>
<tp1:TrackPointExtension>
<tp1:hr>116</tp1:hr>
</tp1:TrackPointExtension>
</extensions>
</trkpt>
<trkpt lat="46.1802136" lon="6.0607552">
<ele>411.8000000</ele>
<time>2014-12-04T11:15:23Z</time>
<extensions>
<tp1:TrackPointExtension>
<tp1:hr>117</tp1:hr>
</tp1:TrackPointExtension>
</extensions>
</trkpt>
<trkpt lat="46.1802420" lon="6.0606528">
<ele>411.4000000</ele>
<time>2014-12-04T11:15:24Z</time>
<extensions>
<tp1:TrackPointExtension>
<tp1:hr>116</tp1:hr>
</tp1:TrackPointExtension>
</extensions>
</trkpt>
<trkpt lat="46.1803846" lon="6.0601434">
<ele>411.4000000</ele>
<time>2014-12-04T11:15:29Z</time>
<extensions>
<tp1:TrackPointExtension>
<tp1:hr>117</tp1:hr>
</tp1:TrackPointExtension>
</extensions>
</trkpt>
<trkpt lat="46.1805556" lon="6.0595301">
<ele>411.0000000</ele>
<time>2014-12-04T11:15:35Z</time>
<extensions>
<tp1:TrackPointExtension>
<tp1:hr>118</tp1:hr>
</tp1:TrackPointExtension>
</extensions>
</trkpt>
<trkpt lat="46.1805864" lon="6.0594205">
<ele>410.6000000</ele>
<time>2014-12-04T11:15:36Z</time>
<extensions>
<tp1:TrackPointExtension>
<tp1:hr>118</tp1:hr>
</tp1:TrackPointExtension>
</extensions>
</trkpt>
<trkpt lat="46.1806192" lon="6.0593146">
<ele>410.2000000</ele>
<time>2014-12-04T11:15:37Z</time>
<extensions>
<tp1:TrackPointExtension>
<tp1:hr>118</tp1:hr>
</tp1:TrackPointExtension>
</extensions>
</trkpt>
<trkpt lat="46.1806502" lon="6.0592010">
<ele>409.8000000</ele>
<time>2014-12-04T11:15:38Z</time>
<extensions>
<tp1:TrackPointExtension>
<tp1:hr>118</tp1:hr>
</tp1:TrackPointExtension>
</extensions>
</trkpt>
<trkpt lat="46.1806826" lon="6.0590890">
<ele>409.4000000</ele>
<time>2014-12-04T11:15:39Z</time>
<extensions>
<tp1:TrackPointExtension>
<tp1:hr>118</tp1:hr>
</tp1:TrackPointExtension>
</extensions>
</trkpt>
<trkpt lat="46.1807149" lon="6.0589744">
<ele>409.0000000</ele>
<time>2014-12-04T11:15:40Z</time>
<extensions>
<tp1:TrackPointExtension>
<tp1:hr>119</tp1:hr>
</tp1:TrackPointExtension>
</extensions>
</trkpt>
<trkpt lat="46.1807481" lon="6.0588562">
<ele>408.4000000</ele>
<time>2014-12-04T11:15:41Z</time>
<extensions>
<tp1:TrackPointExtension>
<tp1:hr>119</tp1:hr>
</tp1:TrackPointExtension>
</extensions>
</trkpt>
<trkpt lat="46.1807844" lon="6.0587422">
<ele>408.0000000</ele>
<time>2014-12-04T11:15:42Z</time>
<extensions>
<tp1:TrackPointExtension>
<tp1:hr>119</tp1:hr>
</tp1:TrackPointExtension>
</extensions>
</trkpt>
<trkpt lat="46.1808195" lon="6.0586243">
<ele>407.6000000</ele>
<time>2014-12-04T11:15:43Z</time>
<extensions>
<tp1:TrackPointExtension>
<tp1:hr>118</tp1:hr>
</tp1:TrackPointExtension>
</extensions>
</trkpt>
<trkpt lat="46.1808514" lon="6.0585061">
<ele>407.2000000</ele>
<time>2014-12-04T11:15:44Z</time>
<extensions>
<tp1:TrackPointExtension>
<tp1:hr>118</tp1:hr>
</tp1:TrackPointExtension>
</extensions>
</trkpt>
<trkpt lat="46.1808812" lon="6.0583890">
<ele>406.8000000</ele>
<time>2014-12-04T11:15:45Z</time>
<extensions>
<tp1:TrackPointExtension>
<tp1:hr>118</tp1:hr>
</tp1:TrackPointExtension>
</extensions>
</trkpt>
<trkpt lat="46.1809119" lon="6.0582711">
<ele>406.4000000</ele>
<time>2014-12-04T11:15:46Z</time>
<extensions>
<tp1:TrackPointExtension>
<tp1:hr>118</tp1:hr>
</tp1:TrackPointExtension>
</extensions>
</trkpt>
<trkpt lat="46.1809423" lon="6.0581617">
<ele>406.0000000</ele>
<time>2014-12-04T11:15:47Z</time>
<extensions>
<tp1:TrackPointExtension>
<tp1:hr>118</tp1:hr>
</tp1:TrackPointExtension>
</extensions>
</trkpt>
<trkpt lat="46.1809729" lon="6.0580535">
<ele>405.6000000</ele>
<time>2014-12-04T11:15:48Z</time>
<extensions>
<tp1:TrackPointExtension>
<tp1:hr>117</tp1:hr>
</tp1:TrackPointExtension>
</extensions>
</trkpt>
<trkpt lat="46.1810024" lon="6.0579431">
<ele>405.2000000</ele>
<time>2014-12-04T11:15:49Z</time>
<extensions>
<tp1:TrackPointExtension>
<tp1:hr>117</tp1:hr>
</tp1:TrackPointExtension>
</extensions>
</trkpt>
<trkpt lat="46.1811425" lon="6.0574459">
<ele>405.2000000</ele>
<time>2014-12-04T11:15:54Z</time>
<extensions>
<tp1:TrackPointExtension>
<tp1:hr>116</tp1:hr>
</tp1:TrackPointExtension>
</extensions>
</trkpt>
<trkpt lat="46.1813124" lon="6.0568103">
<ele>405.2000000</ele>
<time>2014-12-04T11:16:00Z</time>
<extensions>
<tp1:TrackPointExtension>
<tp1:hr>119</tp1:hr>
</tp1:TrackPointExtension>
</extensions>
</trkpt>
<trkpt lat="46.1813822" lon="6.0566126">
<ele>404.8000000</ele>
<time>2014-12-04T11:16:02Z</time>
<extensions>
<tp1:TrackPointExtension>
<tp1:hr>117</tp1:hr>
</tp1:TrackPointExtension>
</extensions>
</trkpt>
<trkpt lat="46.1814215" lon="6.0565144">
<ele>404.2000000</ele>
<time>2014-12-04T11:16:03Z</time>
<extensions>
<tp1:TrackPointExtension>
<tp1:hr>116</tp1:hr>
</tp1:TrackPointExtension>
</extensions>
</trkpt>
<trkpt lat="46.1814625" lon="6.0564185">
<ele>403.8000000</ele>
<time>2014-12-04T11:16:04Z</time>
<extensions>
<tp1:TrackPointExtension>
<tp1:hr>116</tp1:hr>
</tp1:TrackPointExtension>
</extensions>
</trkpt>
<trkpt lat="46.1815064" lon="6.0563273">
<ele>403.4000000</ele>
<time>2014-12-04T11:16:05Z</time>
<extensions>
<tp1:TrackPointExtension>
<tp1:hr>116</tp1:hr>
</tp1:TrackPointExtension>
</extensions>
</trkpt>
<trkpt lat="46.1815547" lon="6.0562390">
<ele>403.0000000</ele>
<time>2014-12-04T11:16:06Z</time>
<extensions>
<tp1:TrackPointExtension>
<tp1:hr>116</tp1:hr>
</tp1:TrackPointExtension>
</extensions>
</trkpt>
<trkpt lat="46.1817948" lon="6.0558197">
<ele>403.0000000</ele>
<time>2014-12-04T11:16:11Z</time>
<extensions>
<tp1:TrackPointExtension>
<tp1:hr>115</tp1:hr>
</tp1:TrackPointExtension>
</extensions>
</trkpt>
<trkpt lat="46.1819230" lon="6.0555734">
<ele>402.6000000</ele>
<time>2014-12-04T11:16:14Z</time>
<extensions>
<tp1:TrackPointExtension>
<tp1:hr>115</tp1:hr>
</tp1:TrackPointExtension>
</extensions>
</trkpt>
<trkpt lat="46.1819666" lon="6.0554920">
<ele>402.2000000</ele>
<time>2014-12-04T11:16:15Z</time>
<extensions>
<tp1:TrackPointExtension>
<tp1:hr>114</tp1:hr>
</tp1:TrackPointExtension>
</extensions>
</trkpt>
<trkpt lat="46.1820087" lon="6.0554197">
<ele>401.8000000</ele>
<time>2014-12-04T11:16:16Z</time>
<extensions>
<tp1:TrackPointExtension>
<tp1:hr>114</tp1:hr>
</tp1:TrackPointExtension>
</extensions>
</trkpt>
<trkpt lat="46.1820478" lon="6.0553557">
<ele>401.4000000</ele>
<time>2014-12-04T11:16:17Z</time>
<extensions>
<tp1:TrackPointExtension>
<tp1:hr>114</tp1:hr>
</tp1:TrackPointExtension>
</extensions>
</trkpt>
<trkpt lat="46.1820908" lon="6.0552863">
<ele>401.4000000</ele>
<time>2014-12-04T11:16:18Z</time>
<extensions>
<tp1:TrackPointExtension>
<tp1:hr>114</tp1:hr>
</tp1:TrackPointExtension>
</extensions>
</trkpt>
<trkpt lat="46.1821355" lon="6.0552245">
<ele>401.0000000</ele>
<time>2014-12-04T11:16:19Z</time>
<extensions>
<tp1:TrackPointExtension>
<tp1:hr>114</tp1:hr>
</tp1:TrackPointExtension>
</extensions>
</trkpt>
<trkpt lat="46.1824007" lon="6.0548639">
<ele>401.0000000</ele>
<time>2014-12-04T11:16:25Z</time>
<extensions>
<tp1:TrackPointExtension>
<tp1:hr>115</tp1:hr>
</tp1:TrackPointExtension>
</extensions>
</trkpt>
<trkpt lat="46.1825958" lon="6.0545979">
<ele>401.0000000</ele>
<time>2014-12-04T11:16:30Z</time>
<extensions>
<tp1:TrackPointExtension>
<tp1:hr>115</tp1:hr>
</tp1:TrackPointExtension>
</extensions>
</trkpt>
<trkpt lat="46.1828194" lon="6.0542668">
<ele>401.0000000</ele>
<time>2014-12-04T11:16:36Z</time>
<extensions>
<tp1:TrackPointExtension>
<tp1:hr>115</tp1:hr>
</tp1:TrackPointExtension>
</extensions>
</trkpt>
<trkpt lat="46.1830666" lon="6.0538597">
<ele>401.0000000</ele>
<time>2014-12-04T11:16:43Z</time>
<extensions>
<tp1:TrackPointExtension>
<tp1:hr>116</tp1:hr>
</tp1:TrackPointExtension>
</extensions>
</trkpt>
<trkpt lat="46.1832357" lon="6.0535687">
<ele>401.0000000</ele>
<time>2014-12-04T11:16:48Z</time>
<extensions>
<tp1:TrackPointExtension>
<tp1:hr>116</tp1:hr>
</tp1:TrackPointExtension>
</extensions>
</trkpt>
<trkpt lat="46.1832674" lon="6.0534906">
<ele>401.0000000</ele>
<time>2014-12-04T11:16:49Z</time>
<extensions>
<tp1:TrackPointExtension>
<tp1:hr>117</tp1:hr>
</tp1:TrackPointExtension>
</extensions>
</trkpt>
<trkpt lat="46.1834305" lon="6.0531107">
<ele>401.0000000</ele>
<time>2014-12-04T11:16:54Z</time>
<extensions>
<tp1:TrackPointExtension>
<tp1:hr>118</tp1:hr>
</tp1:TrackPointExtension>
</extensions>
</trkpt>
<trkpt lat="46.1837106" lon="6.0524187">
<ele>401.0000000</ele>
<time>2014-12-04T11:17:03Z</time>
<extensions>
<tp1:TrackPointExtension>
<tp1:hr>118</tp1:hr>
</tp1:TrackPointExtension>
</extensions>
</trkpt>
<trkpt lat="46.1840027" lon="6.0517011">
<ele>401.0000000</ele>
<time>2014-12-04T11:17:12Z</time>
<extensions>
<tp1:TrackPointExtension>
<tp1:hr>118</tp1:hr>
</tp1:TrackPointExtension>
</extensions>
</trkpt>
<trkpt lat="46.1840686" lon="6.0515468">
<ele>401.0000000</ele>
<time>2014-12-04T11:17:14Z</time>
<extensions>
<tp1:TrackPointExtension>
<tp1:hr>118</tp1:hr>
</tp1:TrackPointExtension>
</extensions>
</trkpt>
<trkpt lat="46.1844084" lon="6.0509331">
<ele>401.0000000</ele>
<time>2014-12-04T11:17:23Z</time>
<extensions>
<tp1:TrackPointExtension>
<tp1:hr>117</tp1:hr>
</tp1:TrackPointExtension>
</extensions>
</trkpt>
<trkpt lat="46.1847784" lon="6.0503450">
<ele>401.0000000</ele>
<time>2014-12-04T11:17:32Z</time>
<extensions>
<tp1:TrackPointExtension>
<tp1:hr>117</tp1:hr>
</tp1:TrackPointExtension>
</extensions>
</trkpt>
<trkpt lat="46.1848575" lon="6.0502185">
<ele>401.0000000</ele>
<time>2014-12-04T11:17:34Z</time>
<extensions>
<tp1:TrackPointExtension>
<tp1:hr>117</tp1:hr>
</tp1:TrackPointExtension>
</extensions>
</trkpt>
<trkpt lat="46.1851744" lon="6.0497147">
<ele>400.6000000</ele>
<time>2014-12-04T11:17:42Z</time>
<extensions>
<tp1:TrackPointExtension>
<tp1:hr>117</tp1:hr>
</tp1:TrackPointExtension>
</extensions>
</trkpt>
<trkpt lat="46.1852131" lon="6.0496526">
<ele>400.2000000</ele>
<time>2014-12-04T11:17:43Z</time>
<extensions>
<tp1:TrackPointExtension>
<tp1:hr>116</tp1:hr>
</tp1:TrackPointExtension>
</extensions>
</trkpt>
<trkpt lat="46.1852506" lon="6.0495954">
<ele>399.8000000</ele>
<time>2014-12-04T11:17:44Z</time>
<extensions>
<tp1:TrackPointExtension>
<tp1:hr>116</tp1:hr>
</tp1:TrackPointExtension>
</extensions>
</trkpt>
<trkpt lat="46.1852883" lon="6.0495406">
<ele>399.4000000</ele>
<time>2014-12-04T11:17:45Z</time>
<extensions>
<tp1:TrackPointExtension>
<tp1:hr>116</tp1:hr>
</tp1:TrackPointExtension>
</extensions>
</trkpt>
<trkpt lat="46.1853278" lon="6.0494878">
<ele>399.0000000</ele>
<time>2014-12-04T11:17:46Z</time>
<extensions>
<tp1:TrackPointExtension>
<tp1:hr>115</tp1:hr>
</tp1:TrackPointExtension>
</extensions>
</trkpt>
<trkpt lat="46.1855028" lon="6.0492456">
<ele>399.0000000</ele>
<time>2014-12-04T11:17:50Z</time>
<extensions>
<tp1:TrackPointExtension>
<tp1:hr>113</tp1:hr>
</tp1:TrackPointExtension>
</extensions>
</trkpt>
<trkpt lat="46.1855524" lon="6.0491717">
<ele>398.4000000</ele>
<time>2014-12-04T11:17:51Z</time>
<extensions>
<tp1:TrackPointExtension>
<tp1:hr>112</tp1:hr>
</tp1:TrackPointExtension>
</extensions>
</trkpt>
<trkpt lat="46.1856404" lon="6.0490329">
<ele>397.8000000</ele>
<time>2014-12-04T11:17:52Z</time>
<extensions>
<tp1:TrackPointExtension>
<tp1:hr>111</tp1:hr>
</tp1:TrackPointExtension>
</extensions>
</trkpt>
<trkpt lat="46.1856961" lon="6.0489523">
<ele>397.2000000</ele>
<time>2014-12-04T11:17:53Z</time>
<extensions>
<tp1:TrackPointExtension>
<tp1:hr>111</tp1:hr>
</tp1:TrackPointExtension>
</extensions>
</trkpt>
<trkpt lat="46.1857525" lon="6.0488706">
<ele>396.6000000</ele>
<time>2014-12-04T11:17:54Z</time>
<extensions>
<tp1:TrackPointExtension>
<tp1:hr>110</tp1:hr>
</tp1:TrackPointExtension>
</extensions>
</trkpt>
<trkpt lat="46.1858078" lon="6.0487896">
<ele>396.0000000</ele>
<time>2014-12-04T11:17:55Z</time>
<extensions>
<tp1:TrackPointExtension>
<tp1:hr>110</tp1:hr>
</tp1:TrackPointExtension>
</extensions>
</trkpt>
<trkpt lat="46.1858655" lon="6.0487042">
<ele>395.4000000</ele>
<time>2014-12-04T11:17:56Z</time>
<extensions>
<tp1:TrackPointExtension>
<tp1:hr>110</tp1:hr>
</tp1:TrackPointExtension>
</extensions>
</trkpt>
<trkpt lat="46.1859260" lon="6.0486138">
<ele>394.8000000</ele>
<time>2014-12-04T11:17:57Z</time>
<extensions>
<tp1:TrackPointExtension>
<tp1:hr>110</tp1:hr>
</tp1:TrackPointExtension>
</extensions>
</trkpt>
<trkpt lat="46.1859849" lon="6.0485328">
<ele>394.0000000</ele>
<time>2014-12-04T11:17:58Z</time>
<extensions>
<tp1:TrackPointExtension>
<tp1:hr>109</tp1:hr>
</tp1:TrackPointExtension>
</extensions>
</trkpt>
<trkpt lat="46.1861084" lon="6.0483854">
<ele>393.6000000</ele>
<time>2014-12-04T11:18:00Z</time>
<extensions>
<tp1:TrackPointExtension>
<tp1:hr>108</tp1:hr>
</tp1:TrackPointExtension>
</extensions>
</trkpt>
<trkpt lat="46.1861696" lon="6.0483144">
<ele>393.0000000</ele>
<time>2014-12-04T11:18:01Z</time>
<extensions>
<tp1:TrackPointExtension>
<tp1:hr>108</tp1:hr>
</tp1:TrackPointExtension>
</extensions>
</trkpt>
<trkpt lat="46.1862367" lon="6.0482403">
<ele>392.4000000</ele>
<time>2014-12-04T11:18:02Z</time>
<extensions>
<tp1:TrackPointExtension>
<tp1:hr>108</tp1:hr>
</tp1:TrackPointExtension>
</extensions>
</trkpt>
<trkpt lat="46.1863021" lon="6.0481702">
<ele>391.6000000</ele>
<time>2014-12-04T11:18:03Z</time>
<extensions>
<tp1:TrackPointExtension>
<tp1:hr>108</tp1:hr>
</tp1:TrackPointExtension>
</extensions>
</trkpt>
<trkpt lat="46.1863655" lon="6.0480981">
<ele>390.8000000</ele>
<time>2014-12-04T11:18:04Z</time>
<extensions>
<tp1:TrackPointExtension>
<tp1:hr>107</tp1:hr>
</tp1:TrackPointExtension>
</extensions>
</trkpt>
<trkpt lat="46.1864321" lon="6.0480226">
<ele>390.2000000</ele>
<time>2014-12-04T11:18:05Z</time>
<extensions>
<tp1:TrackPointExtension>
<tp1:hr>106</tp1:hr>
</tp1:TrackPointExtension>
</extensions>
</trkpt>
<trkpt lat="46.1864929" lon="6.0479545">
<ele>389.4000000</ele>
<time>2014-12-04T11:18:06Z</time>
<extensions>
<tp1:TrackPointExtension>
<tp1:hr>106</tp1:hr>
</tp1:TrackPointExtension>
</extensions>
</trkpt>
<trkpt lat="46.1865519" lon="6.0478916">
<ele>388.8000000</ele>
<time>2014-12-04T11:18:07Z</time>
<extensions>
<tp1:TrackPointExtension>
<tp1:hr>106</tp1:hr>
</tp1:TrackPointExtension>
</extensions>
</trkpt>
<trkpt lat="46.1866076" lon="6.0478332">
<ele>388.0000000</ele>
<time>2014-12-04T11:18:08Z</time>
<extensions>
<tp1:TrackPointExtension>
<tp1:hr>106</tp1:hr>
</tp1:TrackPointExtension>
</extensions>
</trkpt>
<trkpt lat="46.1866660" lon="6.0477800">
<ele>387.4000000</ele>
<time>2014-12-04T11:18:09Z</time>
<extensions>
<tp1:TrackPointExtension>
<tp1:hr>106</tp1:hr>
</tp1:TrackPointExtension>
</extensions>
</trkpt>
<trkpt lat="46.1867257" lon="6.0477206">
<ele>386.6000000</ele>
<time>2014-12-04T11:18:10Z</time>
<extensions>
<tp1:TrackPointExtension>
<tp1:hr>106</tp1:hr>
</tp1:TrackPointExtension>
</extensions>
</trkpt>
<trkpt lat="46.1867724" lon="6.0476517">
<ele>385.8000000</ele>
<time>2014-12-04T11:18:11Z</time>
<extensions>
<tp1:TrackPointExtension>
<tp1:hr>105</tp1:hr>
</tp1:TrackPointExtension>
</extensions>
</trkpt>
<trkpt lat="46.1868311" lon="6.0475724">
<ele>385.0000000</ele>
<time>2014-12-04T11:18:12Z</time>
<extensions>
<tp1:TrackPointExtension>
<tp1:hr>105</tp1:hr>
</tp1:TrackPointExtension>
</extensions>
</trkpt>
<trkpt lat="46.1868943" lon="6.0474878">
<ele>384.2000000</ele>
<time>2014-12-04T11:18:13Z</time>
<extensions>
<tp1:TrackPointExtension>
<tp1:hr>105</tp1:hr>
</tp1:TrackPointExtension>
</extensions>
</trkpt>
<trkpt lat="46.1869599" lon="6.0474025">
<ele>383.4000000</ele>
<time>2014-12-04T11:18:14Z</time>
<extensions>
<tp1:TrackPointExtension>
<tp1:hr>106</tp1:hr>
</tp1:TrackPointExtension>
</extensions>
</trkpt>
<trkpt lat="46.1870246" lon="6.0473186">
<ele>382.6000000</ele>
<time>2014-12-04T11:18:15Z</time>
<extensions>
<tp1:TrackPointExtension>
<tp1:hr>105</tp1:hr>
</tp1:TrackPointExtension>
</extensions>
</trkpt>
<trkpt lat="46.1870973" lon="6.0472447">
<ele>381.8000000</ele>
<time>2014-12-04T11:18:16Z</time>
<extensions>
<tp1:TrackPointExtension>
<tp1:hr>105</tp1:hr>
</tp1:TrackPointExtension>
</extensions>
</trkpt>
<trkpt lat="46.1871702" lon="6.0471731">
<ele>380.8000000</ele>
<time>2014-12-04T11:18:17Z</time>
<extensions>
<tp1:TrackPointExtension>
<tp1:hr>105</tp1:hr>
</tp1:TrackPointExtension>
</extensions>
</trkpt>
<trkpt lat="46.1872451" lon="6.0471045">
<ele>380.4000000</ele>
<time>2014-12-04T11:18:18Z</time>
<extensions>
<tp1:TrackPointExtension>
<tp1:hr>104</tp1:hr>
</tp1:TrackPointExtension>
</extensions>
</trkpt>
<trkpt lat="46.1873188" lon="6.0470361">
<ele>380.0000000</ele>
<time>2014-12-04T11:18:19Z</time>
<extensions>
<tp1:TrackPointExtension>
<tp1:hr>104</tp1:hr>
</tp1:TrackPointExtension>
</extensions>
</trkpt>
<trkpt lat="46.1873913" lon="6.0469696">
<ele>379.6000000</ele>
<time>2014-12-04T11:18:20Z</time>
<extensions>
<tp1:TrackPointExtension>
<tp1:hr>103</tp1:hr>
</tp1:TrackPointExtension>
</extensions>
</trkpt>
<trkpt lat="46.1875396" lon="6.0468413">
<ele>379.2000000</ele>
<time>2014-12-04T11:18:22Z</time>
<extensions>
<tp1:TrackPointExtension>
<tp1:hr>104</tp1:hr>
</tp1:TrackPointExtension>
</extensions>
</trkpt>
<trkpt lat="46.1876126" lon="6.0467745">
<ele>378.8000000</ele>
<time>2014-12-04T11:18:23Z</time>
<extensions>
<tp1:TrackPointExtension>
<tp1:hr>104</tp1:hr>
</tp1:TrackPointExtension>
</extensions>
</trkpt>
<trkpt lat="46.1877485" lon="6.0466490">
<ele>378.4000000</ele>
<time>2014-12-04T11:18:25Z</time>
<extensions>
<tp1:TrackPointExtension>
<tp1:hr>104</tp1:hr>
</tp1:TrackPointExtension>
</extensions>
</trkpt>
<trkpt lat="46.1878054" lon="6.0465895">
<ele>378.0000000</ele>
<time>2014-12-04T11:18:26Z</time>
<extensions>
<tp1:TrackPointExtension>
<tp1:hr>104</tp1:hr>
</tp1:TrackPointExtension>
</extensions>
</trkpt>
<trkpt lat="46.1878581" lon="6.0465361">
<ele>377.6000000</ele>
<time>2014-12-04T11:18:27Z</time>
<extensions>
<tp1:TrackPointExtension>
<tp1:hr>104</tp1:hr>
</tp1:TrackPointExtension>
</extensions>
</trkpt>
<trkpt lat="46.1878992" lon="6.0464919">
<ele>377.2000000</ele>
<time>2014-12-04T11:18:28Z</time>
<extensions>
<tp1:TrackPointExtension>
<tp1:hr>104</tp1:hr>
</tp1:TrackPointExtension>
</extensions>
</trkpt>
<trkpt lat="46.1879385" lon="6.0464610">
<ele>376.8000000</ele>
<time>2014-12-04T11:18:29Z</time>
<extensions>
<tp1:TrackPointExtension>
<tp1:hr>103</tp1:hr>
</tp1:TrackPointExtension>
</extensions>
</trkpt>
<trkpt lat="46.1879933" lon="6.0464263">
<ele>376.8000000</ele>
<time>2014-12-04T11:18:31Z</time>
<extensions>
<tp1:TrackPointExtension>
<tp1:hr>102</tp1:hr>
</tp1:TrackPointExtension>
</extensions>
</trkpt>
<trkpt lat="46.1881447" lon="6.0462878">
<ele>376.8000000</ele>
<time>2014-12-04T11:18:36Z</time>
<extensions>
<tp1:TrackPointExtension>
<tp1:hr>102</tp1:hr>
</tp1:TrackPointExtension>
</extensions>
</trkpt>
<trkpt lat="46.1883193" lon="6.0459751">
<ele>376.8000000</ele>
<time>2014-12-04T11:18:41Z</time>
<extensions>
<tp1:TrackPointExtension>
<tp1:hr>104</tp1:hr>
</tp1:TrackPointExtension>
</extensions>
</trkpt>
<trkpt lat="46.1885725" lon="6.0455923">
<ele>376.4000000</ele>
<time>2014-12-04T11:18:47Z</time>
<extensions>
<tp1:TrackPointExtension>
<tp1:hr>106</tp1:hr>
</tp1:TrackPointExtension>
</extensions>
</trkpt>
<trkpt lat="46.1886142" lon="6.0455275">
<ele>376.0000000</ele>
<time>2014-12-04T11:18:48Z</time>
<extensions>
<tp1:TrackPointExtension>
<tp1:hr>106</tp1:hr>
</tp1:TrackPointExtension>
</extensions>
</trkpt>
<trkpt lat="46.1886582" lon="6.0454642">
<ele>375.6000000</ele>
<time>2014-12-04T11:18:49Z</time>
<extensions>
<tp1:TrackPointExtension>
<tp1:hr>106</tp1:hr>
</tp1:TrackPointExtension>
</extensions>
</trkpt>
<trkpt lat="46.1887013" lon="6.0454004">
<ele>375.2000000</ele>
<time>2014-12-04T11:18:50Z</time>
<extensions>
<tp1:TrackPointExtension>
<tp1:hr>106</tp1:hr>
</tp1:TrackPointExtension>
</extensions>
</trkpt>
<trkpt lat="46.1887432" lon="6.0453260">
<ele>374.8000000</ele>
<time>2014-12-04T11:18:51Z</time>
<extensions>
<tp1:TrackPointExtension>
<tp1:hr>106</tp1:hr>
</tp1:TrackPointExtension>
</extensions>
</trkpt>
<trkpt lat="46.1888717" lon="6.0451277">
<ele>374.8000000</ele>
<time>2014-12-04T11:18:54Z</time>
<extensions>
<tp1:TrackPointExtension>
<tp1:hr>106</tp1:hr>
</tp1:TrackPointExtension>
</extensions>
</trkpt>
<trkpt lat="46.1890063" lon="6.0449177">
<ele>374.4000000</ele>
<time>2014-12-04T11:18:57Z</time>
<extensions>
<tp1:TrackPointExtension>
<tp1:hr>106</tp1:hr>
</tp1:TrackPointExtension>
</extensions>
</trkpt>
<trkpt lat="46.1890479" lon="6.0448498">
<ele>373.8000000</ele>
<time>2014-12-04T11:18:58Z</time>
<extensions>
<tp1:TrackPointExtension>
<tp1:hr>106</tp1:hr>
</tp1:TrackPointExtension>
</extensions>
</trkpt>
<trkpt lat="46.1890904" lon="6.0447813">
<ele>373.4000000</ele>
<time>2014-12-04T11:18:59Z</time>
<extensions>
<tp1:TrackPointExtension>
<tp1:hr>107</tp1:hr>
</tp1:TrackPointExtension>
</extensions>
</trkpt>
<trkpt lat="46.1891341" lon="6.0447082">
<ele>373.0000000</ele>
<time>2014-12-04T11:19:00Z</time>
<extensions>
<tp1:TrackPointExtension>
<tp1:hr>107</tp1:hr>
</tp1:TrackPointExtension>
</extensions>
</trkpt>
<trkpt lat="46.1891728" lon="6.0446371">
<ele>372.6000000</ele>
<time>2014-12-04T11:19:01Z</time>
<extensions>
<tp1:TrackPointExtension>
<tp1:hr>107</tp1:hr>
</tp1:TrackPointExtension>
</extensions>
</trkpt>
<trkpt lat="46.1892524" lon="6.0445023">
<ele>372.6000000</ele>
<time>2014-12-04T11:19:03Z</time>
<extensions>
<tp1:TrackPointExtension>
<tp1:hr>107</tp1:hr>
</tp1:TrackPointExtension>
</extensions>
</trkpt>
<trkpt lat="46.1893386" lon="6.0443839">
<ele>372.6000000</ele>
<time>2014-12-04T11:19:05Z</time>
<extensions>
<tp1:TrackPointExtension>
<tp1:hr>107</tp1:hr>
</tp1:TrackPointExtension>
</extensions>
</trkpt>
<trkpt lat="46.1895230" lon="6.0441575">
<ele>372.6000000</ele>
<time>2014-12-04T11:19:09Z</time>
<extensions>
<tp1:TrackPointExtension>
<tp1:hr>106</tp1:hr>
</tp1:TrackPointExtension>
</extensions>
</trkpt>
<trkpt lat="46.1898771" lon="6.0436980">
<ele>372.6000000</ele>
<time>2014-12-04T11:19:17Z</time>
<extensions>
<tp1:TrackPointExtension>
<tp1:hr>105</tp1:hr>
</tp1:TrackPointExtension>
</extensions>
</trkpt>
<trkpt lat="46.1902600" lon="6.0432042">
<ele>372.2000000</ele>
<time>2014-12-04T11:19:25Z</time>
<extensions>
<tp1:TrackPointExtension>
<tp1:hr>105</tp1:hr>
</tp1:TrackPointExtension>
</extensions>
</trkpt>
<trkpt lat="46.1903063" lon="6.0431410">
<ele>371.6000000</ele>
<time>2014-12-04T11:19:26Z</time>
<extensions>
<tp1:TrackPointExtension>
<tp1:hr>105</tp1:hr>
</tp1:TrackPointExtension>
</extensions>
</trkpt>
<trkpt lat="46.1903549" lon="6.0430803">
<ele>371.2000000</ele>
<time>2014-12-04T11:19:27Z</time>
<extensions>
<tp1:TrackPointExtension>
<tp1:hr>105</tp1:hr>
</tp1:TrackPointExtension>
</extensions>
</trkpt>
<trkpt lat="46.1903995" lon="6.0430233">
<ele>370.8000000</ele>
<time>2014-12-04T11:19:28Z</time>
<extensions>
<tp1:TrackPointExtension>
<tp1:hr>105</tp1:hr>
</tp1:TrackPointExtension>
</extensions>
</trkpt>
<trkpt lat="46.1904448" lon="6.0429704">
<ele>370.4000000</ele>
<time>2014-12-04T11:19:29Z</time>
<extensions>
<tp1:TrackPointExtension>
<tp1:hr>104</tp1:hr>
</tp1:TrackPointExtension>
</extensions>
</trkpt>
<trkpt lat="46.1905216" lon="6.0428889">
<ele>370.4000000</ele>
<time>2014-12-04T11:19:31Z</time>
<extensions>
<tp1:TrackPointExtension>
<tp1:hr>104</tp1:hr>
</tp1:TrackPointExtension>
</extensions>
</trkpt>
<trkpt lat="46.1904870" lon="6.0426920">
<ele>370.4000000</ele>
<time>2014-12-04T11:19:35Z</time>
<extensions>
<tp1:TrackPointExtension>
<tp1:hr>104</tp1:hr>
</tp1:TrackPointExtension>
</extensions>
</trkpt>
<trkpt lat="46.1902828" lon="6.0424522">
<ele>370.4000000</ele>
<time>2014-12-04T11:19:40Z</time>
<extensions>
<tp1:TrackPointExtension>
<tp1:hr>107</tp1:hr>
</tp1:TrackPointExtension>
</extensions>
</trkpt>
<trkpt lat="46.1902452" lon="6.0424092">
<ele>370.4000000</ele>
<time>2014-12-04T11:19:41Z</time>
<extensions>
<tp1:TrackPointExtension>
<tp1:hr>107</tp1:hr>
</tp1:TrackPointExtension>
</extensions>
</trkpt>
<trkpt lat="46.1902015" lon="6.0423702">
<ele>370.4000000</ele>
<time>2014-12-04T11:19:42Z</time>
<extensions>
<tp1:TrackPointExtension>
<tp1:hr>107</tp1:hr>
</tp1:TrackPointExtension>
</extensions>
</trkpt>
<trkpt lat="46.1900117" lon="6.0422148">
<ele>370.4000000</ele>
<time>2014-12-04T11:19:46Z</time>
<extensions>
<tp1:TrackPointExtension>
<tp1:hr>108</tp1:hr>
</tp1:TrackPointExtension>
</extensions>
</trkpt>
<trkpt lat="46.1899689" lon="6.0421672">
<ele>370.4000000</ele>
<time>2014-12-04T11:19:47Z</time>
<extensions>
<tp1:TrackPointExtension>
<tp1:hr>107</tp1:hr>
</tp1:TrackPointExtension>
</extensions>
</trkpt>
<trkpt lat="46.1898755" lon="6.0419828">
<ele>370.4000000</ele>
<time>2014-12-04T11:19:50Z</time>
<extensions>
<tp1:TrackPointExtension>
<tp1:hr>116</tp1:hr>
</tp1:TrackPointExtension>
</extensions>
</trkpt>
<trkpt lat="46.1898475" lon="6.0419147">
<ele>370.4000000</ele>
<time>2014-12-04T11:19:51Z</time>
<extensions>
<tp1:TrackPointExtension>
<tp1:hr>116</tp1:hr>
</tp1:TrackPointExtension>
</extensions>
</trkpt>
<trkpt lat="46.1898241" lon="6.0418504">
<ele>370.4000000</ele>
<time>2014-12-04T11:19:52Z</time>
<extensions>
<tp1:TrackPointExtension>
<tp1:hr>116</tp1:hr>
</tp1:TrackPointExtension>
</extensions>
</trkpt>
<trkpt lat="46.1897646" lon="6.0416561">
<ele>370.4000000</ele>
<time>2014-12-04T11:19:55Z</time>
<extensions>
<tp1:TrackPointExtension>
<tp1:hr>113</tp1:hr>
</tp1:TrackPointExtension>
</extensions>
</trkpt>
<trkpt lat="46.1897598" lon="6.0415908">
<ele>370.4000000</ele>
<time>2014-12-04T11:19:56Z</time>
<extensions>
<tp1:TrackPointExtension>
<tp1:hr>113</tp1:hr>
</tp1:TrackPointExtension>
</extensions>
</trkpt>
<trkpt lat="46.1897677" lon="6.0415228">
<ele>370.4000000</ele>
<time>2014-12-04T11:19:57Z</time>
<extensions>
<tp1:TrackPointExtension>
<tp1:hr>113</tp1:hr>
</tp1:TrackPointExtension>
</extensions>
</trkpt>
<trkpt lat="46.1898612" lon="6.0412716">
<ele>370.4000000</ele>
<time>2014-12-04T11:20:01Z</time>
<extensions>
<tp1:TrackPointExtension>
<tp1:hr>112</tp1:hr>
</tp1:TrackPointExtension>
</extensions>
</trkpt>
<trkpt lat="46.1900552" lon="6.0408146">
<ele>370.4000000</ele>
<time>2014-12-04T11:20:08Z</time>
<extensions>
<tp1:TrackPointExtension>
<tp1:hr>111</tp1:hr>
</tp1:TrackPointExtension>
</extensions>
</trkpt>
<trkpt lat="46.1901660" lon="6.0405501">
<ele>370.4000000</ele>
<time>2014-12-04T11:20:12Z</time>
<extensions>
<tp1:TrackPointExtension>
<tp1:hr>110</tp1:hr>
</tp1:TrackPointExtension>
</extensions>
</trkpt>
<trkpt lat="46.1902541" lon="6.0403427">
<ele>370.4000000</ele>
<time>2014-12-04T11:20:15Z</time>
<extensions>
<tp1:TrackPointExtension>
<tp1:hr>110</tp1:hr>
</tp1:TrackPointExtension>
</extensions>
</trkpt>
<trkpt lat="46.1904551" lon="6.0398640">
<ele>370.4000000</ele>
<time>2014-12-04T11:20:22Z</time>
<extensions>
<tp1:TrackPointExtension>
<tp1:hr>110</tp1:hr>
</tp1:TrackPointExtension>
</extensions>
</trkpt>
<trkpt lat="46.1906676" lon="6.0394346">
<ele>370.4000000</ele>
<time>2014-12-04T11:20:29Z</time>
<extensions>
<tp1:TrackPointExtension>
<tp1:hr>111</tp1:hr>
</tp1:TrackPointExtension>
</extensions>
</trkpt>
<trkpt lat="46.1907949" lon="6.0391990">
<ele>370.4000000</ele>
<time>2014-12-04T11:20:33Z</time>
<extensions>
<tp1:TrackPointExtension>
<tp1:hr>109</tp1:hr>
</tp1:TrackPointExtension>
</extensions>
</trkpt>
<trkpt lat="46.1909204" lon="6.0390508">
<ele>370.4000000</ele>
<time>2014-12-04T11:20:36Z</time>
<extensions>
<tp1:TrackPointExtension>
<tp1:hr>109</tp1:hr>
</tp1:TrackPointExtension>
</extensions>
</trkpt>
<trkpt lat="46.1912068" lon="6.0387261">
<ele>370.4000000</ele>
<time>2014-12-04T11:20:43Z</time>
<extensions>
<tp1:TrackPointExtension>
<tp1:hr>109</tp1:hr>
</tp1:TrackPointExtension>
</extensions>
</trkpt>
<trkpt lat="46.1914818" lon="6.0384078">
<ele>370.4000000</ele>
<time>2014-12-04T11:20:49Z</time>
<extensions>
<tp1:TrackPointExtension>
<tp1:hr>107</tp1:hr>
</tp1:TrackPointExtension>
</extensions>
</trkpt>
<trkpt lat="46.1915348" lon="6.0383447">
<ele>370.0000000</ele>
<time>2014-12-04T11:20:50Z</time>
<extensions>
<tp1:TrackPointExtension>
<tp1:hr>107</tp1:hr>
</tp1:TrackPointExtension>
</extensions>
</trkpt>
<trkpt lat="46.1915886" lon="6.0382803">
<ele>369.6000000</ele>
<time>2014-12-04T11:20:51Z</time>
<extensions>
<tp1:TrackPointExtension>
<tp1:hr>107</tp1:hr>
</tp1:TrackPointExtension>
</extensions>
</trkpt>
<trkpt lat="46.1916408" lon="6.0382173">
<ele>369.2000000</ele>
<time>2014-12-04T11:20:52Z</time>
<extensions>
<tp1:TrackPointExtension>
<tp1:hr>106</tp1:hr>
</tp1:TrackPointExtension>
</extensions>
</trkpt>
<trkpt lat="46.1916949" lon="6.0381562">
<ele>368.8000000</ele>
<time>2014-12-04T11:20:53Z</time>
<extensions>
<tp1:TrackPointExtension>
<tp1:hr>106</tp1:hr>
</tp1:TrackPointExtension>
</extensions>
</trkpt>
<trkpt lat="46.1917502" lon="6.0380967">
<ele>368.4000000</ele>
<time>2014-12-04T11:20:54Z</time>
<extensions>
<tp1:TrackPointExtension>
<tp1:hr>106</tp1:hr>
</tp1:TrackPointExtension>
</extensions>
</trkpt>
<trkpt lat="46.1919005" lon="6.0379338">
<ele>368.4000000</ele>
<time>2014-12-04T11:20:57Z</time>
<extensions>
<tp1:TrackPointExtension>
<tp1:hr>105</tp1:hr>
</tp1:TrackPointExtension>
</extensions>
</trkpt>
<trkpt lat="46.1922658" lon="6.0375141">
<ele>368.4000000</ele>
<time>2014-12-04T11:21:05Z</time>
<extensions>
<tp1:TrackPointExtension>
<tp1:hr>103</tp1:hr>
</tp1:TrackPointExtension>
</extensions>
</trkpt>
<trkpt lat="46.1926548" lon="6.0370823">
<ele>368.4000000</ele>
<time>2014-12-04T11:21:14Z</time>
<extensions>
<tp1:TrackPointExtension>
<tp1:hr>106</tp1:hr>
</tp1:TrackPointExtension>
</extensions>
</trkpt>
<trkpt lat="46.1929648" lon="6.0367429">
<ele>368.4000000</ele>
<time>2014-12-04T11:21:22Z</time>
<extensions>
<tp1:TrackPointExtension>
<tp1:hr>106</tp1:hr>
</tp1:TrackPointExtension>
</extensions>
</trkpt>
<trkpt lat="46.1931235" lon="6.0365368">
<ele>368.4000000</ele>
<time>2014-12-04T11:21:28Z</time>
<extensions>
<tp1:TrackPointExtension>
<tp1:hr>105</tp1:hr>
</tp1:TrackPointExtension>
</extensions>
</trkpt>
<trkpt lat="46.1931510" lon="6.0363414">
<ele>368.4000000</ele>
<time>2014-12-04T11:21:32Z</time>
<extensions>
<tp1:TrackPointExtension>
<tp1:hr>103</tp1:hr>
</tp1:TrackPointExtension>
</extensions>
</trkpt>
<trkpt lat="46.1931503" lon="6.0361760">
<ele>367.8000000</ele>
<time>2014-12-04T11:21:35Z</time>
<extensions>
<tp1:TrackPointExtension>
<tp1:hr>102</tp1:hr>
</tp1:TrackPointExtension>
</extensions>
</trkpt>
<trkpt lat="46.1931526" lon="6.0361178">
<ele>367.4000000</ele>
<time>2014-12-04T11:21:36Z</time>
<extensions>
<tp1:TrackPointExtension>
<tp1:hr>101</tp1:hr>
</tp1:TrackPointExtension>
</extensions>
</trkpt>
<trkpt lat="46.1931523" lon="6.0360601">
<ele>367.0000000</ele>
<time>2014-12-04T11:21:37Z</time>
<extensions>
<tp1:TrackPointExtension>
<tp1:hr>101</tp1:hr>
</tp1:TrackPointExtension>
</extensions>
</trkpt>
<trkpt lat="46.1931529" lon="6.0360008">
<ele>366.6000000</ele>
<time>2014-12-04T11:21:38Z</time>
<extensions>
<tp1:TrackPointExtension>
<tp1:hr>101</tp1:hr>
</tp1:TrackPointExtension>
</extensions>
</trkpt>
<trkpt lat="46.1931555" lon="6.0359422">
<ele>366.2000000</ele>
<time>2014-12-04T11:21:39Z</time>
<extensions>
<tp1:TrackPointExtension>
<tp1:hr>101</tp1:hr>
</tp1:TrackPointExtension>
</extensions>
</trkpt>
<trkpt lat="46.1931760" lon="6.0353325">
<ele>366.2000000</ele>
<time>2014-12-04T11:21:48Z</time>
<extensions>
<tp1:TrackPointExtension>
<tp1:hr>102</tp1:hr>
</tp1:TrackPointExtension>
</extensions>
</trkpt>
<trkpt lat="46.1932046" lon="6.0345167">
<ele>366.2000000</ele>
<time>2014-12-04T11:21:58Z</time>
<extensions>
<tp1:TrackPointExtension>
<tp1:hr>102</tp1:hr>
</tp1:TrackPointExtension>
</extensions>
</trkpt>
<trkpt lat="46.1932220" lon="6.0340439">
<ele>365.8000000</ele>
<time>2014-12-04T11:22:04Z</time>
<extensions>
<tp1:TrackPointExtension>
<tp1:hr>103</tp1:hr>
</tp1:TrackPointExtension>
</extensions>
</trkpt>
<trkpt lat="46.1932288" lon="6.0339654">
<ele>365.4000000</ele>
<time>2014-12-04T11:22:05Z</time>
<extensions>
<tp1:TrackPointExtension>
<tp1:hr>103</tp1:hr>
</tp1:TrackPointExtension>
</extensions>
</trkpt>
<trkpt lat="46.1932364" lon="6.0338819">
<ele>365.0000000</ele>
<time>2014-12-04T11:22:06Z</time>
<extensions>
<tp1:TrackPointExtension>
<tp1:hr>104</tp1:hr>
</tp1:TrackPointExtension>
</extensions>
</trkpt>
<trkpt lat="46.1932448" lon="6.0338004">
<ele>364.6000000</ele>
<time>2014-12-04T11:22:07Z</time>
<extensions>
<tp1:TrackPointExtension>
<tp1:hr>104</tp1:hr>
</tp1:TrackPointExtension>
</extensions>
</trkpt>
<trkpt lat="46.1932556" lon="6.0337215">
<ele>364.2000000</ele>
<time>2014-12-04T11:22:08Z</time>
<extensions>
<tp1:TrackPointExtension>
<tp1:hr>104</tp1:hr>
</tp1:TrackPointExtension>
</extensions>
</trkpt>
<trkpt lat="46.1933927" lon="6.0330573">
<ele>364.2000000</ele>
<time>2014-12-04T11:22:16Z</time>
<extensions>
<tp1:TrackPointExtension>
<tp1:hr>104</tp1:hr>
</tp1:TrackPointExtension>
</extensions>
</trkpt>
<trkpt lat="46.1934357" lon="6.0328876">
<ele>363.6000000</ele>
<time>2014-12-04T11:22:18Z</time>
<extensions>
<tp1:TrackPointExtension>
<tp1:hr>104</tp1:hr>
</tp1:TrackPointExtension>
</extensions>
</trkpt>
<trkpt lat="46.1934830" lon="6.0327202">
<ele>362.8000000</ele>
<time>2014-12-04T11:22:20Z</time>
<extensions>
<tp1:TrackPointExtension>
<tp1:hr>103</tp1:hr>
</tp1:TrackPointExtension>
</extensions>
</trkpt>
<trkpt lat="46.1935242" lon="6.0325590">
<ele>361.8000000</ele>
<time>2014-12-04T11:22:22Z</time>
<extensions>
<tp1:TrackPointExtension>
<tp1:hr>103</tp1:hr>
</tp1:TrackPointExtension>
</extensions>
</trkpt>
<trkpt lat="46.1935920" lon="6.0323134">
<ele>361.8000000</ele>
<time>2014-12-04T11:22:25Z</time>
<extensions>
<tp1:TrackPointExtension>
<tp1:hr>103</tp1:hr>
</tp1:TrackPointExtension>
</extensions>
</trkpt>
<trkpt lat="46.1936949" lon="6.0317755">
<ele>361.8000000</ele>
<time>2014-12-04T11:22:32Z</time>
<extensions>
<tp1:TrackPointExtension>
<tp1:hr>102</tp1:hr>
</tp1:TrackPointExtension>
</extensions>
</trkpt>
<trkpt lat="46.1937080" lon="6.0312705">
<ele>361.8000000</ele>
<time>2014-12-04T11:22:39Z</time>
<extensions>
<tp1:TrackPointExtension>
<tp1:hr>103</tp1:hr>
</tp1:TrackPointExtension>
</extensions>
</trkpt>
<trkpt lat="46.1937202" lon="6.0311475">
<ele>361.8000000</ele>
<time>2014-12-04T11:22:41Z</time>
<extensions>
<tp1:TrackPointExtension>
<tp1:hr>103</tp1:hr>
</tp1:TrackPointExtension>
</extensions>
</trkpt>
<trkpt lat="46.1937429" lon="6.0309573">
<ele>361.8000000</ele>
<time>2014-12-04T11:22:44Z</time>
<extensions>
<tp1:TrackPointExtension>
<tp1:hr>104</tp1:hr>
</tp1:TrackPointExtension>
</extensions>
</trkpt>
<trkpt lat="46.1936329" lon="6.0305010">
<ele>361.8000000</ele>
<time>2014-12-04T11:22:51Z</time>
<extensions>
<tp1:TrackPointExtension>
<tp1:hr>107</tp1:hr>
</tp1:TrackPointExtension>
</extensions>
</trkpt>
<trkpt lat="46.1934894" lon="6.0301349">
<ele>361.8000000</ele>
<time>2014-12-04T11:22:57Z</time>
<extensions>
<tp1:TrackPointExtension>
<tp1:hr>109</tp1:hr>
</tp1:TrackPointExtension>
</extensions>
</trkpt>
<trkpt lat="46.1934648" lon="6.0300764">
<ele>362.2000000</ele>
<time>2014-12-04T11:22:58Z</time>
<extensions>
<tp1:TrackPointExtension>
<tp1:hr>110</tp1:hr>
</tp1:TrackPointExtension>
</extensions>
</trkpt>
<trkpt lat="46.1934421" lon="6.0300191">
<ele>362.6000000</ele>
<time>2014-12-04T11:22:59Z</time>
<extensions>
<tp1:TrackPointExtension>
<tp1:hr>111</tp1:hr>
</tp1:TrackPointExtension>
</extensions>
</trkpt>
<trkpt lat="46.1934171" lon="6.0299507">
<ele>363.2000000</ele>
<time>2014-12-04T11:23:00Z</time>
<extensions>
<tp1:TrackPointExtension>
<tp1:hr>111</tp1:hr>
</tp1:TrackPointExtension>
</extensions>
</trkpt>
<trkpt lat="46.1933934" lon="6.0298853">
<ele>363.6000000</ele>
<time>2014-12-04T11:23:01Z</time>
<extensions>
<tp1:TrackPointExtension>
<tp1:hr>112</tp1:hr>
</tp1:TrackPointExtension>
</extensions>
</trkpt>
<trkpt lat="46.1933704" lon="6.0298178">
<ele>364.0000000</ele>
<time>2014-12-04T11:23:02Z</time>
<extensions>
<tp1:TrackPointExtension>
<tp1:hr>112</tp1:hr>
</tp1:TrackPointExtension>
</extensions>
</trkpt>
<trkpt lat="46.1933207" lon="6.0296807">
<ele>364.0000000</ele>
<time>2014-12-04T11:23:04Z</time>
<extensions>
<tp1:TrackPointExtension>
<tp1:hr>113</tp1:hr>
</tp1:TrackPointExtension>
</extensions>
</trkpt>
<trkpt lat="46.1931466" lon="6.0292216">
<ele>364.0000000</ele>
<time>2014-12-04T11:23:11Z</time>
<extensions>
<tp1:TrackPointExtension>
<tp1:hr>113</tp1:hr>
</tp1:TrackPointExtension>
</extensions>
</trkpt>
<trkpt lat="46.1928841" lon="6.0285109">
<ele>364.0000000</ele>
<time>2014-12-04T11:23:22Z</time>
<extensions>
<tp1:TrackPointExtension>
<tp1:hr>113</tp1:hr>
</tp1:TrackPointExtension>
</extensions>
</trkpt>
<trkpt lat="46.1926763" lon="6.0279341">
<ele>364.0000000</ele>
<time>2014-12-04T11:23:31Z</time>
<extensions>
<tp1:TrackPointExtension>
<tp1:hr>111</tp1:hr>
</tp1:TrackPointExtension>
</extensions>
</trkpt>
<trkpt lat="46.1925669" lon="6.0276277">
<ele>364.0000000</ele>
<time>2014-12-04T11:23:36Z</time>
<extensions>
<tp1:TrackPointExtension>
<tp1:hr>111</tp1:hr>
</tp1:TrackPointExtension>
</extensions>
</trkpt>
<trkpt lat="46.1925343" lon="6.0274944">
<ele>364.0000000</ele>
<time>2014-12-04T11:23:38Z</time>
<extensions>
<tp1:TrackPointExtension>
<tp1:hr>111</tp1:hr>
</tp1:TrackPointExtension>
</extensions>
</trkpt>
<trkpt lat="46.1925175" lon="6.0273427">
<ele>364.0000000</ele>
<time>2014-12-04T11:23:40Z</time>
<extensions>
<tp1:TrackPointExtension>
<tp1:hr>111</tp1:hr>
</tp1:TrackPointExtension>
</extensions>
</trkpt>
<trkpt lat="46.1925122" lon="6.0271415">
<ele>364.0000000</ele>
<time>2014-12-04T11:23:43Z</time>
<extensions>
<tp1:TrackPointExtension>
<tp1:hr>110</tp1:hr>
</tp1:TrackPointExtension>
</extensions>
</trkpt>
<trkpt lat="46.1925534" lon="6.0267000">
<ele>364.0000000</ele>
<time>2014-12-04T11:23:50Z</time>
<extensions>
<tp1:TrackPointExtension>
<tp1:hr>111</tp1:hr>
</tp1:TrackPointExtension>
</extensions>
</trkpt>
<trkpt lat="46.1926389" lon="6.0262966">
<ele>364.0000000</ele>
<time>2014-12-04T11:23:58Z</time>
<extensions>
<tp1:TrackPointExtension>
<tp1:hr>109</tp1:hr>
</tp1:TrackPointExtension>
</extensions>
</trkpt>
<trkpt lat="46.1927286" lon="6.0259113">
<ele>364.0000000</ele>
<time>2014-12-04T11:24:07Z</time>
<extensions>
<tp1:TrackPointExtension>
<tp1:hr>109</tp1:hr>
</tp1:TrackPointExtension>
</extensions>
</trkpt>
<trkpt lat="46.1927865" lon="6.0256959">
<ele>364.4000000</ele>
<time>2014-12-04T11:24:12Z</time>
<extensions>
<tp1:TrackPointExtension>
<tp1:hr>108</tp1:hr>
</tp1:TrackPointExtension>
</extensions>
</trkpt>
<trkpt lat="46.1927964" lon="6.0256550">
<ele>364.8000000</ele>
<time>2014-12-04T11:24:13Z</time>
<extensions>
<tp1:TrackPointExtension>
<tp1:hr>108</tp1:hr>
</tp1:TrackPointExtension>
</extensions>
</trkpt>
<trkpt lat="46.1928085" lon="6.0256121">
<ele>365.2000000</ele>
<time>2014-12-04T11:24:14Z</time>
<extensions>
<tp1:TrackPointExtension>
<tp1:hr>109</tp1:hr>
</tp1:TrackPointExtension>
</extensions>
</trkpt>
<trkpt lat="46.1928177" lon="6.0255719">
<ele>365.6000000</ele>
<time>2014-12-04T11:24:15Z</time>
<extensions>
<tp1:TrackPointExtension>
<tp1:hr>109</tp1:hr>
</tp1:TrackPointExtension>
</extensions>
</trkpt>
<trkpt lat="46.1928269" lon="6.0255327">
<ele>366.0000000</ele>
<time>2014-12-04T11:24:16Z</time>
<extensions>
<tp1:TrackPointExtension>
<tp1:hr>109</tp1:hr>
</tp1:TrackPointExtension>
</extensions>
</trkpt>
<trkpt lat="46.1929151" lon="6.0251189">
<ele>366.0000000</ele>
<time>2014-12-04T11:24:26Z</time>
<extensions>
<tp1:TrackPointExtension>
<tp1:hr>111</tp1:hr>
</tp1:TrackPointExtension>
</extensions>
</trkpt>
<trkpt lat="46.1929549" lon="6.0249775">
<ele>366.6000000</ele>
<time>2014-12-04T11:24:29Z</time>
<extensions>
<tp1:TrackPointExtension>
<tp1:hr>113</tp1:hr>
</tp1:TrackPointExtension>
</extensions>
</trkpt>
<trkpt lat="46.1929700" lon="6.0249314">
<ele>367.0000000</ele>
<time>2014-12-04T11:24:30Z</time>
<extensions>
<tp1:TrackPointExtension>
<tp1:hr>113</tp1:hr>
</tp1:TrackPointExtension>
</extensions>
</trkpt>
<trkpt lat="46.1929844" lon="6.0248860">
<ele>367.4000000</ele>
<time>2014-12-04T11:24:31Z</time>
<extensions>
<tp1:TrackPointExtension>
<tp1:hr>114</tp1:hr>
</tp1:TrackPointExtension>
</extensions>
</trkpt>
<trkpt lat="46.1929975" lon="6.0248387">
<ele>367.8000000</ele>
<time>2014-12-04T11:24:32Z</time>
<extensions>
<tp1:TrackPointExtension>
<tp1:hr>114</tp1:hr>
</tp1:TrackPointExtension>
</extensions>
</trkpt>
<trkpt lat="46.1930098" lon="6.0247910">
<ele>368.4000000</ele>
<time>2014-12-04T11:24:33Z</time>
<extensions>
<tp1:TrackPointExtension>
<tp1:hr>115</tp1:hr>
</tp1:TrackPointExtension>
</extensions>
</trkpt>
<trkpt lat="46.1930421" lon="6.0246412">
<ele>368.4000000</ele>
<time>2014-12-04T11:24:36Z</time>
<extensions>
<tp1:TrackPointExtension>
<tp1:hr>116</tp1:hr>
</tp1:TrackPointExtension>
</extensions>
</trkpt>
<trkpt lat="46.1931074" lon="6.0243409">
<ele>368.8000000</ele>
<time>2014-12-04T11:24:42Z</time>
<extensions>
<tp1:TrackPointExtension>
<tp1:hr>118</tp1:hr>
</tp1:TrackPointExtension>
</extensions>
</trkpt>
<trkpt lat="46.1931172" lon="6.0242922">
<ele>369.2000000</ele>
<time>2014-12-04T11:24:43Z</time>
<extensions>
<tp1:TrackPointExtension>
<tp1:hr>118</tp1:hr>
</tp1:TrackPointExtension>
</extensions>
</trkpt>
<trkpt lat="46.1931270" lon="6.0242455">
<ele>369.8000000</ele>
<time>2014-12-04T11:24:44Z</time>
<extensions>
<tp1:TrackPointExtension>
<tp1:hr>118</tp1:hr>
</tp1:TrackPointExtension>
</extensions>
</trkpt>
<trkpt lat="46.1931394" lon="6.0241961">
<ele>370.2000000</ele>
<time>2014-12-04T11:24:45Z</time>
<extensions>
<tp1:TrackPointExtension>
<tp1:hr>119</tp1:hr>
</tp1:TrackPointExtension>
</extensions>
</trkpt>
<trkpt lat="46.1931515" lon="6.0241508">
<ele>370.6000000</ele>
<time>2014-12-04T11:24:46Z</time>
<extensions>
<tp1:TrackPointExtension>
<tp1:hr>119</tp1:hr>
</tp1:TrackPointExtension>
</extensions>
</trkpt>
<trkpt lat="46.1931630" lon="6.0241045">
<ele>370.6000000</ele>
<time>2014-12-04T11:24:47Z</time>
<extensions>
<tp1:TrackPointExtension>
<tp1:hr>119</tp1:hr>
</tp1:TrackPointExtension>
</extensions>
</trkpt>
<trkpt lat="46.1931952" lon="6.0239664">
<ele>371.0000000</ele>
<time>2014-12-04T11:24:50Z</time>
<extensions>
<tp1:TrackPointExtension>
<tp1:hr>120</tp1:hr>
</tp1:TrackPointExtension>
</extensions>
</trkpt>
<trkpt lat="46.1932061" lon="6.0239186">
<ele>371.6000000</ele>
<time>2014-12-04T11:24:51Z</time>
<extensions>
<tp1:TrackPointExtension>
<tp1:hr>121</tp1:hr>
</tp1:TrackPointExtension>
</extensions>
</trkpt>
<trkpt lat="46.1932144" lon="6.0238718">
<ele>372.0000000</ele>
<time>2014-12-04T11:24:52Z</time>
<extensions>
<tp1:TrackPointExtension>
<tp1:hr>121</tp1:hr>
</tp1:TrackPointExtension>
</extensions>
</trkpt>
<trkpt lat="46.1932204" lon="6.0238238">
<ele>372.4000000</ele>
<time>2014-12-04T11:24:53Z</time>
<extensions>
<tp1:TrackPointExtension>
<tp1:hr>121</tp1:hr>
</tp1:TrackPointExtension>
</extensions>
</trkpt>
<trkpt lat="46.1932135" lon="6.0237721">
<ele>372.8000000</ele>
<time>2014-12-04T11:24:54Z</time>
<extensions>
<tp1:TrackPointExtension>
<tp1:hr>122</tp1:hr>
</tp1:TrackPointExtension>
</extensions>
</trkpt>
<trkpt lat="46.1932135" lon="6.0236769">
<ele>372.8000000</ele>
<time>2014-12-04T11:24:56Z</time>
<extensions>
<tp1:TrackPointExtension>
<tp1:hr>122</tp1:hr>
</tp1:TrackPointExtension>
</extensions>
</trkpt>
<trkpt lat="46.1931489" lon="6.0234407">
<ele>372.8000000</ele>
<time>2014-12-04T11:25:01Z</time>
<extensions>
<tp1:TrackPointExtension>
<tp1:hr>123</tp1:hr>
</tp1:TrackPointExtension>
</extensions>
</trkpt>
<trkpt lat="46.1931117" lon="6.0233510">
<ele>373.2000000</ele>
<time>2014-12-04T11:25:03Z</time>
<extensions>
<tp1:TrackPointExtension>
<tp1:hr>124</tp1:hr>
</tp1:TrackPointExtension>
</extensions>
</trkpt>
<trkpt lat="46.1930938" lon="6.0233161">
<ele>373.8000000</ele>
<time>2014-12-04T11:25:04Z</time>
<extensions>
<tp1:TrackPointExtension>
<tp1:hr>124</tp1:hr>
</tp1:TrackPointExtension>
</extensions>
</trkpt>
<trkpt lat="46.1930604" lon="6.0232788">
<ele>374.2000000</ele>
<time>2014-12-04T11:25:05Z</time>
<extensions>
<tp1:TrackPointExtension>
<tp1:hr>124</tp1:hr>
</tp1:TrackPointExtension>
</extensions>
</trkpt>
<trkpt lat="46.1930356" lon="6.0232455">
<ele>374.6000000</ele>
<time>2014-12-04T11:25:06Z</time>
<extensions>
<tp1:TrackPointExtension>
<tp1:hr>124</tp1:hr>
</tp1:TrackPointExtension>
</extensions>
</trkpt>
<trkpt lat="46.1930045" lon="6.0232140">
<ele>375.0000000</ele>
<time>2014-12-04T11:25:07Z</time>
<extensions>
<tp1:TrackPointExtension>
<tp1:hr>124</tp1:hr>
</tp1:TrackPointExtension>
</extensions>
</trkpt>
<trkpt lat="46.1928837" lon="6.0231224">
<ele>375.4000000</ele>
<time>2014-12-04T11:25:11Z</time>
<extensions>
<tp1:TrackPointExtension>
<tp1:hr>125</tp1:hr>
</tp1:TrackPointExtension>
</extensions>
</trkpt>
<trkpt lat="46.1928550" lon="6.0231034">
<ele>375.8000000</ele>
<time>2014-12-04T11:25:12Z</time>
<extensions>
<tp1:TrackPointExtension>
<tp1:hr>125</tp1:hr>
</tp1:TrackPointExtension>
</extensions>
</trkpt>
<trkpt lat="46.1928239" lon="6.0230863">
<ele>376.2000000</ele>
<time>2014-12-04T11:25:13Z</time>
<extensions>
<tp1:TrackPointExtension>
<tp1:hr>125</tp1:hr>
</tp1:TrackPointExtension>
</extensions>
</trkpt>
<trkpt lat="46.1927900" lon="6.0230693">
<ele>376.8000000</ele>
<time>2014-12-04T11:25:14Z</time>
<extensions>
<tp1:TrackPointExtension>
<tp1:hr>126</tp1:hr>
</tp1:TrackPointExtension>
</extensions>
</trkpt>
<trkpt lat="46.1927587" lon="6.0230542">
<ele>377.2000000</ele>
<time>2014-12-04T11:25:15Z</time>
<extensions>
<tp1:TrackPointExtension>
<tp1:hr>126</tp1:hr>
</tp1:TrackPointExtension>
</extensions>
</trkpt>
<trkpt lat="46.1925723" lon="6.0229560">
<ele>377.6000000</ele>
<time>2014-12-04T11:25:21Z</time>
<extensions>
<tp1:TrackPointExtension>
<tp1:hr>128</tp1:hr>
</tp1:TrackPointExtension>
</extensions>
</trkpt>
<trkpt lat="46.1925427" lon="6.0229371">
<ele>378.0000000</ele>
<time>2014-12-04T11:25:22Z</time>
<extensions>
<tp1:TrackPointExtension>
<tp1:hr>128</tp1:hr>
</tp1:TrackPointExtension>
</extensions>
</trkpt>
<trkpt lat="46.1925126" lon="6.0229179">
<ele>378.4000000</ele>
<time>2014-12-04T11:25:23Z</time>
<extensions>
<tp1:TrackPointExtension>
<tp1:hr>128</tp1:hr>
</tp1:TrackPointExtension>
</extensions>
</trkpt>
<trkpt lat="46.1924800" lon="6.0229003">
<ele>378.8000000</ele>
<time>2014-12-04T11:25:24Z</time>
<extensions>
<tp1:TrackPointExtension>
<tp1:hr>128</tp1:hr>
</tp1:TrackPointExtension>
</extensions>
</trkpt>
<trkpt lat="46.1924471" lon="6.0228862">
<ele>378.8000000</ele>
<time>2014-12-04T11:25:25Z</time>
<extensions>
<tp1:TrackPointExtension>
<tp1:hr>128</tp1:hr>
</tp1:TrackPointExtension>
</extensions>
</trkpt>
<trkpt lat="46.1924168" lon="6.0228666">
<ele>379.2000000</ele>
<time>2014-12-04T11:25:26Z</time>
<extensions>
<tp1:TrackPointExtension>
<tp1:hr>129</tp1:hr>
</tp1:TrackPointExtension>
</extensions>
</trkpt>
<trkpt lat="46.1922979" lon="6.0228081">
<ele>379.6000000</ele>
<time>2014-12-04T11:25:30Z</time>
<extensions>
<tp1:TrackPointExtension>
<tp1:hr>129</tp1:hr>
</tp1:TrackPointExtension>
</extensions>
</trkpt>
<trkpt lat="46.1922713" lon="6.0227805">
<ele>380.0000000</ele>
<time>2014-12-04T11:25:31Z</time>
<extensions>
<tp1:TrackPointExtension>
<tp1:hr>130</tp1:hr>
</tp1:TrackPointExtension>
</extensions>
</trkpt>
<trkpt lat="46.1922492" lon="6.0227508">
<ele>380.4000000</ele>
<time>2014-12-04T11:25:32Z</time>
<extensions>
<tp1:TrackPointExtension>
<tp1:hr>130</tp1:hr>
</tp1:TrackPointExtension>
</extensions>
</trkpt>
<trkpt lat="46.1922238" lon="6.0227137">
<ele>380.8000000</ele>
<time>2014-12-04T11:25:33Z</time>
<extensions>
<tp1:TrackPointExtension>
<tp1:hr>130</tp1:hr>
</tp1:TrackPointExtension>
</extensions>
</trkpt>
<trkpt lat="46.1922041" lon="6.0226768">
<ele>381.2000000</ele>
<time>2014-12-04T11:25:34Z</time>
<extensions>
<tp1:TrackPointExtension>
<tp1:hr>130</tp1:hr>
</tp1:TrackPointExtension>
</extensions>
</trkpt>
<trkpt lat="46.1921871" lon="6.0226379">
<ele>381.2000000</ele>
<time>2014-12-04T11:25:35Z</time>
<extensions>
<tp1:TrackPointExtension>
<tp1:hr>131</tp1:hr>
</tp1:TrackPointExtension>
</extensions>
</trkpt>
<trkpt lat="46.1921080" lon="6.0223450">
<ele>381.2000000</ele>
<time>2014-12-04T11:25:42Z</time>
<extensions>
<tp1:TrackPointExtension>
<tp1:hr>132</tp1:hr>
</tp1:TrackPointExtension>
</extensions>
</trkpt>
<trkpt lat="46.1921060" lon="6.0222988">
<ele>381.8000000</ele>
<time>2014-12-04T11:25:43Z</time>
<extensions>
<tp1:TrackPointExtension>
<tp1:hr>132</tp1:hr>
</tp1:TrackPointExtension>
</extensions>
</trkpt>
<trkpt lat="46.1921046" lon="6.0222528">
<ele>382.2000000</ele>
<time>2014-12-04T11:25:44Z</time>
<extensions>
<tp1:TrackPointExtension>
<tp1:hr>132</tp1:hr>
</tp1:TrackPointExtension>
</extensions>
</trkpt>
<trkpt lat="46.1921065" lon="6.0222088">
<ele>382.6000000</ele>
<time>2014-12-04T11:25:45Z</time>
<extensions>
<tp1:TrackPointExtension>
<tp1:hr>132</tp1:hr>
</tp1:TrackPointExtension>
</extensions>
</trkpt>
<trkpt lat="46.1921117" lon="6.0221646">
<ele>383.2000000</ele>
<time>2014-12-04T11:25:46Z</time>
<extensions>
<tp1:TrackPointExtension>
<tp1:hr>132</tp1:hr>
</tp1:TrackPointExtension>
</extensions>
</trkpt>
<trkpt lat="46.1921189" lon="6.0221183">
<ele>383.6000000</ele>
<time>2014-12-04T11:25:47Z</time>
<extensions>
<tp1:TrackPointExtension>
<tp1:hr>132</tp1:hr>
</tp1:TrackPointExtension>
</extensions>
</trkpt>
<trkpt lat="46.1921421" lon="6.0220298">
<ele>383.6000000</ele>
<time>2014-12-04T11:25:49Z</time>
<extensions>
<tp1:TrackPointExtension>
<tp1:hr>133</tp1:hr>
</tp1:TrackPointExtension>
</extensions>
</trkpt>
<trkpt lat="46.1921694" lon="6.0219445">
<ele>384.0000000</ele>
<time>2014-12-04T11:25:51Z</time>
<extensions>
<tp1:TrackPointExtension>
<tp1:hr>133</tp1:hr>
</tp1:TrackPointExtension>
</extensions>
</trkpt>
<trkpt lat="46.1921875" lon="6.0219058">
<ele>384.4000000</ele>
<time>2014-12-04T11:25:52Z</time>
<extensions>
<tp1:TrackPointExtension>
<tp1:hr>133</tp1:hr>
</tp1:TrackPointExtension>
</extensions>
</trkpt>
<trkpt lat="46.1922057" lon="6.0218700">
<ele>384.8000000</ele>
<time>2014-12-04T11:25:53Z</time>
<extensions>
<tp1:TrackPointExtension>
<tp1:hr>133</tp1:hr>
</tp1:TrackPointExtension>
</extensions>
</trkpt>
<trkpt lat="46.1922272" lon="6.0218350">
<ele>385.2000000</ele>
<time>2014-12-04T11:25:54Z</time>
<extensions>
<tp1:TrackPointExtension>
<tp1:hr>134</tp1:hr>
</tp1:TrackPointExtension>
</extensions>
</trkpt>
<trkpt lat="46.1922510" lon="6.0218033">
<ele>385.8000000</ele>
<time>2014-12-04T11:25:55Z</time>
<extensions>
<tp1:TrackPointExtension>
<tp1:hr>134</tp1:hr>
</tp1:TrackPointExtension>
</extensions>
</trkpt>
<trkpt lat="46.1922745" lon="6.0217730">
<ele>385.8000000</ele>
<time>2014-12-04T11:25:56Z</time>
<extensions>
<tp1:TrackPointExtension>
<tp1:hr>134</tp1:hr>
</tp1:TrackPointExtension>
</extensions>
</trkpt>
<trkpt lat="46.1924422" lon="6.0216322">
<ele>386.2000000</ele>
<time>2014-12-04T11:26:02Z</time>
<extensions>
<tp1:TrackPointExtension>
<tp1:hr>135</tp1:hr>
</tp1:TrackPointExtension>
</extensions>
</trkpt>
<trkpt lat="46.1924699" lon="6.0216081">
<ele>386.6000000</ele>
<time>2014-12-04T11:26:03Z</time>
<extensions>
<tp1:TrackPointExtension>
<tp1:hr>135</tp1:hr>
</tp1:TrackPointExtension>
</extensions>
</trkpt>
<trkpt lat="46.1924933" lon="6.0215906">
<ele>387.2000000</ele>
<time>2014-12-04T11:26:04Z</time>
<extensions>
<tp1:TrackPointExtension>
<tp1:hr>135</tp1:hr>
</tp1:TrackPointExtension>
</extensions>
</trkpt>
<trkpt lat="46.1925188" lon="6.0215724">
<ele>387.6000000</ele>
<time>2014-12-04T11:26:05Z</time>
<extensions>
<tp1:TrackPointExtension>
<tp1:hr>135</tp1:hr>
</tp1:TrackPointExtension>
</extensions>
</trkpt>
<trkpt lat="46.1925463" lon="6.0215538">
<ele>388.2000000</ele>
<time>2014-12-04T11:26:06Z</time>
<extensions>
<tp1:TrackPointExtension>
<tp1:hr>136</tp1:hr>
</tp1:TrackPointExtension>
</extensions>
</trkpt>
<trkpt lat="46.1926530" lon="6.0214665">
<ele>388.2000000</ele>
<time>2014-12-04T11:26:11Z</time>
<extensions>
<tp1:TrackPointExtension>
<tp1:hr>136</tp1:hr>
</tp1:TrackPointExtension>
</extensions>
</trkpt>
<trkpt lat="46.1927058" lon="6.0214235">
<ele>388.6000000</ele>
<time>2014-12-04T11:26:13Z</time>
<extensions>
<tp1:TrackPointExtension>
<tp1:hr>137</tp1:hr>
</tp1:TrackPointExtension>
</extensions>
</trkpt>
<trkpt lat="46.1927334" lon="6.0214017">
<ele>389.0000000</ele>
<time>2014-12-04T11:26:14Z</time>
<extensions>
<tp1:TrackPointExtension>
<tp1:hr>137</tp1:hr>
</tp1:TrackPointExtension>
</extensions>
</trkpt>
<trkpt lat="46.1927612" lon="6.0213792">
<ele>389.4000000</ele>
<time>2014-12-04T11:26:15Z</time>
<extensions>
<tp1:TrackPointExtension>
<tp1:hr>137</tp1:hr>
</tp1:TrackPointExtension>
</extensions>
</trkpt>
<trkpt lat="46.1927887" lon="6.0213596">
<ele>390.0000000</ele>
<time>2014-12-04T11:26:16Z</time>
<extensions>
<tp1:TrackPointExtension>
<tp1:hr>137</tp1:hr>
</tp1:TrackPointExtension>
</extensions>
</trkpt>
<trkpt lat="46.1928193" lon="6.0213398">
<ele>390.4000000</ele>
<time>2014-12-04T11:26:17Z</time>
<extensions>
<tp1:TrackPointExtension>
<tp1:hr>137</tp1:hr>
</tp1:TrackPointExtension>
</extensions>
</trkpt>
<trkpt lat="46.1929326" lon="6.0212513">
<ele>390.4000000</ele>
<time>2014-12-04T11:26:21Z</time>
<extensions>
<tp1:TrackPointExtension>
<tp1:hr>138</tp1:hr>
</tp1:TrackPointExtension>
</extensions>
</trkpt>
<trkpt lat="46.1930106" lon="6.0211839">
<ele>390.8000000</ele>
<time>2014-12-04T11:26:24Z</time>
<extensions>
<tp1:TrackPointExtension>
<tp1:hr>138</tp1:hr>
</tp1:TrackPointExtension>
</extensions>
</trkpt>
<trkpt lat="46.1930572" lon="6.0211415">
<ele>391.2000000</ele>
<time>2014-12-04T11:26:25Z</time>
<extensions>
<tp1:TrackPointExtension>
<tp1:hr>139</tp1:hr>
</tp1:TrackPointExtension>
</extensions>
</trkpt>
<trkpt lat="46.1930781" lon="6.0211121">
<ele>391.6000000</ele>
<time>2014-12-04T11:26:26Z</time>
<extensions>
<tp1:TrackPointExtension>
<tp1:hr>139</tp1:hr>
</tp1:TrackPointExtension>
</extensions>
</trkpt>
<trkpt lat="46.1930959" lon="6.0210836">
<ele>392.2000000</ele>
<time>2014-12-04T11:26:27Z</time>
<extensions>
<tp1:TrackPointExtension>
<tp1:hr>138</tp1:hr>
</tp1:TrackPointExtension>
</extensions>
</trkpt>
<trkpt lat="46.1931156" lon="6.0210487">
<ele>392.6000000</ele>
<time>2014-12-04T11:26:28Z</time>
<extensions>
<tp1:TrackPointExtension>
<tp1:hr>138</tp1:hr>
</tp1:TrackPointExtension>
</extensions>
</trkpt>
<trkpt lat="46.1931340" lon="6.0210112">
<ele>392.6000000</ele>
<time>2014-12-04T11:26:29Z</time>
<extensions>
<tp1:TrackPointExtension>
<tp1:hr>139</tp1:hr>
</tp1:TrackPointExtension>
</extensions>
</trkpt>
<trkpt lat="46.1931891" lon="6.0208015">
<ele>393.0000000</ele>
<time>2014-12-04T11:26:34Z</time>
<extensions>
<tp1:TrackPointExtension>
<tp1:hr>139</tp1:hr>
</tp1:TrackPointExtension>
</extensions>
</trkpt>
<trkpt lat="46.1931907" lon="6.0207583">
<ele>393.4000000</ele>
<time>2014-12-04T11:26:35Z</time>
<extensions>
<tp1:TrackPointExtension>
<tp1:hr>139</tp1:hr>
</tp1:TrackPointExtension>
</extensions>
</trkpt>
<trkpt lat="46.1931881" lon="6.0207132">
<ele>394.0000000</ele>
<time>2014-12-04T11:26:36Z</time>
<extensions>
<tp1:TrackPointExtension>
<tp1:hr>139</tp1:hr>
</tp1:TrackPointExtension>
</extensions>
</trkpt>
<trkpt lat="46.1931859" lon="6.0206696">
<ele>394.4000000</ele>
<time>2014-12-04T11:26:37Z</time>
<extensions>
<tp1:TrackPointExtension>
<tp1:hr>139</tp1:hr>
</tp1:TrackPointExtension>
</extensions>
</trkpt>
<trkpt lat="46.1931811" lon="6.0206255">
<ele>395.0000000</ele>
<time>2014-12-04T11:26:38Z</time>
<extensions>
<tp1:TrackPointExtension>
<tp1:hr>139</tp1:hr>
</tp1:TrackPointExtension>
</extensions>
</trkpt>
<trkpt lat="46.1931200" lon="6.0204278">
<ele>395.0000000</ele>
<time>2014-12-04T11:26:43Z</time>
<extensions>
<tp1:TrackPointExtension>
<tp1:hr>140</tp1:hr>
</tp1:TrackPointExtension>
</extensions>
</trkpt>
<trkpt lat="46.1930636" lon="6.0203192">
<ele>395.4000000</ele>
<time>2014-12-04T11:26:46Z</time>
<extensions>
<tp1:TrackPointExtension>
<tp1:hr>141</tp1:hr>
</tp1:TrackPointExtension>
</extensions>
</trkpt>
<trkpt lat="46.1930407" lon="6.0202909">
<ele>395.8000000</ele>
<time>2014-12-04T11:26:47Z</time>
<extensions>
<tp1:TrackPointExtension>
<tp1:hr>141</tp1:hr>
</tp1:TrackPointExtension>
</extensions>
</trkpt>
<trkpt lat="46.1929872" lon="6.0202458">
<ele>396.6000000</ele>
<time>2014-12-04T11:26:49Z</time>
<extensions>
<tp1:TrackPointExtension>
<tp1:hr>141</tp1:hr>
</tp1:TrackPointExtension>
</extensions>
</trkpt>
<trkpt lat="46.1929596" lon="6.0202255">
<ele>396.6000000</ele>
<time>2014-12-04T11:26:50Z</time>
<extensions>
<tp1:TrackPointExtension>
<tp1:hr>141</tp1:hr>
</tp1:TrackPointExtension>
</extensions>
</trkpt>
<trkpt lat="46.1929303" lon="6.0202082">
<ele>397.0000000</ele>
<time>2014-12-04T11:26:51Z</time>
<extensions>
<tp1:TrackPointExtension>
<tp1:hr>141</tp1:hr>
</tp1:TrackPointExtension>
</extensions>
</trkpt>
<trkpt lat="46.1927732" lon="6.0201804">
<ele>397.0000000</ele>
<time>2014-12-04T11:26:56Z</time>
<extensions>
<tp1:TrackPointExtension>
<tp1:hr>142</tp1:hr>
</tp1:TrackPointExtension>
</extensions>
</trkpt>
<trkpt lat="46.1927417" lon="6.0201822">
<ele>397.6000000</ele>
<time>2014-12-04T11:26:57Z</time>
<extensions>
<tp1:TrackPointExtension>
<tp1:hr>142</tp1:hr>
</tp1:TrackPointExtension>
</extensions>
</trkpt>
<trkpt lat="46.1927089" lon="6.0201877">
<ele>398.0000000</ele>
<time>2014-12-04T11:26:58Z</time>
<extensions>
<tp1:TrackPointExtension>
<tp1:hr>142</tp1:hr>
</tp1:TrackPointExtension>
</extensions>
</trkpt>
<trkpt lat="46.1926768" lon="6.0201898">
<ele>398.4000000</ele>
<time>2014-12-04T11:26:59Z</time>
<extensions>
<tp1:TrackPointExtension>
<tp1:hr>141</tp1:hr>
</tp1:TrackPointExtension>
</extensions>
</trkpt>
<trkpt lat="46.1926455" lon="6.0201939">
<ele>398.8000000</ele>
<time>2014-12-04T11:27:00Z</time>
<extensions>
<tp1:TrackPointExtension>
<tp1:hr>142</tp1:hr>
</tp1:TrackPointExtension>
</extensions>
</trkpt>
<trkpt lat="46.1926141" lon="6.0201967">
<ele>399.2000000</ele>
<time>2014-12-04T11:27:01Z</time>
<extensions>
<tp1:TrackPointExtension>
<tp1:hr>142</tp1:hr>
</tp1:TrackPointExtension>
</extensions>
</trkpt>
<trkpt lat="46.1923956" lon="6.0202056">
<ele>399.6000000</ele>
<time>2014-12-04T11:27:08Z</time>
<extensions>
<tp1:TrackPointExtension>
<tp1:hr>142</tp1:hr>
</tp1:TrackPointExtension>
</extensions>
</trkpt>
<trkpt lat="46.1923639" lon="6.0202026">
<ele>400.2000000</ele>
<time>2014-12-04T11:27:09Z</time>
<extensions>
<tp1:TrackPointExtension>
<tp1:hr>142</tp1:hr>
</tp1:TrackPointExtension>
</extensions>
</trkpt>
<trkpt lat="46.1923339" lon="6.0201866">
<ele>400.6000000</ele>
<time>2014-12-04T11:27:10Z</time>
<extensions>
<tp1:TrackPointExtension>
<tp1:hr>142</tp1:hr>
</tp1:TrackPointExtension>
</extensions>
</trkpt>
<trkpt lat="46.1923049" lon="6.0201674">
<ele>401.0000000</ele>
<time>2014-12-04T11:27:11Z</time>
<extensions>
<tp1:TrackPointExtension>
<tp1:hr>142</tp1:hr>
</tp1:TrackPointExtension>
</extensions>
</trkpt>
<trkpt lat="46.1922773" lon="6.0201472">
<ele>401.6000000</ele>
<time>2014-12-04T11:27:12Z</time>
<extensions>
<tp1:TrackPointExtension>
<tp1:hr>142</tp1:hr>
</tp1:TrackPointExtension>
</extensions>
</trkpt>
<trkpt lat="46.1921766" lon="6.0200313">
<ele>401.6000000</ele>
<time>2014-12-04T11:27:16Z</time>
<extensions>
<tp1:TrackPointExtension>
<tp1:hr>143</tp1:hr>
</tp1:TrackPointExtension>
</extensions>
</trkpt>
<trkpt lat="46.1921389" lon="6.0199570">
<ele>402.0000000</ele>
<time>2014-12-04T11:27:18Z</time>
<extensions>
<tp1:TrackPointExtension>
<tp1:hr>142</tp1:hr>
</tp1:TrackPointExtension>
</extensions>
</trkpt>
<trkpt lat="46.1921238" lon="6.0199122">
<ele>402.4000000</ele>
<time>2014-12-04T11:27:19Z</time>
<extensions>
<tp1:TrackPointExtension>
<tp1:hr>143</tp1:hr>
</tp1:TrackPointExtension>
</extensions>
</trkpt>
<trkpt lat="46.1921147" lon="6.0198661">
<ele>403.0000000</ele>
<time>2014-12-04T11:27:20Z</time>
<extensions>
<tp1:TrackPointExtension>
<tp1:hr>143</tp1:hr>
</tp1:TrackPointExtension>
</extensions>
</trkpt>
<trkpt lat="46.1921094" lon="6.0198203">
<ele>403.4000000</ele>
<time>2014-12-04T11:27:21Z</time>
<extensions>
<tp1:TrackPointExtension>
<tp1:hr>143</tp1:hr>
</tp1:TrackPointExtension>
</extensions>
</trkpt>
<trkpt lat="46.1921052" lon="6.0197713">
<ele>403.8000000</ele>
<time>2014-12-04T11:27:22Z</time>
<extensions>
<tp1:TrackPointExtension>
<tp1:hr>143</tp1:hr>
</tp1:TrackPointExtension>
</extensions>
</trkpt>
<trkpt lat="46.1921192" lon="6.0195891">
<ele>404.4000000</ele>
<time>2014-12-04T11:27:26Z</time>
<extensions>
<tp1:TrackPointExtension>
<tp1:hr>143</tp1:hr>
</tp1:TrackPointExtension>
</extensions>
</trkpt>
<trkpt lat="46.1921270" lon="6.0195408">
<ele>404.8000000</ele>
<time>2014-12-04T11:27:27Z</time>
<extensions>
<tp1:TrackPointExtension>
<tp1:hr>143</tp1:hr>
</tp1:TrackPointExtension>
</extensions>
</trkpt>
<trkpt lat="46.1921370" lon="6.0194968">
<ele>405.2000000</ele>
<time>2014-12-04T11:27:28Z</time>
<extensions>
<tp1:TrackPointExtension>
<tp1:hr>143</tp1:hr>
</tp1:TrackPointExtension>
</extensions>
</trkpt>
<trkpt lat="46.1921471" lon="6.0194503">
<ele>405.6000000</ele>
<time>2014-12-04T11:27:29Z</time>
<extensions>
<tp1:TrackPointExtension>
<tp1:hr>144</tp1:hr>
</tp1:TrackPointExtension>
</extensions>
</trkpt>
<trkpt lat="46.1921590" lon="6.0194072">
<ele>406.0000000</ele>
<time>2014-12-04T11:27:30Z</time>
<extensions>
<tp1:TrackPointExtension>
<tp1:hr>143</tp1:hr>
</tp1:TrackPointExtension>
</extensions>
</trkpt>
<trkpt lat="46.1922041" lon="6.0192810">
<ele>406.0000000</ele>
<time>2014-12-04T11:27:33Z</time>
<extensions>
<tp1:TrackPointExtension>
<tp1:hr>144</tp1:hr>
</tp1:TrackPointExtension>
</extensions>
</trkpt>
<trkpt lat="46.1923090" lon="6.0189934">
<ele>406.4000000</ele>
<time>2014-12-04T11:27:40Z</time>
<extensions>
<tp1:TrackPointExtension>
<tp1:hr>144</tp1:hr>
</tp1:TrackPointExtension>
</extensions>
</trkpt>
<trkpt lat="46.1923255" lon="6.0189561">
<ele>406.8000000</ele>
<time>2014-12-04T11:27:41Z</time>
<extensions>
<tp1:TrackPointExtension>
<tp1:hr>145</tp1:hr>
</tp1:TrackPointExtension>
</extensions>
</trkpt>
<trkpt lat="46.1923401" lon="6.0189149">
<ele>407.4000000</ele>
<time>2014-12-04T11:27:42Z</time>
<extensions>
<tp1:TrackPointExtension>
<tp1:hr>145</tp1:hr>
</tp1:TrackPointExtension>
</extensions>
</trkpt>
<trkpt lat="46.1923572" lon="6.0188774">
<ele>407.8000000</ele>
<time>2014-12-04T11:27:43Z</time>
<extensions>
<tp1:TrackPointExtension>
<tp1:hr>145</tp1:hr>
</tp1:TrackPointExtension>
</extensions>
</trkpt>
<trkpt lat="46.1923753" lon="6.0188355">
<ele>408.2000000</ele>
<time>2014-12-04T11:27:44Z</time>
<extensions>
<tp1:TrackPointExtension>
<tp1:hr>145</tp1:hr>
</tp1:TrackPointExtension>
</extensions>
</trkpt>
<trkpt lat="46.1924317" lon="6.0186646">
<ele>408.6000000</ele>
<time>2014-12-04T11:27:48Z</time>
<extensions>
<tp1:TrackPointExtension>
<tp1:hr>145</tp1:hr>
</tp1:TrackPointExtension>
</extensions>
</trkpt>
<trkpt lat="46.1924475" lon="6.0186245">
<ele>409.0000000</ele>
<time>2014-12-04T11:27:49Z</time>
<extensions>
<tp1:TrackPointExtension>
<tp1:hr>145</tp1:hr>
</tp1:TrackPointExtension>
</extensions>
</trkpt>
<trkpt lat="46.1924646" lon="6.0185870">
<ele>409.6000000</ele>
<time>2014-12-04T11:27:50Z</time>
<extensions>
<tp1:TrackPointExtension>
<tp1:hr>145</tp1:hr>
</tp1:TrackPointExtension>
</extensions>
</trkpt>
<trkpt lat="46.1924812" lon="6.0185467">
<ele>410.0000000</ele>
<time>2014-12-04T11:27:51Z</time>
<extensions>
<tp1:TrackPointExtension>
<tp1:hr>145</tp1:hr>
</tp1:TrackPointExtension>
</extensions>
</trkpt>
<trkpt lat="46.1924967" lon="6.0185065">
<ele>410.4000000</ele>
<time>2014-12-04T11:27:52Z</time>
<extensions>
<tp1:TrackPointExtension>
<tp1:hr>145</tp1:hr>
</tp1:TrackPointExtension>
</extensions>
</trkpt>
<trkpt lat="46.1925242" lon="6.0184186">
<ele>410.4000000</ele>
<time>2014-12-04T11:27:54Z</time>
<extensions>
<tp1:TrackPointExtension>
<tp1:hr>145</tp1:hr>
</tp1:TrackPointExtension>
</extensions>
</trkpt>
<trkpt lat="46.1926509" lon="6.0180623">
<ele>410.8000000</ele>
<time>2014-12-04T11:28:02Z</time>
<extensions>
<tp1:TrackPointExtension>
<tp1:hr>146</tp1:hr>
</tp1:TrackPointExtension>
</extensions>
</trkpt>
<trkpt lat="46.1926696" lon="6.0180151">
<ele>411.2000000</ele>
<time>2014-12-04T11:28:03Z</time>
<extensions>
<tp1:TrackPointExtension>
<tp1:hr>146</tp1:hr>
</tp1:TrackPointExtension>
</extensions>
</trkpt>
<trkpt lat="46.1926856" lon="6.0179626">
<ele>411.8000000</ele>
<time>2014-12-04T11:28:04Z</time>
<extensions>
<tp1:TrackPointExtension>
<tp1:hr>146</tp1:hr>
</tp1:TrackPointExtension>
</extensions>
</trkpt>
<trkpt lat="46.1927008" lon="6.0179128">
<ele>412.2000000</ele>
<time>2014-12-04T11:28:05Z</time>
<extensions>
<tp1:TrackPointExtension>
<tp1:hr>145</tp1:hr>
</tp1:TrackPointExtension>
</extensions>
</trkpt>
<trkpt lat="46.1927174" lon="6.0178606">
<ele>412.6000000</ele>
<time>2014-12-04T11:28:06Z</time>
<extensions>
<tp1:TrackPointExtension>
<tp1:hr>145</tp1:hr>
</tp1:TrackPointExtension>
</extensions>
</trkpt>
<trkpt lat="46.1927950" lon="6.0176462">
<ele>412.6000000</ele>
<time>2014-12-04T11:28:10Z</time>
<extensions>
<tp1:TrackPointExtension>
<tp1:hr>145</tp1:hr>
</tp1:TrackPointExtension>
</extensions>
</trkpt>
<trkpt lat="46.1930287" lon="6.0170193">
<ele>412.6000000</ele>
<time>2014-12-04T11:28:22Z</time>
<extensions>
<tp1:TrackPointExtension>
<tp1:hr>144</tp1:hr>
</tp1:TrackPointExtension>
</extensions>
</trkpt>
<trkpt lat="46.1931934" lon="6.0166002">
<ele>412.6000000</ele>
<time>2014-12-04T11:28:31Z</time>
<extensions>
<tp1:TrackPointExtension>
<tp1:hr>141</tp1:hr>
</tp1:TrackPointExtension>
</extensions>
</trkpt>
<trkpt lat="46.1932896" lon="6.0165104">
<ele>413.0000000</ele>
<time>2014-12-04T11:28:34Z</time>
<extensions>
<tp1:TrackPointExtension>
<tp1:hr>141</tp1:hr>
</tp1:TrackPointExtension>
</extensions>
</trkpt>
<trkpt lat="46.1933246" lon="6.0164876">
<ele>413.4000000</ele>
<time>2014-12-04T11:28:35Z</time>
<extensions>
<tp1:TrackPointExtension>
<tp1:hr>140</tp1:hr>
</tp1:TrackPointExtension>
</extensions>
</trkpt>
<trkpt lat="46.1933608" lon="6.0164638">
<ele>413.8000000</ele>
<time>2014-12-04T11:28:36Z</time>
<extensions>
<tp1:TrackPointExtension>
<tp1:hr>140</tp1:hr>
</tp1:TrackPointExtension>
</extensions>
</trkpt>
<trkpt lat="46.1933989" lon="6.0164436">
<ele>414.2000000</ele>
<time>2014-12-04T11:28:37Z</time>
<extensions>
<tp1:TrackPointExtension>
<tp1:hr>140</tp1:hr>
</tp1:TrackPointExtension>
</extensions>
</trkpt>
<trkpt lat="46.1934379" lon="6.0164370">
<ele>414.6000000</ele>
<time>2014-12-04T11:28:38Z</time>
<extensions>
<tp1:TrackPointExtension>
<tp1:hr>140</tp1:hr>
</tp1:TrackPointExtension>
</extensions>
</trkpt>
<trkpt lat="46.1935199" lon="6.0164544">
<ele>414.6000000</ele>
<time>2014-12-04T11:28:40Z</time>
<extensions>
<tp1:TrackPointExtension>
<tp1:hr>139</tp1:hr>
</tp1:TrackPointExtension>
</extensions>
</trkpt>
<trkpt lat="46.1936726" lon="6.0165261">
<ele>414.6000000</ele>
<time>2014-12-04T11:28:44Z</time>
<extensions>
<tp1:TrackPointExtension>
<tp1:hr>138</tp1:hr>
</tp1:TrackPointExtension>
</extensions>
</trkpt>
<trkpt lat="46.1937875" lon="6.0165836">
<ele>414.6000000</ele>
<time>2014-12-04T11:28:47Z</time>
<extensions>
<tp1:TrackPointExtension>
<tp1:hr>137</tp1:hr>
</tp1:TrackPointExtension>
</extensions>
</trkpt>
<trkpt lat="46.1941794" lon="6.0167411">
<ele>414.6000000</ele>
<time>2014-12-04T11:28:57Z</time>
<extensions>
<tp1:TrackPointExtension>
<tp1:hr>134</tp1:hr>
</tp1:TrackPointExtension>
</extensions>
</trkpt>
<trkpt lat="46.1943431" lon="6.0167899">
<ele>414.6000000</ele>
<time>2014-12-04T11:29:01Z</time>
<extensions>
<tp1:TrackPointExtension>
<tp1:hr>133</tp1:hr>
</tp1:TrackPointExtension>
</extensions>
</trkpt>
<trkpt lat="46.1943840" lon="6.0167828">
<ele>414.6000000</ele>
<time>2014-12-04T11:29:02Z</time>
<extensions>
<tp1:TrackPointExtension>
<tp1:hr>133</tp1:hr>
</tp1:TrackPointExtension>
</extensions>
</trkpt>
<trkpt lat="46.1945734" lon="6.0166350">
<ele>414.6000000</ele>
<time>2014-12-04T11:29:07Z</time>
<extensions>
<tp1:TrackPointExtension>
<tp1:hr>132</tp1:hr>
</tp1:TrackPointExtension>
</extensions>
</trkpt>
<trkpt lat="46.1948960" lon="6.0162576">
<ele>414.6000000</ele>
<time>2014-12-04T11:29:17Z</time>
<extensions>
<tp1:TrackPointExtension>
<tp1:hr>131</tp1:hr>
</tp1:TrackPointExtension>
</extensions>
</trkpt>
<trkpt lat="46.1953421" lon="6.0157093">
<ele>414.6000000</ele>
<time>2014-12-04T11:29:30Z</time>
<extensions>
<tp1:TrackPointExtension>
<tp1:hr>129</tp1:hr>
</tp1:TrackPointExtension>
</extensions>
</trkpt>
<trkpt lat="46.1953787" lon="6.0156656">
<ele>414.6000000</ele>
<time>2014-12-04T11:29:31Z</time>
<extensions>
<tp1:TrackPointExtension>
<tp1:hr>128</tp1:hr>
</tp1:TrackPointExtension>
</extensions>
</trkpt>
<trkpt lat="46.1958026" lon="6.0151435">
<ele>414.6000000</ele>
<time>2014-12-04T11:29:43Z</time>
<extensions>
<tp1:TrackPointExtension>
<tp1:hr>127</tp1:hr>
</tp1:TrackPointExtension>
</extensions>
</trkpt>
<trkpt lat="46.1958709" lon="6.0150457">
<ele>414.6000000</ele>
<time>2014-12-04T11:29:45Z</time>
<extensions>
<tp1:TrackPointExtension>
<tp1:hr>128</tp1:hr>
</tp1:TrackPointExtension>
</extensions>
</trkpt>
<trkpt lat="46.1961705" lon="6.0145111">
<ele>414.6000000</ele>
<time>2014-12-04T11:29:55Z</time>
<extensions>
<tp1:TrackPointExtension>
<tp1:hr>127</tp1:hr>
</tp1:TrackPointExtension>
</extensions>
</trkpt>
<trkpt lat="46.1965055" lon="6.0138346">
<ele>414.6000000</ele>
<time>2014-12-04T11:30:07Z</time>
<extensions>
<tp1:TrackPointExtension>
<tp1:hr>125</tp1:hr>
</tp1:TrackPointExtension>
</extensions>
</trkpt>
<trkpt lat="46.1968179" lon="6.0133826">
<ele>414.6000000</ele>
<time>2014-12-04T11:30:16Z</time>
<extensions>
<tp1:TrackPointExtension>
<tp1:hr>124</tp1:hr>
</tp1:TrackPointExtension>
</extensions>
</trkpt>
<trkpt lat="46.1970970" lon="6.0129861">
<ele>414.6000000</ele>
<time>2014-12-04T11:30:24Z</time>
<extensions>
<tp1:TrackPointExtension>
<tp1:hr>123</tp1:hr>
</tp1:TrackPointExtension>
</extensions>
</trkpt>
<trkpt lat="46.1971166" lon="6.0129255">
<ele>414.6000000</ele>
<time>2014-12-04T11:30:25Z</time>
<extensions>
<tp1:TrackPointExtension>
<tp1:hr>123</tp1:hr>
</tp1:TrackPointExtension>
</extensions>
</trkpt>
<trkpt lat="46.1970752" lon="6.0127277">
<ele>414.6000000</ele>
<time>2014-12-04T11:30:28Z</time>
<extensions>
<tp1:TrackPointExtension>
<tp1:hr>122</tp1:hr>
</tp1:TrackPointExtension>
</extensions>
</trkpt>
<trkpt lat="46.1970057" lon="6.0126198">
<ele>414.6000000</ele>
<time>2014-12-04T11:30:30Z</time>
<extensions>
<tp1:TrackPointExtension>
<tp1:hr>122</tp1:hr>
</tp1:TrackPointExtension>
</extensions>
</trkpt>
<trkpt lat="46.1968276" lon="6.0123450">
<ele>414.6000000</ele>
<time>2014-12-04T11:30:35Z</time>
<extensions>
<tp1:TrackPointExtension>
<tp1:hr>123</tp1:hr>
</tp1:TrackPointExtension>
</extensions>
</trkpt>
<trkpt lat="46.1964417" lon="6.0117224">
<ele>414.6000000</ele>
<time>2014-12-04T11:30:46Z</time>
<extensions>
<tp1:TrackPointExtension>
<tp1:hr>122</tp1:hr>
</tp1:TrackPointExtension>
</extensions>
</trkpt>
<trkpt lat="46.1964089" lon="6.0116644">
<ele>414.6000000</ele>
<time>2014-12-04T11:30:47Z</time>
<extensions>
<tp1:TrackPointExtension>
<tp1:hr>122</tp1:hr>
</tp1:TrackPointExtension>
</extensions>
</trkpt>
<trkpt lat="46.1963215" lon="6.0115120">
<ele>414.6000000</ele>
<time>2014-12-04T11:30:50Z</time>
<extensions>
<tp1:TrackPointExtension>
<tp1:hr>121</tp1:hr>
</tp1:TrackPointExtension>
</extensions>
</trkpt>
<trkpt lat="46.1963225" lon="6.0114110">
<ele>414.6000000</ele>
<time>2014-12-04T11:30:52Z</time>
<extensions>
<tp1:TrackPointExtension>
<tp1:hr>120</tp1:hr>
</tp1:TrackPointExtension>
</extensions>
</trkpt>
<trkpt lat="46.1964386" lon="6.0113234">
<ele>414.6000000</ele>
<time>2014-12-04T11:30:55Z</time>
<extensions>
<tp1:TrackPointExtension>
<tp1:hr>120</tp1:hr>
</tp1:TrackPointExtension>
</extensions>
</trkpt>
<trkpt lat="46.1967118" lon="6.0111823">
<ele>415.0000000</ele>
<time>2014-12-04T11:31:01Z</time>
<extensions>
<tp1:TrackPointExtension>
<tp1:hr>121</tp1:hr>
</tp1:TrackPointExtension>
</extensions>
</trkpt>
<trkpt lat="46.1967605" lon="6.0111587">
<ele>415.4000000</ele>
<time>2014-12-04T11:31:02Z</time>
<extensions>
<tp1:TrackPointExtension>
<tp1:hr>121</tp1:hr>
</tp1:TrackPointExtension>
</extensions>
</trkpt>
<trkpt lat="46.1968039" lon="6.0111360">
<ele>415.8000000</ele>
<time>2014-12-04T11:31:03Z</time>
<extensions>
<tp1:TrackPointExtension>
<tp1:hr>121</tp1:hr>
</tp1:TrackPointExtension>
</extensions>
</trkpt>
<trkpt lat="46.1968500" lon="6.0111120">
<ele>416.2000000</ele>
<time>2014-12-04T11:31:04Z</time>
<extensions>
<tp1:TrackPointExtension>
<tp1:hr>121</tp1:hr>
</tp1:TrackPointExtension>
</extensions>
</trkpt>
<trkpt lat="46.1968982" lon="6.0110874">
<ele>416.6000000</ele>
<time>2014-12-04T11:31:05Z</time>
<extensions>
<tp1:TrackPointExtension>
<tp1:hr>121</tp1:hr>
</tp1:TrackPointExtension>
</extensions>
</trkpt>
<trkpt lat="46.1969469" lon="6.0110648">
<ele>416.6000000</ele>
<time>2014-12-04T11:31:06Z</time>
<extensions>
<tp1:TrackPointExtension>
<tp1:hr>121</tp1:hr>
</tp1:TrackPointExtension>
</extensions>
</trkpt>
<trkpt lat="46.1974734" lon="6.0108380">
<ele>416.6000000</ele>
<time>2014-12-04T11:31:17Z</time>
<extensions>
<tp1:TrackPointExtension>
<tp1:hr>120</tp1:hr>
</tp1:TrackPointExtension>
</extensions>
</trkpt>
<trkpt lat="46.1975153" lon="6.0108239">
<ele>416.6000000</ele>
<time>2014-12-04T11:31:18Z</time>
<extensions>
<tp1:TrackPointExtension>
<tp1:hr>120</tp1:hr>
</tp1:TrackPointExtension>
</extensions>
</trkpt>
<trkpt lat="46.1978656" lon="6.0107027">
<ele>416.6000000</ele>
<time>2014-12-04T11:31:26Z</time>
<extensions>
<tp1:TrackPointExtension>
<tp1:hr>120</tp1:hr>
</tp1:TrackPointExtension>
</extensions>
</trkpt>
<trkpt lat="46.1984138" lon="6.0105941">
<ele>416.6000000</ele>
<time>2014-12-04T11:31:37Z</time>
<extensions>
<tp1:TrackPointExtension>
<tp1:hr>119</tp1:hr>
</tp1:TrackPointExtension>
</extensions>
</trkpt>
<trkpt lat="46.1988909" lon="6.0104037">
<ele>416.6000000</ele>
<time>2014-12-04T11:31:47Z</time>
<extensions>
<tp1:TrackPointExtension>
<tp1:hr>119</tp1:hr>
</tp1:TrackPointExtension>
</extensions>
</trkpt>
<trkpt lat="46.1994306" lon="6.0101151">
<ele>416.6000000</ele>
<time>2014-12-04T11:31:59Z</time>
<extensions>
<tp1:TrackPointExtension>
<tp1:hr>120</tp1:hr>
</tp1:TrackPointExtension>
</extensions>
</trkpt>
<trkpt lat="46.1994774" lon="6.0100934">
<ele>416.6000000</ele>
<time>2014-12-04T11:32:00Z</time>
<extensions>
<tp1:TrackPointExtension>
<tp1:hr>120</tp1:hr>
</tp1:TrackPointExtension>
</extensions>
</trkpt>
<trkpt lat="46.1996912" lon="6.0099417">
<ele>416.6000000</ele>
<time>2014-12-04T11:32:05Z</time>
<extensions>
<tp1:TrackPointExtension>
<tp1:hr>120</tp1:hr>
</tp1:TrackPointExtension>
</extensions>
</trkpt>
<trkpt lat="46.1997539" lon="6.0098416">
<ele>416.6000000</ele>
<time>2014-12-04T11:32:07Z</time>
<extensions>
<tp1:TrackPointExtension>
<tp1:hr>120</tp1:hr>
</tp1:TrackPointExtension>
</extensions>
</trkpt>
<trkpt lat="46.1999321" lon="6.0093734">
<ele>416.6000000</ele>
<time>2014-12-04T11:32:15Z</time>
<extensions>
<tp1:TrackPointExtension>
<tp1:hr>122</tp1:hr>
</tp1:TrackPointExtension>
</extensions>
</trkpt>
<trkpt lat="46.2000853" lon="6.0089591">
<ele>417.0000000</ele>
<time>2014-12-04T11:32:22Z</time>
<extensions>
<tp1:TrackPointExtension>
<tp1:hr>123</tp1:hr>
</tp1:TrackPointExtension>
</extensions>
</trkpt>
<trkpt lat="46.2001077" lon="6.0088988">
<ele>417.4000000</ele>
<time>2014-12-04T11:32:23Z</time>
<extensions>
<tp1:TrackPointExtension>
<tp1:hr>123</tp1:hr>
</tp1:TrackPointExtension>
</extensions>
</trkpt>
<trkpt lat="46.2001325" lon="6.0088394">
<ele>417.8000000</ele>
<time>2014-12-04T11:32:24Z</time>
<extensions>
<tp1:TrackPointExtension>
<tp1:hr>124</tp1:hr>
</tp1:TrackPointExtension>
</extensions>
</trkpt>
<trkpt lat="46.2001549" lon="6.0087790">
<ele>418.2000000</ele>
<time>2014-12-04T11:32:25Z</time>
<extensions>
<tp1:TrackPointExtension>
<tp1:hr>124</tp1:hr>
</tp1:TrackPointExtension>
</extensions>
</trkpt>
<trkpt lat="46.2001765" lon="6.0087193">
<ele>418.6000000</ele>
<time>2014-12-04T11:32:26Z</time>
<extensions>
<tp1:TrackPointExtension>
<tp1:hr>124</tp1:hr>
</tp1:TrackPointExtension>
</extensions>
</trkpt>
<trkpt lat="46.2004340" lon="6.0080401">
<ele>419.2000000</ele>
<time>2014-12-04T11:32:38Z</time>
<extensions>
<tp1:TrackPointExtension>
<tp1:hr>126</tp1:hr>
</tp1:TrackPointExtension>
</extensions>
</trkpt>
<trkpt lat="46.2004519" lon="6.0079871">
<ele>419.6000000</ele>
<time>2014-12-04T11:32:39Z</time>
<extensions>
<tp1:TrackPointExtension>
<tp1:hr>126</tp1:hr>
</tp1:TrackPointExtension>
</extensions>
</trkpt>
<trkpt lat="46.2004727" lon="6.0079320">
<ele>420.0000000</ele>
<time>2014-12-04T11:32:40Z</time>
<extensions>
<tp1:TrackPointExtension>
<tp1:hr>126</tp1:hr>
</tp1:TrackPointExtension>
</extensions>
</trkpt>
<trkpt lat="46.2004939" lon="6.0078813">
<ele>420.4000000</ele>
<time>2014-12-04T11:32:41Z</time>
<extensions>
<tp1:TrackPointExtension>
<tp1:hr>126</tp1:hr>
</tp1:TrackPointExtension>
</extensions>
</trkpt>
<trkpt lat="46.2005145" lon="6.0078284">
<ele>420.8000000</ele>
<time>2014-12-04T11:32:42Z</time>
<extensions>
<tp1:TrackPointExtension>
<tp1:hr>126</tp1:hr>
</tp1:TrackPointExtension>
</extensions>
</trkpt>
<trkpt lat="46.2006334" lon="6.0075139">
<ele>421.2000000</ele>
<time>2014-12-04T11:32:48Z</time>
<extensions>
<tp1:TrackPointExtension>
<tp1:hr>127</tp1:hr>
</tp1:TrackPointExtension>
</extensions>
</trkpt>
<trkpt lat="46.2006708" lon="6.0074092">
<ele>421.6000000</ele>
<time>2014-12-04T11:32:50Z</time>
<extensions>
<tp1:TrackPointExtension>
<tp1:hr>127</tp1:hr>
</tp1:TrackPointExtension>
</extensions>
</trkpt>
<trkpt lat="46.2006909" lon="6.0073540">
<ele>422.0000000</ele>
<time>2014-12-04T11:32:51Z</time>
<extensions>
<tp1:TrackPointExtension>
<tp1:hr>127</tp1:hr>
</tp1:TrackPointExtension>
</extensions>
</trkpt>
<trkpt lat="46.2007093" lon="6.0073049">
<ele>422.4000000</ele>
<time>2014-12-04T11:32:52Z</time>
<extensions>
<tp1:TrackPointExtension>
<tp1:hr>127</tp1:hr>
</tp1:TrackPointExtension>
</extensions>
</trkpt>
<trkpt lat="46.2007288" lon="6.0072523">
<ele>423.0000000</ele>
<time>2014-12-04T11:32:53Z</time>
<extensions>
<tp1:TrackPointExtension>
<tp1:hr>127</tp1:hr>
</tp1:TrackPointExtension>
</extensions>
</trkpt>
<trkpt lat="46.2007482" lon="6.0071991">
<ele>423.0000000</ele>
<time>2014-12-04T11:32:54Z</time>
<extensions>
<tp1:TrackPointExtension>
<tp1:hr>127</tp1:hr>
</tp1:TrackPointExtension>
</extensions>
</trkpt>
<trkpt lat="46.2008807" lon="6.0068527">
<ele>423.4000000</ele>
<time>2014-12-04T11:33:01Z</time>
<extensions>
<tp1:TrackPointExtension>
<tp1:hr>129</tp1:hr>
</tp1:TrackPointExtension>
</extensions>
</trkpt>
<trkpt lat="46.2008993" lon="6.0068052">
<ele>423.8000000</ele>
<time>2014-12-04T11:33:02Z</time>
<extensions>
<tp1:TrackPointExtension>
<tp1:hr>128</tp1:hr>
</tp1:TrackPointExtension>
</extensions>
</trkpt>
<trkpt lat="46.2009202" lon="6.0067526">
<ele>424.2000000</ele>
<time>2014-12-04T11:33:03Z</time>
<extensions>
<tp1:TrackPointExtension>
<tp1:hr>129</tp1:hr>
</tp1:TrackPointExtension>
</extensions>
</trkpt>
<trkpt lat="46.2009393" lon="6.0066995">
<ele>424.6000000</ele>
<time>2014-12-04T11:33:04Z</time>
<extensions>
<tp1:TrackPointExtension>
<tp1:hr>129</tp1:hr>
</tp1:TrackPointExtension>
</extensions>
</trkpt>
<trkpt lat="46.2009579" lon="6.0066437">
<ele>425.0000000</ele>
<time>2014-12-04T11:33:05Z</time>
<extensions>
<tp1:TrackPointExtension>
<tp1:hr>129</tp1:hr>
</tp1:TrackPointExtension>
</extensions>
</trkpt>
<trkpt lat="46.2010181" lon="6.0064877">
<ele>425.0000000</ele>
<time>2014-12-04T11:33:08Z</time>
<extensions>
<tp1:TrackPointExtension>
<tp1:hr>129</tp1:hr>
</tp1:TrackPointExtension>
</extensions>
</trkpt>
<trkpt lat="46.2010789" lon="6.0063293">
<ele>425.0000000</ele>
<time>2014-12-04T11:33:11Z</time>
<extensions>
<tp1:TrackPointExtension>
<tp1:hr>129</tp1:hr>
</tp1:TrackPointExtension>
</extensions>
</trkpt>
<trkpt lat="46.2011760" lon="6.0060778">
<ele>425.4000000</ele>
<time>2014-12-04T11:33:16Z</time>
<extensions>
<tp1:TrackPointExtension>
<tp1:hr>131</tp1:hr>
</tp1:TrackPointExtension>
</extensions>
</trkpt>
<trkpt lat="46.2011967" lon="6.0060315">
<ele>425.8000000</ele>
<time>2014-12-04T11:33:17Z</time>
<extensions>
<tp1:TrackPointExtension>
<tp1:hr>131</tp1:hr>
</tp1:TrackPointExtension>
</extensions>
</trkpt>
<trkpt lat="46.2012177" lon="6.0059835">
<ele>426.2000000</ele>
<time>2014-12-04T11:33:18Z</time>
<extensions>
<tp1:TrackPointExtension>
<tp1:hr>131</tp1:hr>
</tp1:TrackPointExtension>
</extensions>
</trkpt>
<trkpt lat="46.2012395" lon="6.0059376">
<ele>426.6000000</ele>
<time>2014-12-04T11:33:19Z</time>
<extensions>
<tp1:TrackPointExtension>
<tp1:hr>131</tp1:hr>
</tp1:TrackPointExtension>
</extensions>
</trkpt>
<trkpt lat="46.2012605" lon="6.0058893">
<ele>427.0000000</ele>
<time>2014-12-04T11:33:20Z</time>
<extensions>
<tp1:TrackPointExtension>
<tp1:hr>132</tp1:hr>
</tp1:TrackPointExtension>
</extensions>
</trkpt>
<trkpt lat="46.2012987" lon="6.0057873">
<ele>427.0000000</ele>
<time>2014-12-04T11:33:22Z</time>
<extensions>
<tp1:TrackPointExtension>
<tp1:hr>132</tp1:hr>
</tp1:TrackPointExtension>
</extensions>
</trkpt>
<trkpt lat="46.2014145" lon="6.0054838">
<ele>427.0000000</ele>
<time>2014-12-04T11:33:28Z</time>
<extensions>
<tp1:TrackPointExtension>
<tp1:hr>133</tp1:hr>
</tp1:TrackPointExtension>
</extensions>
</trkpt>
<trkpt lat="46.2014683" lon="6.0053328">
<ele>427.4000000</ele>
<time>2014-12-04T11:33:31Z</time>
<extensions>
<tp1:TrackPointExtension>
<tp1:hr>133</tp1:hr>
</tp1:TrackPointExtension>
</extensions>
</trkpt>
<trkpt lat="46.2014861" lon="6.0052829">
<ele>427.8000000</ele>
<time>2014-12-04T11:33:32Z</time>
<extensions>
<tp1:TrackPointExtension>
<tp1:hr>133</tp1:hr>
</tp1:TrackPointExtension>
</extensions>
</trkpt>
<trkpt lat="46.2015047" lon="6.0052341">
<ele>428.2000000</ele>
<time>2014-12-04T11:33:33Z</time>
<extensions>
<tp1:TrackPointExtension>
<tp1:hr>133</tp1:hr>
</tp1:TrackPointExtension>
</extensions>
</trkpt>
<trkpt lat="46.2015243" lon="6.0051852">
<ele>428.6000000</ele>
<time>2014-12-04T11:33:34Z</time>
<extensions>
<tp1:TrackPointExtension>
<tp1:hr>133</tp1:hr>
</tp1:TrackPointExtension>
</extensions>
</trkpt>
<trkpt lat="46.2015433" lon="6.0051367">
<ele>429.0000000</ele>
<time>2014-12-04T11:33:35Z</time>
<extensions>
<tp1:TrackPointExtension>
<tp1:hr>133</tp1:hr>
</tp1:TrackPointExtension>
</extensions>
</trkpt>
<trkpt lat="46.2016180" lon="6.0049421">
<ele>429.0000000</ele>
<time>2014-12-04T11:33:39Z</time>
<extensions>
<tp1:TrackPointExtension>
<tp1:hr>133</tp1:hr>
</tp1:TrackPointExtension>
</extensions>
</trkpt>
<trkpt lat="46.2018414" lon="6.0044489">
<ele>429.6000000</ele>
<time>2014-12-04T11:33:49Z</time>
<extensions>
<tp1:TrackPointExtension>
<tp1:hr>135</tp1:hr>
</tp1:TrackPointExtension>
</extensions>
</trkpt>
<trkpt lat="46.2018663" lon="6.0044005">
<ele>430.0000000</ele>
<time>2014-12-04T11:33:50Z</time>
<extensions>
<tp1:TrackPointExtension>
<tp1:hr>135</tp1:hr>
</tp1:TrackPointExtension>
</extensions>
</trkpt>
<trkpt lat="46.2018907" lon="6.0043585">
<ele>430.4000000</ele>
<time>2014-12-04T11:33:51Z</time>
<extensions>
<tp1:TrackPointExtension>
<tp1:hr>135</tp1:hr>
</tp1:TrackPointExtension>
</extensions>
</trkpt>
<trkpt lat="46.2019164" lon="6.0043172">
<ele>430.8000000</ele>
<time>2014-12-04T11:33:52Z</time>
<extensions>
<tp1:TrackPointExtension>
<tp1:hr>135</tp1:hr>
</tp1:TrackPointExtension>
</extensions>
</trkpt>
<trkpt lat="46.2019438" lon="6.0042769">
<ele>431.2000000</ele>
<time>2014-12-04T11:33:53Z</time>
<extensions>
<tp1:TrackPointExtension>
<tp1:hr>135</tp1:hr>
</tp1:TrackPointExtension>
</extensions>
</trkpt>
<trkpt lat="46.2021175" lon="6.0040514">
<ele>431.2000000</ele>
<time>2014-12-04T11:33:59Z</time>
<extensions>
<tp1:TrackPointExtension>
<tp1:hr>134</tp1:hr>
</tp1:TrackPointExtension>
</extensions>
</trkpt>
<trkpt lat="46.2023216" lon="6.0038924">
<ele>431.2000000</ele>
<time>2014-12-04T11:34:05Z</time>
<extensions>
<tp1:TrackPointExtension>
<tp1:hr>134</tp1:hr>
</tp1:TrackPointExtension>
</extensions>
</trkpt>
<trkpt lat="46.2024299" lon="6.0038349">
<ele>431.6000000</ele>
<time>2014-12-04T11:34:08Z</time>
<extensions>
<tp1:TrackPointExtension>
<tp1:hr>134</tp1:hr>
</tp1:TrackPointExtension>
</extensions>
</trkpt>
<trkpt lat="46.2024661" lon="6.0038145">
<ele>432.0000000</ele>
<time>2014-12-04T11:34:09Z</time>
<extensions>
<tp1:TrackPointExtension>
<tp1:hr>134</tp1:hr>
</tp1:TrackPointExtension>
</extensions>
</trkpt>
<trkpt lat="46.2025343" lon="6.0037686">
<ele>432.4000000</ele>
<time>2014-12-04T11:34:11Z</time>
<extensions>
<tp1:TrackPointExtension>
<tp1:hr>134</tp1:hr>
</tp1:TrackPointExtension>
</extensions>
</trkpt>
<trkpt lat="46.2025708" lon="6.0037488">
<ele>432.8000000</ele>
<time>2014-12-04T11:34:12Z</time>
<extensions>
<tp1:TrackPointExtension>
<tp1:hr>134</tp1:hr>
</tp1:TrackPointExtension>
</extensions>
</trkpt>
<trkpt lat="46.2026086" lon="6.0037329">
<ele>433.2000000</ele>
<time>2014-12-04T11:34:13Z</time>
<extensions>
<tp1:TrackPointExtension>
<tp1:hr>134</tp1:hr>
</tp1:TrackPointExtension>
</extensions>
</trkpt>
<trkpt lat="46.2028578" lon="6.0035922">
<ele>433.2000000</ele>
<time>2014-12-04T11:34:20Z</time>
<extensions>
<tp1:TrackPointExtension>
<tp1:hr>134</tp1:hr>
</tp1:TrackPointExtension>
</extensions>
</trkpt>
<trkpt lat="46.2031602" lon="6.0034499">
<ele>433.6000000</ele>
<time>2014-12-04T11:34:28Z</time>
<extensions>
<tp1:TrackPointExtension>
<tp1:hr>134</tp1:hr>
</tp1:TrackPointExtension>
</extensions>
</trkpt>
<trkpt lat="46.2031960" lon="6.0034325">
<ele>434.2000000</ele>
<time>2014-12-04T11:34:29Z</time>
<extensions>
<tp1:TrackPointExtension>
<tp1:hr>134</tp1:hr>
</tp1:TrackPointExtension>
</extensions>
</trkpt>
<trkpt lat="46.2032337" lon="6.0034146">
<ele>434.6000000</ele>
<time>2014-12-04T11:34:30Z</time>
<extensions>
<tp1:TrackPointExtension>
<tp1:hr>134</tp1:hr>
</tp1:TrackPointExtension>
</extensions>
</trkpt>
<trkpt lat="46.2032715" lon="6.0033987">
<ele>435.0000000</ele>
<time>2014-12-04T11:34:31Z</time>
<extensions>
<tp1:TrackPointExtension>
<tp1:hr>134</tp1:hr>
</tp1:TrackPointExtension>
</extensions>
</trkpt>
<trkpt lat="46.2033089" lon="6.0033816">
<ele>435.4000000</ele>
<time>2014-12-04T11:34:32Z</time>
<extensions>
<tp1:TrackPointExtension>
<tp1:hr>134</tp1:hr>
</tp1:TrackPointExtension>
</extensions>
</trkpt>
<trkpt lat="46.2037589" lon="6.0031570">
<ele>435.4000000</ele>
<time>2014-12-04T11:34:44Z</time>
<extensions>
<tp1:TrackPointExtension>
<tp1:hr>134</tp1:hr>
</tp1:TrackPointExtension>
</extensions>
</trkpt>
<trkpt lat="46.2040756" lon="6.0029565">
<ele>436.0000000</ele>
<time>2014-12-04T11:34:53Z</time>
<extensions>
<tp1:TrackPointExtension>
<tp1:hr>132</tp1:hr>
</tp1:TrackPointExtension>
</extensions>
</trkpt>
<trkpt lat="46.2041093" lon="6.0029265">
<ele>436.4000000</ele>
<time>2014-12-04T11:34:54Z</time>
<extensions>
<tp1:TrackPointExtension>
<tp1:hr>132</tp1:hr>
</tp1:TrackPointExtension>
</extensions>
</trkpt>
<trkpt lat="46.2041425" lon="6.0028937">
<ele>436.8000000</ele>
<time>2014-12-04T11:34:55Z</time>
<extensions>
<tp1:TrackPointExtension>
<tp1:hr>132</tp1:hr>
</tp1:TrackPointExtension>
</extensions>
</trkpt>
<trkpt lat="46.2041753" lon="6.0028600">
<ele>437.4000000</ele>
<time>2014-12-04T11:34:56Z</time>
<extensions>
<tp1:TrackPointExtension>
<tp1:hr>132</tp1:hr>
</tp1:TrackPointExtension>
</extensions>
</trkpt>
<trkpt lat="46.2042085" lon="6.0028238">
<ele>437.8000000</ele>
<time>2014-12-04T11:34:57Z</time>
<extensions>
<tp1:TrackPointExtension>
<tp1:hr>132</tp1:hr>
</tp1:TrackPointExtension>
</extensions>
</trkpt>
<trkpt lat="46.2044403" lon="6.0025552">
<ele>437.8000000</ele>
<time>2014-12-04T11:35:04Z</time>
<extensions>
<tp1:TrackPointExtension>
<tp1:hr>130</tp1:hr>
</tp1:TrackPointExtension>
</extensions>
</trkpt>
<trkpt lat="46.2047328" lon="6.0022016">
<ele>437.8000000</ele>
<time>2014-12-04T11:35:13Z</time>
<extensions>
<tp1:TrackPointExtension>
<tp1:hr>128</tp1:hr>
</tp1:TrackPointExtension>
</extensions>
</trkpt>
<trkpt lat="46.2047593" lon="6.0021628">
<ele>437.8000000</ele>
<time>2014-12-04T11:35:14Z</time>
<extensions>
<tp1:TrackPointExtension>
<tp1:hr>127</tp1:hr>
</tp1:TrackPointExtension>
</extensions>
</trkpt>
<trkpt lat="46.2049458" lon="6.0019216">
<ele>437.8000000</ele>
<time>2014-12-04T11:35:20Z</time>
<extensions>
<tp1:TrackPointExtension>
<tp1:hr>127</tp1:hr>
</tp1:TrackPointExtension>
</extensions>
</trkpt>
<trkpt lat="46.2051028" lon="6.0017130">
<ele>437.8000000</ele>
<time>2014-12-04T11:35:25Z</time>
<extensions>
<tp1:TrackPointExtension>
<tp1:hr>127</tp1:hr>
</tp1:TrackPointExtension>
</extensions>
</trkpt>
<trkpt lat="46.2051665" lon="6.0016301">
<ele>437.8000000</ele>
<time>2014-12-04T11:35:27Z</time>
<extensions>
<tp1:TrackPointExtension>
<tp1:hr>126</tp1:hr>
</tp1:TrackPointExtension>
</extensions>
</trkpt>
<trkpt lat="46.2053593" lon="6.0013939">
<ele>437.8000000</ele>
<time>2014-12-04T11:35:33Z</time>
<extensions>
<tp1:TrackPointExtension>
<tp1:hr>125</tp1:hr>
</tp1:TrackPointExtension>
</extensions>
</trkpt>
<trkpt lat="46.2056860" lon="6.0009943">
<ele>437.8000000</ele>
<time>2014-12-04T11:35:41Z</time>
<extensions>
<tp1:TrackPointExtension>
<tp1:hr>126</tp1:hr>
</tp1:TrackPointExtension>
</extensions>
</trkpt>
<trkpt lat="46.2059728" lon="6.0006368">
<ele>437.4000000</ele>
<time>2014-12-04T11:35:47Z</time>
<extensions>
<tp1:TrackPointExtension>
<tp1:hr>123</tp1:hr>
</tp1:TrackPointExtension>
</extensions>
</trkpt>
<trkpt lat="46.2060271" lon="6.0005852">
<ele>436.8000000</ele>
<time>2014-12-04T11:35:48Z</time>
<extensions>
<tp1:TrackPointExtension>
<tp1:hr>122</tp1:hr>
</tp1:TrackPointExtension>
</extensions>
</trkpt>
<trkpt lat="46.2060834" lon="6.0005387">
<ele>436.4000000</ele>
<time>2014-12-04T11:35:49Z</time>
<extensions>
<tp1:TrackPointExtension>
<tp1:hr>122</tp1:hr>
</tp1:TrackPointExtension>
</extensions>
</trkpt>
<trkpt lat="46.2061406" lon="6.0004959">
<ele>436.0000000</ele>
<time>2014-12-04T11:35:50Z</time>
<extensions>
<tp1:TrackPointExtension>
<tp1:hr>122</tp1:hr>
</tp1:TrackPointExtension>
</extensions>
</trkpt>
<trkpt lat="46.2061993" lon="6.0004577">
<ele>435.6000000</ele>
<time>2014-12-04T11:35:51Z</time>
<extensions>
<tp1:TrackPointExtension>
<tp1:hr>121</tp1:hr>
</tp1:TrackPointExtension>
</extensions>
</trkpt>
<trkpt lat="46.2065820" lon="6.0002775">
<ele>435.0000000</ele>
<time>2014-12-04T11:35:57Z</time>
<extensions>
<tp1:TrackPointExtension>
<tp1:hr>118</tp1:hr>
</tp1:TrackPointExtension>
</extensions>
</trkpt>
<trkpt lat="46.2066508" lon="6.0002499">
<ele>434.6000000</ele>
<time>2014-12-04T11:35:58Z</time>
<extensions>
<tp1:TrackPointExtension>
<tp1:hr>118</tp1:hr>
</tp1:TrackPointExtension>
</extensions>
</trkpt>
<trkpt lat="46.2067182" lon="6.0002209">
<ele>434.0000000</ele>
<time>2014-12-04T11:35:59Z</time>
<extensions>
<tp1:TrackPointExtension>
<tp1:hr>117</tp1:hr>
</tp1:TrackPointExtension>
</extensions>
</trkpt>
<trkpt lat="46.2067884" lon="6.0001897">
<ele>433.6000000</ele>
<time>2014-12-04T11:36:00Z</time>
<extensions>
<tp1:TrackPointExtension>
<tp1:hr>117</tp1:hr>
</tp1:TrackPointExtension>
</extensions>
</trkpt>
<trkpt lat="46.2068570" lon="6.0001592">
<ele>433.0000000</ele>
<time>2014-12-04T11:36:01Z</time>
<extensions>
<tp1:TrackPointExtension>
<tp1:hr>116</tp1:hr>
</tp1:TrackPointExtension>
</extensions>
</trkpt>
<trkpt lat="46.2070688" lon="6.0000554">
<ele>432.6000000</ele>
<time>2014-12-04T11:36:04Z</time>
<extensions>
<tp1:TrackPointExtension>
<tp1:hr>115</tp1:hr>
</tp1:TrackPointExtension>
</extensions>
</trkpt>
<trkpt lat="46.2071387" lon="6.0000110">
<ele>432.2000000</ele>
<time>2014-12-04T11:36:05Z</time>
<extensions>
<tp1:TrackPointExtension>
<tp1:hr>115</tp1:hr>
</tp1:TrackPointExtension>
</extensions>
</trkpt>
<trkpt lat="46.2072107" lon="5.9999652">
<ele>431.8000000</ele>
<time>2014-12-04T11:36:06Z</time>
<extensions>
<tp1:TrackPointExtension>
<tp1:hr>114</tp1:hr>
</tp1:TrackPointExtension>
</extensions>
</trkpt>
<trkpt lat="46.2072777" lon="5.9999208">
<ele>431.4000000</ele>
<time>2014-12-04T11:36:07Z</time>
<extensions>
<tp1:TrackPointExtension>
<tp1:hr>114</tp1:hr>
</tp1:TrackPointExtension>
</extensions>
</trkpt>
<trkpt lat="46.2073404" lon="5.9998526">
<ele>431.0000000</ele>
<time>2014-12-04T11:36:08Z</time>
<extensions>
<tp1:TrackPointExtension>
<tp1:hr>114</tp1:hr>
</tp1:TrackPointExtension>
</extensions>
</trkpt>
<trkpt lat="46.2073970" lon="5.9997763">
<ele>430.6000000</ele>
<time>2014-12-04T11:36:09Z</time>
<extensions>
<tp1:TrackPointExtension>
<tp1:hr>114</tp1:hr>
</tp1:TrackPointExtension>
</extensions>
</trkpt>
<trkpt lat="46.2074333" lon="5.9996662">
<ele>430.2000000</ele>
<time>2014-12-04T11:36:10Z</time>
<extensions>
<tp1:TrackPointExtension>
<tp1:hr>114</tp1:hr>
</tp1:TrackPointExtension>
</extensions>
</trkpt>
<trkpt lat="46.2074650" lon="5.9995558">
<ele>429.6000000</ele>
<time>2014-12-04T11:36:11Z</time>
<extensions>
<tp1:TrackPointExtension>
<tp1:hr>114</tp1:hr>
</tp1:TrackPointExtension>
</extensions>
</trkpt>
<trkpt lat="46.2074829" lon="5.9994381">
<ele>429.2000000</ele>
<time>2014-12-04T11:36:12Z</time>
<extensions>
<tp1:TrackPointExtension>
<tp1:hr>114</tp1:hr>
</tp1:TrackPointExtension>
</extensions>
</trkpt>
<trkpt lat="46.2074934" lon="5.9993241">
<ele>428.8000000</ele>
<time>2014-12-04T11:36:13Z</time>
<extensions>
<tp1:TrackPointExtension>
<tp1:hr>114</tp1:hr>
</tp1:TrackPointExtension>
</extensions>
</trkpt>
<trkpt lat="46.2075077" lon="5.9992080">
<ele>428.8000000</ele>
<time>2014-12-04T11:36:14Z</time>
<extensions>
<tp1:TrackPointExtension>
<tp1:hr>113</tp1:hr>
</tp1:TrackPointExtension>
</extensions>
</trkpt>
<trkpt lat="46.2075720" lon="5.9985610">
<ele>428.8000000</ele>
<time>2014-12-04T11:36:20Z</time>
<extensions>
<tp1:TrackPointExtension>
<tp1:hr>110</tp1:hr>
</tp1:TrackPointExtension>
</extensions>
</trkpt>
<trkpt lat="46.2075746" lon="5.9981824">
<ele>428.8000000</ele>
<time>2014-12-04T11:36:24Z</time>
<extensions>
<tp1:TrackPointExtension>
<tp1:hr>109</tp1:hr>
</tp1:TrackPointExtension>
</extensions>
</trkpt>
<trkpt lat="46.2075311" lon="5.9979954">
<ele>428.8000000</ele>
<time>2014-12-04T11:36:26Z</time>
<extensions>
<tp1:TrackPointExtension>
<tp1:hr>109</tp1:hr>
</tp1:TrackPointExtension>
</extensions>
</trkpt>
<trkpt lat="46.2074148" lon="5.9977489">
<ele>428.8000000</ele>
<time>2014-12-04T11:36:29Z</time>
<extensions>
<tp1:TrackPointExtension>
<tp1:hr>108</tp1:hr>
</tp1:TrackPointExtension>
</extensions>
</trkpt>
<trkpt lat="46.2073733" lon="5.9976784">
<ele>428.4000000</ele>
<time>2014-12-04T11:36:30Z</time>
<extensions>
<tp1:TrackPointExtension>
<tp1:hr>108</tp1:hr>
</tp1:TrackPointExtension>
</extensions>
</trkpt>
<trkpt lat="46.2073271" lon="5.9976043">
<ele>428.0000000</ele>
<time>2014-12-04T11:36:31Z</time>
<extensions>
<tp1:TrackPointExtension>
<tp1:hr>108</tp1:hr>
</tp1:TrackPointExtension>
</extensions>
</trkpt>
<trkpt lat="46.2072837" lon="5.9975365">
<ele>427.6000000</ele>
<time>2014-12-04T11:36:32Z</time>
<extensions>
<tp1:TrackPointExtension>
<tp1:hr>108</tp1:hr>
</tp1:TrackPointExtension>
</extensions>
</trkpt>
<trkpt lat="46.2072412" lon="5.9974645">
<ele>427.0000000</ele>
<time>2014-12-04T11:36:33Z</time>
<extensions>
<tp1:TrackPointExtension>
<tp1:hr>108</tp1:hr>
</tp1:TrackPointExtension>
</extensions>
</trkpt>
<trkpt lat="46.2072047" lon="5.9973911">
<ele>426.6000000</ele>
<time>2014-12-04T11:36:34Z</time>
<extensions>
<tp1:TrackPointExtension>
<tp1:hr>108</tp1:hr>
</tp1:TrackPointExtension>
</extensions>
</trkpt>
<trkpt lat="46.2071303" lon="5.9972406">
<ele>426.2000000</ele>
<time>2014-12-04T11:36:36Z</time>
<extensions>
<tp1:TrackPointExtension>
<tp1:hr>107</tp1:hr>
</tp1:TrackPointExtension>
</extensions>
</trkpt>
<trkpt lat="46.2071082" lon="5.9971597">
<ele>425.6000000</ele>
<time>2014-12-04T11:36:37Z</time>
<extensions>
<tp1:TrackPointExtension>
<tp1:hr>107</tp1:hr>
</tp1:TrackPointExtension>
</extensions>
</trkpt>
<trkpt lat="46.2071024" lon="5.9970697">
<ele>425.2000000</ele>
<time>2014-12-04T11:36:38Z</time>
<extensions>
<tp1:TrackPointExtension>
<tp1:hr>108</tp1:hr>
</tp1:TrackPointExtension>
</extensions>
</trkpt>
<trkpt lat="46.2071136" lon="5.9969855">
<ele>424.8000000</ele>
<time>2014-12-04T11:36:39Z</time>
<extensions>
<tp1:TrackPointExtension>
<tp1:hr>108</tp1:hr>
</tp1:TrackPointExtension>
</extensions>
</trkpt>
<trkpt lat="46.2071322" lon="5.9969055">
<ele>424.2000000</ele>
<time>2014-12-04T11:36:40Z</time>
<extensions>
<tp1:TrackPointExtension>
<tp1:hr>108</tp1:hr>
</tp1:TrackPointExtension>
</extensions>
</trkpt>
<trkpt lat="46.2071685" lon="5.9968255">
<ele>423.8000000</ele>
<time>2014-12-04T11:36:41Z</time>
<extensions>
<tp1:TrackPointExtension>
<tp1:hr>108</tp1:hr>
</tp1:TrackPointExtension>
</extensions>
</trkpt>
<trkpt lat="46.2072124" lon="5.9967615">
<ele>423.4000000</ele>
<time>2014-12-04T11:36:42Z</time>
<extensions>
<tp1:TrackPointExtension>
<tp1:hr>108</tp1:hr>
</tp1:TrackPointExtension>
</extensions>
</trkpt>
<trkpt lat="46.2072831" lon="5.9967182">
<ele>423.0000000</ele>
<time>2014-12-04T11:36:43Z</time>
<extensions>
<tp1:TrackPointExtension>
<tp1:hr>108</tp1:hr>
</tp1:TrackPointExtension>
</extensions>
</trkpt>
<trkpt lat="46.2073583" lon="5.9966849">
<ele>422.4000000</ele>
<time>2014-12-04T11:36:44Z</time>
<extensions>
<tp1:TrackPointExtension>
<tp1:hr>109</tp1:hr>
</tp1:TrackPointExtension>
</extensions>
</trkpt>
<trkpt lat="46.2074259" lon="5.9966444">
<ele>422.0000000</ele>
<time>2014-12-04T11:36:45Z</time>
<extensions>
<tp1:TrackPointExtension>
<tp1:hr>109</tp1:hr>
</tp1:TrackPointExtension>
</extensions>
</trkpt>
<trkpt lat="46.2074955" lon="5.9965968">
<ele>421.6000000</ele>
<time>2014-12-04T11:36:46Z</time>
<extensions>
<tp1:TrackPointExtension>
<tp1:hr>109</tp1:hr>
</tp1:TrackPointExtension>
</extensions>
</trkpt>
<trkpt lat="46.2075648" lon="5.9965409">
<ele>421.0000000</ele>
<time>2014-12-04T11:36:47Z</time>
<extensions>
<tp1:TrackPointExtension>
<tp1:hr>109</tp1:hr>
</tp1:TrackPointExtension>
</extensions>
</trkpt>
<trkpt lat="46.2076263" lon="5.9964798">
<ele>420.6000000</ele>
<time>2014-12-04T11:36:48Z</time>
<extensions>
<tp1:TrackPointExtension>
<tp1:hr>108</tp1:hr>
</tp1:TrackPointExtension>
</extensions>
</trkpt>
<trkpt lat="46.2076897" lon="5.9964220">
<ele>420.2000000</ele>
<time>2014-12-04T11:36:49Z</time>
<extensions>
<tp1:TrackPointExtension>
<tp1:hr>109</tp1:hr>
</tp1:TrackPointExtension>
</extensions>
</trkpt>
<trkpt lat="46.2077514" lon="5.9963578">
<ele>419.6000000</ele>
<time>2014-12-04T11:36:50Z</time>
<extensions>
<tp1:TrackPointExtension>
<tp1:hr>109</tp1:hr>
</tp1:TrackPointExtension>
</extensions>
</trkpt>
<trkpt lat="46.2078071" lon="5.9962824">
<ele>419.0000000</ele>
<time>2014-12-04T11:36:51Z</time>
<extensions>
<tp1:TrackPointExtension>
<tp1:hr>108</tp1:hr>
</tp1:TrackPointExtension>
</extensions>
</trkpt>
<trkpt lat="46.2078548" lon="5.9962186">
<ele>418.4000000</ele>
<time>2014-12-04T11:36:52Z</time>
<extensions>
<tp1:TrackPointExtension>
<tp1:hr>109</tp1:hr>
</tp1:TrackPointExtension>
</extensions>
</trkpt>
<trkpt lat="46.2078919" lon="5.9961618">
<ele>418.0000000</ele>
<time>2014-12-04T11:36:53Z</time>
<extensions>
<tp1:TrackPointExtension>
<tp1:hr>108</tp1:hr>
</tp1:TrackPointExtension>
</extensions>
</trkpt>
<trkpt lat="46.2079221" lon="5.9960933">
<ele>417.4000000</ele>
<time>2014-12-04T11:36:54Z</time>
<extensions>
<tp1:TrackPointExtension>
<tp1:hr>108</tp1:hr>
</tp1:TrackPointExtension>
</extensions>
</trkpt>
<trkpt lat="46.2079001" lon="5.9960085">
<ele>417.0000000</ele>
<time>2014-12-04T11:36:55Z</time>
<extensions>
<tp1:TrackPointExtension>
<tp1:hr>109</tp1:hr>
</tp1:TrackPointExtension>
</extensions>
</trkpt>
<trkpt lat="46.2078662" lon="5.9959437">
<ele>416.4000000</ele>
<time>2014-12-04T11:36:56Z</time>
<extensions>
<tp1:TrackPointExtension>
<tp1:hr>108</tp1:hr>
</tp1:TrackPointExtension>
</extensions>
</trkpt>
<trkpt lat="46.2078093" lon="5.9959235">
<ele>416.0000000</ele>
<time>2014-12-04T11:36:57Z</time>
<extensions>
<tp1:TrackPointExtension>
<tp1:hr>108</tp1:hr>
</tp1:TrackPointExtension>
</extensions>
</trkpt>
<trkpt lat="46.2077348" lon="5.9959557">
<ele>415.4000000</ele>
<time>2014-12-04T11:36:58Z</time>
<extensions>
<tp1:TrackPointExtension>
<tp1:hr>109</tp1:hr>
</tp1:TrackPointExtension>
</extensions>
</trkpt>
<trkpt lat="46.2076683" lon="5.9960183">
<ele>414.8000000</ele>
<time>2014-12-04T11:36:59Z</time>
<extensions>
<tp1:TrackPointExtension>
<tp1:hr>108</tp1:hr>
</tp1:TrackPointExtension>
</extensions>
</trkpt>
<trkpt lat="46.2076036" lon="5.9960845">
<ele>414.2000000</ele>
<time>2014-12-04T11:37:00Z</time>
<extensions>
<tp1:TrackPointExtension>
<tp1:hr>108</tp1:hr>
</tp1:TrackPointExtension>
</extensions>
</trkpt>
<trkpt lat="46.2075380" lon="5.9961534">
<ele>413.6000000</ele>
<time>2014-12-04T11:37:01Z</time>
<extensions>
<tp1:TrackPointExtension>
<tp1:hr>109</tp1:hr>
</tp1:TrackPointExtension>
</extensions>
</trkpt>
<trkpt lat="46.2074727" lon="5.9962170">
<ele>413.0000000</ele>
<time>2014-12-04T11:37:02Z</time>
<extensions>
<tp1:TrackPointExtension>
<tp1:hr>109</tp1:hr>
</tp1:TrackPointExtension>
</extensions>
</trkpt>
<trkpt lat="46.2074142" lon="5.9962676">
<ele>412.4000000</ele>
<time>2014-12-04T11:37:03Z</time>
<extensions>
<tp1:TrackPointExtension>
<tp1:hr>109</tp1:hr>
</tp1:TrackPointExtension>
</extensions>
</trkpt>
<trkpt lat="46.2073546" lon="5.9962798">
<ele>411.8000000</ele>
<time>2014-12-04T11:37:04Z</time>
<extensions>
<tp1:TrackPointExtension>
<tp1:hr>109</tp1:hr>
</tp1:TrackPointExtension>
</extensions>
</trkpt>
<trkpt lat="46.2072975" lon="5.9962411">
<ele>411.4000000</ele>
<time>2014-12-04T11:37:05Z</time>
<extensions>
<tp1:TrackPointExtension>
<tp1:hr>110</tp1:hr>
</tp1:TrackPointExtension>
</extensions>
</trkpt>
<trkpt lat="46.2072567" lon="5.9961885">
<ele>410.8000000</ele>
<time>2014-12-04T11:37:06Z</time>
<extensions>
<tp1:TrackPointExtension>
<tp1:hr>110</tp1:hr>
</tp1:TrackPointExtension>
</extensions>
</trkpt>
<trkpt lat="46.2072370" lon="5.9961190">
<ele>410.2000000</ele>
<time>2014-12-04T11:37:07Z</time>
<extensions>
<tp1:TrackPointExtension>
<tp1:hr>111</tp1:hr>
</tp1:TrackPointExtension>
</extensions>
</trkpt>
<trkpt lat="46.2072286" lon="5.9960394">
<ele>409.8000000</ele>
<time>2014-12-04T11:37:08Z</time>
<extensions>
<tp1:TrackPointExtension>
<tp1:hr>111</tp1:hr>
</tp1:TrackPointExtension>
</extensions>
</trkpt>
<trkpt lat="46.2072769" lon="5.9959457">
<ele>409.4000000</ele>
<time>2014-12-04T11:37:09Z</time>
<extensions>
<tp1:TrackPointExtension>
<tp1:hr>111</tp1:hr>
</tp1:TrackPointExtension>
</extensions>
</trkpt>
<trkpt lat="46.2073185" lon="5.9958623">
<ele>408.8000000</ele>
<time>2014-12-04T11:37:10Z</time>
<extensions>
<tp1:TrackPointExtension>
<tp1:hr>111</tp1:hr>
</tp1:TrackPointExtension>
</extensions>
</trkpt>
<trkpt lat="46.2073663" lon="5.9957642">
<ele>408.2000000</ele>
<time>2014-12-04T11:37:11Z</time>
<extensions>
<tp1:TrackPointExtension>
<tp1:hr>111</tp1:hr>
</tp1:TrackPointExtension>
</extensions>
</trkpt>
<trkpt lat="46.2074152" lon="5.9956668">
<ele>407.4000000</ele>
<time>2014-12-04T11:37:12Z</time>
<extensions>
<tp1:TrackPointExtension>
<tp1:hr>111</tp1:hr>
</tp1:TrackPointExtension>
</extensions>
</trkpt>
<trkpt lat="46.2074657" lon="5.9955623">
<ele>406.8000000</ele>
<time>2014-12-04T11:37:13Z</time>
<extensions>
<tp1:TrackPointExtension>
<tp1:hr>111</tp1:hr>
</tp1:TrackPointExtension>
</extensions>
</trkpt>
<trkpt lat="46.2075139" lon="5.9954603">
<ele>406.0000000</ele>
<time>2014-12-04T11:37:14Z</time>
<extensions>
<tp1:TrackPointExtension>
<tp1:hr>111</tp1:hr>
</tp1:TrackPointExtension>
</extensions>
</trkpt>
<trkpt lat="46.2075603" lon="5.9953611">
<ele>405.4000000</ele>
<time>2014-12-04T11:37:15Z</time>
<extensions>
<tp1:TrackPointExtension>
<tp1:hr>111</tp1:hr>
</tp1:TrackPointExtension>
</extensions>
</trkpt>
<trkpt lat="46.2076025" lon="5.9952614">
<ele>404.6000000</ele>
<time>2014-12-04T11:37:16Z</time>
<extensions>
<tp1:TrackPointExtension>
<tp1:hr>111</tp1:hr>
</tp1:TrackPointExtension>
</extensions>
</trkpt>
<trkpt lat="46.2076417" lon="5.9951600">
<ele>404.0000000</ele>
<time>2014-12-04T11:37:17Z</time>
<extensions>
<tp1:TrackPointExtension>
<tp1:hr>111</tp1:hr>
</tp1:TrackPointExtension>
</extensions>
</trkpt>
<trkpt lat="46.2076835" lon="5.9950617">
<ele>403.4000000</ele>
<time>2014-12-04T11:37:18Z</time>
<extensions>
<tp1:TrackPointExtension>
<tp1:hr>110</tp1:hr>
</tp1:TrackPointExtension>
</extensions>
</trkpt>
<trkpt lat="46.2077250" lon="5.9949721">
<ele>402.8000000</ele>
<time>2014-12-04T11:37:19Z</time>
<extensions>
<tp1:TrackPointExtension>
<tp1:hr>110</tp1:hr>
</tp1:TrackPointExtension>
</extensions>
</trkpt>
<trkpt lat="46.2077718" lon="5.9948796">
<ele>402.2000000</ele>
<time>2014-12-04T11:37:20Z</time>
<extensions>
<tp1:TrackPointExtension>
<tp1:hr>110</tp1:hr>
</tp1:TrackPointExtension>
</extensions>
</trkpt>
<trkpt lat="46.2078136" lon="5.9948007">
<ele>401.6000000</ele>
<time>2014-12-04T11:37:21Z</time>
<extensions>
<tp1:TrackPointExtension>
<tp1:hr>109</tp1:hr>
</tp1:TrackPointExtension>
</extensions>
</trkpt>
<trkpt lat="46.2078573" lon="5.9947190">
<ele>400.8000000</ele>
<time>2014-12-04T11:37:22Z</time>
<extensions>
<tp1:TrackPointExtension>
<tp1:hr>108</tp1:hr>
</tp1:TrackPointExtension>
</extensions>
</trkpt>
<trkpt lat="46.2079004" lon="5.9946464">
<ele>400.2000000</ele>
<time>2014-12-04T11:37:23Z</time>
<extensions>
<tp1:TrackPointExtension>
<tp1:hr>108</tp1:hr>
</tp1:TrackPointExtension>
</extensions>
</trkpt>
<trkpt lat="46.2079514" lon="5.9945568">
<ele>399.4000000</ele>
<time>2014-12-04T11:37:24Z</time>
<extensions>
<tp1:TrackPointExtension>
<tp1:hr>107</tp1:hr>
</tp1:TrackPointExtension>
</extensions>
</trkpt>
<trkpt lat="46.2079976" lon="5.9944609">
<ele>399.0000000</ele>
<time>2014-12-04T11:37:25Z</time>
<extensions>
<tp1:TrackPointExtension>
<tp1:hr>107</tp1:hr>
</tp1:TrackPointExtension>
</extensions>
</trkpt>
<trkpt lat="46.2080445" lon="5.9943649">
<ele>398.4000000</ele>
<time>2014-12-04T11:37:26Z</time>
<extensions>
<tp1:TrackPointExtension>
<tp1:hr>107</tp1:hr>
</tp1:TrackPointExtension>
</extensions>
</trkpt>
<trkpt lat="46.2080965" lon="5.9942707">
<ele>397.8000000</ele>
<time>2014-12-04T11:37:27Z</time>
<extensions>
<tp1:TrackPointExtension>
<tp1:hr>106</tp1:hr>
</tp1:TrackPointExtension>
</extensions>
</trkpt>
<trkpt lat="46.2081513" lon="5.9941819">
<ele>397.2000000</ele>
<time>2014-12-04T11:37:28Z</time>
<extensions>
<tp1:TrackPointExtension>
<tp1:hr>106</tp1:hr>
</tp1:TrackPointExtension>
</extensions>
</trkpt>
<trkpt lat="46.2082038" lon="5.9941032">
<ele>396.6000000</ele>
<time>2014-12-04T11:37:29Z</time>
<extensions>
<tp1:TrackPointExtension>
<tp1:hr>106</tp1:hr>
</tp1:TrackPointExtension>
</extensions>
</trkpt>
<trkpt lat="46.2082623" lon="5.9940148">
<ele>396.0000000</ele>
<time>2014-12-04T11:37:30Z</time>
<extensions>
<tp1:TrackPointExtension>
<tp1:hr>106</tp1:hr>
</tp1:TrackPointExtension>
</extensions>
</trkpt>
<trkpt lat="46.2083192" lon="5.9939304">
<ele>395.4000000</ele>
<time>2014-12-04T11:37:31Z</time>
<extensions>
<tp1:TrackPointExtension>
<tp1:hr>106</tp1:hr>
</tp1:TrackPointExtension>
</extensions>
</trkpt>
<trkpt lat="46.2083774" lon="5.9938574">
<ele>394.8000000</ele>
<time>2014-12-04T11:37:32Z</time>
<extensions>
<tp1:TrackPointExtension>
<tp1:hr>106</tp1:hr>
</tp1:TrackPointExtension>
</extensions>
</trkpt>
<trkpt lat="46.2084476" lon="5.9937975">
<ele>394.2000000</ele>
<time>2014-12-04T11:37:33Z</time>
<extensions>
<tp1:TrackPointExtension>
<tp1:hr>106</tp1:hr>
</tp1:TrackPointExtension>
</extensions>
</trkpt>
<trkpt lat="46.2085147" lon="5.9937491">
<ele>393.4000000</ele>
<time>2014-12-04T11:37:34Z</time>
<extensions>
<tp1:TrackPointExtension>
<tp1:hr>106</tp1:hr>
</tp1:TrackPointExtension>
</extensions>
</trkpt>
<trkpt lat="46.2085893" lon="5.9937249">
<ele>392.6000000</ele>
<time>2014-12-04T11:37:35Z</time>
<extensions>
<tp1:TrackPointExtension>
<tp1:hr>106</tp1:hr>
</tp1:TrackPointExtension>
</extensions>
</trkpt>
<trkpt lat="46.2086890" lon="5.9937215">
<ele>392.6000000</ele>
<time>2014-12-04T11:37:36Z</time>
<extensions>
<tp1:TrackPointExtension>
<tp1:hr>106</tp1:hr>
</tp1:TrackPointExtension>
</extensions>
</trkpt>
<trkpt lat="46.2087809" lon="5.9937000">
<ele>391.0000000</ele>
<time>2014-12-04T11:37:37Z</time>
<extensions>
<tp1:TrackPointExtension>
<tp1:hr>106</tp1:hr>
</tp1:TrackPointExtension>
</extensions>
</trkpt>
<trkpt lat="46.2088839" lon="5.9936674">
<ele>390.2000000</ele>
<time>2014-12-04T11:37:38Z</time>
<extensions>
<tp1:TrackPointExtension>
<tp1:hr>106</tp1:hr>
</tp1:TrackPointExtension>
</extensions>
</trkpt>
<trkpt lat="46.2089823" lon="5.9936214">
<ele>389.4000000</ele>
<time>2014-12-04T11:37:39Z</time>
<extensions>
<tp1:TrackPointExtension>
<tp1:hr>107</tp1:hr>
</tp1:TrackPointExtension>
</extensions>
</trkpt>
<trkpt lat="46.2090805" lon="5.9935757">
<ele>388.6000000</ele>
<time>2014-12-04T11:37:40Z</time>
<extensions>
<tp1:TrackPointExtension>
<tp1:hr>107</tp1:hr>
</tp1:TrackPointExtension>
</extensions>
</trkpt>
<trkpt lat="46.2091760" lon="5.9935328">
<ele>387.8000000</ele>
<time>2014-12-04T11:37:41Z</time>
<extensions>
<tp1:TrackPointExtension>
<tp1:hr>107</tp1:hr>
</tp1:TrackPointExtension>
</extensions>
</trkpt>
<trkpt lat="46.2092724" lon="5.9934863">
<ele>387.0000000</ele>
<time>2014-12-04T11:37:42Z</time>
<extensions>
<tp1:TrackPointExtension>
<tp1:hr>107</tp1:hr>
</tp1:TrackPointExtension>
</extensions>
</trkpt>
<trkpt lat="46.2094622" lon="5.9934001">
<ele>386.4000000</ele>
<time>2014-12-04T11:37:44Z</time>
<extensions>
<tp1:TrackPointExtension>
<tp1:hr>107</tp1:hr>
</tp1:TrackPointExtension>
</extensions>
</trkpt>
<trkpt lat="46.2095567" lon="5.9933605">
<ele>386.0000000</ele>
<time>2014-12-04T11:37:45Z</time>
<extensions>
<tp1:TrackPointExtension>
<tp1:hr>106</tp1:hr>
</tp1:TrackPointExtension>
</extensions>
</trkpt>
<trkpt lat="46.2096550" lon="5.9933257">
<ele>385.4000000</ele>
<time>2014-12-04T11:37:46Z</time>
<extensions>
<tp1:TrackPointExtension>
<tp1:hr>106</tp1:hr>
</tp1:TrackPointExtension>
</extensions>
</trkpt>
<trkpt lat="46.2097496" lon="5.9932869">
<ele>384.8000000</ele>
<time>2014-12-04T11:37:47Z</time>
<extensions>
<tp1:TrackPointExtension>
<tp1:hr>107</tp1:hr>
</tp1:TrackPointExtension>
</extensions>
</trkpt>
<trkpt lat="46.2098468" lon="5.9932432">
<ele>384.0000000</ele>
<time>2014-12-04T11:37:48Z</time>
<extensions>
<tp1:TrackPointExtension>
<tp1:hr>107</tp1:hr>
</tp1:TrackPointExtension>
</extensions>
</trkpt>
<trkpt lat="46.2099361" lon="5.9931961">
<ele>383.2000000</ele>
<time>2014-12-04T11:37:49Z</time>
<extensions>
<tp1:TrackPointExtension>
<tp1:hr>107</tp1:hr>
</tp1:TrackPointExtension>
</extensions>
</trkpt>
<trkpt lat="46.2100338" lon="5.9931432">
<ele>382.6000000</ele>
<time>2014-12-04T11:37:50Z</time>
<extensions>
<tp1:TrackPointExtension>
<tp1:hr>107</tp1:hr>
</tp1:TrackPointExtension>
</extensions>
</trkpt>
<trkpt lat="46.2101044" lon="5.9931052">
<ele>381.8000000</ele>
<time>2014-12-04T11:37:51Z</time>
<extensions>
<tp1:TrackPointExtension>
<tp1:hr>108</tp1:hr>
</tp1:TrackPointExtension>
</extensions>
</trkpt>
<trkpt lat="46.2101659" lon="5.9930727">
<ele>382.4000000</ele>
<time>2014-12-04T11:37:52Z</time>
<extensions>
<tp1:TrackPointExtension>
<tp1:hr>109</tp1:hr>
</tp1:TrackPointExtension>
</extensions>
</trkpt>
<trkpt lat="46.2102319" lon="5.9930401">
<ele>383.0000000</ele>
<time>2014-12-04T11:37:53Z</time>
<extensions>
<tp1:TrackPointExtension>
<tp1:hr>110</tp1:hr>
</tp1:TrackPointExtension>
</extensions>
</trkpt>
<trkpt lat="46.2102836" lon="5.9930082">
<ele>383.4000000</ele>
<time>2014-12-04T11:37:54Z</time>
<extensions>
<tp1:TrackPointExtension>
<tp1:hr>112</tp1:hr>
</tp1:TrackPointExtension>
</extensions>
</trkpt>
<trkpt lat="46.2103316" lon="5.9929804">
<ele>384.0000000</ele>
<time>2014-12-04T11:37:55Z</time>
<extensions>
<tp1:TrackPointExtension>
<tp1:hr>112</tp1:hr>
</tp1:TrackPointExtension>
</extensions>
</trkpt>
<trkpt lat="46.2103733" lon="5.9929605">
<ele>384.8000000</ele>
<time>2014-12-04T11:37:56Z</time>
<extensions>
<tp1:TrackPointExtension>
<tp1:hr>113</tp1:hr>
</tp1:TrackPointExtension>
</extensions>
</trkpt>
<trkpt lat="46.2104106" lon="5.9929432">
<ele>385.4000000</ele>
<time>2014-12-04T11:37:57Z</time>
<extensions>
<tp1:TrackPointExtension>
<tp1:hr>114</tp1:hr>
</tp1:TrackPointExtension>
</extensions>
</trkpt>
<trkpt lat="46.2104449" lon="5.9929262">
<ele>386.0000000</ele>
<time>2014-12-04T11:37:58Z</time>
<extensions>
<tp1:TrackPointExtension>
<tp1:hr>115</tp1:hr>
</tp1:TrackPointExtension>
</extensions>
</trkpt>
<trkpt lat="46.2104774" lon="5.9929094">
<ele>386.8000000</ele>
<time>2014-12-04T11:37:59Z</time>
<extensions>
<tp1:TrackPointExtension>
<tp1:hr>115</tp1:hr>
</tp1:TrackPointExtension>
</extensions>
</trkpt>
<trkpt lat="46.2105121" lon="5.9928909">
<ele>387.2000000</ele>
<time>2014-12-04T11:38:00Z</time>
<extensions>
<tp1:TrackPointExtension>
<tp1:hr>116</tp1:hr>
</tp1:TrackPointExtension>
</extensions>
</trkpt>
<trkpt lat="46.2105436" lon="5.9928737">
<ele>387.6000000</ele>
<time>2014-12-04T11:38:01Z</time>
<extensions>
<tp1:TrackPointExtension>
<tp1:hr>117</tp1:hr>
</tp1:TrackPointExtension>
</extensions>
</trkpt>
<trkpt lat="46.2105729" lon="5.9928533">
<ele>388.0000000</ele>
<time>2014-12-04T11:38:02Z</time>
<extensions>
<tp1:TrackPointExtension>
<tp1:hr>117</tp1:hr>
</tp1:TrackPointExtension>
</extensions>
</trkpt>
<trkpt lat="46.2106028" lon="5.9928360">
<ele>388.6000000</ele>
<time>2014-12-04T11:38:03Z</time>
<extensions>
<tp1:TrackPointExtension>
<tp1:hr>118</tp1:hr>
</tp1:TrackPointExtension>
</extensions>
</trkpt>
<trkpt lat="46.2106330" lon="5.9928210">
<ele>389.0000000</ele>
<time>2014-12-04T11:38:04Z</time>
<extensions>
<tp1:TrackPointExtension>
<tp1:hr>118</tp1:hr>
</tp1:TrackPointExtension>
</extensions>
</trkpt>
<trkpt lat="46.2106939" lon="5.9927876">
<ele>389.4000000</ele>
<time>2014-12-04T11:38:06Z</time>
<extensions>
<tp1:TrackPointExtension>
<tp1:hr>119</tp1:hr>
</tp1:TrackPointExtension>
</extensions>
</trkpt>
<trkpt lat="46.2107243" lon="5.9927682">
<ele>389.8000000</ele>
<time>2014-12-04T11:38:07Z</time>
<extensions>
<tp1:TrackPointExtension>
<tp1:hr>119</tp1:hr>
</tp1:TrackPointExtension>
</extensions>
</trkpt>
<trkpt lat="46.2107533" lon="5.9927459">
<ele>390.2000000</ele>
<time>2014-12-04T11:38:08Z</time>
<extensions>
<tp1:TrackPointExtension>
<tp1:hr>120</tp1:hr>
</tp1:TrackPointExtension>
</extensions>
</trkpt>
<trkpt lat="46.2107834" lon="5.9927256">
<ele>390.6000000</ele>
<time>2014-12-04T11:38:09Z</time>
<extensions>
<tp1:TrackPointExtension>
<tp1:hr>120</tp1:hr>
</tp1:TrackPointExtension>
</extensions>
</trkpt>
<trkpt lat="46.2108133" lon="5.9927073">
<ele>391.0000000</ele>
<time>2014-12-04T11:38:10Z</time>
<extensions>
<tp1:TrackPointExtension>
<tp1:hr>121</tp1:hr>
</tp1:TrackPointExtension>
</extensions>
</trkpt>
<trkpt lat="46.2109707" lon="5.9926196">
<ele>391.6000000</ele>
<time>2014-12-04T11:38:15Z</time>
<extensions>
<tp1:TrackPointExtension>
<tp1:hr>123</tp1:hr>
</tp1:TrackPointExtension>
</extensions>
</trkpt>
<trkpt lat="46.2110031" lon="5.9926017">
<ele>392.0000000</ele>
<time>2014-12-04T11:38:16Z</time>
<extensions>
<tp1:TrackPointExtension>
<tp1:hr>124</tp1:hr>
</tp1:TrackPointExtension>
</extensions>
</trkpt>
<trkpt lat="46.2110348" lon="5.9925852">
<ele>392.4000000</ele>
<time>2014-12-04T11:38:17Z</time>
<extensions>
<tp1:TrackPointExtension>
<tp1:hr>124</tp1:hr>
</tp1:TrackPointExtension>
</extensions>
</trkpt>
<trkpt lat="46.2110667" lon="5.9925697">
<ele>392.8000000</ele>
<time>2014-12-04T11:38:18Z</time>
<extensions>
<tp1:TrackPointExtension>
<tp1:hr>124</tp1:hr>
</tp1:TrackPointExtension>
</extensions>
</trkpt>
<trkpt lat="46.2110977" lon="5.9925537">
<ele>393.4000000</ele>
<time>2014-12-04T11:38:19Z</time>
<extensions>
<tp1:TrackPointExtension>
<tp1:hr>125</tp1:hr>
</tp1:TrackPointExtension>
</extensions>
</trkpt>
<trkpt lat="46.2111915" lon="5.9925037">
<ele>393.4000000</ele>
<time>2014-12-04T11:38:22Z</time>
<extensions>
<tp1:TrackPointExtension>
<tp1:hr>125</tp1:hr>
</tp1:TrackPointExtension>
</extensions>
</trkpt>
<trkpt lat="46.2112233" lon="5.9924887">
<ele>393.8000000</ele>
<time>2014-12-04T11:38:23Z</time>
<extensions>
<tp1:TrackPointExtension>
<tp1:hr>126</tp1:hr>
</tp1:TrackPointExtension>
</extensions>
</trkpt>
<trkpt lat="46.2112562" lon="5.9924768">
<ele>394.2000000</ele>
<time>2014-12-04T11:38:24Z</time>
<extensions>
<tp1:TrackPointExtension>
<tp1:hr>126</tp1:hr>
</tp1:TrackPointExtension>
</extensions>
</trkpt>
<trkpt lat="46.2112887" lon="5.9924643">
<ele>394.6000000</ele>
<time>2014-12-04T11:38:25Z</time>
<extensions>
<tp1:TrackPointExtension>
<tp1:hr>126</tp1:hr>
</tp1:TrackPointExtension>
</extensions>
</trkpt>
<trkpt lat="46.2113183" lon="5.9924525">
<ele>395.0000000</ele>
<time>2014-12-04T11:38:26Z</time>
<extensions>
<tp1:TrackPointExtension>
<tp1:hr>127</tp1:hr>
</tp1:TrackPointExtension>
</extensions>
</trkpt>
<trkpt lat="46.2113492" lon="5.9924491">
<ele>395.4000000</ele>
<time>2014-12-04T11:38:27Z</time>
<extensions>
<tp1:TrackPointExtension>
<tp1:hr>127</tp1:hr>
</tp1:TrackPointExtension>
</extensions>
</trkpt>
<trkpt lat="46.2114414" lon="5.9924613">
<ele>395.8000000</ele>
<time>2014-12-04T11:38:30Z</time>
<extensions>
<tp1:TrackPointExtension>
<tp1:hr>128</tp1:hr>
</tp1:TrackPointExtension>
</extensions>
</trkpt>
<trkpt lat="46.2114743" lon="5.9924704">
<ele>396.2000000</ele>
<time>2014-12-04T11:38:31Z</time>
<extensions>
<tp1:TrackPointExtension>
<tp1:hr>129</tp1:hr>
</tp1:TrackPointExtension>
</extensions>
</trkpt>
<trkpt lat="46.2114997" lon="5.9924869">
<ele>396.8000000</ele>
<time>2014-12-04T11:38:32Z</time>
<extensions>
<tp1:TrackPointExtension>
<tp1:hr>129</tp1:hr>
</tp1:TrackPointExtension>
</extensions>
</trkpt>
<trkpt lat="46.2115275" lon="5.9925072">
<ele>397.2000000</ele>
<time>2014-12-04T11:38:33Z</time>
<extensions>
<tp1:TrackPointExtension>
<tp1:hr>129</tp1:hr>
</tp1:TrackPointExtension>
</extensions>
</trkpt>
<trkpt lat="46.2115524" lon="5.9925278">
<ele>397.6000000</ele>
<time>2014-12-04T11:38:34Z</time>
<extensions>
<tp1:TrackPointExtension>
<tp1:hr>129</tp1:hr>
</tp1:TrackPointExtension>
</extensions>
</trkpt>
<trkpt lat="46.2116052" lon="5.9925696">
<ele>397.6000000</ele>
<time>2014-12-04T11:38:36Z</time>
<extensions>
<tp1:TrackPointExtension>
<tp1:hr>130</tp1:hr>
</tp1:TrackPointExtension>
</extensions>
</trkpt>
<trkpt lat="46.2116256" lon="5.9925914">
<ele>398.0000000</ele>
<time>2014-12-04T11:38:37Z</time>
<extensions>
<tp1:TrackPointExtension>
<tp1:hr>130</tp1:hr>
</tp1:TrackPointExtension>
</extensions>
</trkpt>
<trkpt lat="46.2116474" lon="5.9926145">
<ele>398.6000000</ele>
<time>2014-12-04T11:38:38Z</time>
<extensions>
<tp1:TrackPointExtension>
<tp1:hr>131</tp1:hr>
</tp1:TrackPointExtension>
</extensions>
</trkpt>
<trkpt lat="46.2116643" lon="5.9926361">
<ele>399.0000000</ele>
<time>2014-12-04T11:38:39Z</time>
<extensions>
<tp1:TrackPointExtension>
<tp1:hr>131</tp1:hr>
</tp1:TrackPointExtension>
</extensions>
</trkpt>
<trkpt lat="46.2116838" lon="5.9926561">
<ele>399.4000000</ele>
<time>2014-12-04T11:38:40Z</time>
<extensions>
<tp1:TrackPointExtension>
<tp1:hr>131</tp1:hr>
</tp1:TrackPointExtension>
</extensions>
</trkpt>
<trkpt lat="46.2116973" lon="5.9926722">
<ele>399.8000000</ele>
<time>2014-12-04T11:38:41Z</time>
<extensions>
<tp1:TrackPointExtension>
<tp1:hr>132</tp1:hr>
</tp1:TrackPointExtension>
</extensions>
</trkpt>
<trkpt lat="46.2117189" lon="5.9926938">
<ele>399.8000000</ele>
<time>2014-12-04T11:38:42Z</time>
<extensions>
<tp1:TrackPointExtension>
<tp1:hr>132</tp1:hr>
</tp1:TrackPointExtension>
</extensions>
</trkpt>
<trkpt lat="46.2117781" lon="5.9927458">
<ele>400.2000000</ele>
<time>2014-12-04T11:38:45Z</time>
<extensions>
<tp1:TrackPointExtension>
<tp1:hr>133</tp1:hr>
</tp1:TrackPointExtension>
</extensions>
</trkpt>
<trkpt lat="46.2118012" lon="5.9927641">
<ele>400.6000000</ele>
<time>2014-12-04T11:38:46Z</time>
<extensions>
<tp1:TrackPointExtension>
<tp1:hr>133</tp1:hr>
</tp1:TrackPointExtension>
</extensions>
</trkpt>
<trkpt lat="46.2118206" lon="5.9927775">
<ele>401.0000000</ele>
<time>2014-12-04T11:38:47Z</time>
<extensions>
<tp1:TrackPointExtension>
<tp1:hr>134</tp1:hr>
</tp1:TrackPointExtension>
</extensions>
</trkpt>
<trkpt lat="46.2118370" lon="5.9927918">
<ele>401.4000000</ele>
<time>2014-12-04T11:38:48Z</time>
<extensions>
<tp1:TrackPointExtension>
<tp1:hr>134</tp1:hr>
</tp1:TrackPointExtension>
</extensions>
</trkpt>
<trkpt lat="46.2118501" lon="5.9928003">
<ele>401.8000000</ele>
<time>2014-12-04T11:38:49Z</time>
<extensions>
<tp1:TrackPointExtension>
<tp1:hr>134</tp1:hr>
</tp1:TrackPointExtension>
</extensions>
</trkpt>
<trkpt lat="46.2119431" lon="5.9928082">
<ele>402.4000000</ele>
<time>2014-12-04T11:38:52Z</time>
<extensions>
<tp1:TrackPointExtension>
<tp1:hr>135</tp1:hr>
</tp1:TrackPointExtension>
</extensions>
</trkpt>
<trkpt lat="46.2119740" lon="5.9928041">
<ele>402.8000000</ele>
<time>2014-12-04T11:38:53Z</time>
<extensions>
<tp1:TrackPointExtension>
<tp1:hr>135</tp1:hr>
</tp1:TrackPointExtension>
</extensions>
</trkpt>
<trkpt lat="46.2120076" lon="5.9927893">
<ele>403.2000000</ele>
<time>2014-12-04T11:38:54Z</time>
<extensions>
<tp1:TrackPointExtension>
<tp1:hr>135</tp1:hr>
</tp1:TrackPointExtension>
</extensions>
</trkpt>
<trkpt lat="46.2120433" lon="5.9927575">
<ele>403.8000000</ele>
<time>2014-12-04T11:38:55Z</time>
<extensions>
<tp1:TrackPointExtension>
<tp1:hr>136</tp1:hr>
</tp1:TrackPointExtension>
</extensions>
</trkpt>
<trkpt lat="46.2120793" lon="5.9927269">
<ele>404.2000000</ele>
<time>2014-12-04T11:38:56Z</time>
<extensions>
<tp1:TrackPointExtension>
<tp1:hr>136</tp1:hr>
</tp1:TrackPointExtension>
</extensions>
</trkpt>
<trkpt lat="46.2121098" lon="5.9926055">
<ele>404.8000000</ele>
<time>2014-12-04T11:38:59Z</time>
<extensions>
<tp1:TrackPointExtension>
<tp1:hr>137</tp1:hr>
</tp1:TrackPointExtension>
</extensions>
</trkpt>
<trkpt lat="46.2121044" lon="5.9925716">
<ele>405.2000000</ele>
<time>2014-12-04T11:39:00Z</time>
<extensions>
<tp1:TrackPointExtension>
<tp1:hr>137</tp1:hr>
</tp1:TrackPointExtension>
</extensions>
</trkpt>
<trkpt lat="46.2120975" lon="5.9925442">
<ele>405.6000000</ele>
<time>2014-12-04T11:39:01Z</time>
<extensions>
<tp1:TrackPointExtension>
<tp1:hr>137</tp1:hr>
</tp1:TrackPointExtension>
</extensions>
</trkpt>
<trkpt lat="46.2120898" lon="5.9925201">
<ele>406.2000000</ele>
<time>2014-12-04T11:39:02Z</time>
<extensions>
<tp1:TrackPointExtension>
<tp1:hr>138</tp1:hr>
</tp1:TrackPointExtension>
</extensions>
</trkpt>
<trkpt lat="46.2120836" lon="5.9925087">
<ele>406.6000000</ele>
<time>2014-12-04T11:39:03Z</time>
<extensions>
<tp1:TrackPointExtension>
<tp1:hr>138</tp1:hr>
</tp1:TrackPointExtension>
</extensions>
</trkpt>
<trkpt lat="46.2120711" lon="5.9924793">
<ele>406.6000000</ele>
<time>2014-12-04T11:39:05Z</time>
<extensions>
<tp1:TrackPointExtension>
<tp1:hr>139</tp1:hr>
</tp1:TrackPointExtension>
</extensions>
</trkpt>
<trkpt lat="46.2120587" lon="5.9924503">
<ele>407.0000000</ele>
<time>2014-12-04T11:39:07Z</time>
<extensions>
<tp1:TrackPointExtension>
<tp1:hr>139</tp1:hr>
</tp1:TrackPointExtension>
</extensions>
</trkpt>
<trkpt lat="46.2120522" lon="5.9924373">
<ele>407.4000000</ele>
<time>2014-12-04T11:39:08Z</time>
<extensions>
<tp1:TrackPointExtension>
<tp1:hr>139</tp1:hr>
</tp1:TrackPointExtension>
</extensions>
</trkpt>
<trkpt lat="46.2120403" lon="5.9924077">
<ele>408.0000000</ele>
<time>2014-12-04T11:39:09Z</time>
<extensions>
<tp1:TrackPointExtension>
<tp1:hr>139</tp1:hr>
</tp1:TrackPointExtension>
</extensions>
</trkpt>
<trkpt lat="46.2120223" lon="5.9923837">
<ele>408.4000000</ele>
<time>2014-12-04T11:39:10Z</time>
<extensions>
<tp1:TrackPointExtension>
<tp1:hr>140</tp1:hr>
</tp1:TrackPointExtension>
</extensions>
</trkpt>
<trkpt lat="46.2120076" lon="5.9923719">
<ele>408.8000000</ele>
<time>2014-12-04T11:39:11Z</time>
<extensions>
<tp1:TrackPointExtension>
<tp1:hr>140</tp1:hr>
</tp1:TrackPointExtension>
</extensions>
</trkpt>
<trkpt lat="46.2119937" lon="5.9923363">
<ele>408.8000000</ele>
<time>2014-12-04T11:39:12Z</time>
<extensions>
<tp1:TrackPointExtension>
<tp1:hr>140</tp1:hr>
</tp1:TrackPointExtension>
</extensions>
</trkpt>
<trkpt lat="46.2119258" lon="5.9922676">
<ele>409.2000000</ele>
<time>2014-12-04T11:39:15Z</time>
<extensions>
<tp1:TrackPointExtension>
<tp1:hr>141</tp1:hr>
</tp1:TrackPointExtension>
</extensions>
</trkpt>
<trkpt lat="46.2119060" lon="5.9922506">
<ele>409.6000000</ele>
<time>2014-12-04T11:39:16Z</time>
<extensions>
<tp1:TrackPointExtension>
<tp1:hr>141</tp1:hr>
</tp1:TrackPointExtension>
</extensions>
</trkpt>
<trkpt lat="46.2118753" lon="5.9922087">
<ele>410.2000000</ele>
<time>2014-12-04T11:39:17Z</time>
<extensions>
<tp1:TrackPointExtension>
<tp1:hr>141</tp1:hr>
</tp1:TrackPointExtension>
</extensions>
</trkpt>
<trkpt lat="46.2118491" lon="5.9921731">
<ele>410.6000000</ele>
<time>2014-12-04T11:39:18Z</time>
<extensions>
<tp1:TrackPointExtension>
<tp1:hr>141</tp1:hr>
</tp1:TrackPointExtension>
</extensions>
</trkpt>
<trkpt lat="46.2118047" lon="5.9920825">
<ele>411.0000000</ele>
<time>2014-12-04T11:39:20Z</time>
<extensions>
<tp1:TrackPointExtension>
<tp1:hr>142</tp1:hr>
</tp1:TrackPointExtension>
</extensions>
</trkpt>
<trkpt lat="46.2117415" lon="5.9919323">
<ele>411.4000000</ele>
<time>2014-12-04T11:39:24Z</time>
<extensions>
<tp1:TrackPointExtension>
<tp1:hr>143</tp1:hr>
</tp1:TrackPointExtension>
</extensions>
</trkpt>
<trkpt lat="46.2117211" lon="5.9918899">
<ele>412.0000000</ele>
<time>2014-12-04T11:39:25Z</time>
<extensions>
<tp1:TrackPointExtension>
<tp1:hr>143</tp1:hr>
</tp1:TrackPointExtension>
</extensions>
</trkpt>
<trkpt lat="46.2116890" lon="5.9918258">
<ele>412.4000000</ele>
<time>2014-12-04T11:39:26Z</time>
<extensions>
<tp1:TrackPointExtension>
<tp1:hr>143</tp1:hr>
</tp1:TrackPointExtension>
</extensions>
</trkpt>
<trkpt lat="46.2116574" lon="5.9917683">
<ele>412.8000000</ele>
<time>2014-12-04T11:39:27Z</time>
<extensions>
<tp1:TrackPointExtension>
<tp1:hr>143</tp1:hr>
</tp1:TrackPointExtension>
</extensions>
</trkpt>
<trkpt lat="46.2116381" lon="5.9917230">
<ele>413.2000000</ele>
<time>2014-12-04T11:39:28Z</time>
<extensions>
<tp1:TrackPointExtension>
<tp1:hr>143</tp1:hr>
</tp1:TrackPointExtension>
</extensions>
</trkpt>
<trkpt lat="46.2115480" lon="5.9915252">
<ele>413.8000000</ele>
<time>2014-12-04T11:39:33Z</time>
<extensions>
<tp1:TrackPointExtension>
<tp1:hr>144</tp1:hr>
</tp1:TrackPointExtension>
</extensions>
</trkpt>
<trkpt lat="46.2115329" lon="5.9914868">
<ele>414.8000000</ele>
<time>2014-12-04T11:39:34Z</time>
<extensions>
<tp1:TrackPointExtension>
<tp1:hr>144</tp1:hr>
</tp1:TrackPointExtension>
</extensions>
</trkpt>
<trkpt lat="46.2115312" lon="5.9913952">
<ele>415.2000000</ele>
<time>2014-12-04T11:39:36Z</time>
<extensions>
<tp1:TrackPointExtension>
<tp1:hr>145</tp1:hr>
</tp1:TrackPointExtension>
</extensions>
</trkpt>
<trkpt lat="46.2115273" lon="5.9913485">
<ele>415.8000000</ele>
<time>2014-12-04T11:39:37Z</time>
<extensions>
<tp1:TrackPointExtension>
<tp1:hr>145</tp1:hr>
</tp1:TrackPointExtension>
</extensions>
</trkpt>
<trkpt lat="46.2114667" lon="5.9911126">
<ele>416.2000000</ele>
<time>2014-12-04T11:39:43Z</time>
<extensions>
<tp1:TrackPointExtension>
<tp1:hr>146</tp1:hr>
</tp1:TrackPointExtension>
</extensions>
</trkpt>
<trkpt lat="46.2114578" lon="5.9910661">
<ele>416.6000000</ele>
<time>2014-12-04T11:39:44Z</time>
<extensions>
<tp1:TrackPointExtension>
<tp1:hr>146</tp1:hr>
</tp1:TrackPointExtension>
</extensions>
</trkpt>
<trkpt lat="46.2114520" lon="5.9910253">
<ele>417.0000000</ele>
<time>2014-12-04T11:39:45Z</time>
<extensions>
<tp1:TrackPointExtension>
<tp1:hr>146</tp1:hr>
</tp1:TrackPointExtension>
</extensions>
</trkpt>
<trkpt lat="46.2114552" lon="5.9909817">
<ele>417.4000000</ele>
<time>2014-12-04T11:39:46Z</time>
<extensions>
<tp1:TrackPointExtension>
<tp1:hr>146</tp1:hr>
</tp1:TrackPointExtension>
</extensions>
</trkpt>
<trkpt lat="46.2114512" lon="5.9909425">
<ele>417.8000000</ele>
<time>2014-12-04T11:39:47Z</time>
<extensions>
<tp1:TrackPointExtension>
<tp1:hr>146</tp1:hr>
</tp1:TrackPointExtension>
</extensions>
</trkpt>
<trkpt lat="46.2114358" lon="5.9908674">
<ele>417.8000000</ele>
<time>2014-12-04T11:39:49Z</time>
<extensions>
<tp1:TrackPointExtension>
<tp1:hr>146</tp1:hr>
</tp1:TrackPointExtension>
</extensions>
</trkpt>
<trkpt lat="46.2114204" lon="5.9907306">
<ele>418.2000000</ele>
<time>2014-12-04T11:39:52Z</time>
<extensions>
<tp1:TrackPointExtension>
<tp1:hr>147</tp1:hr>
</tp1:TrackPointExtension>
</extensions>
</trkpt>
<trkpt lat="46.2114129" lon="5.9906822">
<ele>418.6000000</ele>
<time>2014-12-04T11:39:53Z</time>
<extensions>
<tp1:TrackPointExtension>
<tp1:hr>147</tp1:hr>
</tp1:TrackPointExtension>
</extensions>
</trkpt>
<trkpt lat="46.2114040" lon="5.9906403">
<ele>419.0000000</ele>
<time>2014-12-04T11:39:54Z</time>
<extensions>
<tp1:TrackPointExtension>
<tp1:hr>147</tp1:hr>
</tp1:TrackPointExtension>
</extensions>
</trkpt>
<trkpt lat="46.2113955" lon="5.9905993">
<ele>419.6000000</ele>
<time>2014-12-04T11:39:55Z</time>
<extensions>
<tp1:TrackPointExtension>
<tp1:hr>147</tp1:hr>
</tp1:TrackPointExtension>
</extensions>
</trkpt>
<trkpt lat="46.2113870" lon="5.9905532">
<ele>420.0000000</ele>
<time>2014-12-04T11:39:56Z</time>
<extensions>
<tp1:TrackPointExtension>
<tp1:hr>147</tp1:hr>
</tp1:TrackPointExtension>
</extensions>
</trkpt>
<trkpt lat="46.2113640" lon="5.9904558">
<ele>420.0000000</ele>
<time>2014-12-04T11:39:58Z</time>
<extensions>
<tp1:TrackPointExtension>
<tp1:hr>147</tp1:hr>
</tp1:TrackPointExtension>
</extensions>
</trkpt>
<trkpt lat="46.2113019" lon="5.9902622">
<ele>420.4000000</ele>
<time>2014-12-04T11:40:03Z</time>
<extensions>
<tp1:TrackPointExtension>
<tp1:hr>148</tp1:hr>
</tp1:TrackPointExtension>
</extensions>
</trkpt>
<trkpt lat="46.2112909" lon="5.9902198">
<ele>420.8000000</ele>
<time>2014-12-04T11:40:04Z</time>
<extensions>
<tp1:TrackPointExtension>
<tp1:hr>148</tp1:hr>
</tp1:TrackPointExtension>
</extensions>
</trkpt>
<trkpt lat="46.2112795" lon="5.9901803">
<ele>421.2000000</ele>
<time>2014-12-04T11:40:05Z</time>
<extensions>
<tp1:TrackPointExtension>
<tp1:hr>148</tp1:hr>
</tp1:TrackPointExtension>
</extensions>
</trkpt>
<trkpt lat="46.2112679" lon="5.9901408">
<ele>421.6000000</ele>
<time>2014-12-04T11:40:06Z</time>
<extensions>
<tp1:TrackPointExtension>
<tp1:hr>148</tp1:hr>
</tp1:TrackPointExtension>
</extensions>
</trkpt>
<trkpt lat="46.2112525" lon="5.9901025">
<ele>422.0000000</ele>
<time>2014-12-04T11:40:07Z</time>
<extensions>
<tp1:TrackPointExtension>
<tp1:hr>149</tp1:hr>
</tp1:TrackPointExtension>
</extensions>
</trkpt>
<trkpt lat="46.2112396" lon="5.9900633">
<ele>422.0000000</ele>
<time>2014-12-04T11:40:08Z</time>
<extensions>
<tp1:TrackPointExtension>
<tp1:hr>149</tp1:hr>
</tp1:TrackPointExtension>
</extensions>
</trkpt>
<trkpt lat="46.2111134" lon="5.9897107">
<ele>422.0000000</ele>
<time>2014-12-04T11:40:17Z</time>
<extensions>
<tp1:TrackPointExtension>
<tp1:hr>149</tp1:hr>
</tp1:TrackPointExtension>
</extensions>
</trkpt>
<trkpt lat="46.2111024" lon="5.9896705">
<ele>422.4000000</ele>
<time>2014-12-04T11:40:18Z</time>
<extensions>
<tp1:TrackPointExtension>
<tp1:hr>149</tp1:hr>
</tp1:TrackPointExtension>
</extensions>
</trkpt>
<trkpt lat="46.2110874" lon="5.9896285">
<ele>422.8000000</ele>
<time>2014-12-04T11:40:19Z</time>
<extensions>
<tp1:TrackPointExtension>
<tp1:hr>149</tp1:hr>
</tp1:TrackPointExtension>
</extensions>
</trkpt>
<trkpt lat="46.2110743" lon="5.9895896">
<ele>423.2000000</ele>
<time>2014-12-04T11:40:20Z</time>
<extensions>
<tp1:TrackPointExtension>
<tp1:hr>149</tp1:hr>
</tp1:TrackPointExtension>
</extensions>
</trkpt>
<trkpt lat="46.2110626" lon="5.9895488">
<ele>423.6000000</ele>
<time>2014-12-04T11:40:21Z</time>
<extensions>
<tp1:TrackPointExtension>
<tp1:hr>149</tp1:hr>
</tp1:TrackPointExtension>
</extensions>
</trkpt>
<trkpt lat="46.2110501" lon="5.9895083">
<ele>424.0000000</ele>
<time>2014-12-04T11:40:22Z</time>
<extensions>
<tp1:TrackPointExtension>
<tp1:hr>149</tp1:hr>
</tp1:TrackPointExtension>
</extensions>
</trkpt>
<trkpt lat="46.2109850" lon="5.9893228">
<ele>424.0000000</ele>
<time>2014-12-04T11:40:27Z</time>
<extensions>
<tp1:TrackPointExtension>
<tp1:hr>150</tp1:hr>
</tp1:TrackPointExtension>
</extensions>
</trkpt>
<trkpt lat="46.2109200" lon="5.9891405">
<ele>424.4000000</ele>
<time>2014-12-04T11:40:32Z</time>
<extensions>
<tp1:TrackPointExtension>
<tp1:hr>150</tp1:hr>
</tp1:TrackPointExtension>
</extensions>
</trkpt>
<trkpt lat="46.2109076" lon="5.9891014">
<ele>424.8000000</ele>
<time>2014-12-04T11:40:33Z</time>
<extensions>
<tp1:TrackPointExtension>
<tp1:hr>150</tp1:hr>
</tp1:TrackPointExtension>
</extensions>
</trkpt>
<trkpt lat="46.2108971" lon="5.9890678">
<ele>425.2000000</ele>
<time>2014-12-04T11:40:34Z</time>
<extensions>
<tp1:TrackPointExtension>
<tp1:hr>150</tp1:hr>
</tp1:TrackPointExtension>
</extensions>
</trkpt>
<trkpt lat="46.2108872" lon="5.9890350">
<ele>425.8000000</ele>
<time>2014-12-04T11:40:35Z</time>
<extensions>
<tp1:TrackPointExtension>
<tp1:hr>150</tp1:hr>
</tp1:TrackPointExtension>
</extensions>
</trkpt>
<trkpt lat="46.2108738" lon="5.9889992">
<ele>426.2000000</ele>
<time>2014-12-04T11:40:36Z</time>
<extensions>
<tp1:TrackPointExtension>
<tp1:hr>150</tp1:hr>
</tp1:TrackPointExtension>
</extensions>
</trkpt>
<trkpt lat="46.2108095" lon="5.9888310">
<ele>426.6000000</ele>
<time>2014-12-04T11:40:41Z</time>
<extensions>
<tp1:TrackPointExtension>
<tp1:hr>151</tp1:hr>
</tp1:TrackPointExtension>
</extensions>
</trkpt>
<trkpt lat="46.2107980" lon="5.9887964">
<ele>427.0000000</ele>
<time>2014-12-04T11:40:42Z</time>
<extensions>
<tp1:TrackPointExtension>
<tp1:hr>151</tp1:hr>
</tp1:TrackPointExtension>
</extensions>
</trkpt>
<trkpt lat="46.2107864" lon="5.9887651">
<ele>427.6000000</ele>
<time>2014-12-04T11:40:43Z</time>
<extensions>
<tp1:TrackPointExtension>
<tp1:hr>151</tp1:hr>
</tp1:TrackPointExtension>
</extensions>
</trkpt>
<trkpt lat="46.2107787" lon="5.9887386">
<ele>428.0000000</ele>
<time>2014-12-04T11:40:44Z</time>
<extensions>
<tp1:TrackPointExtension>
<tp1:hr>151</tp1:hr>
</tp1:TrackPointExtension>
</extensions>
</trkpt>
<trkpt lat="46.2107637" lon="5.9887094">
<ele>428.4000000</ele>
<time>2014-12-04T11:40:45Z</time>
<extensions>
<tp1:TrackPointExtension>
<tp1:hr>151</tp1:hr>
</tp1:TrackPointExtension>
</extensions>
</trkpt>
<trkpt lat="46.2107286" lon="5.9886036">
<ele>429.0000000</ele>
<time>2014-12-04T11:40:48Z</time>
<extensions>
<tp1:TrackPointExtension>
<tp1:hr>152</tp1:hr>
</tp1:TrackPointExtension>
</extensions>
</trkpt>
<trkpt lat="46.2107257" lon="5.9885686">
<ele>429.4000000</ele>
<time>2014-12-04T11:40:49Z</time>
<extensions>
<tp1:TrackPointExtension>
<tp1:hr>152</tp1:hr>
</tp1:TrackPointExtension>
</extensions>
</trkpt>
<trkpt lat="46.2107190" lon="5.9885386">
<ele>429.8000000</ele>
<time>2014-12-04T11:40:50Z</time>
<extensions>
<tp1:TrackPointExtension>
<tp1:hr>152</tp1:hr>
</tp1:TrackPointExtension>
</extensions>
</trkpt>
<trkpt lat="46.2107052" lon="5.9885121">
<ele>430.2000000</ele>
<time>2014-12-04T11:40:51Z</time>
<extensions>
<tp1:TrackPointExtension>
<tp1:hr>152</tp1:hr>
</tp1:TrackPointExtension>
</extensions>
</trkpt>
<trkpt lat="46.2106911" lon="5.9884866">
<ele>430.8000000</ele>
<time>2014-12-04T11:40:52Z</time>
<extensions>
<tp1:TrackPointExtension>
<tp1:hr>152</tp1:hr>
</tp1:TrackPointExtension>
</extensions>
</trkpt>
<trkpt lat="46.2106136" lon="5.9883911">
<ele>431.2000000</ele>
<time>2014-12-04T11:40:56Z</time>
<extensions>
<tp1:TrackPointExtension>
<tp1:hr>153</tp1:hr>
</tp1:TrackPointExtension>
</extensions>
</trkpt>
<trkpt lat="46.2105962" lon="5.9883724">
<ele>431.6000000</ele>
<time>2014-12-04T11:40:57Z</time>
<extensions>
<tp1:TrackPointExtension>
<tp1:hr>153</tp1:hr>
</tp1:TrackPointExtension>
</extensions>
</trkpt>
<trkpt lat="46.2105794" lon="5.9883482">
<ele>432.0000000</ele>
<time>2014-12-04T11:40:58Z</time>
<extensions>
<tp1:TrackPointExtension>
<tp1:hr>153</tp1:hr>
</tp1:TrackPointExtension>
</extensions>
</trkpt>
<trkpt lat="46.2105564" lon="5.9883153">
<ele>432.4000000</ele>
<time>2014-12-04T11:40:59Z</time>
<extensions>
<tp1:TrackPointExtension>
<tp1:hr>153</tp1:hr>
</tp1:TrackPointExtension>
</extensions>
</trkpt>
<trkpt lat="46.2105349" lon="5.9882851">
<ele>433.0000000</ele>
<time>2014-12-04T11:41:00Z</time>
<extensions>
<tp1:TrackPointExtension>
<tp1:hr>153</tp1:hr>
</tp1:TrackPointExtension>
</extensions>
</trkpt>
<trkpt lat="46.2105196" lon="5.9881677">
<ele>433.0000000</ele>
<time>2014-12-04T11:41:02Z</time>
<extensions>
<tp1:TrackPointExtension>
<tp1:hr>153</tp1:hr>
</tp1:TrackPointExtension>
</extensions>
</trkpt>
<trkpt lat="46.2104529" lon="5.9880383">
<ele>433.4000000</ele>
<time>2014-12-04T11:41:06Z</time>
<extensions>
<tp1:TrackPointExtension>
<tp1:hr>154</tp1:hr>
</tp1:TrackPointExtension>
</extensions>
</trkpt>
<trkpt lat="46.2104372" lon="5.9880046">
<ele>433.8000000</ele>
<time>2014-12-04T11:41:07Z</time>
<extensions>
<tp1:TrackPointExtension>
<tp1:hr>154</tp1:hr>
</tp1:TrackPointExtension>
</extensions>
</trkpt>
<trkpt lat="46.2104209" lon="5.9879710">
<ele>434.2000000</ele>
<time>2014-12-04T11:41:08Z</time>
<extensions>
<tp1:TrackPointExtension>
<tp1:hr>154</tp1:hr>
</tp1:TrackPointExtension>
</extensions>
</trkpt>
<trkpt lat="46.2104020" lon="5.9879370">
<ele>434.6000000</ele>
<time>2014-12-04T11:41:09Z</time>
<extensions>
<tp1:TrackPointExtension>
<tp1:hr>153</tp1:hr>
</tp1:TrackPointExtension>
</extensions>
</trkpt>
<trkpt lat="46.2103841" lon="5.9879040">
<ele>435.2000000</ele>
<time>2014-12-04T11:41:10Z</time>
<extensions>
<tp1:TrackPointExtension>
<tp1:hr>154</tp1:hr>
</tp1:TrackPointExtension>
</extensions>
</trkpt>
<trkpt lat="46.2103679" lon="5.9878726">
<ele>435.2000000</ele>
<time>2014-12-04T11:41:11Z</time>
<extensions>
<tp1:TrackPointExtension>
<tp1:hr>153</tp1:hr>
</tp1:TrackPointExtension>
</extensions>
</trkpt>
<trkpt lat="46.2103280" lon="5.9877770">
<ele>435.6000000</ele>
<time>2014-12-04T11:41:14Z</time>
<extensions>
<tp1:TrackPointExtension>
<tp1:hr>154</tp1:hr>
</tp1:TrackPointExtension>
</extensions>
</trkpt>
<trkpt lat="46.2103136" lon="5.9877437">
<ele>436.0000000</ele>
<time>2014-12-04T11:41:15Z</time>
<extensions>
<tp1:TrackPointExtension>
<tp1:hr>154</tp1:hr>
</tp1:TrackPointExtension>
</extensions>
</trkpt>
<trkpt lat="46.2102968" lon="5.9877111">
<ele>436.4000000</ele>
<time>2014-12-04T11:41:16Z</time>
<extensions>
<tp1:TrackPointExtension>
<tp1:hr>154</tp1:hr>
</tp1:TrackPointExtension>
</extensions>
</trkpt>
<trkpt lat="46.2102791" lon="5.9876795">
<ele>436.8000000</ele>
<time>2014-12-04T11:41:17Z</time>
<extensions>
<tp1:TrackPointExtension>
<tp1:hr>154</tp1:hr>
</tp1:TrackPointExtension>
</extensions>
</trkpt>
<trkpt lat="46.2102606" lon="5.9876479">
<ele>437.2000000</ele>
<time>2014-12-04T11:41:18Z</time>
<extensions>
<tp1:TrackPointExtension>
<tp1:hr>153</tp1:hr>
</tp1:TrackPointExtension>
</extensions>
</trkpt>
<trkpt lat="46.2102444" lon="5.9876190">
<ele>437.2000000</ele>
<time>2014-12-04T11:41:19Z</time>
<extensions>
<tp1:TrackPointExtension>
<tp1:hr>153</tp1:hr>
</tp1:TrackPointExtension>
</extensions>
</trkpt>
<trkpt lat="46.2101624" lon="5.9875130">
<ele>437.6000000</ele>
<time>2014-12-04T11:41:23Z</time>
<extensions>
<tp1:TrackPointExtension>
<tp1:hr>154</tp1:hr>
</tp1:TrackPointExtension>
</extensions>
</trkpt>
<trkpt lat="46.2101406" lon="5.9874975">
<ele>438.2000000</ele>
<time>2014-12-04T11:41:24Z</time>
<extensions>
<tp1:TrackPointExtension>
<tp1:hr>154</tp1:hr>
</tp1:TrackPointExtension>
</extensions>
</trkpt>
<trkpt lat="46.2101210" lon="5.9874801">
<ele>438.6000000</ele>
<time>2014-12-04T11:41:25Z</time>
<extensions>
<tp1:TrackPointExtension>
<tp1:hr>155</tp1:hr>
</tp1:TrackPointExtension>
</extensions>
</trkpt>
<trkpt lat="46.2101032" lon="5.9874623">
<ele>439.2000000</ele>
<time>2014-12-04T11:41:26Z</time>
<extensions>
<tp1:TrackPointExtension>
<tp1:hr>155</tp1:hr>
</tp1:TrackPointExtension>
</extensions>
</trkpt>
<trkpt lat="46.2100866" lon="5.9874293">
<ele>439.6000000</ele>
<time>2014-12-04T11:41:27Z</time>
<extensions>
<tp1:TrackPointExtension>
<tp1:hr>155</tp1:hr>
</tp1:TrackPointExtension>
</extensions>
</trkpt>
<trkpt lat="46.2100087" lon="5.9873397">
<ele>440.0000000</ele>
<time>2014-12-04T11:41:31Z</time>
<extensions>
<tp1:TrackPointExtension>
<tp1:hr>155</tp1:hr>
</tp1:TrackPointExtension>
</extensions>
</trkpt>
<trkpt lat="46.2099826" lon="5.9873175">
<ele>440.6000000</ele>
<time>2014-12-04T11:41:32Z</time>
<extensions>
<tp1:TrackPointExtension>
<tp1:hr>155</tp1:hr>
</tp1:TrackPointExtension>
</extensions>
</trkpt>
<trkpt lat="46.2099581" lon="5.9872983">
<ele>441.0000000</ele>
<time>2014-12-04T11:41:33Z</time>
<extensions>
<tp1:TrackPointExtension>
<tp1:hr>155</tp1:hr>
</tp1:TrackPointExtension>
</extensions>
</trkpt>
<trkpt lat="46.2099322" lon="5.9872754">
<ele>441.4000000</ele>
<time>2014-12-04T11:41:34Z</time>
<extensions>
<tp1:TrackPointExtension>
<tp1:hr>155</tp1:hr>
</tp1:TrackPointExtension>
</extensions>
</trkpt>
<trkpt lat="46.2099055" lon="5.9872507">
<ele>441.8000000</ele>
<time>2014-12-04T11:41:35Z</time>
<extensions>
<tp1:TrackPointExtension>
<tp1:hr>155</tp1:hr>
</tp1:TrackPointExtension>
</extensions>
</trkpt>
<trkpt lat="46.2098155" lon="5.9870910">
<ele>441.8000000</ele>
<time>2014-12-04T11:41:40Z</time>
<extensions>
<tp1:TrackPointExtension>
<tp1:hr>156</tp1:hr>
</tp1:TrackPointExtension>
</extensions>
</trkpt>
<trkpt lat="46.2098012" lon="5.9870060">
<ele>442.4000000</ele>
<time>2014-12-04T11:41:42Z</time>
<extensions>
<tp1:TrackPointExtension>
<tp1:hr>156</tp1:hr>
</tp1:TrackPointExtension>
</extensions>
</trkpt>
<trkpt lat="46.2098011" lon="5.9869647">
<ele>442.8000000</ele>
<time>2014-12-04T11:41:43Z</time>
<extensions>
<tp1:TrackPointExtension>
<tp1:hr>156</tp1:hr>
</tp1:TrackPointExtension>
</extensions>
</trkpt>
<trkpt lat="46.2098002" lon="5.9869192">
<ele>443.2000000</ele>
<time>2014-12-04T11:41:44Z</time>
<extensions>
<tp1:TrackPointExtension>
<tp1:hr>156</tp1:hr>
</tp1:TrackPointExtension>
</extensions>
</trkpt>
<trkpt lat="46.2097981" lon="5.9868776">
<ele>443.8000000</ele>
<time>2014-12-04T11:41:45Z</time>
<extensions>
<tp1:TrackPointExtension>
<tp1:hr>155</tp1:hr>
</tp1:TrackPointExtension>
</extensions>
</trkpt>
<trkpt lat="46.2097987" lon="5.9868341">
<ele>444.2000000</ele>
<time>2014-12-04T11:41:46Z</time>
<extensions>
<tp1:TrackPointExtension>
<tp1:hr>156</tp1:hr>
</tp1:TrackPointExtension>
</extensions>
</trkpt>
<trkpt lat="46.2097785" lon="5.9863259">
<ele>444.2000000</ele>
<time>2014-12-04T11:41:57Z</time>
<extensions>
<tp1:TrackPointExtension>
<tp1:hr>155</tp1:hr>
</tp1:TrackPointExtension>
</extensions>
</trkpt>
<trkpt lat="46.2097460" lon="5.9859300">
<ele>444.2000000</ele>
<time>2014-12-04T11:42:05Z</time>
<extensions>
<tp1:TrackPointExtension>
<tp1:hr>153</tp1:hr>
</tp1:TrackPointExtension>
</extensions>
</trkpt>
<trkpt lat="46.2097188" lon="5.9854258">
<ele>444.2000000</ele>
<time>2014-12-04T11:42:15Z</time>
<extensions>
<tp1:TrackPointExtension>
<tp1:hr>150</tp1:hr>
</tp1:TrackPointExtension>
</extensions>
</trkpt>
<trkpt lat="46.2097183" lon="5.9853762">
<ele>444.2000000</ele>
<time>2014-12-04T11:42:16Z</time>
<extensions>
<tp1:TrackPointExtension>
<tp1:hr>150</tp1:hr>
</tp1:TrackPointExtension>
</extensions>
</trkpt>
<trkpt lat="46.2097193" lon="5.9853254">
<ele>444.6000000</ele>
<time>2014-12-04T11:42:17Z</time>
<extensions>
<tp1:TrackPointExtension>
<tp1:hr>150</tp1:hr>
</tp1:TrackPointExtension>
</extensions>
</trkpt>
<trkpt lat="46.2097187" lon="5.9852762">
<ele>445.0000000</ele>
<time>2014-12-04T11:42:18Z</time>
<extensions>
<tp1:TrackPointExtension>
<tp1:hr>150</tp1:hr>
</tp1:TrackPointExtension>
</extensions>
</trkpt>
<trkpt lat="46.2097175" lon="5.9852291">
<ele>445.4000000</ele>
<time>2014-12-04T11:42:19Z</time>
<extensions>
<tp1:TrackPointExtension>
<tp1:hr>149</tp1:hr>
</tp1:TrackPointExtension>
</extensions>
</trkpt>
<trkpt lat="46.2097182" lon="5.9851812">
<ele>445.8000000</ele>
<time>2014-12-04T11:42:20Z</time>
<extensions>
<tp1:TrackPointExtension>
<tp1:hr>149</tp1:hr>
</tp1:TrackPointExtension>
</extensions>
</trkpt>
<trkpt lat="46.2097199" lon="5.9851353">
<ele>446.2000000</ele>
<time>2014-12-04T11:42:21Z</time>
<extensions>
<tp1:TrackPointExtension>
<tp1:hr>149</tp1:hr>
</tp1:TrackPointExtension>
</extensions>
</trkpt>
<trkpt lat="46.2097456" lon="5.9849048">
<ele>446.2000000</ele>
<time>2014-12-04T11:42:26Z</time>
<extensions>
<tp1:TrackPointExtension>
<tp1:hr>148</tp1:hr>
</tp1:TrackPointExtension>
</extensions>
</trkpt>
<trkpt lat="46.2098156" lon="5.9843778">
<ele>446.6000000</ele>
<time>2014-12-04T11:42:36Z</time>
<extensions>
<tp1:TrackPointExtension>
<tp1:hr>149</tp1:hr>
</tp1:TrackPointExtension>
</extensions>
</trkpt>
<trkpt lat="46.2098253" lon="5.9843231">
<ele>447.0000000</ele>
<time>2014-12-04T11:42:37Z</time>
<extensions>
<tp1:TrackPointExtension>
<tp1:hr>148</tp1:hr>
</tp1:TrackPointExtension>
</extensions>
</trkpt>
<trkpt lat="46.2098359" lon="5.9842661">
<ele>447.4000000</ele>
<time>2014-12-04T11:42:38Z</time>
<extensions>
<tp1:TrackPointExtension>
<tp1:hr>148</tp1:hr>
</tp1:TrackPointExtension>
</extensions>
</trkpt>
<trkpt lat="46.2098453" lon="5.9842118">
<ele>447.8000000</ele>
<time>2014-12-04T11:42:39Z</time>
<extensions>
<tp1:TrackPointExtension>
<tp1:hr>148</tp1:hr>
</tp1:TrackPointExtension>
</extensions>
</trkpt>
<trkpt lat="46.2098540" lon="5.9841567">
<ele>448.2000000</ele>
<time>2014-12-04T11:42:40Z</time>
<extensions>
<tp1:TrackPointExtension>
<tp1:hr>148</tp1:hr>
</tp1:TrackPointExtension>
</extensions>
</trkpt>
<trkpt lat="46.2098654" lon="5.9839177">
<ele>448.2000000</ele>
<time>2014-12-04T11:42:44Z</time>
<extensions>
<tp1:TrackPointExtension>
<tp1:hr>147</tp1:hr>
</tp1:TrackPointExtension>
</extensions>
</trkpt>
<trkpt lat="46.2098303" lon="5.9837320">
<ele>448.2000000</ele>
<time>2014-12-04T11:42:47Z</time>
<extensions>
<tp1:TrackPointExtension>
<tp1:hr>146</tp1:hr>
</tp1:TrackPointExtension>
</extensions>
</trkpt>
<trkpt lat="46.2097399" lon="5.9834927">
<ele>448.2000000</ele>
<time>2014-12-04T11:42:51Z</time>
<extensions>
<tp1:TrackPointExtension>
<tp1:hr>145</tp1:hr>
</tp1:TrackPointExtension>
</extensions>
</trkpt>
<trkpt lat="46.2096867" lon="5.9833689">
<ele>448.2000000</ele>
<time>2014-12-04T11:42:53Z</time>
<extensions>
<tp1:TrackPointExtension>
<tp1:hr>145</tp1:hr>
</tp1:TrackPointExtension>
</extensions>
</trkpt>
<trkpt lat="46.2094165" lon="5.9827997">
<ele>448.2000000</ele>
<time>2014-12-04T11:43:02Z</time>
<extensions>
<tp1:TrackPointExtension>
<tp1:hr>143</tp1:hr>
</tp1:TrackPointExtension>
</extensions>
</trkpt>
<trkpt lat="46.2091037" lon="5.9821635">
<ele>448.2000000</ele>
<time>2014-12-04T11:43:12Z</time>
<extensions>
<tp1:TrackPointExtension>
<tp1:hr>141</tp1:hr>
</tp1:TrackPointExtension>
</extensions>
</trkpt>
<trkpt lat="46.2090386" lon="5.9820253">
<ele>448.2000000</ele>
<time>2014-12-04T11:43:14Z</time>
<extensions>
<tp1:TrackPointExtension>
<tp1:hr>140</tp1:hr>
</tp1:TrackPointExtension>
</extensions>
</trkpt>
<trkpt lat="46.2089387" lon="5.9818144">
<ele>447.8000000</ele>
<time>2014-12-04T11:43:17Z</time>
<extensions>
<tp1:TrackPointExtension>
<tp1:hr>139</tp1:hr>
</tp1:TrackPointExtension>
</extensions>
</trkpt>
<trkpt lat="46.2089040" lon="5.9817432">
<ele>447.4000000</ele>
<time>2014-12-04T11:43:18Z</time>
<extensions>
<tp1:TrackPointExtension>
<tp1:hr>138</tp1:hr>
</tp1:TrackPointExtension>
</extensions>
</trkpt>
<trkpt lat="46.2088719" lon="5.9816720">
<ele>446.8000000</ele>
<time>2014-12-04T11:43:19Z</time>
<extensions>
<tp1:TrackPointExtension>
<tp1:hr>138</tp1:hr>
</tp1:TrackPointExtension>
</extensions>
</trkpt>
<trkpt lat="46.2088405" lon="5.9815980">
<ele>446.4000000</ele>
<time>2014-12-04T11:43:20Z</time>
<extensions>
<tp1:TrackPointExtension>
<tp1:hr>137</tp1:hr>
</tp1:TrackPointExtension>
</extensions>
</trkpt>
<trkpt lat="46.2088093" lon="5.9815224">
<ele>446.0000000</ele>
<time>2014-12-04T11:43:21Z</time>
<extensions>
<tp1:TrackPointExtension>
<tp1:hr>137</tp1:hr>
</tp1:TrackPointExtension>
</extensions>
</trkpt>
<trkpt lat="46.2086721" lon="5.9812233">
<ele>446.0000000</ele>
<time>2014-12-04T11:43:25Z</time>
<extensions>
<tp1:TrackPointExtension>
<tp1:hr>136</tp1:hr>
</tp1:TrackPointExtension>
</extensions>
</trkpt>
<trkpt lat="46.2084795" lon="5.9808569">
<ele>446.0000000</ele>
<time>2014-12-04T11:43:30Z</time>
<extensions>
<tp1:TrackPointExtension>
<tp1:hr>135</tp1:hr>
</tp1:TrackPointExtension>
</extensions>
</trkpt>
<trkpt lat="46.2083668" lon="5.9807690">
<ele>446.0000000</ele>
<time>2014-12-04T11:43:32Z</time>
<extensions>
<tp1:TrackPointExtension>
<tp1:hr>134</tp1:hr>
</tp1:TrackPointExtension>
</extensions>
</trkpt>
<trkpt lat="46.2081104" lon="5.9806963">
<ele>446.0000000</ele>
<time>2014-12-04T11:43:36Z</time>
<extensions>
<tp1:TrackPointExtension>
<tp1:hr>133</tp1:hr>
</tp1:TrackPointExtension>
</extensions>
</trkpt>
<trkpt lat="46.2079099" lon="5.9806923">
<ele>445.6000000</ele>
<time>2014-12-04T11:43:39Z</time>
<extensions>
<tp1:TrackPointExtension>
<tp1:hr>133</tp1:hr>
</tp1:TrackPointExtension>
</extensions>
</trkpt>
<trkpt lat="46.2078509" lon="5.9806910">
<ele>445.2000000</ele>
<time>2014-12-04T11:43:40Z</time>
<extensions>
<tp1:TrackPointExtension>
<tp1:hr>132</tp1:hr>
</tp1:TrackPointExtension>
</extensions>
</trkpt>
<trkpt lat="46.2077890" lon="5.9806901">
<ele>444.8000000</ele>
<time>2014-12-04T11:43:41Z</time>
<extensions>
<tp1:TrackPointExtension>
<tp1:hr>132</tp1:hr>
</tp1:TrackPointExtension>
</extensions>
</trkpt>
<trkpt lat="46.2077224" lon="5.9806887">
<ele>444.4000000</ele>
<time>2014-12-04T11:43:42Z</time>
<extensions>
<tp1:TrackPointExtension>
<tp1:hr>132</tp1:hr>
</tp1:TrackPointExtension>
</extensions>
</trkpt>
<trkpt lat="46.2076603" lon="5.9806837">
<ele>443.8000000</ele>
<time>2014-12-04T11:43:43Z</time>
<extensions>
<tp1:TrackPointExtension>
<tp1:hr>132</tp1:hr>
</tp1:TrackPointExtension>
</extensions>
</trkpt>
<trkpt lat="46.2072442" lon="5.9806485">
<ele>443.8000000</ele>
<time>2014-12-04T11:43:50Z</time>
<extensions>
<tp1:TrackPointExtension>
<tp1:hr>133</tp1:hr>
</tp1:TrackPointExtension>
</extensions>
</trkpt>
<trkpt lat="46.2068868" lon="5.9806156">
<ele>444.4000000</ele>
<time>2014-12-04T11:43:56Z</time>
<extensions>
<tp1:TrackPointExtension>
<tp1:hr>135</tp1:hr>
</tp1:TrackPointExtension>
</extensions>
</trkpt>
<trkpt lat="46.2067711" lon="5.9806005">
<ele>445.4000000</ele>
<time>2014-12-04T11:43:58Z</time>
<extensions>
<tp1:TrackPointExtension>
<tp1:hr>135</tp1:hr>
</tp1:TrackPointExtension>
</extensions>
</trkpt>
<trkpt lat="46.2067150" lon="5.9805941">
<ele>445.8000000</ele>
<time>2014-12-04T11:43:59Z</time>
<extensions>
<tp1:TrackPointExtension>
<tp1:hr>136</tp1:hr>
</tp1:TrackPointExtension>
</extensions>
</trkpt>
<trkpt lat="46.2066585" lon="5.9805889">
<ele>446.2000000</ele>
<time>2014-12-04T11:44:00Z</time>
<extensions>
<tp1:TrackPointExtension>
<tp1:hr>136</tp1:hr>
</tp1:TrackPointExtension>
</extensions>
</trkpt>
<trkpt lat="46.2064876" lon="5.9805673">
<ele>446.2000000</ele>
<time>2014-12-04T11:44:03Z</time>
<extensions>
<tp1:TrackPointExtension>
<tp1:hr>136</tp1:hr>
</tp1:TrackPointExtension>
</extensions>
</trkpt>
<trkpt lat="46.2059477" lon="5.9805205">
<ele>446.8000000</ele>
<time>2014-12-04T11:44:12Z</time>
<extensions>
<tp1:TrackPointExtension>
<tp1:hr>139</tp1:hr>
</tp1:TrackPointExtension>
</extensions>
</trkpt>
<trkpt lat="46.2058874" lon="5.9805147">
<ele>447.2000000</ele>
<time>2014-12-04T11:44:13Z</time>
<extensions>
<tp1:TrackPointExtension>
<tp1:hr>139</tp1:hr>
</tp1:TrackPointExtension>
</extensions>
</trkpt>
<trkpt lat="46.2058284" lon="5.9805090">
<ele>447.6000000</ele>
<time>2014-12-04T11:44:14Z</time>
<extensions>
<tp1:TrackPointExtension>
<tp1:hr>139</tp1:hr>
</tp1:TrackPointExtension>
</extensions>
</trkpt>
<trkpt lat="46.2057689" lon="5.9805038">
<ele>447.6000000</ele>
<time>2014-12-04T11:44:15Z</time>
<extensions>
<tp1:TrackPointExtension>
<tp1:hr>139</tp1:hr>
</tp1:TrackPointExtension>
</extensions>
</trkpt>
<trkpt lat="46.2057098" lon="5.9804976">
<ele>448.0000000</ele>
<time>2014-12-04T11:44:16Z</time>
<extensions>
<tp1:TrackPointExtension>
<tp1:hr>140</tp1:hr>
</tp1:TrackPointExtension>
</extensions>
</trkpt>
<trkpt lat="46.2056522" lon="5.9804913">
<ele>448.6000000</ele>
<time>2014-12-04T11:44:17Z</time>
<extensions>
<tp1:TrackPointExtension>
<tp1:hr>140</tp1:hr>
</tp1:TrackPointExtension>
</extensions>
</trkpt>
<trkpt lat="46.2050901" lon="5.9804373">
<ele>448.6000000</ele>
<time>2014-12-04T11:44:27Z</time>
<extensions>
<tp1:TrackPointExtension>
<tp1:hr>141</tp1:hr>
</tp1:TrackPointExtension>
</extensions>
</trkpt>
<trkpt lat="46.2047021" lon="5.9803960">
<ele>448.6000000</ele>
<time>2014-12-04T11:44:35Z</time>
<extensions>
<tp1:TrackPointExtension>
<tp1:hr>139</tp1:hr>
</tp1:TrackPointExtension>
</extensions>
</trkpt>
<trkpt lat="46.2046522" lon="5.9803903">
<ele>449.0000000</ele>
<time>2014-12-04T11:44:36Z</time>
<extensions>
<tp1:TrackPointExtension>
<tp1:hr>140</tp1:hr>
</tp1:TrackPointExtension>
</extensions>
</trkpt>
<trkpt lat="46.2046009" lon="5.9803857">
<ele>449.4000000</ele>
<time>2014-12-04T11:44:37Z</time>
<extensions>
<tp1:TrackPointExtension>
<tp1:hr>139</tp1:hr>
</tp1:TrackPointExtension>
</extensions>
</trkpt>
<trkpt lat="46.2045509" lon="5.9803839">
<ele>450.0000000</ele>
<time>2014-12-04T11:44:38Z</time>
<extensions>
<tp1:TrackPointExtension>
<tp1:hr>139</tp1:hr>
</tp1:TrackPointExtension>
</extensions>
</trkpt>
<trkpt lat="46.2045035" lon="5.9803824">
<ele>450.4000000</ele>
<time>2014-12-04T11:44:39Z</time>
<extensions>
<tp1:TrackPointExtension>
<tp1:hr>139</tp1:hr>
</tp1:TrackPointExtension>
</extensions>
</trkpt>
<trkpt lat="46.2044585" lon="5.9803766">
<ele>450.8000000</ele>
<time>2014-12-04T11:44:40Z</time>
<extensions>
<tp1:TrackPointExtension>
<tp1:hr>138</tp1:hr>
</tp1:TrackPointExtension>
</extensions>
</trkpt>
<trkpt lat="46.2043750" lon="5.9803460">
<ele>450.8000000</ele>
<time>2014-12-04T11:44:42Z</time>
<extensions>
<tp1:TrackPointExtension>
<tp1:hr>137</tp1:hr>
</tp1:TrackPointExtension>
</extensions>
</trkpt>
<trkpt lat="46.2043163" lon="5.9802702">
<ele>450.8000000</ele>
<time>2014-12-04T11:44:44Z</time>
<extensions>
<tp1:TrackPointExtension>
<tp1:hr>136</tp1:hr>
</tp1:TrackPointExtension>
</extensions>
</trkpt>
<trkpt lat="46.2042453" lon="5.9799793">
<ele>450.8000000</ele>
<time>2014-12-04T11:44:49Z</time>
<extensions>
<tp1:TrackPointExtension>
<tp1:hr>134</tp1:hr>
</tp1:TrackPointExtension>
</extensions>
</trkpt>
<trkpt lat="46.2042398" lon="5.9799077">
<ele>450.8000000</ele>
<time>2014-12-04T11:44:50Z</time>
<extensions>
<tp1:TrackPointExtension>
<tp1:hr>134</tp1:hr>
</tp1:TrackPointExtension>
</extensions>
</trkpt>
<trkpt lat="46.2041748" lon="5.9795351">
<ele>450.4000000</ele>
<time>2014-12-04T11:44:55Z</time>
<extensions>
<tp1:TrackPointExtension>
<tp1:hr>131</tp1:hr>
</tp1:TrackPointExtension>
</extensions>
</trkpt>
<trkpt lat="46.2041585" lon="5.9794473">
<ele>449.8000000</ele>
<time>2014-12-04T11:44:56Z</time>
<extensions>
<tp1:TrackPointExtension>
<tp1:hr>129</tp1:hr>
</tp1:TrackPointExtension>
</extensions>
</trkpt>
<trkpt lat="46.2041431" lon="5.9793603">
<ele>449.4000000</ele>
<time>2014-12-04T11:44:57Z</time>
<extensions>
<tp1:TrackPointExtension>
<tp1:hr>129</tp1:hr>
</tp1:TrackPointExtension>
</extensions>
</trkpt>
<trkpt lat="46.2041250" lon="5.9792686">
<ele>449.0000000</ele>
<time>2014-12-04T11:44:58Z</time>
<extensions>
<tp1:TrackPointExtension>
<tp1:hr>128</tp1:hr>
</tp1:TrackPointExtension>
</extensions>
</trkpt>
<trkpt lat="46.2041076" lon="5.9791723">
<ele>448.4000000</ele>
<time>2014-12-04T11:44:59Z</time>
<extensions>
<tp1:TrackPointExtension>
<tp1:hr>128</tp1:hr>
</tp1:TrackPointExtension>
</extensions>
</trkpt>
<trkpt lat="46.2040891" lon="5.9790707">
<ele>448.0000000</ele>
<time>2014-12-04T11:45:00Z</time>
<extensions>
<tp1:TrackPointExtension>
<tp1:hr>127</tp1:hr>
</tp1:TrackPointExtension>
</extensions>
</trkpt>
<trkpt lat="46.2040698" lon="5.9789672">
<ele>447.6000000</ele>
<time>2014-12-04T11:45:01Z</time>
<extensions>
<tp1:TrackPointExtension>
<tp1:hr>127</tp1:hr>
</tp1:TrackPointExtension>
</extensions>
</trkpt>
<trkpt lat="46.2040500" lon="5.9788632">
<ele>447.0000000</ele>
<time>2014-12-04T11:45:02Z</time>
<extensions>
<tp1:TrackPointExtension>
<tp1:hr>127</tp1:hr>
</tp1:TrackPointExtension>
</extensions>
</trkpt>
<trkpt lat="46.2040280" lon="5.9787576">
<ele>446.6000000</ele>
<time>2014-12-04T11:45:03Z</time>
<extensions>
<tp1:TrackPointExtension>
<tp1:hr>126</tp1:hr>
</tp1:TrackPointExtension>
</extensions>
</trkpt>
<trkpt lat="46.2040100" lon="5.9786455">
<ele>446.0000000</ele>
<time>2014-12-04T11:45:04Z</time>
<extensions>
<tp1:TrackPointExtension>
<tp1:hr>126</tp1:hr>
</tp1:TrackPointExtension>
</extensions>
</trkpt>
<trkpt lat="46.2039920" lon="5.9785319">
<ele>445.4000000</ele>
<time>2014-12-04T11:45:05Z</time>
<extensions>
<tp1:TrackPointExtension>
<tp1:hr>125</tp1:hr>
</tp1:TrackPointExtension>
</extensions>
</trkpt>
<trkpt lat="46.2039777" lon="5.9784153">
<ele>444.8000000</ele>
<time>2014-12-04T11:45:06Z</time>
<extensions>
<tp1:TrackPointExtension>
<tp1:hr>125</tp1:hr>
</tp1:TrackPointExtension>
</extensions>
</trkpt>
<trkpt lat="46.2039613" lon="5.9782851">
<ele>444.2000000</ele>
<time>2014-12-04T11:45:07Z</time>
<extensions>
<tp1:TrackPointExtension>
<tp1:hr>124</tp1:hr>
</tp1:TrackPointExtension>
</extensions>
</trkpt>
<trkpt lat="46.2039463" lon="5.9781643">
<ele>443.6000000</ele>
<time>2014-12-04T11:45:08Z</time>
<extensions>
<tp1:TrackPointExtension>
<tp1:hr>124</tp1:hr>
</tp1:TrackPointExtension>
</extensions>
</trkpt>
<trkpt lat="46.2039298" lon="5.9780417">
<ele>443.2000000</ele>
<time>2014-12-04T11:45:09Z</time>
<extensions>
<tp1:TrackPointExtension>
<tp1:hr>124</tp1:hr>
</tp1:TrackPointExtension>
</extensions>
</trkpt>
<trkpt lat="46.2039109" lon="5.9779131">
<ele>442.8000000</ele>
<time>2014-12-04T11:45:10Z</time>
<extensions>
<tp1:TrackPointExtension>
<tp1:hr>124</tp1:hr>
</tp1:TrackPointExtension>
</extensions>
</trkpt>
<trkpt lat="46.2038905" lon="5.9777868">
<ele>442.2000000</ele>
<time>2014-12-04T11:45:11Z</time>
<extensions>
<tp1:TrackPointExtension>
<tp1:hr>123</tp1:hr>
</tp1:TrackPointExtension>
</extensions>
</trkpt>
<trkpt lat="46.2038702" lon="5.9776613">
<ele>441.8000000</ele>
<time>2014-12-04T11:45:12Z</time>
<extensions>
<tp1:TrackPointExtension>
<tp1:hr>123</tp1:hr>
</tp1:TrackPointExtension>
</extensions>
</trkpt>
<trkpt lat="46.2038452" lon="5.9775320">
<ele>441.2000000</ele>
<time>2014-12-04T11:45:13Z</time>
<extensions>
<tp1:TrackPointExtension>
<tp1:hr>123</tp1:hr>
</tp1:TrackPointExtension>
</extensions>
</trkpt>
<trkpt lat="46.2038192" lon="5.9774223">
<ele>440.8000000</ele>
<time>2014-12-04T11:45:14Z</time>
<extensions>
<tp1:TrackPointExtension>
<tp1:hr>122</tp1:hr>
</tp1:TrackPointExtension>
</extensions>
</trkpt>
<trkpt lat="46.2037769" lon="5.9773370">
<ele>440.2000000</ele>
<time>2014-12-04T11:45:15Z</time>
<extensions>
<tp1:TrackPointExtension>
<tp1:hr>122</tp1:hr>
</tp1:TrackPointExtension>
</extensions>
</trkpt>
<trkpt lat="46.2037144" lon="5.9772965">
<ele>439.6000000</ele>
<time>2014-12-04T11:45:16Z</time>
<extensions>
<tp1:TrackPointExtension>
<tp1:hr>122</tp1:hr>
</tp1:TrackPointExtension>
</extensions>
</trkpt>
<trkpt lat="46.2036473" lon="5.9772610">
<ele>439.0000000</ele>
<time>2014-12-04T11:45:17Z</time>
<extensions>
<tp1:TrackPointExtension>
<tp1:hr>122</tp1:hr>
</tp1:TrackPointExtension>
</extensions>
</trkpt>
<trkpt lat="46.2035685" lon="5.9772899">
<ele>438.4000000</ele>
<time>2014-12-04T11:45:18Z</time>
<extensions>
<tp1:TrackPointExtension>
<tp1:hr>121</tp1:hr>
</tp1:TrackPointExtension>
</extensions>
</trkpt>
<trkpt lat="46.2034976" lon="5.9773511">
<ele>437.8000000</ele>
<time>2014-12-04T11:45:19Z</time>
<extensions>
<tp1:TrackPointExtension>
<tp1:hr>121</tp1:hr>
</tp1:TrackPointExtension>
</extensions>
</trkpt>
<trkpt lat="46.2034450" lon="5.9774343">
<ele>437.2000000</ele>
<time>2014-12-04T11:45:20Z</time>
<extensions>
<tp1:TrackPointExtension>
<tp1:hr>121</tp1:hr>
</tp1:TrackPointExtension>
</extensions>
</trkpt>
<trkpt lat="46.2034244" lon="5.9775679">
<ele>436.6000000</ele>
<time>2014-12-04T11:45:21Z</time>
<extensions>
<tp1:TrackPointExtension>
<tp1:hr>121</tp1:hr>
</tp1:TrackPointExtension>
</extensions>
</trkpt>
<trkpt lat="46.2034071" lon="5.9777039">
<ele>435.8000000</ele>
<time>2014-12-04T11:45:22Z</time>
<extensions>
<tp1:TrackPointExtension>
<tp1:hr>121</tp1:hr>
</tp1:TrackPointExtension>
</extensions>
</trkpt>
<trkpt lat="46.2033862" lon="5.9778344">
<ele>435.2000000</ele>
<time>2014-12-04T11:45:23Z</time>
<extensions>
<tp1:TrackPointExtension>
<tp1:hr>121</tp1:hr>
</tp1:TrackPointExtension>
</extensions>
</trkpt>
<trkpt lat="46.2033695" lon="5.9779689">
<ele>434.6000000</ele>
<time>2014-12-04T11:45:24Z</time>
<extensions>
<tp1:TrackPointExtension>
<tp1:hr>121</tp1:hr>
</tp1:TrackPointExtension>
</extensions>
</trkpt>
<trkpt lat="46.2033509" lon="5.9781045">
<ele>434.6000000</ele>
<time>2014-12-04T11:45:25Z</time>
<extensions>
<tp1:TrackPointExtension>
<tp1:hr>121</tp1:hr>
</tp1:TrackPointExtension>
</extensions>
</trkpt>
<trkpt lat="46.2033285" lon="5.9782434">
<ele>434.0000000</ele>
<time>2014-12-04T11:45:26Z</time>
<extensions>
<tp1:TrackPointExtension>
<tp1:hr>122</tp1:hr>
</tp1:TrackPointExtension>
</extensions>
</trkpt>
<trkpt lat="46.2032888" lon="5.9783692">
<ele>433.6000000</ele>
<time>2014-12-04T11:45:27Z</time>
<extensions>
<tp1:TrackPointExtension>
<tp1:hr>122</tp1:hr>
</tp1:TrackPointExtension>
</extensions>
</trkpt>
<trkpt lat="46.2032288" lon="5.9784791">
<ele>433.0000000</ele>
<time>2014-12-04T11:45:28Z</time>
<extensions>
<tp1:TrackPointExtension>
<tp1:hr>123</tp1:hr>
</tp1:TrackPointExtension>
</extensions>
</trkpt>
<trkpt lat="46.2031624" lon="5.9785778">
<ele>432.6000000</ele>
<time>2014-12-04T11:45:29Z</time>
<extensions>
<tp1:TrackPointExtension>
<tp1:hr>123</tp1:hr>
</tp1:TrackPointExtension>
</extensions>
</trkpt>
<trkpt lat="46.2030606" lon="5.9786233">
<ele>432.0000000</ele>
<time>2014-12-04T11:45:30Z</time>
<extensions>
<tp1:TrackPointExtension>
<tp1:hr>123</tp1:hr>
</tp1:TrackPointExtension>
</extensions>
</trkpt>
<trkpt lat="46.2029597" lon="5.9786615">
<ele>431.4000000</ele>
<time>2014-12-04T11:45:31Z</time>
<extensions>
<tp1:TrackPointExtension>
<tp1:hr>123</tp1:hr>
</tp1:TrackPointExtension>
</extensions>
</trkpt>
<trkpt lat="46.2028623" lon="5.9787084">
<ele>430.8000000</ele>
<time>2014-12-04T11:45:32Z</time>
<extensions>
<tp1:TrackPointExtension>
<tp1:hr>123</tp1:hr>
</tp1:TrackPointExtension>
</extensions>
</trkpt>
<trkpt lat="46.2027764" lon="5.9787564">
<ele>430.2000000</ele>
<time>2014-12-04T11:45:33Z</time>
<extensions>
<tp1:TrackPointExtension>
<tp1:hr>123</tp1:hr>
</tp1:TrackPointExtension>
</extensions>
</trkpt>
<trkpt lat="46.2026991" lon="5.9788176">
<ele>429.6000000</ele>
<time>2014-12-04T11:45:34Z</time>
<extensions>
<tp1:TrackPointExtension>
<tp1:hr>123</tp1:hr>
</tp1:TrackPointExtension>
</extensions>
</trkpt>
<trkpt lat="46.2025633" lon="5.9789857">
<ele>429.6000000</ele>
<time>2014-12-04T11:45:36Z</time>
<extensions>
<tp1:TrackPointExtension>
<tp1:hr>123</tp1:hr>
</tp1:TrackPointExtension>
</extensions>
</trkpt>
<trkpt lat="46.2024219" lon="5.9792493">
<ele>429.6000000</ele>
<time>2014-12-04T11:45:39Z</time>
<extensions>
<tp1:TrackPointExtension>
<tp1:hr>124</tp1:hr>
</tp1:TrackPointExtension>
</extensions>
</trkpt>
<trkpt lat="46.2023488" lon="5.9793357">
<ele>429.6000000</ele>
<time>2014-12-04T11:45:40Z</time>
<extensions>
<tp1:TrackPointExtension>
<tp1:hr>125</tp1:hr>
</tp1:TrackPointExtension>
</extensions>
</trkpt>
<trkpt lat="46.2022918" lon="5.9794198">
<ele>430.0000000</ele>
<time>2014-12-04T11:45:41Z</time>
<extensions>
<tp1:TrackPointExtension>
<tp1:hr>125</tp1:hr>
</tp1:TrackPointExtension>
</extensions>
</trkpt>
<trkpt lat="46.2022429" lon="5.9794974">
<ele>430.4000000</ele>
<time>2014-12-04T11:45:42Z</time>
<extensions>
<tp1:TrackPointExtension>
<tp1:hr>126</tp1:hr>
</tp1:TrackPointExtension>
</extensions>
</trkpt>
<trkpt lat="46.2021989" lon="5.9795667">
<ele>430.8000000</ele>
<time>2014-12-04T11:45:43Z</time>
<extensions>
<tp1:TrackPointExtension>
<tp1:hr>126</tp1:hr>
</tp1:TrackPointExtension>
</extensions>
</trkpt>
<trkpt lat="46.2021550" lon="5.9796414">
<ele>431.4000000</ele>
<time>2014-12-04T11:45:44Z</time>
<extensions>
<tp1:TrackPointExtension>
<tp1:hr>126</tp1:hr>
</tp1:TrackPointExtension>
</extensions>
</trkpt>
<trkpt lat="46.2021155" lon="5.9797057">
<ele>431.8000000</ele>
<time>2014-12-04T11:45:45Z</time>
<extensions>
<tp1:TrackPointExtension>
<tp1:hr>127</tp1:hr>
</tp1:TrackPointExtension>
</extensions>
</trkpt>
<trkpt lat="46.2020363" lon="5.9798350">
<ele>432.2000000</ele>
<time>2014-12-04T11:45:47Z</time>
<extensions>
<tp1:TrackPointExtension>
<tp1:hr>127</tp1:hr>
</tp1:TrackPointExtension>
</extensions>
</trkpt>
<trkpt lat="46.2019943" lon="5.9799013">
<ele>432.6000000</ele>
<time>2014-12-04T11:45:48Z</time>
<extensions>
<tp1:TrackPointExtension>
<tp1:hr>127</tp1:hr>
</tp1:TrackPointExtension>
</extensions>
</trkpt>
<trkpt lat="46.2019520" lon="5.9799711">
<ele>433.0000000</ele>
<time>2014-12-04T11:45:49Z</time>
<extensions>
<tp1:TrackPointExtension>
<tp1:hr>128</tp1:hr>
</tp1:TrackPointExtension>
</extensions>
</trkpt>
<trkpt lat="46.2019106" lon="5.9800346">
<ele>433.4000000</ele>
<time>2014-12-04T11:45:50Z</time>
<extensions>
<tp1:TrackPointExtension>
<tp1:hr>129</tp1:hr>
</tp1:TrackPointExtension>
</extensions>
</trkpt>
<trkpt lat="46.2018762" lon="5.9800974">
<ele>433.8000000</ele>
<time>2014-12-04T11:45:51Z</time>
<extensions>
<tp1:TrackPointExtension>
<tp1:hr>129</tp1:hr>
</tp1:TrackPointExtension>
</extensions>
</trkpt>
<trkpt lat="46.2017384" lon="5.9803637">
<ele>434.4000000</ele>
<time>2014-12-04T11:45:55Z</time>
<extensions>
<tp1:TrackPointExtension>
<tp1:hr>131</tp1:hr>
</tp1:TrackPointExtension>
</extensions>
</trkpt>
<trkpt lat="46.2017066" lon="5.9804220">
<ele>434.8000000</ele>
<time>2014-12-04T11:45:56Z</time>
<extensions>
<tp1:TrackPointExtension>
<tp1:hr>132</tp1:hr>
</tp1:TrackPointExtension>
</extensions>
</trkpt>
<trkpt lat="46.2016719" lon="5.9804782">
<ele>435.2000000</ele>
<time>2014-12-04T11:45:57Z</time>
<extensions>
<tp1:TrackPointExtension>
<tp1:hr>132</tp1:hr>
</tp1:TrackPointExtension>
</extensions>
</trkpt>
<trkpt lat="46.2016447" lon="5.9805290">
<ele>435.6000000</ele>
<time>2014-12-04T11:45:58Z</time>
<extensions>
<tp1:TrackPointExtension>
<tp1:hr>133</tp1:hr>
</tp1:TrackPointExtension>
</extensions>
</trkpt>
<trkpt lat="46.2016247" lon="5.9805764">
<ele>436.0000000</ele>
<time>2014-12-04T11:45:59Z</time>
<extensions>
<tp1:TrackPointExtension>
<tp1:hr>133</tp1:hr>
</tp1:TrackPointExtension>
</extensions>
</trkpt>
<trkpt lat="46.2016035" lon="5.9806224">
<ele>436.0000000</ele>
<time>2014-12-04T11:46:00Z</time>
<extensions>
<tp1:TrackPointExtension>
<tp1:hr>133</tp1:hr>
</tp1:TrackPointExtension>
</extensions>
</trkpt>
<trkpt lat="46.2015564" lon="5.9807103">
<ele>436.4000000</ele>
<time>2014-12-04T11:46:02Z</time>
<extensions>
<tp1:TrackPointExtension>
<tp1:hr>134</tp1:hr>
</tp1:TrackPointExtension>
</extensions>
</trkpt>
<trkpt lat="46.2015332" lon="5.9807563">
<ele>436.8000000</ele>
<time>2014-12-04T11:46:03Z</time>
<extensions>
<tp1:TrackPointExtension>
<tp1:hr>134</tp1:hr>
</tp1:TrackPointExtension>
</extensions>
</trkpt>
<trkpt lat="46.2014933" lon="5.9808433">
<ele>437.2000000</ele>
<time>2014-12-04T11:46:05Z</time>
<extensions>
<tp1:TrackPointExtension>
<tp1:hr>135</tp1:hr>
</tp1:TrackPointExtension>
</extensions>
</trkpt>
<trkpt lat="46.2014760" lon="5.9808855">
<ele>437.6000000</ele>
<time>2014-12-04T11:46:06Z</time>
<extensions>
<tp1:TrackPointExtension>
<tp1:hr>135</tp1:hr>
</tp1:TrackPointExtension>
</extensions>
</trkpt>
<trkpt lat="46.2014656" lon="5.9809377">
<ele>438.0000000</ele>
<time>2014-12-04T11:46:07Z</time>
<extensions>
<tp1:TrackPointExtension>
<tp1:hr>135</tp1:hr>
</tp1:TrackPointExtension>
</extensions>
</trkpt>
<trkpt lat="46.2013825" lon="5.9811566">
<ele>438.6000000</ele>
<time>2014-12-04T11:46:12Z</time>
<extensions>
<tp1:TrackPointExtension>
<tp1:hr>136</tp1:hr>
</tp1:TrackPointExtension>
</extensions>
</trkpt>
<trkpt lat="46.2013693" lon="5.9811922">
<ele>439.0000000</ele>
<time>2014-12-04T11:46:13Z</time>
<extensions>
<tp1:TrackPointExtension>
<tp1:hr>136</tp1:hr>
</tp1:TrackPointExtension>
</extensions>
</trkpt>
<trkpt lat="46.2013586" lon="5.9812539">
<ele>439.6000000</ele>
<time>2014-12-04T11:46:14Z</time>
<extensions>
<tp1:TrackPointExtension>
<tp1:hr>136</tp1:hr>
</tp1:TrackPointExtension>
</extensions>
</trkpt>
<trkpt lat="46.2013488" lon="5.9813050">
<ele>440.0000000</ele>
<time>2014-12-04T11:46:15Z</time>
<extensions>
<tp1:TrackPointExtension>
<tp1:hr>136</tp1:hr>
</tp1:TrackPointExtension>
</extensions>
</trkpt>
<trkpt lat="46.2013328" lon="5.9813523">
<ele>440.4000000</ele>
<time>2014-12-04T11:46:16Z</time>
<extensions>
<tp1:TrackPointExtension>
<tp1:hr>137</tp1:hr>
</tp1:TrackPointExtension>
</extensions>
</trkpt>
<trkpt lat="46.2013198" lon="5.9814158">
<ele>440.4000000</ele>
<time>2014-12-04T11:46:17Z</time>
<extensions>
<tp1:TrackPointExtension>
<tp1:hr>137</tp1:hr>
</tp1:TrackPointExtension>
</extensions>
</trkpt>
<trkpt lat="46.2012948" lon="5.9815098">
<ele>440.8000000</ele>
<time>2014-12-04T11:46:19Z</time>
<extensions>
<tp1:TrackPointExtension>
<tp1:hr>138</tp1:hr>
</tp1:TrackPointExtension>
</extensions>
</trkpt>
<trkpt lat="46.2012556" lon="5.9815957">
<ele>441.2000000</ele>
<time>2014-12-04T11:46:21Z</time>
<extensions>
<tp1:TrackPointExtension>
<tp1:hr>138</tp1:hr>
</tp1:TrackPointExtension>
</extensions>
</trkpt>
<trkpt lat="46.2012483" lon="5.9816569">
<ele>441.8000000</ele>
<time>2014-12-04T11:46:22Z</time>
<extensions>
<tp1:TrackPointExtension>
<tp1:hr>138</tp1:hr>
</tp1:TrackPointExtension>
</extensions>
</trkpt>
<trkpt lat="46.2012369" lon="5.9817163">
<ele>442.2000000</ele>
<time>2014-12-04T11:46:23Z</time>
<extensions>
<tp1:TrackPointExtension>
<tp1:hr>138</tp1:hr>
</tp1:TrackPointExtension>
</extensions>
</trkpt>
<trkpt lat="46.2012262" lon="5.9817704">
<ele>442.6000000</ele>
<time>2014-12-04T11:46:24Z</time>
<extensions>
<tp1:TrackPointExtension>
<tp1:hr>138</tp1:hr>
</tp1:TrackPointExtension>
</extensions>
</trkpt>
<trkpt lat="46.2011446" lon="5.9820539">
<ele>442.6000000</ele>
<time>2014-12-04T11:46:29Z</time>
<extensions>
<tp1:TrackPointExtension>
<tp1:hr>139</tp1:hr>
</tp1:TrackPointExtension>
</extensions>
</trkpt>
<trkpt lat="46.2011356" lon="5.9821232">
<ele>443.0000000</ele>
<time>2014-12-04T11:46:30Z</time>
<extensions>
<tp1:TrackPointExtension>
<tp1:hr>140</tp1:hr>
</tp1:TrackPointExtension>
</extensions>
</trkpt>
<trkpt lat="46.2011219" lon="5.9821792">
<ele>443.4000000</ele>
<time>2014-12-04T11:46:31Z</time>
<extensions>
<tp1:TrackPointExtension>
<tp1:hr>140</tp1:hr>
</tp1:TrackPointExtension>
</extensions>
</trkpt>
<trkpt lat="46.2011092" lon="5.9822334">
<ele>443.8000000</ele>
<time>2014-12-04T11:46:32Z</time>
<extensions>
<tp1:TrackPointExtension>
<tp1:hr>140</tp1:hr>
</tp1:TrackPointExtension>
</extensions>
</trkpt>
<trkpt lat="46.2010992" lon="5.9822834">
<ele>444.2000000</ele>
<time>2014-12-04T11:46:33Z</time>
<extensions>
<tp1:TrackPointExtension>
<tp1:hr>140</tp1:hr>
</tp1:TrackPointExtension>
</extensions>
</trkpt>
<trkpt lat="46.2010868" lon="5.9823350">
<ele>444.6000000</ele>
<time>2014-12-04T11:46:34Z</time>
<extensions>
<tp1:TrackPointExtension>
<tp1:hr>140</tp1:hr>
</tp1:TrackPointExtension>
</extensions>
</trkpt>
<trkpt lat="46.2010734" lon="5.9823858">
<ele>444.6000000</ele>
<time>2014-12-04T11:46:35Z</time>
<extensions>
<tp1:TrackPointExtension>
<tp1:hr>141</tp1:hr>
</tp1:TrackPointExtension>
</extensions>
</trkpt>
<trkpt lat="46.2010213" lon="5.9826547">
<ele>445.0000000</ele>
<time>2014-12-04T11:46:41Z</time>
<extensions>
<tp1:TrackPointExtension>
<tp1:hr>143</tp1:hr>
</tp1:TrackPointExtension>
</extensions>
</trkpt>
<trkpt lat="46.2010069" lon="5.9827086">
<ele>445.4000000</ele>
<time>2014-12-04T11:46:42Z</time>
<extensions>
<tp1:TrackPointExtension>
<tp1:hr>142</tp1:hr>
</tp1:TrackPointExtension>
</extensions>
</trkpt>
<trkpt lat="46.2009882" lon="5.9827680">
<ele>445.8000000</ele>
<time>2014-12-04T11:46:43Z</time>
<extensions>
<tp1:TrackPointExtension>
<tp1:hr>142</tp1:hr>
</tp1:TrackPointExtension>
</extensions>
</trkpt>
<trkpt lat="46.2009768" lon="5.9828158">
<ele>446.2000000</ele>
<time>2014-12-04T11:46:44Z</time>
<extensions>
<tp1:TrackPointExtension>
<tp1:hr>142</tp1:hr>
</tp1:TrackPointExtension>
</extensions>
</trkpt>
<trkpt lat="46.2009686" lon="5.9828578">
<ele>446.6000000</ele>
<time>2014-12-04T11:46:45Z</time>
<extensions>
<tp1:TrackPointExtension>
<tp1:hr>142</tp1:hr>
</tp1:TrackPointExtension>
</extensions>
</trkpt>
<trkpt lat="46.2009165" lon="5.9830358">
<ele>446.6000000</ele>
<time>2014-12-04T11:46:49Z</time>
<extensions>
<tp1:TrackPointExtension>
<tp1:hr>142</tp1:hr>
</tp1:TrackPointExtension>
</extensions>
</trkpt>
<trkpt lat="46.2008650" lon="5.9831366">
<ele>447.0000000</ele>
<time>2014-12-04T11:46:52Z</time>
<extensions>
<tp1:TrackPointExtension>
<tp1:hr>143</tp1:hr>
</tp1:TrackPointExtension>
</extensions>
</trkpt>
<trkpt lat="46.2008483" lon="5.9831740">
<ele>447.6000000</ele>
<time>2014-12-04T11:46:53Z</time>
<extensions>
<tp1:TrackPointExtension>
<tp1:hr>143</tp1:hr>
</tp1:TrackPointExtension>
</extensions>
</trkpt>
<trkpt lat="46.2008351" lon="5.9832059">
<ele>448.0000000</ele>
<time>2014-12-04T11:46:54Z</time>
<extensions>
<tp1:TrackPointExtension>
<tp1:hr>143</tp1:hr>
</tp1:TrackPointExtension>
</extensions>
</trkpt>
<trkpt lat="46.2008206" lon="5.9832393">
<ele>448.4000000</ele>
<time>2014-12-04T11:46:55Z</time>
<extensions>
<tp1:TrackPointExtension>
<tp1:hr>143</tp1:hr>
</tp1:TrackPointExtension>
</extensions>
</trkpt>
<trkpt lat="46.2008089" lon="5.9832664">
<ele>448.8000000</ele>
<time>2014-12-04T11:46:56Z</time>
<extensions>
<tp1:TrackPointExtension>
<tp1:hr>143</tp1:hr>
</tp1:TrackPointExtension>
</extensions>
</trkpt>
<trkpt lat="46.2007231" lon="5.9834324">
<ele>448.8000000</ele>
<time>2014-12-04T11:47:01Z</time>
<extensions>
<tp1:TrackPointExtension>
<tp1:hr>144</tp1:hr>
</tp1:TrackPointExtension>
</extensions>
</trkpt>
<trkpt lat="46.2006815" lon="5.9835338">
<ele>449.2000000</ele>
<time>2014-12-04T11:47:04Z</time>
<extensions>
<tp1:TrackPointExtension>
<tp1:hr>143</tp1:hr>
</tp1:TrackPointExtension>
</extensions>
</trkpt>
<trkpt lat="46.2006635" lon="5.9835615">
<ele>449.6000000</ele>
<time>2014-12-04T11:47:05Z</time>
<extensions>
<tp1:TrackPointExtension>
<tp1:hr>144</tp1:hr>
</tp1:TrackPointExtension>
</extensions>
</trkpt>
<trkpt lat="46.2006419" lon="5.9835906">
<ele>450.0000000</ele>
<time>2014-12-04T11:47:06Z</time>
<extensions>
<tp1:TrackPointExtension>
<tp1:hr>144</tp1:hr>
</tp1:TrackPointExtension>
</extensions>
</trkpt>
<trkpt lat="46.2006203" lon="5.9836229">
<ele>450.6000000</ele>
<time>2014-12-04T11:47:07Z</time>
<extensions>
<tp1:TrackPointExtension>
<tp1:hr>144</tp1:hr>
</tp1:TrackPointExtension>
</extensions>
</trkpt>
<trkpt lat="46.2005889" lon="5.9836616">
<ele>451.0000000</ele>
<time>2014-12-04T11:47:08Z</time>
<extensions>
<tp1:TrackPointExtension>
<tp1:hr>144</tp1:hr>
</tp1:TrackPointExtension>
</extensions>
</trkpt>
<trkpt lat="46.2005223" lon="5.9837375">
<ele>451.0000000</ele>
<time>2014-12-04T11:47:10Z</time>
<extensions>
<tp1:TrackPointExtension>
<tp1:hr>145</tp1:hr>
</tp1:TrackPointExtension>
</extensions>
</trkpt>
<trkpt lat="46.2003158" lon="5.9839368">
<ele>451.4000000</ele>
<time>2014-12-04T11:47:14Z</time>
<extensions>
<tp1:TrackPointExtension>
<tp1:hr>145</tp1:hr>
</tp1:TrackPointExtension>
</extensions>
</trkpt>
<trkpt lat="46.2002774" lon="5.9839869">
<ele>451.8000000</ele>
<time>2014-12-04T11:47:15Z</time>
<extensions>
<tp1:TrackPointExtension>
<tp1:hr>145</tp1:hr>
</tp1:TrackPointExtension>
</extensions>
</trkpt>
<trkpt lat="46.2002365" lon="5.9840326">
<ele>452.2000000</ele>
<time>2014-12-04T11:47:16Z</time>
<extensions>
<tp1:TrackPointExtension>
<tp1:hr>145</tp1:hr>
</tp1:TrackPointExtension>
</extensions>
</trkpt>
<trkpt lat="46.2002007" lon="5.9840668">
<ele>452.6000000</ele>
<time>2014-12-04T11:47:17Z</time>
<extensions>
<tp1:TrackPointExtension>
<tp1:hr>144</tp1:hr>
</tp1:TrackPointExtension>
</extensions>
</trkpt>
<trkpt lat="46.2001751" lon="5.9841008">
<ele>453.0000000</ele>
<time>2014-12-04T11:47:18Z</time>
<extensions>
<tp1:TrackPointExtension>
<tp1:hr>145</tp1:hr>
</tp1:TrackPointExtension>
</extensions>
</trkpt>
<trkpt lat="46.2000431" lon="5.9843607">
<ele>453.0000000</ele>
<time>2014-12-04T11:47:24Z</time>
<extensions>
<tp1:TrackPointExtension>
<tp1:hr>145</tp1:hr>
</tp1:TrackPointExtension>
</extensions>
</trkpt>
<trkpt lat="46.1998610" lon="5.9847383">
<ele>453.0000000</ele>
<time>2014-12-04T11:47:32Z</time>
<extensions>
<tp1:TrackPointExtension>
<tp1:hr>145</tp1:hr>
</tp1:TrackPointExtension>
</extensions>
</trkpt>
<trkpt lat="46.1996001" lon="5.9852576">
<ele>453.0000000</ele>
<time>2014-12-04T11:47:41Z</time>
<extensions>
<tp1:TrackPointExtension>
<tp1:hr>143</tp1:hr>
</tp1:TrackPointExtension>
</extensions>
</trkpt>
<trkpt lat="46.1994009" lon="5.9856398">
<ele>452.6000000</ele>
<time>2014-12-04T11:47:47Z</time>
<extensions>
<tp1:TrackPointExtension>
<tp1:hr>142</tp1:hr>
</tp1:TrackPointExtension>
</extensions>
</trkpt>
<trkpt lat="46.1993685" lon="5.9857072">
<ele>452.2000000</ele>
<time>2014-12-04T11:47:48Z</time>
<extensions>
<tp1:TrackPointExtension>
<tp1:hr>141</tp1:hr>
</tp1:TrackPointExtension>
</extensions>
</trkpt>
<trkpt lat="46.1993351" lon="5.9857702">
<ele>451.8000000</ele>
<time>2014-12-04T11:47:49Z</time>
<extensions>
<tp1:TrackPointExtension>
<tp1:hr>141</tp1:hr>
</tp1:TrackPointExtension>
</extensions>
</trkpt>
<trkpt lat="46.1992967" lon="5.9858389">
<ele>451.4000000</ele>
<time>2014-12-04T11:47:50Z</time>
<extensions>
<tp1:TrackPointExtension>
<tp1:hr>141</tp1:hr>
</tp1:TrackPointExtension>
</extensions>
</trkpt>
<trkpt lat="46.1992633" lon="5.9859023">
<ele>451.0000000</ele>
<time>2014-12-04T11:47:51Z</time>
<extensions>
<tp1:TrackPointExtension>
<tp1:hr>140</tp1:hr>
</tp1:TrackPointExtension>
</extensions>
</trkpt>
<trkpt lat="46.1990629" lon="5.9863417">
<ele>450.4000000</ele>
<time>2014-12-04T11:47:57Z</time>
<extensions>
<tp1:TrackPointExtension>
<tp1:hr>138</tp1:hr>
</tp1:TrackPointExtension>
</extensions>
</trkpt>
<trkpt lat="46.1990216" lon="5.9864138">
<ele>450.0000000</ele>
<time>2014-12-04T11:47:58Z</time>
<extensions>
<tp1:TrackPointExtension>
<tp1:hr>138</tp1:hr>
</tp1:TrackPointExtension>
</extensions>
</trkpt>
<trkpt lat="46.1989844" lon="5.9864850">
<ele>449.6000000</ele>
<time>2014-12-04T11:47:59Z</time>
<extensions>
<tp1:TrackPointExtension>
<tp1:hr>137</tp1:hr>
</tp1:TrackPointExtension>
</extensions>
</trkpt>
<trkpt lat="46.1989463" lon="5.9865584">
<ele>449.0000000</ele>
<time>2014-12-04T11:48:00Z</time>
<extensions>
<tp1:TrackPointExtension>
<tp1:hr>137</tp1:hr>
</tp1:TrackPointExtension>
</extensions>
</trkpt>
<trkpt lat="46.1989064" lon="5.9866340">
<ele>448.6000000</ele>
<time>2014-12-04T11:48:01Z</time>
<extensions>
<tp1:TrackPointExtension>
<tp1:hr>136</tp1:hr>
</tp1:TrackPointExtension>
</extensions>
</trkpt>
<trkpt lat="46.1987106" lon="5.9870190">
<ele>448.6000000</ele>
<time>2014-12-04T11:48:06Z</time>
<extensions>
<tp1:TrackPointExtension>
<tp1:hr>133</tp1:hr>
</tp1:TrackPointExtension>
</extensions>
</trkpt>
<trkpt lat="46.1986699" lon="5.9871015">
<ele>448.2000000</ele>
<time>2014-12-04T11:48:07Z</time>
<extensions>
<tp1:TrackPointExtension>
<tp1:hr>133</tp1:hr>
</tp1:TrackPointExtension>
</extensions>
</trkpt>
<trkpt lat="46.1985854" lon="5.9872620">
<ele>447.4000000</ele>
<time>2014-12-04T11:48:09Z</time>
<extensions>
<tp1:TrackPointExtension>
<tp1:hr>132</tp1:hr>
</tp1:TrackPointExtension>
</extensions>
</trkpt>
<trkpt lat="46.1984988" lon="5.9874275">
<ele>446.6000000</ele>
<time>2014-12-04T11:48:11Z</time>
<extensions>
<tp1:TrackPointExtension>
<tp1:hr>130</tp1:hr>
</tp1:TrackPointExtension>
</extensions>
</trkpt>
<trkpt lat="46.1982874" lon="5.9878591">
<ele>446.6000000</ele>
<time>2014-12-04T11:48:16Z</time>
<extensions>
<tp1:TrackPointExtension>
<tp1:hr>127</tp1:hr>
</tp1:TrackPointExtension>
</extensions>
</trkpt>
<trkpt lat="46.1982428" lon="5.9879512">
<ele>446.2000000</ele>
<time>2014-12-04T11:48:17Z</time>
<extensions>
<tp1:TrackPointExtension>
<tp1:hr>127</tp1:hr>
</tp1:TrackPointExtension>
</extensions>
</trkpt>
<trkpt lat="46.1981968" lon="5.9880406">
<ele>445.6000000</ele>
<time>2014-12-04T11:48:18Z</time>
<extensions>
<tp1:TrackPointExtension>
<tp1:hr>127</tp1:hr>
</tp1:TrackPointExtension>
</extensions>
</trkpt>
<trkpt lat="46.1981501" lon="5.9881307">
<ele>445.2000000</ele>
<time>2014-12-04T11:48:19Z</time>
<extensions>
<tp1:TrackPointExtension>
<tp1:hr>127</tp1:hr>
</tp1:TrackPointExtension>
</extensions>
</trkpt>
<trkpt lat="46.1981045" lon="5.9882250">
<ele>444.6000000</ele>
<time>2014-12-04T11:48:20Z</time>
<extensions>
<tp1:TrackPointExtension>
<tp1:hr>127</tp1:hr>
</tp1:TrackPointExtension>
</extensions>
</trkpt>
<trkpt lat="46.1980580" lon="5.9883190">
<ele>444.2000000</ele>
<time>2014-12-04T11:48:21Z</time>
<extensions>
<tp1:TrackPointExtension>
<tp1:hr>127</tp1:hr>
</tp1:TrackPointExtension>
</extensions>
</trkpt>
<trkpt lat="46.1978823" lon="5.9886655">
<ele>443.6000000</ele>
<time>2014-12-04T11:48:25Z</time>
<extensions>
<tp1:TrackPointExtension>
<tp1:hr>125</tp1:hr>
</tp1:TrackPointExtension>
</extensions>
</trkpt>
<trkpt lat="46.1978357" lon="5.9887549">
<ele>443.2000000</ele>
<time>2014-12-04T11:48:26Z</time>
<extensions>
<tp1:TrackPointExtension>
<tp1:hr>125</tp1:hr>
</tp1:TrackPointExtension>
</extensions>
</trkpt>
<trkpt lat="46.1977871" lon="5.9888481">
<ele>442.8000000</ele>
<time>2014-12-04T11:48:27Z</time>
<extensions>
<tp1:TrackPointExtension>
<tp1:hr>125</tp1:hr>
</tp1:TrackPointExtension>
</extensions>
</trkpt>
<trkpt lat="46.1977374" lon="5.9889392">
<ele>442.2000000</ele>
<time>2014-12-04T11:48:28Z</time>
<extensions>
<tp1:TrackPointExtension>
<tp1:hr>124</tp1:hr>
</tp1:TrackPointExtension>
</extensions>
</trkpt>
<trkpt lat="46.1976908" lon="5.9890274">
<ele>441.8000000</ele>
<time>2014-12-04T11:48:29Z</time>
<extensions>
<tp1:TrackPointExtension>
<tp1:hr>124</tp1:hr>
</tp1:TrackPointExtension>
</extensions>
</trkpt>
<trkpt lat="46.1976461" lon="5.9891205">
<ele>441.8000000</ele>
<time>2014-12-04T11:48:30Z</time>
<extensions>
<tp1:TrackPointExtension>
<tp1:hr>124</tp1:hr>
</tp1:TrackPointExtension>
</extensions>
</trkpt>
<trkpt lat="46.1973285" lon="5.9897696">
<ele>441.4000000</ele>
<time>2014-12-04T11:48:37Z</time>
<extensions>
<tp1:TrackPointExtension>
<tp1:hr>123</tp1:hr>
</tp1:TrackPointExtension>
</extensions>
</trkpt>
<trkpt lat="46.1972802" lon="5.9898562">
<ele>441.0000000</ele>
<time>2014-12-04T11:48:38Z</time>
<extensions>
<tp1:TrackPointExtension>
<tp1:hr>122</tp1:hr>
</tp1:TrackPointExtension>
</extensions>
</trkpt>
<trkpt lat="46.1972361" lon="5.9899469">
<ele>440.4000000</ele>
<time>2014-12-04T11:48:39Z</time>
<extensions>
<tp1:TrackPointExtension>
<tp1:hr>122</tp1:hr>
</tp1:TrackPointExtension>
</extensions>
</trkpt>
<trkpt lat="46.1971914" lon="5.9900413">
<ele>440.0000000</ele>
<time>2014-12-04T11:48:40Z</time>
<extensions>
<tp1:TrackPointExtension>
<tp1:hr>122</tp1:hr>
</tp1:TrackPointExtension>
</extensions>
</trkpt>
<trkpt lat="46.1971472" lon="5.9901398">
<ele>439.6000000</ele>
<time>2014-12-04T11:48:41Z</time>
<extensions>
<tp1:TrackPointExtension>
<tp1:hr>122</tp1:hr>
</tp1:TrackPointExtension>
</extensions>
</trkpt>
<trkpt lat="46.1970141" lon="5.9904158">
<ele>439.2000000</ele>
<time>2014-12-04T11:48:44Z</time>
<extensions>
<tp1:TrackPointExtension>
<tp1:hr>122</tp1:hr>
</tp1:TrackPointExtension>
</extensions>
</trkpt>
<trkpt lat="46.1969660" lon="5.9905064">
<ele>438.8000000</ele>
<time>2014-12-04T11:48:45Z</time>
<extensions>
<tp1:TrackPointExtension>
<tp1:hr>122</tp1:hr>
</tp1:TrackPointExtension>
</extensions>
</trkpt>
<trkpt lat="46.1969169" lon="5.9906000">
<ele>438.2000000</ele>
<time>2014-12-04T11:48:46Z</time>
<extensions>
<tp1:TrackPointExtension>
<tp1:hr>122</tp1:hr>
</tp1:TrackPointExtension>
</extensions>
</trkpt>
<trkpt lat="46.1968721" lon="5.9906934">
<ele>437.8000000</ele>
<time>2014-12-04T11:48:47Z</time>
<extensions>
<tp1:TrackPointExtension>
<tp1:hr>122</tp1:hr>
</tp1:TrackPointExtension>
</extensions>
</trkpt>
<trkpt lat="46.1968258" lon="5.9907862">
<ele>437.4000000</ele>
<time>2014-12-04T11:48:48Z</time>
<extensions>
<tp1:TrackPointExtension>
<tp1:hr>122</tp1:hr>
</tp1:TrackPointExtension>
</extensions>
</trkpt>
<trkpt lat="46.1966307" lon="5.9911458">
<ele>437.0000000</ele>
<time>2014-12-04T11:48:52Z</time>
<extensions>
<tp1:TrackPointExtension>
<tp1:hr>124</tp1:hr>
</tp1:TrackPointExtension>
</extensions>
</trkpt>
<trkpt lat="46.1965809" lon="5.9912344">
<ele>436.6000000</ele>
<time>2014-12-04T11:48:53Z</time>
<extensions>
<tp1:TrackPointExtension>
<tp1:hr>123</tp1:hr>
</tp1:TrackPointExtension>
</extensions>
</trkpt>
<trkpt lat="46.1965321" lon="5.9913264">
<ele>436.2000000</ele>
<time>2014-12-04T11:48:54Z</time>
<extensions>
<tp1:TrackPointExtension>
<tp1:hr>122</tp1:hr>
</tp1:TrackPointExtension>
</extensions>
</trkpt>
<trkpt lat="46.1964863" lon="5.9914177">
<ele>435.8000000</ele>
<time>2014-12-04T11:48:55Z</time>
<extensions>
<tp1:TrackPointExtension>
<tp1:hr>121</tp1:hr>
</tp1:TrackPointExtension>
</extensions>
</trkpt>
<trkpt lat="46.1964422" lon="5.9915117">
<ele>435.4000000</ele>
<time>2014-12-04T11:48:56Z</time>
<extensions>
<tp1:TrackPointExtension>
<tp1:hr>119</tp1:hr>
</tp1:TrackPointExtension>
</extensions>
</trkpt>
<trkpt lat="46.1964008" lon="5.9916006">
<ele>434.8000000</ele>
<time>2014-12-04T11:48:57Z</time>
<extensions>
<tp1:TrackPointExtension>
<tp1:hr>118</tp1:hr>
</tp1:TrackPointExtension>
</extensions>
</trkpt>
<trkpt lat="46.1963603" lon="5.9916875">
<ele>434.4000000</ele>
<time>2014-12-04T11:48:58Z</time>
<extensions>
<tp1:TrackPointExtension>
<tp1:hr>117</tp1:hr>
</tp1:TrackPointExtension>
</extensions>
</trkpt>
<trkpt lat="46.1963197" lon="5.9917653">
<ele>434.0000000</ele>
<time>2014-12-04T11:48:59Z</time>
<extensions>
<tp1:TrackPointExtension>
<tp1:hr>116</tp1:hr>
</tp1:TrackPointExtension>
</extensions>
</trkpt>
<trkpt lat="46.1962756" lon="5.9918425">
<ele>433.6000000</ele>
<time>2014-12-04T11:49:00Z</time>
<extensions>
<tp1:TrackPointExtension>
<tp1:hr>116</tp1:hr>
</tp1:TrackPointExtension>
</extensions>
</trkpt>
<trkpt lat="46.1962314" lon="5.9919184">
<ele>433.0000000</ele>
<time>2014-12-04T11:49:01Z</time>
<extensions>
<tp1:TrackPointExtension>
<tp1:hr>116</tp1:hr>
</tp1:TrackPointExtension>
</extensions>
</trkpt>
<trkpt lat="46.1961563" lon="5.9920875">
<ele>433.0000000</ele>
<time>2014-12-04T11:49:03Z</time>
<extensions>
<tp1:TrackPointExtension>
<tp1:hr>116</tp1:hr>
</tp1:TrackPointExtension>
</extensions>
</trkpt>
<trkpt lat="46.1961019" lon="5.9922862">
<ele>432.6000000</ele>
<time>2014-12-04T11:49:05Z</time>
<extensions>
<tp1:TrackPointExtension>
<tp1:hr>116</tp1:hr>
</tp1:TrackPointExtension>
</extensions>
</trkpt>
<trkpt lat="46.1960765" lon="5.9923880">
<ele>432.2000000</ele>
<time>2014-12-04T11:49:06Z</time>
<extensions>
<tp1:TrackPointExtension>
<tp1:hr>116</tp1:hr>
</tp1:TrackPointExtension>
</extensions>
</trkpt>
<trkpt lat="46.1960498" lon="5.9924898">
<ele>431.8000000</ele>
<time>2014-12-04T11:49:07Z</time>
<extensions>
<tp1:TrackPointExtension>
<tp1:hr>116</tp1:hr>
</tp1:TrackPointExtension>
</extensions>
</trkpt>
<trkpt lat="46.1960191" lon="5.9925972">
<ele>431.4000000</ele>
<time>2014-12-04T11:49:08Z</time>
<extensions>
<tp1:TrackPointExtension>
<tp1:hr>116</tp1:hr>
</tp1:TrackPointExtension>
</extensions>
</trkpt>
<trkpt lat="46.1959857" lon="5.9927042">
<ele>431.0000000</ele>
<time>2014-12-04T11:49:09Z</time>
<extensions>
<tp1:TrackPointExtension>
<tp1:hr>116</tp1:hr>
</tp1:TrackPointExtension>
</extensions>
</trkpt>
<trkpt lat="46.1959517" lon="5.9928187">
<ele>430.6000000</ele>
<time>2014-12-04T11:49:10Z</time>
<extensions>
<tp1:TrackPointExtension>
<tp1:hr>116</tp1:hr>
</tp1:TrackPointExtension>
</extensions>
</trkpt>
<trkpt lat="46.1959191" lon="5.9929329">
<ele>430.0000000</ele>
<time>2014-12-04T11:49:11Z</time>
<extensions>
<tp1:TrackPointExtension>
<tp1:hr>116</tp1:hr>
</tp1:TrackPointExtension>
</extensions>
</trkpt>
<trkpt lat="46.1958838" lon="5.9930546">
<ele>429.6000000</ele>
<time>2014-12-04T11:49:12Z</time>
<extensions>
<tp1:TrackPointExtension>
<tp1:hr>116</tp1:hr>
</tp1:TrackPointExtension>
</extensions>
</trkpt>
<trkpt lat="46.1958507" lon="5.9931751">
<ele>429.0000000</ele>
<time>2014-12-04T11:49:13Z</time>
<extensions>
<tp1:TrackPointExtension>
<tp1:hr>116</tp1:hr>
</tp1:TrackPointExtension>
</extensions>
</trkpt>
<trkpt lat="46.1958177" lon="5.9932981">
<ele>428.4000000</ele>
<time>2014-12-04T11:49:14Z</time>
<extensions>
<tp1:TrackPointExtension>
<tp1:hr>117</tp1:hr>
</tp1:TrackPointExtension>
</extensions>
</trkpt>
<trkpt lat="46.1957833" lon="5.9934230">
<ele>427.8000000</ele>
<time>2014-12-04T11:49:15Z</time>
<extensions>
<tp1:TrackPointExtension>
<tp1:hr>116</tp1:hr>
</tp1:TrackPointExtension>
</extensions>
</trkpt>
<trkpt lat="46.1957457" lon="5.9935472">
<ele>427.2000000</ele>
<time>2014-12-04T11:49:16Z</time>
<extensions>
<tp1:TrackPointExtension>
<tp1:hr>116</tp1:hr>
</tp1:TrackPointExtension>
</extensions>
</trkpt>
<trkpt lat="46.1957068" lon="5.9936721">
<ele>426.4000000</ele>
<time>2014-12-04T11:49:17Z</time>
<extensions>
<tp1:TrackPointExtension>
<tp1:hr>117</tp1:hr>
</tp1:TrackPointExtension>
</extensions>
</trkpt>
<trkpt lat="46.1956696" lon="5.9937830">
<ele>426.0000000</ele>
<time>2014-12-04T11:49:18Z</time>
<extensions>
<tp1:TrackPointExtension>
<tp1:hr>117</tp1:hr>
</tp1:TrackPointExtension>
</extensions>
</trkpt>
<trkpt lat="46.1956226" lon="5.9938870">
<ele>425.6000000</ele>
<time>2014-12-04T11:49:19Z</time>
<extensions>
<tp1:TrackPointExtension>
<tp1:hr>117</tp1:hr>
</tp1:TrackPointExtension>
</extensions>
</trkpt>
<trkpt lat="46.1955652" lon="5.9939771">
<ele>425.2000000</ele>
<time>2014-12-04T11:49:20Z</time>
<extensions>
<tp1:TrackPointExtension>
<tp1:hr>117</tp1:hr>
</tp1:TrackPointExtension>
</extensions>
</trkpt>
<trkpt lat="46.1954993" lon="5.9940543">
<ele>424.8000000</ele>
<time>2014-12-04T11:49:21Z</time>
<extensions>
<tp1:TrackPointExtension>
<tp1:hr>117</tp1:hr>
</tp1:TrackPointExtension>
</extensions>
</trkpt>
<trkpt lat="46.1954286" lon="5.9941308">
<ele>424.4000000</ele>
<time>2014-12-04T11:49:22Z</time>
<extensions>
<tp1:TrackPointExtension>
<tp1:hr>116</tp1:hr>
</tp1:TrackPointExtension>
</extensions>
</trkpt>
<trkpt lat="46.1952985" lon="5.9942711">
<ele>424.4000000</ele>
<time>2014-12-04T11:49:24Z</time>
<extensions>
<tp1:TrackPointExtension>
<tp1:hr>117</tp1:hr>
</tp1:TrackPointExtension>
</extensions>
</trkpt>
<trkpt lat="46.1948855" lon="5.9947081">
<ele>424.4000000</ele>
<time>2014-12-04T11:49:31Z</time>
<extensions>
<tp1:TrackPointExtension>
<tp1:hr>116</tp1:hr>
</tp1:TrackPointExtension>
</extensions>
</trkpt>
<trkpt lat="46.1947040" lon="5.9949221">
<ele>424.4000000</ele>
<time>2014-12-04T11:49:35Z</time>
<extensions>
<tp1:TrackPointExtension>
<tp1:hr>116</tp1:hr>
</tp1:TrackPointExtension>
</extensions>
</trkpt>
<trkpt lat="46.1946396" lon="5.9948986">
<ele>424.4000000</ele>
<time>2014-12-04T11:49:36Z</time>
<extensions>
<tp1:TrackPointExtension>
<tp1:hr>116</tp1:hr>
</tp1:TrackPointExtension>
</extensions>
</trkpt>
<trkpt lat="46.1944420" lon="5.9947900">
<ele>424.4000000</ele>
<time>2014-12-04T11:49:39Z</time>
<extensions>
<tp1:TrackPointExtension>
<tp1:hr>117</tp1:hr>
</tp1:TrackPointExtension>
</extensions>
</trkpt>
<trkpt lat="46.1943667" lon="5.9947760">
<ele>424.0000000</ele>
<time>2014-12-04T11:49:40Z</time>
<extensions>
<tp1:TrackPointExtension>
<tp1:hr>117</tp1:hr>
</tp1:TrackPointExtension>
</extensions>
</trkpt>
<trkpt lat="46.1942895" lon="5.9947728">
<ele>423.4000000</ele>
<time>2014-12-04T11:49:41Z</time>
<extensions>
<tp1:TrackPointExtension>
<tp1:hr>117</tp1:hr>
</tp1:TrackPointExtension>
</extensions>
</trkpt>
<trkpt lat="46.1942117" lon="5.9947896">
<ele>423.0000000</ele>
<time>2014-12-04T11:49:42Z</time>
<extensions>
<tp1:TrackPointExtension>
<tp1:hr>117</tp1:hr>
</tp1:TrackPointExtension>
</extensions>
</trkpt>
<trkpt lat="46.1941334" lon="5.9948189">
<ele>422.6000000</ele>
<time>2014-12-04T11:49:43Z</time>
<extensions>
<tp1:TrackPointExtension>
<tp1:hr>117</tp1:hr>
</tp1:TrackPointExtension>
</extensions>
</trkpt>
<trkpt lat="46.1940532" lon="5.9948547">
<ele>422.0000000</ele>
<time>2014-12-04T11:49:44Z</time>
<extensions>
<tp1:TrackPointExtension>
<tp1:hr>118</tp1:hr>
</tp1:TrackPointExtension>
</extensions>
</trkpt>
<trkpt lat="46.1939734" lon="5.9948915">
<ele>421.4000000</ele>
<time>2014-12-04T11:49:45Z</time>
<extensions>
<tp1:TrackPointExtension>
<tp1:hr>118</tp1:hr>
</tp1:TrackPointExtension>
</extensions>
</trkpt>
<trkpt lat="46.1938977" lon="5.9949373">
<ele>421.0000000</ele>
<time>2014-12-04T11:49:46Z</time>
<extensions>
<tp1:TrackPointExtension>
<tp1:hr>117</tp1:hr>
</tp1:TrackPointExtension>
</extensions>
</trkpt>
<trkpt lat="46.1938268" lon="5.9949982">
<ele>421.0000000</ele>
<time>2014-12-04T11:49:47Z</time>
<extensions>
<tp1:TrackPointExtension>
<tp1:hr>117</tp1:hr>
</tp1:TrackPointExtension>
</extensions>
</trkpt>
<trkpt lat="46.1937602" lon="5.9950747">
<ele>420.4000000</ele>
<time>2014-12-04T11:49:48Z</time>
<extensions>
<tp1:TrackPointExtension>
<tp1:hr>118</tp1:hr>
</tp1:TrackPointExtension>
</extensions>
</trkpt>
<trkpt lat="46.1936904" lon="5.9951519">
<ele>419.0000000</ele>
<time>2014-12-04T11:49:49Z</time>
<extensions>
<tp1:TrackPointExtension>
<tp1:hr>118</tp1:hr>
</tp1:TrackPointExtension>
</extensions>
</trkpt>
<trkpt lat="46.1936196" lon="5.9952220">
<ele>418.4000000</ele>
<time>2014-12-04T11:49:50Z</time>
<extensions>
<tp1:TrackPointExtension>
<tp1:hr>118</tp1:hr>
</tp1:TrackPointExtension>
</extensions>
</trkpt>
<trkpt lat="46.1935467" lon="5.9952921">
<ele>417.8000000</ele>
<time>2014-12-04T11:49:51Z</time>
<extensions>
<tp1:TrackPointExtension>
<tp1:hr>118</tp1:hr>
</tp1:TrackPointExtension>
</extensions>
</trkpt>
<trkpt lat="46.1932432" lon="5.9955354">
<ele>417.4000000</ele>
<time>2014-12-04T11:49:55Z</time>
<extensions>
<tp1:TrackPointExtension>
<tp1:hr>117</tp1:hr>
</tp1:TrackPointExtension>
</extensions>
</trkpt>
<trkpt lat="46.1931646" lon="5.9955908">
<ele>417.0000000</ele>
<time>2014-12-04T11:49:56Z</time>
<extensions>
<tp1:TrackPointExtension>
<tp1:hr>116</tp1:hr>
</tp1:TrackPointExtension>
</extensions>
</trkpt>
<trkpt lat="46.1930849" lon="5.9956432">
<ele>416.4000000</ele>
<time>2014-12-04T11:49:57Z</time>
<extensions>
<tp1:TrackPointExtension>
<tp1:hr>116</tp1:hr>
</tp1:TrackPointExtension>
</extensions>
</trkpt>
<trkpt lat="46.1930048" lon="5.9956875">
<ele>416.0000000</ele>
<time>2014-12-04T11:49:58Z</time>
<extensions>
<tp1:TrackPointExtension>
<tp1:hr>116</tp1:hr>
</tp1:TrackPointExtension>
</extensions>
</trkpt>
<trkpt lat="46.1929241" lon="5.9957310">
<ele>415.6000000</ele>
<time>2014-12-04T11:49:59Z</time>
<extensions>
<tp1:TrackPointExtension>
<tp1:hr>115</tp1:hr>
</tp1:TrackPointExtension>
</extensions>
</trkpt>
<trkpt lat="46.1927659" lon="5.9958098">
<ele>415.6000000</ele>
<time>2014-12-04T11:50:01Z</time>
<extensions>
<tp1:TrackPointExtension>
<tp1:hr>115</tp1:hr>
</tp1:TrackPointExtension>
</extensions>
</trkpt>
<trkpt lat="46.1923260" lon="5.9960662">
<ele>415.6000000</ele>
<time>2014-12-04T11:50:07Z</time>
<extensions>
<tp1:TrackPointExtension>
<tp1:hr>115</tp1:hr>
</tp1:TrackPointExtension>
</extensions>
</trkpt>
<trkpt lat="46.1922553" lon="5.9961090">
<ele>415.2000000</ele>
<time>2014-12-04T11:50:08Z</time>
<extensions>
<tp1:TrackPointExtension>
<tp1:hr>116</tp1:hr>
</tp1:TrackPointExtension>
</extensions>
</trkpt>
<trkpt lat="46.1921828" lon="5.9961481">
<ele>414.8000000</ele>
<time>2014-12-04T11:50:09Z</time>
<extensions>
<tp1:TrackPointExtension>
<tp1:hr>116</tp1:hr>
</tp1:TrackPointExtension>
</extensions>
</trkpt>
<trkpt lat="46.1921166" lon="5.9961871">
<ele>414.4000000</ele>
<time>2014-12-04T11:50:10Z</time>
<extensions>
<tp1:TrackPointExtension>
<tp1:hr>117</tp1:hr>
</tp1:TrackPointExtension>
</extensions>
</trkpt>
<trkpt lat="46.1920472" lon="5.9962306">
<ele>413.8000000</ele>
<time>2014-12-04T11:50:11Z</time>
<extensions>
<tp1:TrackPointExtension>
<tp1:hr>118</tp1:hr>
</tp1:TrackPointExtension>
</extensions>
</trkpt>
<trkpt lat="46.1919816" lon="5.9962720">
<ele>413.4000000</ele>
<time>2014-12-04T11:50:12Z</time>
<extensions>
<tp1:TrackPointExtension>
<tp1:hr>118</tp1:hr>
</tp1:TrackPointExtension>
</extensions>
</trkpt>
<trkpt lat="46.1917940" lon="5.9963940">
<ele>413.4000000</ele>
<time>2014-12-04T11:50:15Z</time>
<extensions>
<tp1:TrackPointExtension>
<tp1:hr>120</tp1:hr>
</tp1:TrackPointExtension>
</extensions>
</trkpt>
<trkpt lat="46.1917403" lon="5.9964440">
<ele>413.4000000</ele>
<time>2014-12-04T11:50:16Z</time>
<extensions>
<tp1:TrackPointExtension>
<tp1:hr>121</tp1:hr>
</tp1:TrackPointExtension>
</extensions>
</trkpt>
<trkpt lat="46.1916885" lon="5.9965012">
<ele>414.0000000</ele>
<time>2014-12-04T11:50:17Z</time>
<extensions>
<tp1:TrackPointExtension>
<tp1:hr>122</tp1:hr>
</tp1:TrackPointExtension>
</extensions>
</trkpt>
<trkpt lat="46.1916448" lon="5.9965659">
<ele>414.4000000</ele>
<time>2014-12-04T11:50:18Z</time>
<extensions>
<tp1:TrackPointExtension>
<tp1:hr>122</tp1:hr>
</tp1:TrackPointExtension>
</extensions>
</trkpt>
<trkpt lat="46.1916010" lon="5.9966360">
<ele>415.0000000</ele>
<time>2014-12-04T11:50:19Z</time>
<extensions>
<tp1:TrackPointExtension>
<tp1:hr>123</tp1:hr>
</tp1:TrackPointExtension>
</extensions>
</trkpt>
<trkpt lat="46.1915595" lon="5.9967074">
<ele>415.4000000</ele>
<time>2014-12-04T11:50:20Z</time>
<extensions>
<tp1:TrackPointExtension>
<tp1:hr>124</tp1:hr>
</tp1:TrackPointExtension>
</extensions>
</trkpt>
<trkpt lat="46.1915205" lon="5.9967820">
<ele>416.0000000</ele>
<time>2014-12-04T11:50:21Z</time>
<extensions>
<tp1:TrackPointExtension>
<tp1:hr>124</tp1:hr>
</tp1:TrackPointExtension>
</extensions>
</trkpt>
<trkpt lat="46.1913609" lon="5.9970876">
<ele>416.0000000</ele>
<time>2014-12-04T11:50:25Z</time>
<extensions>
<tp1:TrackPointExtension>
<tp1:hr>127</tp1:hr>
</tp1:TrackPointExtension>
</extensions>
</trkpt>
<trkpt lat="46.1913186" lon="5.9971619">
<ele>416.0000000</ele>
<time>2014-12-04T11:50:26Z</time>
<extensions>
<tp1:TrackPointExtension>
<tp1:hr>127</tp1:hr>
</tp1:TrackPointExtension>
</extensions>
</trkpt>
<trkpt lat="46.1912715" lon="5.9972393">
<ele>416.4000000</ele>
<time>2014-12-04T11:50:27Z</time>
<extensions>
<tp1:TrackPointExtension>
<tp1:hr>128</tp1:hr>
</tp1:TrackPointExtension>
</extensions>
</trkpt>
<trkpt lat="46.1912366" lon="5.9973157">
<ele>416.8000000</ele>
<time>2014-12-04T11:50:28Z</time>
<extensions>
<tp1:TrackPointExtension>
<tp1:hr>128</tp1:hr>
</tp1:TrackPointExtension>
</extensions>
</trkpt>
<trkpt lat="46.1912051" lon="5.9973956">
<ele>417.2000000</ele>
<time>2014-12-04T11:50:29Z</time>
<extensions>
<tp1:TrackPointExtension>
<tp1:hr>128</tp1:hr>
</tp1:TrackPointExtension>
</extensions>
</trkpt>
<trkpt lat="46.1911708" lon="5.9974709">
<ele>417.8000000</ele>
<time>2014-12-04T11:50:30Z</time>
<extensions>
<tp1:TrackPointExtension>
<tp1:hr>128</tp1:hr>
</tp1:TrackPointExtension>
</extensions>
</trkpt>
<trkpt lat="46.1911340" lon="5.9975374">
<ele>418.2000000</ele>
<time>2014-12-04T11:50:31Z</time>
<extensions>
<tp1:TrackPointExtension>
<tp1:hr>129</tp1:hr>
</tp1:TrackPointExtension>
</extensions>
</trkpt>
<trkpt lat="46.1910936" lon="5.9976044">
<ele>418.2000000</ele>
<time>2014-12-04T11:50:32Z</time>
<extensions>
<tp1:TrackPointExtension>
<tp1:hr>129</tp1:hr>
</tp1:TrackPointExtension>
</extensions>
</trkpt>
<trkpt lat="46.1910462" lon="5.9976591">
<ele>418.2000000</ele>
<time>2014-12-04T11:50:33Z</time>
<extensions>
<tp1:TrackPointExtension>
<tp1:hr>129</tp1:hr>
</tp1:TrackPointExtension>
</extensions>
</trkpt>
<trkpt lat="46.1909342" lon="5.9977415">
<ele>418.2000000</ele>
<time>2014-12-04T11:50:35Z</time>
<extensions>
<tp1:TrackPointExtension>
<tp1:hr>128</tp1:hr>
</tp1:TrackPointExtension>
</extensions>
</trkpt>
<trkpt lat="46.1906128" lon="5.9980381">
<ele>417.8000000</ele>
<time>2014-12-04T11:50:41Z</time>
<extensions>
<tp1:TrackPointExtension>
<tp1:hr>127</tp1:hr>
</tp1:TrackPointExtension>
</extensions>
</trkpt>
<trkpt lat="46.1905584" lon="5.9980961">
<ele>417.4000000</ele>
<time>2014-12-04T11:50:42Z</time>
<extensions>
<tp1:TrackPointExtension>
<tp1:hr>127</tp1:hr>
</tp1:TrackPointExtension>
</extensions>
</trkpt>
<trkpt lat="46.1905124" lon="5.9981552">
<ele>417.0000000</ele>
<time>2014-12-04T11:50:43Z</time>
<extensions>
<tp1:TrackPointExtension>
<tp1:hr>128</tp1:hr>
</tp1:TrackPointExtension>
</extensions>
</trkpt>
<trkpt lat="46.1904599" lon="5.9982156">
<ele>416.6000000</ele>
<time>2014-12-04T11:50:44Z</time>
<extensions>
<tp1:TrackPointExtension>
<tp1:hr>128</tp1:hr>
</tp1:TrackPointExtension>
</extensions>
</trkpt>
<trkpt lat="46.1904072" lon="5.9982735">
<ele>416.2000000</ele>
<time>2014-12-04T11:50:45Z</time>
<extensions>
<tp1:TrackPointExtension>
<tp1:hr>128</tp1:hr>
</tp1:TrackPointExtension>
</extensions>
</trkpt>
<trkpt lat="46.1901350" lon="5.9985333">
<ele>416.2000000</ele>
<time>2014-12-04T11:50:50Z</time>
<extensions>
<tp1:TrackPointExtension>
<tp1:hr>128</tp1:hr>
</tp1:TrackPointExtension>
</extensions>
</trkpt>
<trkpt lat="46.1896393" lon="5.9989898">
<ele>416.2000000</ele>
<time>2014-12-04T11:50:59Z</time>
<extensions>
<tp1:TrackPointExtension>
<tp1:hr>129</tp1:hr>
</tp1:TrackPointExtension>
</extensions>
</trkpt>
<trkpt lat="46.1895318" lon="5.9990897">
<ele>416.2000000</ele>
<time>2014-12-04T11:51:01Z</time>
<extensions>
<tp1:TrackPointExtension>
<tp1:hr>129</tp1:hr>
</tp1:TrackPointExtension>
</extensions>
</trkpt>
<trkpt lat="46.1890517" lon="5.9994836">
<ele>416.2000000</ele>
<time>2014-12-04T11:51:10Z</time>
<extensions>
<tp1:TrackPointExtension>
<tp1:hr>129</tp1:hr>
</tp1:TrackPointExtension>
</extensions>
</trkpt>
<trkpt lat="46.1889302" lon="5.9995843">
<ele>416.2000000</ele>
<time>2014-12-04T11:51:13Z</time>
<extensions>
<tp1:TrackPointExtension>
<tp1:hr>129</tp1:hr>
</tp1:TrackPointExtension>
</extensions>
</trkpt>
<trkpt lat="46.1888789" lon="5.9996085">
<ele>416.2000000</ele>
<time>2014-12-04T11:51:14Z</time>
<extensions>
<tp1:TrackPointExtension>
<tp1:hr>129</tp1:hr>
</tp1:TrackPointExtension>
</extensions>
</trkpt>
<trkpt lat="46.1887185" lon="5.9996888">
<ele>415.6000000</ele>
<time>2014-12-04T11:51:17Z</time>
<extensions>
<tp1:TrackPointExtension>
<tp1:hr>129</tp1:hr>
</tp1:TrackPointExtension>
</extensions>
</trkpt>
<trkpt lat="46.1886642" lon="5.9997175">
<ele>415.2000000</ele>
<time>2014-12-04T11:51:18Z</time>
<extensions>
<tp1:TrackPointExtension>
<tp1:hr>129</tp1:hr>
</tp1:TrackPointExtension>
</extensions>
</trkpt>
<trkpt lat="46.1886086" lon="5.9997453">
<ele>414.8000000</ele>
<time>2014-12-04T11:51:19Z</time>
<extensions>
<tp1:TrackPointExtension>
<tp1:hr>129</tp1:hr>
</tp1:TrackPointExtension>
</extensions>
</trkpt>
<trkpt lat="46.1885514" lon="5.9997742">
<ele>414.4000000</ele>
<time>2014-12-04T11:51:20Z</time>
<extensions>
<tp1:TrackPointExtension>
<tp1:hr>130</tp1:hr>
</tp1:TrackPointExtension>
</extensions>
</trkpt>
<trkpt lat="46.1884959" lon="5.9998017">
<ele>414.0000000</ele>
<time>2014-12-04T11:51:21Z</time>
<extensions>
<tp1:TrackPointExtension>
<tp1:hr>129</tp1:hr>
</tp1:TrackPointExtension>
</extensions>
</trkpt>
<trkpt lat="46.1884396" lon="5.9998302">
<ele>414.0000000</ele>
<time>2014-12-04T11:51:22Z</time>
<extensions>
<tp1:TrackPointExtension>
<tp1:hr>129</tp1:hr>
</tp1:TrackPointExtension>
</extensions>
</trkpt>
<trkpt lat="46.1878895" lon="6.0001003">
<ele>414.0000000</ele>
<time>2014-12-04T11:51:31Z</time>
<extensions>
<tp1:TrackPointExtension>
<tp1:hr>129</tp1:hr>
</tp1:TrackPointExtension>
</extensions>
</trkpt>
<trkpt lat="46.1873621" lon="6.0004663">
<ele>414.0000000</ele>
<time>2014-12-04T11:51:40Z</time>
<extensions>
<tp1:TrackPointExtension>
<tp1:hr>130</tp1:hr>
</tp1:TrackPointExtension>
</extensions>
</trkpt>
<trkpt lat="46.1869219" lon="6.0007428">
<ele>414.0000000</ele>
<time>2014-12-04T11:51:47Z</time>
<extensions>
<tp1:TrackPointExtension>
<tp1:hr>132</tp1:hr>
</tp1:TrackPointExtension>
</extensions>
</trkpt>
<trkpt lat="46.1865399" lon="6.0009241">
<ele>414.0000000</ele>
<time>2014-12-04T11:51:53Z</time>
<extensions>
<tp1:TrackPointExtension>
<tp1:hr>132</tp1:hr>
</tp1:TrackPointExtension>
</extensions>
</trkpt>
<trkpt lat="46.1860566" lon="6.0012237">
<ele>414.0000000</ele>
<time>2014-12-04T11:52:01Z</time>
<extensions>
<tp1:TrackPointExtension>
<tp1:hr>131</tp1:hr>
</tp1:TrackPointExtension>
</extensions>
</trkpt>
<trkpt lat="46.1858469" lon="6.0013807">
<ele>413.6000000</ele>
<time>2014-12-04T11:52:05Z</time>
<extensions>
<tp1:TrackPointExtension>
<tp1:hr>129</tp1:hr>
</tp1:TrackPointExtension>
</extensions>
</trkpt>
<trkpt lat="46.1857966" lon="6.0014165">
<ele>413.2000000</ele>
<time>2014-12-04T11:52:06Z</time>
<extensions>
<tp1:TrackPointExtension>
<tp1:hr>128</tp1:hr>
</tp1:TrackPointExtension>
</extensions>
</trkpt>
<trkpt lat="46.1857446" lon="6.0014506">
<ele>412.8000000</ele>
<time>2014-12-04T11:52:07Z</time>
<extensions>
<tp1:TrackPointExtension>
<tp1:hr>128</tp1:hr>
</tp1:TrackPointExtension>
</extensions>
</trkpt>
<trkpt lat="46.1856937" lon="6.0014798">
<ele>412.2000000</ele>
<time>2014-12-04T11:52:08Z</time>
<extensions>
<tp1:TrackPointExtension>
<tp1:hr>127</tp1:hr>
</tp1:TrackPointExtension>
</extensions>
</trkpt>
<trkpt lat="46.1856373" lon="6.0014840">
<ele>411.8000000</ele>
<time>2014-12-04T11:52:09Z</time>
<extensions>
<tp1:TrackPointExtension>
<tp1:hr>126</tp1:hr>
</tp1:TrackPointExtension>
</extensions>
</trkpt>
<trkpt lat="46.1855817" lon="6.0014779">
<ele>411.8000000</ele>
<time>2014-12-04T11:52:10Z</time>
<extensions>
<tp1:TrackPointExtension>
<tp1:hr>126</tp1:hr>
</tp1:TrackPointExtension>
</extensions>
</trkpt>
<trkpt lat="46.1853661" lon="6.0013428">
<ele>411.8000000</ele>
<time>2014-12-04T11:52:14Z</time>
<extensions>
<tp1:TrackPointExtension>
<tp1:hr>125</tp1:hr>
</tp1:TrackPointExtension>
</extensions>
</trkpt>
<trkpt lat="46.1852377" lon="6.0011491">
<ele>411.8000000</ele>
<time>2014-12-04T11:52:17Z</time>
<extensions>
<tp1:TrackPointExtension>
<tp1:hr>125</tp1:hr>
</tp1:TrackPointExtension>
</extensions>
</trkpt>
<trkpt lat="46.1851982" lon="6.0010812">
<ele>411.8000000</ele>
<time>2014-12-04T11:52:18Z</time>
<extensions>
<tp1:TrackPointExtension>
<tp1:hr>125</tp1:hr>
</tp1:TrackPointExtension>
</extensions>
</trkpt>
<trkpt lat="46.1851077" lon="6.0009664">
<ele>411.8000000</ele>
<time>2014-12-04T11:52:20Z</time>
<extensions>
<tp1:TrackPointExtension>
<tp1:hr>125</tp1:hr>
</tp1:TrackPointExtension>
</extensions>
</trkpt>
<trkpt lat="46.1849964" lon="6.0008978">
<ele>411.8000000</ele>
<time>2014-12-04T11:52:22Z</time>
<extensions>
<tp1:TrackPointExtension>
<tp1:hr>125</tp1:hr>
</tp1:TrackPointExtension>
</extensions>
</trkpt>
<trkpt lat="46.1848772" lon="6.0008481">
<ele>411.8000000</ele>
<time>2014-12-04T11:52:24Z</time>
<extensions>
<tp1:TrackPointExtension>
<tp1:hr>125</tp1:hr>
</tp1:TrackPointExtension>
</extensions>
</trkpt>
<trkpt lat="46.1846218" lon="6.0007583">
<ele>411.8000000</ele>
<time>2014-12-04T11:52:28Z</time>
<extensions>
<tp1:TrackPointExtension>
<tp1:hr>124</tp1:hr>
</tp1:TrackPointExtension>
</extensions>
</trkpt>
<trkpt lat="46.1844744" lon="6.0007088">
<ele>411.4000000</ele>
<time>2014-12-04T11:52:30Z</time>
<extensions>
<tp1:TrackPointExtension>
<tp1:hr>124</tp1:hr>
</tp1:TrackPointExtension>
</extensions>
</trkpt>
<trkpt lat="46.1843957" lon="6.0006741">
<ele>411.0000000</ele>
<time>2014-12-04T11:52:31Z</time>
<extensions>
<tp1:TrackPointExtension>
<tp1:hr>124</tp1:hr>
</tp1:TrackPointExtension>
</extensions>
</trkpt>
<trkpt lat="46.1843215" lon="6.0006352">
<ele>410.6000000</ele>
<time>2014-12-04T11:52:32Z</time>
<extensions>
<tp1:TrackPointExtension>
<tp1:hr>123</tp1:hr>
</tp1:TrackPointExtension>
</extensions>
</trkpt>
<trkpt lat="46.1842459" lon="6.0005921">
<ele>410.2000000</ele>
<time>2014-12-04T11:52:33Z</time>
<extensions>
<tp1:TrackPointExtension>
<tp1:hr>122</tp1:hr>
</tp1:TrackPointExtension>
</extensions>
</trkpt>
<trkpt lat="46.1841729" lon="6.0005476">
<ele>409.6000000</ele>
<time>2014-12-04T11:52:34Z</time>
<extensions>
<tp1:TrackPointExtension>
<tp1:hr>122</tp1:hr>
</tp1:TrackPointExtension>
</extensions>
</trkpt>
<trkpt lat="46.1841021" lon="6.0005037">
<ele>409.6000000</ele>
<time>2014-12-04T11:52:35Z</time>
<extensions>
<tp1:TrackPointExtension>
<tp1:hr>121</tp1:hr>
</tp1:TrackPointExtension>
</extensions>
</trkpt>
<trkpt lat="46.1835848" lon="6.0001472">
<ele>409.6000000</ele>
<time>2014-12-04T11:52:43Z</time>
<extensions>
<tp1:TrackPointExtension>
<tp1:hr>120</tp1:hr>
</tp1:TrackPointExtension>
</extensions>
</trkpt>
<trkpt lat="46.1833821" lon="6.0000986">
<ele>409.6000000</ele>
<time>2014-12-04T11:52:46Z</time>
<extensions>
<tp1:TrackPointExtension>
<tp1:hr>122</tp1:hr>
</tp1:TrackPointExtension>
</extensions>
</trkpt>
<trkpt lat="46.1832511" lon="6.0001149">
<ele>409.6000000</ele>
<time>2014-12-04T11:52:48Z</time>
<extensions>
<tp1:TrackPointExtension>
<tp1:hr>123</tp1:hr>
</tp1:TrackPointExtension>
</extensions>
</trkpt>
<trkpt lat="46.1830488" lon="6.0001831">
<ele>409.6000000</ele>
<time>2014-12-04T11:52:51Z</time>
<extensions>
<tp1:TrackPointExtension>
<tp1:hr>125</tp1:hr>
</tp1:TrackPointExtension>
</extensions>
</trkpt>
<trkpt lat="46.1829103" lon="6.0002303">
<ele>409.6000000</ele>
<time>2014-12-04T11:52:53Z</time>
<extensions>
<tp1:TrackPointExtension>
<tp1:hr>126</tp1:hr>
</tp1:TrackPointExtension>
</extensions>
</trkpt>
<trkpt lat="46.1825672" lon="6.0003524">
<ele>409.6000000</ele>
<time>2014-12-04T11:52:58Z</time>
<extensions>
<tp1:TrackPointExtension>
<tp1:hr>129</tp1:hr>
</tp1:TrackPointExtension>
</extensions>
</trkpt>
<trkpt lat="46.1822086" lon="6.0004474">
<ele>409.6000000</ele>
<time>2014-12-04T11:53:03Z</time>
<extensions>
<tp1:TrackPointExtension>
<tp1:hr>130</tp1:hr>
</tp1:TrackPointExtension>
</extensions>
</trkpt>
<trkpt lat="46.1821355" lon="6.0004358">
<ele>409.2000000</ele>
<time>2014-12-04T11:53:04Z</time>
<extensions>
<tp1:TrackPointExtension>
<tp1:hr>129</tp1:hr>
</tp1:TrackPointExtension>
</extensions>
</trkpt>
<trkpt lat="46.1820582" lon="6.0004108">
<ele>408.8000000</ele>
<time>2014-12-04T11:53:05Z</time>
<extensions>
<tp1:TrackPointExtension>
<tp1:hr>130</tp1:hr>
</tp1:TrackPointExtension>
</extensions>
</trkpt>
<trkpt lat="46.1819825" lon="6.0003769">
<ele>408.4000000</ele>
<time>2014-12-04T11:53:06Z</time>
<extensions>
<tp1:TrackPointExtension>
<tp1:hr>130</tp1:hr>
</tp1:TrackPointExtension>
</extensions>
</trkpt>
<trkpt lat="46.1819137" lon="6.0003384">
<ele>408.0000000</ele>
<time>2014-12-04T11:53:07Z</time>
<extensions>
<tp1:TrackPointExtension>
<tp1:hr>130</tp1:hr>
</tp1:TrackPointExtension>
</extensions>
</trkpt>
<trkpt lat="46.1818463" lon="6.0002954">
<ele>407.6000000</ele>
<time>2014-12-04T11:53:08Z</time>
<extensions>
<tp1:TrackPointExtension>
<tp1:hr>130</tp1:hr>
</tp1:TrackPointExtension>
</extensions>
</trkpt>
<trkpt lat="46.1817789" lon="6.0002488">
<ele>407.6000000</ele>
<time>2014-12-04T11:53:09Z</time>
<extensions>
<tp1:TrackPointExtension>
<tp1:hr>130</tp1:hr>
</tp1:TrackPointExtension>
</extensions>
</trkpt>
<trkpt lat="46.1815143" lon="6.0000563">
<ele>407.6000000</ele>
<time>2014-12-04T11:53:13Z</time>
<extensions>
<tp1:TrackPointExtension>
<tp1:hr>130</tp1:hr>
</tp1:TrackPointExtension>
</extensions>
</trkpt>
<trkpt lat="46.1811573" lon="5.9997276">
<ele>407.6000000</ele>
<time>2014-12-04T11:53:19Z</time>
<extensions>
<tp1:TrackPointExtension>
<tp1:hr>130</tp1:hr>
</tp1:TrackPointExtension>
</extensions>
</trkpt>
<trkpt lat="46.1811133" lon="5.9996506">
<ele>407.6000000</ele>
<time>2014-12-04T11:53:20Z</time>
<extensions>
<tp1:TrackPointExtension>
<tp1:hr>130</tp1:hr>
</tp1:TrackPointExtension>
</extensions>
</trkpt>
<trkpt lat="46.1809864" lon="5.9993100">
<ele>407.6000000</ele>
<time>2014-12-04T11:53:24Z</time>
<extensions>
<tp1:TrackPointExtension>
<tp1:hr>129</tp1:hr>
</tp1:TrackPointExtension>
</extensions>
</trkpt>
<trkpt lat="46.1808927" lon="5.9987582">
<ele>407.6000000</ele>
<time>2014-12-04T11:53:30Z</time>
<extensions>
<tp1:TrackPointExtension>
<tp1:hr>128</tp1:hr>
</tp1:TrackPointExtension>
</extensions>
</trkpt>
<trkpt lat="46.1807966" lon="5.9981065">
<ele>407.6000000</ele>
<time>2014-12-04T11:53:37Z</time>
<extensions>
<tp1:TrackPointExtension>
<tp1:hr>129</tp1:hr>
</tp1:TrackPointExtension>
</extensions>
</trkpt>
<trkpt lat="46.1806676" lon="5.9975505">
<ele>407.6000000</ele>
<time>2014-12-04T11:53:44Z</time>
<extensions>
<tp1:TrackPointExtension>
<tp1:hr>128</tp1:hr>
</tp1:TrackPointExtension>
</extensions>
</trkpt>
<trkpt lat="46.1804960" lon="5.9969681">
<ele>407.6000000</ele>
<time>2014-12-04T11:53:52Z</time>
<extensions>
<tp1:TrackPointExtension>
<tp1:hr>126</tp1:hr>
</tp1:TrackPointExtension>
</extensions>
</trkpt>
<trkpt lat="46.1802561" lon="5.9964007">
<ele>407.6000000</ele>
<time>2014-12-04T11:54:00Z</time>
<extensions>
<tp1:TrackPointExtension>
<tp1:hr>124</tp1:hr>
</tp1:TrackPointExtension>
</extensions>
</trkpt>
<trkpt lat="46.1802527" lon="5.9963129">
<ele>407.6000000</ele>
<time>2014-12-04T11:54:01Z</time>
<extensions>
<tp1:TrackPointExtension>
<tp1:hr>124</tp1:hr>
</tp1:TrackPointExtension>
</extensions>
</trkpt>
<trkpt lat="46.1802601" lon="5.9958847">
<ele>407.6000000</ele>
<time>2014-12-04T11:54:06Z</time>
<extensions>
<tp1:TrackPointExtension>
<tp1:hr>122</tp1:hr>
</tp1:TrackPointExtension>
</extensions>
</trkpt>
<trkpt lat="46.1802596" lon="5.9957960">
<ele>407.2000000</ele>
<time>2014-12-04T11:54:07Z</time>
<extensions>
<tp1:TrackPointExtension>
<tp1:hr>122</tp1:hr>
</tp1:TrackPointExtension>
</extensions>
</trkpt>
<trkpt lat="46.1802566" lon="5.9957073">
<ele>406.8000000</ele>
<time>2014-12-04T11:54:08Z</time>
<extensions>
<tp1:TrackPointExtension>
<tp1:hr>122</tp1:hr>
</tp1:TrackPointExtension>
</extensions>
</trkpt>
<trkpt lat="46.1802499" lon="5.9956183">
<ele>406.4000000</ele>
<time>2014-12-04T11:54:09Z</time>
<extensions>
<tp1:TrackPointExtension>
<tp1:hr>121</tp1:hr>
</tp1:TrackPointExtension>
</extensions>
</trkpt>
<trkpt lat="46.1802264" lon="5.9955202">
<ele>405.6000000</ele>
<time>2014-12-04T11:54:10Z</time>
<extensions>
<tp1:TrackPointExtension>
<tp1:hr>120</tp1:hr>
</tp1:TrackPointExtension>
</extensions>
</trkpt>
<trkpt lat="46.1801958" lon="5.9954214">
<ele>405.0000000</ele>
<time>2014-12-04T11:54:11Z</time>
<extensions>
<tp1:TrackPointExtension>
<tp1:hr>120</tp1:hr>
</tp1:TrackPointExtension>
</extensions>
</trkpt>
<trkpt lat="46.1801565" lon="5.9953318">
<ele>404.2000000</ele>
<time>2014-12-04T11:54:12Z</time>
<extensions>
<tp1:TrackPointExtension>
<tp1:hr>120</tp1:hr>
</tp1:TrackPointExtension>
</extensions>
</trkpt>
<trkpt lat="46.1801184" lon="5.9952544">
<ele>403.6000000</ele>
<time>2014-12-04T11:54:13Z</time>
<extensions>
<tp1:TrackPointExtension>
<tp1:hr>119</tp1:hr>
</tp1:TrackPointExtension>
</extensions>
</trkpt>
<trkpt lat="46.1800825" lon="5.9951739">
<ele>402.8000000</ele>
<time>2014-12-04T11:54:14Z</time>
<extensions>
<tp1:TrackPointExtension>
<tp1:hr>119</tp1:hr>
</tp1:TrackPointExtension>
</extensions>
</trkpt>
<trkpt lat="46.1800517" lon="5.9950996">
<ele>402.2000000</ele>
<time>2014-12-04T11:54:15Z</time>
<extensions>
<tp1:TrackPointExtension>
<tp1:hr>119</tp1:hr>
</tp1:TrackPointExtension>
</extensions>
</trkpt>
<trkpt lat="46.1800240" lon="5.9950330">
<ele>401.4000000</ele>
<time>2014-12-04T11:54:16Z</time>
<extensions>
<tp1:TrackPointExtension>
<tp1:hr>118</tp1:hr>
</tp1:TrackPointExtension>
</extensions>
</trkpt>
<trkpt lat="46.1799996" lon="5.9949767">
<ele>400.8000000</ele>
<time>2014-12-04T11:54:17Z</time>
<extensions>
<tp1:TrackPointExtension>
<tp1:hr>118</tp1:hr>
</tp1:TrackPointExtension>
</extensions>
</trkpt>
<trkpt lat="46.1799786" lon="5.9949260">
<ele>400.2000000</ele>
<time>2014-12-04T11:54:18Z</time>
<extensions>
<tp1:TrackPointExtension>
<tp1:hr>118</tp1:hr>
</tp1:TrackPointExtension>
</extensions>
</trkpt>
<trkpt lat="46.1799528" lon="5.9948900">
<ele>399.6000000</ele>
<time>2014-12-04T11:54:19Z</time>
<extensions>
<tp1:TrackPointExtension>
<tp1:hr>118</tp1:hr>
</tp1:TrackPointExtension>
</extensions>
</trkpt>
<trkpt lat="46.1799212" lon="5.9948693">
<ele>398.8000000</ele>
<time>2014-12-04T11:54:20Z</time>
<extensions>
<tp1:TrackPointExtension>
<tp1:hr>117</tp1:hr>
</tp1:TrackPointExtension>
</extensions>
</trkpt>
<trkpt lat="46.1798828" lon="5.9948692">
<ele>398.4000000</ele>
<time>2014-12-04T11:54:21Z</time>
<extensions>
<tp1:TrackPointExtension>
<tp1:hr>117</tp1:hr>
</tp1:TrackPointExtension>
</extensions>
</trkpt>
<trkpt lat="46.1798478" lon="5.9949046">
<ele>397.8000000</ele>
<time>2014-12-04T11:54:22Z</time>
<extensions>
<tp1:TrackPointExtension>
<tp1:hr>117</tp1:hr>
</tp1:TrackPointExtension>
</extensions>
</trkpt>
<trkpt lat="46.1798245" lon="5.9949533">
<ele>397.2000000</ele>
<time>2014-12-04T11:54:23Z</time>
<extensions>
<tp1:TrackPointExtension>
<tp1:hr>117</tp1:hr>
</tp1:TrackPointExtension>
</extensions>
</trkpt>
<trkpt lat="46.1798168" lon="5.9950407">
<ele>396.6000000</ele>
<time>2014-12-04T11:54:24Z</time>
<extensions>
<tp1:TrackPointExtension>
<tp1:hr>116</tp1:hr>
</tp1:TrackPointExtension>
</extensions>
</trkpt>
<trkpt lat="46.1797975" lon="5.9952243">
<ele>396.0000000</ele>
<time>2014-12-04T11:54:26Z</time>
<extensions>
<tp1:TrackPointExtension>
<tp1:hr>115</tp1:hr>
</tp1:TrackPointExtension>
</extensions>
</trkpt>
<trkpt lat="46.1797820" lon="5.9953197">
<ele>395.4000000</ele>
<time>2014-12-04T11:54:27Z</time>
<extensions>
<tp1:TrackPointExtension>
<tp1:hr>115</tp1:hr>
</tp1:TrackPointExtension>
</extensions>
</trkpt>
<trkpt lat="46.1797622" lon="5.9954259">
<ele>394.8000000</ele>
<time>2014-12-04T11:54:28Z</time>
<extensions>
<tp1:TrackPointExtension>
<tp1:hr>115</tp1:hr>
</tp1:TrackPointExtension>
</extensions>
</trkpt>
<trkpt lat="46.1797374" lon="5.9955276">
<ele>394.2000000</ele>
<time>2014-12-04T11:54:29Z</time>
<extensions>
<tp1:TrackPointExtension>
<tp1:hr>115</tp1:hr>
</tp1:TrackPointExtension>
</extensions>
</trkpt>
<trkpt lat="46.1797108" lon="5.9956334">
<ele>393.6000000</ele>
<time>2014-12-04T11:54:30Z</time>
<extensions>
<tp1:TrackPointExtension>
<tp1:hr>115</tp1:hr>
</tp1:TrackPointExtension>
</extensions>
</trkpt>
<trkpt lat="46.1796970" lon="5.9957433">
<ele>392.8000000</ele>
<time>2014-12-04T11:54:31Z</time>
<extensions>
<tp1:TrackPointExtension>
<tp1:hr>115</tp1:hr>
</tp1:TrackPointExtension>
</extensions>
</trkpt>
<trkpt lat="46.1796995" lon="5.9958603">
<ele>392.0000000</ele>
<time>2014-12-04T11:54:32Z</time>
<extensions>
<tp1:TrackPointExtension>
<tp1:hr>115</tp1:hr>
</tp1:TrackPointExtension>
</extensions>
</trkpt>
<trkpt lat="46.1797184" lon="5.9959777">
<ele>391.2000000</ele>
<time>2014-12-04T11:54:33Z</time>
<extensions>
<tp1:TrackPointExtension>
<tp1:hr>115</tp1:hr>
</tp1:TrackPointExtension>
</extensions>
</trkpt>
<trkpt lat="46.1797478" lon="5.9960912">
<ele>390.4000000</ele>
<time>2014-12-04T11:54:34Z</time>
<extensions>
<tp1:TrackPointExtension>
<tp1:hr>114</tp1:hr>
</tp1:TrackPointExtension>
</extensions>
</trkpt>
<trkpt lat="46.1797784" lon="5.9962103">
<ele>389.8000000</ele>
<time>2014-12-04T11:54:35Z</time>
<extensions>
<tp1:TrackPointExtension>
<tp1:hr>114</tp1:hr>
</tp1:TrackPointExtension>
</extensions>
</trkpt>
<trkpt lat="46.1798047" lon="5.9963295">
<ele>389.0000000</ele>
<time>2014-12-04T11:54:36Z</time>
<extensions>
<tp1:TrackPointExtension>
<tp1:hr>114</tp1:hr>
</tp1:TrackPointExtension>
</extensions>
</trkpt>
<trkpt lat="46.1798383" lon="5.9965715">
<ele>388.6000000</ele>
<time>2014-12-04T11:54:38Z</time>
<extensions>
<tp1:TrackPointExtension>
<tp1:hr>113</tp1:hr>
</tp1:TrackPointExtension>
</extensions>
</trkpt>
<trkpt lat="46.1798493" lon="5.9966980">
<ele>388.0000000</ele>
<time>2014-12-04T11:54:39Z</time>
<extensions>
<tp1:TrackPointExtension>
<tp1:hr>113</tp1:hr>
</tp1:TrackPointExtension>
</extensions>
</trkpt>
<trkpt lat="46.1798590" lon="5.9968277">
<ele>387.4000000</ele>
<time>2014-12-04T11:54:40Z</time>
<extensions>
<tp1:TrackPointExtension>
<tp1:hr>113</tp1:hr>
</tp1:TrackPointExtension>
</extensions>
</trkpt>
<trkpt lat="46.1798691" lon="5.9969610">
<ele>386.6000000</ele>
<time>2014-12-04T11:54:41Z</time>
<extensions>
<tp1:TrackPointExtension>
<tp1:hr>112</tp1:hr>
</tp1:TrackPointExtension>
</extensions>
</trkpt>
<trkpt lat="46.1798832" lon="5.9970889">
<ele>385.8000000</ele>
<time>2014-12-04T11:54:42Z</time>
<extensions>
<tp1:TrackPointExtension>
<tp1:hr>112</tp1:hr>
</tp1:TrackPointExtension>
</extensions>
</trkpt>
<trkpt lat="46.1799129" lon="5.9972085">
<ele>385.0000000</ele>
<time>2014-12-04T11:54:43Z</time>
<extensions>
<tp1:TrackPointExtension>
<tp1:hr>112</tp1:hr>
</tp1:TrackPointExtension>
</extensions>
</trkpt>
<trkpt lat="46.1799510" lon="5.9973326">
<ele>384.4000000</ele>
<time>2014-12-04T11:54:44Z</time>
<extensions>
<tp1:TrackPointExtension>
<tp1:hr>112</tp1:hr>
</tp1:TrackPointExtension>
</extensions>
</trkpt>
<trkpt lat="46.1799889" lon="5.9974570">
<ele>383.8000000</ele>
<time>2014-12-04T11:54:45Z</time>
<extensions>
<tp1:TrackPointExtension>
<tp1:hr>112</tp1:hr>
</tp1:TrackPointExtension>
</extensions>
</trkpt>
<trkpt lat="46.1800255" lon="5.9975802">
<ele>383.4000000</ele>
<time>2014-12-04T11:54:46Z</time>
<extensions>
<tp1:TrackPointExtension>
<tp1:hr>111</tp1:hr>
</tp1:TrackPointExtension>
</extensions>
</trkpt>
<trkpt lat="46.1800621" lon="5.9977005">
<ele>383.0000000</ele>
<time>2014-12-04T11:54:47Z</time>
<extensions>
<tp1:TrackPointExtension>
<tp1:hr>112</tp1:hr>
</tp1:TrackPointExtension>
</extensions>
</trkpt>
<trkpt lat="46.1800960" lon="5.9978120">
<ele>382.4000000</ele>
<time>2014-12-04T11:54:48Z</time>
<extensions>
<tp1:TrackPointExtension>
<tp1:hr>111</tp1:hr>
</tp1:TrackPointExtension>
</extensions>
</trkpt>
<trkpt lat="46.1801213" lon="5.9979190">
<ele>382.0000000</ele>
<time>2014-12-04T11:54:49Z</time>
<extensions>
<tp1:TrackPointExtension>
<tp1:hr>112</tp1:hr>
</tp1:TrackPointExtension>
</extensions>
</trkpt>
<trkpt lat="46.1801294" lon="5.9980369">
<ele>382.0000000</ele>
<time>2014-12-04T11:54:50Z</time>
<extensions>
<tp1:TrackPointExtension>
<tp1:hr>112</tp1:hr>
</tp1:TrackPointExtension>
</extensions>
</trkpt>
<trkpt lat="46.1801197" lon="5.9981588">
<ele>381.6000000</ele>
<time>2014-12-04T11:54:51Z</time>
<extensions>
<tp1:TrackPointExtension>
<tp1:hr>112</tp1:hr>
</tp1:TrackPointExtension>
</extensions>
</trkpt>
<trkpt lat="46.1801040" lon="5.9982820">
<ele>381.0000000</ele>
<time>2014-12-04T11:54:52Z</time>
<extensions>
<tp1:TrackPointExtension>
<tp1:hr>111</tp1:hr>
</tp1:TrackPointExtension>
</extensions>
</trkpt>
<trkpt lat="46.1800924" lon="5.9984088">
<ele>380.6000000</ele>
<time>2014-12-04T11:54:53Z</time>
<extensions>
<tp1:TrackPointExtension>
<tp1:hr>111</tp1:hr>
</tp1:TrackPointExtension>
</extensions>
</trkpt>
<trkpt lat="46.1800824" lon="5.9985360">
<ele>380.0000000</ele>
<time>2014-12-04T11:54:54Z</time>
<extensions>
<tp1:TrackPointExtension>
<tp1:hr>111</tp1:hr>
</tp1:TrackPointExtension>
</extensions>
</trkpt>
<trkpt lat="46.1800754" lon="5.9986657">
<ele>379.2000000</ele>
<time>2014-12-04T11:54:55Z</time>
<extensions>
<tp1:TrackPointExtension>
<tp1:hr>111</tp1:hr>
</tp1:TrackPointExtension>
</extensions>
</trkpt>
<trkpt lat="46.1800726" lon="5.9987915">
<ele>378.6000000</ele>
<time>2014-12-04T11:54:56Z</time>
<extensions>
<tp1:TrackPointExtension>
<tp1:hr>111</tp1:hr>
</tp1:TrackPointExtension>
</extensions>
</trkpt>
<trkpt lat="46.1800741" lon="5.9989279">
<ele>377.8000000</ele>
<time>2014-12-04T11:54:57Z</time>
<extensions>
<tp1:TrackPointExtension>
<tp1:hr>111</tp1:hr>
</tp1:TrackPointExtension>
</extensions>
</trkpt>
<trkpt lat="46.1800797" lon="5.9990605">
<ele>377.2000000</ele>
<time>2014-12-04T11:54:58Z</time>
<extensions>
<tp1:TrackPointExtension>
<tp1:hr>111</tp1:hr>
</tp1:TrackPointExtension>
</extensions>
</trkpt>
<trkpt lat="46.1800866" lon="5.9991767">
<ele>376.8000000</ele>
<time>2014-12-04T11:54:59Z</time>
<extensions>
<tp1:TrackPointExtension>
<tp1:hr>111</tp1:hr>
</tp1:TrackPointExtension>
</extensions>
</trkpt>
<trkpt lat="46.1800797" lon="5.9992953">
<ele>376.2000000</ele>
<time>2014-12-04T11:55:00Z</time>
<extensions>
<tp1:TrackPointExtension>
<tp1:hr>111</tp1:hr>
</tp1:TrackPointExtension>
</extensions>
</trkpt>
<trkpt lat="46.1800652" lon="5.9994242">
<ele>375.8000000</ele>
<time>2014-12-04T11:55:01Z</time>
<extensions>
<tp1:TrackPointExtension>
<tp1:hr>111</tp1:hr>
</tp1:TrackPointExtension>
</extensions>
</trkpt>
<trkpt lat="46.1800527" lon="5.9995545">
<ele>375.2000000</ele>
<time>2014-12-04T11:55:02Z</time>
<extensions>
<tp1:TrackPointExtension>
<tp1:hr>111</tp1:hr>
</tp1:TrackPointExtension>
</extensions>
</trkpt>
<trkpt lat="46.1800410" lon="5.9996756">
<ele>374.8000000</ele>
<time>2014-12-04T11:55:03Z</time>
<extensions>
<tp1:TrackPointExtension>
<tp1:hr>111</tp1:hr>
</tp1:TrackPointExtension>
</extensions>
</trkpt>
<trkpt lat="46.1800291" lon="5.9997931">
<ele>374.4000000</ele>
<time>2014-12-04T11:55:04Z</time>
<extensions>
<tp1:TrackPointExtension>
<tp1:hr>111</tp1:hr>
</tp1:TrackPointExtension>
</extensions>
</trkpt>
<trkpt lat="46.1800225" lon="5.9999157">
<ele>374.0000000</ele>
<time>2014-12-04T11:55:05Z</time>
<extensions>
<tp1:TrackPointExtension>
<tp1:hr>111</tp1:hr>
</tp1:TrackPointExtension>
</extensions>
</trkpt>
<trkpt lat="46.1800161" lon="6.0000416">
<ele>373.4000000</ele>
<time>2014-12-04T11:55:06Z</time>
<extensions>
<tp1:TrackPointExtension>
<tp1:hr>111</tp1:hr>
</tp1:TrackPointExtension>
</extensions>
</trkpt>
<trkpt lat="46.1800069" lon="6.0001650">
<ele>373.0000000</ele>
<time>2014-12-04T11:55:07Z</time>
<extensions>
<tp1:TrackPointExtension>
<tp1:hr>111</tp1:hr>
</tp1:TrackPointExtension>
</extensions>
</trkpt>
<trkpt lat="46.1799951" lon="6.0002892">
<ele>372.6000000</ele>
<time>2014-12-04T11:55:08Z</time>
<extensions>
<tp1:TrackPointExtension>
<tp1:hr>112</tp1:hr>
</tp1:TrackPointExtension>
</extensions>
</trkpt>
<trkpt lat="46.1799805" lon="6.0004097">
<ele>372.0000000</ele>
<time>2014-12-04T11:55:09Z</time>
<extensions>
<tp1:TrackPointExtension>
<tp1:hr>111</tp1:hr>
</tp1:TrackPointExtension>
</extensions>
</trkpt>
<trkpt lat="46.1799446" lon="6.0005212">
<ele>371.6000000</ele>
<time>2014-12-04T11:55:10Z</time>
<extensions>
<tp1:TrackPointExtension>
<tp1:hr>111</tp1:hr>
</tp1:TrackPointExtension>
</extensions>
</trkpt>
<trkpt lat="46.1799123" lon="6.0006426">
<ele>371.0000000</ele>
<time>2014-12-04T11:55:11Z</time>
<extensions>
<tp1:TrackPointExtension>
<tp1:hr>112</tp1:hr>
</tp1:TrackPointExtension>
</extensions>
</trkpt>
<trkpt lat="46.1798798" lon="6.0007480">
<ele>370.6000000</ele>
<time>2014-12-04T11:55:12Z</time>
<extensions>
<tp1:TrackPointExtension>
<tp1:hr>111</tp1:hr>
</tp1:TrackPointExtension>
</extensions>
</trkpt>
<trkpt lat="46.1798436" lon="6.0008632">
<ele>370.0000000</ele>
<time>2014-12-04T11:55:13Z</time>
<extensions>
<tp1:TrackPointExtension>
<tp1:hr>112</tp1:hr>
</tp1:TrackPointExtension>
</extensions>
</trkpt>
<trkpt lat="46.1797670" lon="6.0011911">
<ele>369.6000000</ele>
<time>2014-12-04T11:55:16Z</time>
<extensions>
<tp1:TrackPointExtension>
<tp1:hr>112</tp1:hr>
</tp1:TrackPointExtension>
</extensions>
</trkpt>
<trkpt lat="46.1797499" lon="6.0012992">
<ele>369.2000000</ele>
<time>2014-12-04T11:55:17Z</time>
<extensions>
<tp1:TrackPointExtension>
<tp1:hr>112</tp1:hr>
</tp1:TrackPointExtension>
</extensions>
</trkpt>
<trkpt lat="46.1797454" lon="6.0014096">
<ele>368.8000000</ele>
<time>2014-12-04T11:55:18Z</time>
<extensions>
<tp1:TrackPointExtension>
<tp1:hr>112</tp1:hr>
</tp1:TrackPointExtension>
</extensions>
</trkpt>
<trkpt lat="46.1797552" lon="6.0015249">
<ele>368.4000000</ele>
<time>2014-12-04T11:55:19Z</time>
<extensions>
<tp1:TrackPointExtension>
<tp1:hr>112</tp1:hr>
</tp1:TrackPointExtension>
</extensions>
</trkpt>
<trkpt lat="46.1797786" lon="6.0016403">
<ele>368.0000000</ele>
<time>2014-12-04T11:55:20Z</time>
<extensions>
<tp1:TrackPointExtension>
<tp1:hr>112</tp1:hr>
</tp1:TrackPointExtension>
</extensions>
</trkpt>
<trkpt lat="46.1798026" lon="6.0017553">
<ele>368.0000000</ele>
<time>2014-12-04T11:55:21Z</time>
<extensions>
<tp1:TrackPointExtension>
<tp1:hr>113</tp1:hr>
</tp1:TrackPointExtension>
</extensions>
</trkpt>
<trkpt lat="46.1799208" lon="6.0022887">
<ele>368.0000000</ele>
<time>2014-12-04T11:55:26Z</time>
<extensions>
<tp1:TrackPointExtension>
<tp1:hr>116</tp1:hr>
</tp1:TrackPointExtension>
</extensions>
</trkpt>
<trkpt lat="46.1799505" lon="6.0024933">
<ele>368.0000000</ele>
<time>2014-12-04T11:55:28Z</time>
<extensions>
<tp1:TrackPointExtension>
<tp1:hr>117</tp1:hr>
</tp1:TrackPointExtension>
</extensions>
</trkpt>
<trkpt lat="46.1799529" lon="6.0025949">
<ele>368.0000000</ele>
<time>2014-12-04T11:55:29Z</time>
<extensions>
<tp1:TrackPointExtension>
<tp1:hr>117</tp1:hr>
</tp1:TrackPointExtension>
</extensions>
</trkpt>
<trkpt lat="46.1799355" lon="6.0029144">
<ele>368.0000000</ele>
<time>2014-12-04T11:55:32Z</time>
<extensions>
<tp1:TrackPointExtension>
<tp1:hr>118</tp1:hr>
</tp1:TrackPointExtension>
</extensions>
</trkpt>
<trkpt lat="46.1798673" lon="6.0034363">
<ele>368.0000000</ele>
<time>2014-12-04T11:55:37Z</time>
<extensions>
<tp1:TrackPointExtension>
<tp1:hr>119</tp1:hr>
</tp1:TrackPointExtension>
</extensions>
</trkpt>
<trkpt lat="46.1798318" lon="6.0035203">
<ele>368.0000000</ele>
<time>2014-12-04T11:55:38Z</time>
<extensions>
<tp1:TrackPointExtension>
<tp1:hr>120</tp1:hr>
</tp1:TrackPointExtension>
</extensions>
</trkpt>
<trkpt lat="46.1796434" lon="6.0039349">
<ele>368.0000000</ele>
<time>2014-12-04T11:55:43Z</time>
<extensions>
<tp1:TrackPointExtension>
<tp1:hr>122</tp1:hr>
</tp1:TrackPointExtension>
</extensions>
</trkpt>
<trkpt lat="46.1795347" lon="6.0042566">
<ele>368.0000000</ele>
<time>2014-12-04T11:55:47Z</time>
<extensions>
<tp1:TrackPointExtension>
<tp1:hr>124</tp1:hr>
</tp1:TrackPointExtension>
</extensions>
</trkpt>
<trkpt lat="46.1795015" lon="6.0044272">
<ele>368.0000000</ele>
<time>2014-12-04T11:55:49Z</time>
<extensions>
<tp1:TrackPointExtension>
<tp1:hr>125</tp1:hr>
</tp1:TrackPointExtension>
</extensions>
</trkpt>
<trkpt lat="46.1794896" lon="6.0049579">
<ele>368.0000000</ele>
<time>2014-12-04T11:55:55Z</time>
<extensions>
<tp1:TrackPointExtension>
<tp1:hr>127</tp1:hr>
</tp1:TrackPointExtension>
</extensions>
</trkpt>
<trkpt lat="46.1796140" lon="6.0051818">
<ele>368.0000000</ele>
<time>2014-12-04T11:55:58Z</time>
<extensions>
<tp1:TrackPointExtension>
<tp1:hr>128</tp1:hr>
</tp1:TrackPointExtension>
</extensions>
</trkpt>
<trkpt lat="46.1797203" lon="6.0052937">
<ele>368.4000000</ele>
<time>2014-12-04T11:56:00Z</time>
<extensions>
<tp1:TrackPointExtension>
<tp1:hr>129</tp1:hr>
</tp1:TrackPointExtension>
</extensions>
</trkpt>
<trkpt lat="46.1797786" lon="6.0053453">
<ele>369.0000000</ele>
<time>2014-12-04T11:56:01Z</time>
<extensions>
<tp1:TrackPointExtension>
<tp1:hr>129</tp1:hr>
</tp1:TrackPointExtension>
</extensions>
</trkpt>
<trkpt lat="46.1798391" lon="6.0053813">
<ele>369.4000000</ele>
<time>2014-12-04T11:56:02Z</time>
<extensions>
<tp1:TrackPointExtension>
<tp1:hr>130</tp1:hr>
</tp1:TrackPointExtension>
</extensions>
</trkpt>
<trkpt lat="46.1799026" lon="6.0054166">
<ele>369.8000000</ele>
<time>2014-12-04T11:56:03Z</time>
<extensions>
<tp1:TrackPointExtension>
<tp1:hr>130</tp1:hr>
</tp1:TrackPointExtension>
</extensions>
</trkpt>
<trkpt lat="46.1799662" lon="6.0054460">
<ele>370.2000000</ele>
<time>2014-12-04T11:56:04Z</time>
<extensions>
<tp1:TrackPointExtension>
<tp1:hr>130</tp1:hr>
</tp1:TrackPointExtension>
</extensions>
</trkpt>
<trkpt lat="46.1803141" lon="6.0055667">
<ele>370.2000000</ele>
<time>2014-12-04T11:56:09Z</time>
<extensions>
<tp1:TrackPointExtension>
<tp1:hr>131</tp1:hr>
</tp1:TrackPointExtension>
</extensions>
</trkpt>
<trkpt lat="46.1807737" lon="6.0056775">
<ele>369.8000000</ele>
<time>2014-12-04T11:56:16Z</time>
<extensions>
<tp1:TrackPointExtension>
<tp1:hr>133</tp1:hr>
</tp1:TrackPointExtension>
</extensions>
</trkpt>
<trkpt lat="46.1808475" lon="6.0056951">
<ele>369.4000000</ele>
<time>2014-12-04T11:56:17Z</time>
<extensions>
<tp1:TrackPointExtension>
<tp1:hr>133</tp1:hr>
</tp1:TrackPointExtension>
</extensions>
</trkpt>
<trkpt lat="46.1809186" lon="6.0057118">
<ele>369.0000000</ele>
<time>2014-12-04T11:56:18Z</time>
<extensions>
<tp1:TrackPointExtension>
<tp1:hr>133</tp1:hr>
</tp1:TrackPointExtension>
</extensions>
</trkpt>
<trkpt lat="46.1809905" lon="6.0057262">
<ele>368.6000000</ele>
<time>2014-12-04T11:56:19Z</time>
<extensions>
<tp1:TrackPointExtension>
<tp1:hr>133</tp1:hr>
</tp1:TrackPointExtension>
</extensions>
</trkpt>
<trkpt lat="46.1810604" lon="6.0057422">
<ele>368.0000000</ele>
<time>2014-12-04T11:56:20Z</time>
<extensions>
<tp1:TrackPointExtension>
<tp1:hr>133</tp1:hr>
</tp1:TrackPointExtension>
</extensions>
</trkpt>
<trkpt lat="46.1815748" lon="6.0058456">
<ele>368.0000000</ele>
<time>2014-12-04T11:56:28Z</time>
<extensions>
<tp1:TrackPointExtension>
<tp1:hr>134</tp1:hr>
</tp1:TrackPointExtension>
</extensions>
</trkpt>
<trkpt lat="46.1821411" lon="6.0059349">
<ele>368.0000000</ele>
<time>2014-12-04T11:56:37Z</time>
<extensions>
<tp1:TrackPointExtension>
<tp1:hr>134</tp1:hr>
</tp1:TrackPointExtension>
</extensions>
</trkpt>
<trkpt lat="46.1826352" lon="6.0060688">
<ele>368.0000000</ele>
<time>2014-12-04T11:56:45Z</time>
<extensions>
<tp1:TrackPointExtension>
<tp1:hr>135</tp1:hr>
</tp1:TrackPointExtension>
</extensions>
</trkpt>
<trkpt lat="46.1826979" lon="6.0060673">
<ele>368.0000000</ele>
<time>2014-12-04T11:56:46Z</time>
<extensions>
<tp1:TrackPointExtension>
<tp1:hr>135</tp1:hr>
</tp1:TrackPointExtension>
</extensions>
</trkpt>
<trkpt lat="46.1831737" lon="6.0060529">
<ele>368.0000000</ele>
<time>2014-12-04T11:56:54Z</time>
<extensions>
<tp1:TrackPointExtension>
<tp1:hr>132</tp1:hr>
</tp1:TrackPointExtension>
</extensions>
</trkpt>
<trkpt lat="46.1832361" lon="6.0060468">
<ele>368.0000000</ele>
<time>2014-12-04T11:56:55Z</time>
<extensions>
<tp1:TrackPointExtension>
<tp1:hr>132</tp1:hr>
</tp1:TrackPointExtension>
</extensions>
</trkpt>
<trkpt lat="46.1833670" lon="6.0060320">
<ele>367.6000000</ele>
<time>2014-12-04T11:56:57Z</time>
<extensions>
<tp1:TrackPointExtension>
<tp1:hr>132</tp1:hr>
</tp1:TrackPointExtension>
</extensions>
</trkpt>
<trkpt lat="46.1834337" lon="6.0060370">
<ele>367.2000000</ele>
<time>2014-12-04T11:56:58Z</time>
<extensions>
<tp1:TrackPointExtension>
<tp1:hr>131</tp1:hr>
</tp1:TrackPointExtension>
</extensions>
</trkpt>
<trkpt lat="46.1835000" lon="6.0060557">
<ele>366.6000000</ele>
<time>2014-12-04T11:56:59Z</time>
<extensions>
<tp1:TrackPointExtension>
<tp1:hr>131</tp1:hr>
</tp1:TrackPointExtension>
</extensions>
</trkpt>
<trkpt lat="46.1835674" lon="6.0060914">
<ele>366.2000000</ele>
<time>2014-12-04T11:57:00Z</time>
<extensions>
<tp1:TrackPointExtension>
<tp1:hr>130</tp1:hr>
</tp1:TrackPointExtension>
</extensions>
</trkpt>
<trkpt lat="46.1836324" lon="6.0061362">
<ele>365.8000000</ele>
<time>2014-12-04T11:57:01Z</time>
<extensions>
<tp1:TrackPointExtension>
<tp1:hr>129</tp1:hr>
</tp1:TrackPointExtension>
</extensions>
</trkpt>
<trkpt lat="46.1838315" lon="6.0062432">
<ele>365.4000000</ele>
<time>2014-12-04T11:57:04Z</time>
<extensions>
<tp1:TrackPointExtension>
<tp1:hr>127</tp1:hr>
</tp1:TrackPointExtension>
</extensions>
</trkpt>
<trkpt lat="46.1839026" lon="6.0062573">
<ele>365.0000000</ele>
<time>2014-12-04T11:57:05Z</time>
<extensions>
<tp1:TrackPointExtension>
<tp1:hr>127</tp1:hr>
</tp1:TrackPointExtension>
</extensions>
</trkpt>
<trkpt lat="46.1839758" lon="6.0062659">
<ele>364.6000000</ele>
<time>2014-12-04T11:57:06Z</time>
<extensions>
<tp1:TrackPointExtension>
<tp1:hr>127</tp1:hr>
</tp1:TrackPointExtension>
</extensions>
</trkpt>
<trkpt lat="46.1840382" lon="6.0062706">
<ele>364.2000000</ele>
<time>2014-12-04T11:57:07Z</time>
<extensions>
<tp1:TrackPointExtension>
<tp1:hr>126</tp1:hr>
</tp1:TrackPointExtension>
</extensions>
</trkpt>
<trkpt lat="46.1840903" lon="6.0062728">
<ele>363.8000000</ele>
<time>2014-12-04T11:57:08Z</time>
<extensions>
<tp1:TrackPointExtension>
<tp1:hr>126</tp1:hr>
</tp1:TrackPointExtension>
</extensions>
</trkpt>
<trkpt lat="46.1841321" lon="6.0062834">
<ele>363.8000000</ele>
<time>2014-12-04T11:57:09Z</time>
<extensions>
<tp1:TrackPointExtension>
<tp1:hr>125</tp1:hr>
</tp1:TrackPointExtension>
</extensions>
</trkpt>
<trkpt lat="46.1841789" lon="6.0064097">
<ele>363.8000000</ele>
<time>2014-12-04T11:57:12Z</time>
<extensions>
<tp1:TrackPointExtension>
<tp1:hr>122</tp1:hr>
</tp1:TrackPointExtension>
</extensions>
</trkpt>
<trkpt lat="46.1841493" lon="6.0065212">
<ele>363.2000000</ele>
<time>2014-12-04T11:57:14Z</time>
<extensions>
<tp1:TrackPointExtension>
<tp1:hr>121</tp1:hr>
</tp1:TrackPointExtension>
</extensions>
</trkpt>
<trkpt lat="46.1841167" lon="6.0065663">
<ele>362.8000000</ele>
<time>2014-12-04T11:57:15Z</time>
<extensions>
<tp1:TrackPointExtension>
<tp1:hr>120</tp1:hr>
</tp1:TrackPointExtension>
</extensions>
</trkpt>
<trkpt lat="46.1840825" lon="6.0066172">
<ele>362.2000000</ele>
<time>2014-12-04T11:57:16Z</time>
<extensions>
<tp1:TrackPointExtension>
<tp1:hr>120</tp1:hr>
</tp1:TrackPointExtension>
</extensions>
</trkpt>
<trkpt lat="46.1840524" lon="6.0066778">
<ele>361.8000000</ele>
<time>2014-12-04T11:57:17Z</time>
<extensions>
<tp1:TrackPointExtension>
<tp1:hr>119</tp1:hr>
</tp1:TrackPointExtension>
</extensions>
</trkpt>
<trkpt lat="46.1840290" lon="6.0067503">
<ele>361.4000000</ele>
<time>2014-12-04T11:57:18Z</time>
<extensions>
<tp1:TrackPointExtension>
<tp1:hr>119</tp1:hr>
</tp1:TrackPointExtension>
</extensions>
</trkpt>
<trkpt lat="46.1840066" lon="6.0069246">
<ele>361.0000000</ele>
<time>2014-12-04T11:57:20Z</time>
<extensions>
<tp1:TrackPointExtension>
<tp1:hr>118</tp1:hr>
</tp1:TrackPointExtension>
</extensions>
</trkpt>
<trkpt lat="46.1840066" lon="6.0070326">
<ele>360.4000000</ele>
<time>2014-12-04T11:57:21Z</time>
<extensions>
<tp1:TrackPointExtension>
<tp1:hr>118</tp1:hr>
</tp1:TrackPointExtension>
</extensions>
</trkpt>
<trkpt lat="46.1840261" lon="6.0071310">
<ele>360.0000000</ele>
<time>2014-12-04T11:57:22Z</time>
<extensions>
<tp1:TrackPointExtension>
<tp1:hr>119</tp1:hr>
</tp1:TrackPointExtension>
</extensions>
</trkpt>
<trkpt lat="46.1840581" lon="6.0072248">
<ele>359.6000000</ele>
<time>2014-12-04T11:57:23Z</time>
<extensions>
<tp1:TrackPointExtension>
<tp1:hr>119</tp1:hr>
</tp1:TrackPointExtension>
</extensions>
</trkpt>
<trkpt lat="46.1840988" lon="6.0073153">
<ele>359.0000000</ele>
<time>2014-12-04T11:57:24Z</time>
<extensions>
<tp1:TrackPointExtension>
<tp1:hr>119</tp1:hr>
</tp1:TrackPointExtension>
</extensions>
</trkpt>
<trkpt lat="46.1841514" lon="6.0073984">
<ele>358.2000000</ele>
<time>2014-12-04T11:57:25Z</time>
<extensions>
<tp1:TrackPointExtension>
<tp1:hr>119</tp1:hr>
</tp1:TrackPointExtension>
</extensions>
</trkpt>
<trkpt lat="46.1842086" lon="6.0074784">
<ele>357.6000000</ele>
<time>2014-12-04T11:57:26Z</time>
<extensions>
<tp1:TrackPointExtension>
<tp1:hr>119</tp1:hr>
</tp1:TrackPointExtension>
</extensions>
</trkpt>
<trkpt lat="46.1842696" lon="6.0075442">
<ele>357.0000000</ele>
<time>2014-12-04T11:57:27Z</time>
<extensions>
<tp1:TrackPointExtension>
<tp1:hr>119</tp1:hr>
</tp1:TrackPointExtension>
</extensions>
</trkpt>
<trkpt lat="46.1843355" lon="6.0076181">
<ele>356.4000000</ele>
<time>2014-12-04T11:57:28Z</time>
<extensions>
<tp1:TrackPointExtension>
<tp1:hr>118</tp1:hr>
</tp1:TrackPointExtension>
</extensions>
</trkpt>
<trkpt lat="46.1844715" lon="6.0077530">
<ele>355.0000000</ele>
<time>2014-12-04T11:57:30Z</time>
<extensions>
<tp1:TrackPointExtension>
<tp1:hr>118</tp1:hr>
</tp1:TrackPointExtension>
</extensions>
</trkpt>
<trkpt lat="46.1845395" lon="6.0078228">
<ele>354.4000000</ele>
<time>2014-12-04T11:57:31Z</time>
<extensions>
<tp1:TrackPointExtension>
<tp1:hr>117</tp1:hr>
</tp1:TrackPointExtension>
</extensions>
</trkpt>
<trkpt lat="46.1846088" lon="6.0078970">
<ele>353.8000000</ele>
<time>2014-12-04T11:57:32Z</time>
<extensions>
<tp1:TrackPointExtension>
<tp1:hr>117</tp1:hr>
</tp1:TrackPointExtension>
</extensions>
</trkpt>
<trkpt lat="46.1848610" lon="6.0081341">
<ele>353.8000000</ele>
<time>2014-12-04T11:57:36Z</time>
<extensions>
<tp1:TrackPointExtension>
<tp1:hr>116</tp1:hr>
</tp1:TrackPointExtension>
</extensions>
</trkpt>
<trkpt lat="46.1849498" lon="6.0082331">
<ele>353.8000000</ele>
<time>2014-12-04T11:57:38Z</time>
<extensions>
<tp1:TrackPointExtension>
<tp1:hr>116</tp1:hr>
</tp1:TrackPointExtension>
</extensions>
</trkpt>
<trkpt lat="46.1849751" lon="6.0082921">
<ele>353.8000000</ele>
<time>2014-12-04T11:57:39Z</time>
<extensions>
<tp1:TrackPointExtension>
<tp1:hr>116</tp1:hr>
</tp1:TrackPointExtension>
</extensions>
</trkpt>
<trkpt lat="46.1849474" lon="6.0084165">
<ele>353.8000000</ele>
<time>2014-12-04T11:57:41Z</time>
<extensions>
<tp1:TrackPointExtension>
<tp1:hr>115</tp1:hr>
</tp1:TrackPointExtension>
</extensions>
</trkpt>
<trkpt lat="46.1848978" lon="6.0084465">
<ele>353.4000000</ele>
<time>2014-12-04T11:57:42Z</time>
<extensions>
<tp1:TrackPointExtension>
<tp1:hr>115</tp1:hr>
</tp1:TrackPointExtension>
</extensions>
</trkpt>
<trkpt lat="46.1848420" lon="6.0084494">
<ele>353.0000000</ele>
<time>2014-12-04T11:57:43Z</time>
<extensions>
<tp1:TrackPointExtension>
<tp1:hr>115</tp1:hr>
</tp1:TrackPointExtension>
</extensions>
</trkpt>
<trkpt lat="46.1847829" lon="6.0084270">
<ele>352.0000000</ele>
<time>2014-12-04T11:57:44Z</time>
<extensions>
<tp1:TrackPointExtension>
<tp1:hr>115</tp1:hr>
</tp1:TrackPointExtension>
</extensions>
</trkpt>
<trkpt lat="46.1847235" lon="6.0083963">
<ele>352.0000000</ele>
<time>2014-12-04T11:57:45Z</time>
<extensions>
<tp1:TrackPointExtension>
<tp1:hr>115</tp1:hr>
</tp1:TrackPointExtension>
</extensions>
</trkpt>
<trkpt lat="46.1846652" lon="6.0083624">
<ele>351.6000000</ele>
<time>2014-12-04T11:57:46Z</time>
<extensions>
<tp1:TrackPointExtension>
<tp1:hr>115</tp1:hr>
</tp1:TrackPointExtension>
</extensions>
</trkpt>
<trkpt lat="46.1846054" lon="6.0083282">
<ele>351.2000000</ele>
<time>2014-12-04T11:57:47Z</time>
<extensions>
<tp1:TrackPointExtension>
<tp1:hr>115</tp1:hr>
</tp1:TrackPointExtension>
</extensions>
</trkpt>
<trkpt lat="46.1845420" lon="6.0082893">
<ele>350.8000000</ele>
<time>2014-12-04T11:57:48Z</time>
<extensions>
<tp1:TrackPointExtension>
<tp1:hr>116</tp1:hr>
</tp1:TrackPointExtension>
</extensions>
</trkpt>
<trkpt lat="46.1844810" lon="6.0082536">
<ele>350.2000000</ele>
<time>2014-12-04T11:57:49Z</time>
<extensions>
<tp1:TrackPointExtension>
<tp1:hr>116</tp1:hr>
</tp1:TrackPointExtension>
</extensions>
</trkpt>
<trkpt lat="46.1844197" lon="6.0082211">
<ele>349.8000000</ele>
<time>2014-12-04T11:57:50Z</time>
<extensions>
<tp1:TrackPointExtension>
<tp1:hr>117</tp1:hr>
</tp1:TrackPointExtension>
</extensions>
</trkpt>
<trkpt lat="46.1843545" lon="6.0081862">
<ele>349.4000000</ele>
<time>2014-12-04T11:57:51Z</time>
<extensions>
<tp1:TrackPointExtension>
<tp1:hr>118</tp1:hr>
</tp1:TrackPointExtension>
</extensions>
</trkpt>
<trkpt lat="46.1841622" lon="6.0080764">
<ele>349.4000000</ele>
<time>2014-12-04T11:57:54Z</time>
<extensions>
<tp1:TrackPointExtension>
<tp1:hr>117</tp1:hr>
</tp1:TrackPointExtension>
</extensions>
</trkpt>
<trkpt lat="46.1836424" lon="6.0078580">
<ele>349.4000000</ele>
<time>2014-12-04T11:58:02Z</time>
<extensions>
<tp1:TrackPointExtension>
<tp1:hr>117</tp1:hr>
</tp1:TrackPointExtension>
</extensions>
</trkpt>
<trkpt lat="46.1835747" lon="6.0078435">
<ele>349.4000000</ele>
<time>2014-12-04T11:58:03Z</time>
<extensions>
<tp1:TrackPointExtension>
<tp1:hr>117</tp1:hr>
</tp1:TrackPointExtension>
</extensions>
</trkpt>
<trkpt lat="46.1832939" lon="6.0077865">
<ele>349.0000000</ele>
<time>2014-12-04T11:58:07Z</time>
<extensions>
<tp1:TrackPointExtension>
<tp1:hr>117</tp1:hr>
</tp1:TrackPointExtension>
</extensions>
</trkpt>
<trkpt lat="46.1832144" lon="6.0077723">
<ele>348.6000000</ele>
<time>2014-12-04T11:58:08Z</time>
<extensions>
<tp1:TrackPointExtension>
<tp1:hr>117</tp1:hr>
</tp1:TrackPointExtension>
</extensions>
</trkpt>
<trkpt lat="46.1831366" lon="6.0077576">
<ele>348.2000000</ele>
<time>2014-12-04T11:58:09Z</time>
<extensions>
<tp1:TrackPointExtension>
<tp1:hr>117</tp1:hr>
</tp1:TrackPointExtension>
</extensions>
</trkpt>
<trkpt lat="46.1830599" lon="6.0077444">
<ele>347.8000000</ele>
<time>2014-12-04T11:58:10Z</time>
<extensions>
<tp1:TrackPointExtension>
<tp1:hr>118</tp1:hr>
</tp1:TrackPointExtension>
</extensions>
</trkpt>
<trkpt lat="46.1829805" lon="6.0077350">
<ele>347.4000000</ele>
<time>2014-12-04T11:58:11Z</time>
<extensions>
<tp1:TrackPointExtension>
<tp1:hr>119</tp1:hr>
</tp1:TrackPointExtension>
</extensions>
</trkpt>
<trkpt lat="46.1825066" lon="6.0077322">
<ele>347.4000000</ele>
<time>2014-12-04T11:58:17Z</time>
<extensions>
<tp1:TrackPointExtension>
<tp1:hr>121</tp1:hr>
</tp1:TrackPointExtension>
</extensions>
</trkpt>
<trkpt lat="46.1821767" lon="6.0077218">
<ele>347.0000000</ele>
<time>2014-12-04T11:58:21Z</time>
<extensions>
<tp1:TrackPointExtension>
<tp1:hr>122</tp1:hr>
</tp1:TrackPointExtension>
</extensions>
</trkpt>
<trkpt lat="46.1820939" lon="6.0077001">
<ele>346.4000000</ele>
<time>2014-12-04T11:58:22Z</time>
<extensions>
<tp1:TrackPointExtension>
<tp1:hr>122</tp1:hr>
</tp1:TrackPointExtension>
</extensions>
</trkpt>
<trkpt lat="46.1820117" lon="6.0076700">
<ele>346.0000000</ele>
<time>2014-12-04T11:58:23Z</time>
<extensions>
<tp1:TrackPointExtension>
<tp1:hr>122</tp1:hr>
</tp1:TrackPointExtension>
</extensions>
</trkpt>
<trkpt lat="46.1819326" lon="6.0076365">
<ele>345.6000000</ele>
<time>2014-12-04T11:58:24Z</time>
<extensions>
<tp1:TrackPointExtension>
<tp1:hr>122</tp1:hr>
</tp1:TrackPointExtension>
</extensions>
</trkpt>
<trkpt lat="46.1818537" lon="6.0075941">
<ele>345.0000000</ele>
<time>2014-12-04T11:58:25Z</time>
<extensions>
<tp1:TrackPointExtension>
<tp1:hr>123</tp1:hr>
</tp1:TrackPointExtension>
</extensions>
</trkpt>
<trkpt lat="46.1816337" lon="6.0074494">
<ele>345.0000000</ele>
<time>2014-12-04T11:58:28Z</time>
<extensions>
<tp1:TrackPointExtension>
<tp1:hr>123</tp1:hr>
</tp1:TrackPointExtension>
</extensions>
</trkpt>
<trkpt lat="46.1813332" lon="6.0072469">
<ele>344.6000000</ele>
<time>2014-12-04T11:58:32Z</time>
<extensions>
<tp1:TrackPointExtension>
<tp1:hr>124</tp1:hr>
</tp1:TrackPointExtension>
</extensions>
</trkpt>
<trkpt lat="46.1812585" lon="6.0072025">
<ele>344.2000000</ele>
<time>2014-12-04T11:58:33Z</time>
<extensions>
<tp1:TrackPointExtension>
<tp1:hr>124</tp1:hr>
</tp1:TrackPointExtension>
</extensions>
</trkpt>
<trkpt lat="46.1811787" lon="6.0071637">
<ele>343.8000000</ele>
<time>2014-12-04T11:58:34Z</time>
<extensions>
<tp1:TrackPointExtension>
<tp1:hr>124</tp1:hr>
</tp1:TrackPointExtension>
</extensions>
</trkpt>
<trkpt lat="46.1811002" lon="6.0071298">
<ele>343.4000000</ele>
<time>2014-12-04T11:58:35Z</time>
<extensions>
<tp1:TrackPointExtension>
<tp1:hr>124</tp1:hr>
</tp1:TrackPointExtension>
</extensions>
</trkpt>
<trkpt lat="46.1810254" lon="6.0070996">
<ele>343.0000000</ele>
<time>2014-12-04T11:58:36Z</time>
<extensions>
<tp1:TrackPointExtension>
<tp1:hr>124</tp1:hr>
</tp1:TrackPointExtension>
</extensions>
</trkpt>
<trkpt lat="46.1805536" lon="6.0069228">
<ele>343.0000000</ele>
<time>2014-12-04T11:58:42Z</time>
<extensions>
<tp1:TrackPointExtension>
<tp1:hr>125</tp1:hr>
</tp1:TrackPointExtension>
</extensions>
</trkpt>
<trkpt lat="46.1800086" lon="6.0067407">
<ele>343.0000000</ele>
<time>2014-12-04T11:58:49Z</time>
<extensions>
<tp1:TrackPointExtension>
<tp1:hr>126</tp1:hr>
</tp1:TrackPointExtension>
</extensions>
</trkpt>
<trkpt lat="46.1795561" lon="6.0065827">
<ele>343.0000000</ele>
<time>2014-12-04T11:58:55Z</time>
<extensions>
<tp1:TrackPointExtension>
<tp1:hr>126</tp1:hr>
</tp1:TrackPointExtension>
</extensions>
</trkpt>
<trkpt lat="46.1790986" lon="6.0064626">
<ele>343.0000000</ele>
<time>2014-12-04T11:59:02Z</time>
<extensions>
<tp1:TrackPointExtension>
<tp1:hr>126</tp1:hr>
</tp1:TrackPointExtension>
</extensions>
</trkpt>
<trkpt lat="46.1788668" lon="6.0065160">
<ele>343.0000000</ele>
<time>2014-12-04T11:59:06Z</time>
<extensions>
<tp1:TrackPointExtension>
<tp1:hr>127</tp1:hr>
</tp1:TrackPointExtension>
</extensions>
</trkpt>
<trkpt lat="46.1786722" lon="6.0064692">
<ele>343.0000000</ele>
<time>2014-12-04T11:59:09Z</time>
<extensions>
<tp1:TrackPointExtension>
<tp1:hr>127</tp1:hr>
</tp1:TrackPointExtension>
</extensions>
</trkpt>
<trkpt lat="46.1785666" lon="6.0063894">
<ele>343.0000000</ele>
<time>2014-12-04T11:59:11Z</time>
<extensions>
<tp1:TrackPointExtension>
<tp1:hr>128</tp1:hr>
</tp1:TrackPointExtension>
</extensions>
</trkpt>
<trkpt lat="46.1784111" lon="6.0062564">
<ele>343.0000000</ele>
<time>2014-12-04T11:59:14Z</time>
<extensions>
<tp1:TrackPointExtension>
<tp1:hr>128</tp1:hr>
</tp1:TrackPointExtension>
</extensions>
</trkpt>
<trkpt lat="46.1781741" lon="6.0059864">
<ele>343.0000000</ele>
<time>2014-12-04T11:59:19Z</time>
<extensions>
<tp1:TrackPointExtension>
<tp1:hr>128</tp1:hr>
</tp1:TrackPointExtension>
</extensions>
</trkpt>
<trkpt lat="46.1781387" lon="6.0059125">
<ele>343.0000000</ele>
<time>2014-12-04T11:59:20Z</time>
<extensions>
<tp1:TrackPointExtension>
<tp1:hr>128</tp1:hr>
</tp1:TrackPointExtension>
</extensions>
</trkpt>
<trkpt lat="46.1780663" lon="6.0056574">
<ele>343.0000000</ele>
<time>2014-12-04T11:59:23Z</time>
<extensions>
<tp1:TrackPointExtension>
<tp1:hr>128</tp1:hr>
</tp1:TrackPointExtension>
</extensions>
</trkpt>
<trkpt lat="46.1780536" lon="6.0055724">
<ele>343.0000000</ele>
<time>2014-12-04T11:59:24Z</time>
<extensions>
<tp1:TrackPointExtension>
<tp1:hr>128</tp1:hr>
</tp1:TrackPointExtension>
</extensions>
</trkpt>
<trkpt lat="46.1779803" lon="6.0048796">
<ele>343.0000000</ele>
<time>2014-12-04T11:59:32Z</time>
<extensions>
<tp1:TrackPointExtension>
<tp1:hr>128</tp1:hr>
</tp1:TrackPointExtension>
</extensions>
</trkpt>
<trkpt lat="46.1779408" lon="6.0040971">
<ele>343.0000000</ele>
<time>2014-12-04T11:59:41Z</time>
<extensions>
<tp1:TrackPointExtension>
<tp1:hr>129</tp1:hr>
</tp1:TrackPointExtension>
</extensions>
</trkpt>
<trkpt lat="46.1779337" lon="6.0034009">
<ele>343.0000000</ele>
<time>2014-12-04T11:59:49Z</time>
<extensions>
<tp1:TrackPointExtension>
<tp1:hr>129</tp1:hr>
</tp1:TrackPointExtension>
</extensions>
</trkpt>
<trkpt lat="46.1779232" lon="6.0025737">
<ele>343.0000000</ele>
<time>2014-12-04T11:59:58Z</time>
<extensions>
<tp1:TrackPointExtension>
<tp1:hr>129</tp1:hr>
</tp1:TrackPointExtension>
</extensions>
</trkpt>
<trkpt lat="46.1779131" lon="6.0023852">
<ele>343.0000000</ele>
<time>2014-12-04T12:00:00Z</time>
<extensions>
<tp1:TrackPointExtension>
<tp1:hr>129</tp1:hr>
</tp1:TrackPointExtension>
</extensions>
</trkpt>
<trkpt lat="46.1779036" lon="6.0021041">
<ele>343.0000000</ele>
<time>2014-12-04T12:00:03Z</time>
<extensions>
<tp1:TrackPointExtension>
<tp1:hr>129</tp1:hr>
</tp1:TrackPointExtension>
</extensions>
</trkpt>
<trkpt lat="46.1779176" lon="6.0018143">
<ele>343.0000000</ele>
<time>2014-12-04T12:00:06Z</time>
<extensions>
<tp1:TrackPointExtension>
<tp1:hr>129</tp1:hr>
</tp1:TrackPointExtension>
</extensions>
</trkpt>
<trkpt lat="46.1779112" lon="6.0012635">
<ele>343.0000000</ele>
<time>2014-12-04T12:00:12Z</time>
<extensions>
<tp1:TrackPointExtension>
<tp1:hr>129</tp1:hr>
</tp1:TrackPointExtension>
</extensions>
</trkpt>
<trkpt lat="46.1778895" lon="6.0010226">
<ele>343.0000000</ele>
<time>2014-12-04T12:00:15Z</time>
<extensions>
<tp1:TrackPointExtension>
<tp1:hr>128</tp1:hr>
</tp1:TrackPointExtension>
</extensions>
</trkpt>
<trkpt lat="46.1778146" lon="6.0009287">
<ele>343.0000000</ele>
<time>2014-12-04T12:00:17Z</time>
<extensions>
<tp1:TrackPointExtension>
<tp1:hr>126</tp1:hr>
</tp1:TrackPointExtension>
</extensions>
</trkpt>
<trkpt lat="46.1776313" lon="6.0009218">
<ele>343.0000000</ele>
<time>2014-12-04T12:00:20Z</time>
<extensions>
<tp1:TrackPointExtension>
<tp1:hr>126</tp1:hr>
</tp1:TrackPointExtension>
</extensions>
</trkpt>
<trkpt lat="46.1772471" lon="6.0009984">
<ele>343.0000000</ele>
<time>2014-12-04T12:00:26Z</time>
<extensions>
<tp1:TrackPointExtension>
<tp1:hr>126</tp1:hr>
</tp1:TrackPointExtension>
</extensions>
</trkpt>
<trkpt lat="46.1771221" lon="6.0010064">
<ele>343.0000000</ele>
<time>2014-12-04T12:00:28Z</time>
<extensions>
<tp1:TrackPointExtension>
<tp1:hr>127</tp1:hr>
</tp1:TrackPointExtension>
</extensions>
</trkpt>
<trkpt lat="46.1769412" lon="6.0009761">
<ele>343.0000000</ele>
<time>2014-12-04T12:00:31Z</time>
<extensions>
<tp1:TrackPointExtension>
<tp1:hr>128</tp1:hr>
</tp1:TrackPointExtension>
</extensions>
</trkpt>
<trkpt lat="46.1763800" lon="6.0007769">
<ele>343.0000000</ele>
<time>2014-12-04T12:00:41Z</time>
<extensions>
<tp1:TrackPointExtension>
<tp1:hr>128</tp1:hr>
</tp1:TrackPointExtension>
</extensions>
</trkpt>
<trkpt lat="46.1758711" lon="6.0005700">
<ele>343.0000000</ele>
<time>2014-12-04T12:00:51Z</time>
<extensions>
<tp1:TrackPointExtension>
<tp1:hr>128</tp1:hr>
</tp1:TrackPointExtension>
</extensions>
</trkpt>
<trkpt lat="46.1754302" lon="6.0003736">
<ele>343.0000000</ele>
<time>2014-12-04T12:01:00Z</time>
<extensions>
<tp1:TrackPointExtension>
<tp1:hr>127</tp1:hr>
</tp1:TrackPointExtension>
</extensions>
</trkpt>
<trkpt lat="46.1753578" lon="6.0002088">
<ele>343.0000000</ele>
<time>2014-12-04T12:01:03Z</time>
<extensions>
<tp1:TrackPointExtension>
<tp1:hr>126</tp1:hr>
</tp1:TrackPointExtension>
</extensions>
</trkpt>
<trkpt lat="46.1753747" lon="6.0000037">
<ele>343.0000000</ele>
<time>2014-12-04T12:01:06Z</time>
<extensions>
<tp1:TrackPointExtension>
<tp1:hr>126</tp1:hr>
</tp1:TrackPointExtension>
</extensions>
</trkpt>
<trkpt lat="46.1753937" lon="5.9998727">
<ele>343.0000000</ele>
<time>2014-12-04T12:01:08Z</time>
<extensions>
<tp1:TrackPointExtension>
<tp1:hr>126</tp1:hr>
</tp1:TrackPointExtension>
</extensions>
</trkpt>
<trkpt lat="46.1754025" lon="5.9998034">
<ele>343.4000000</ele>
<time>2014-12-04T12:01:09Z</time>
<extensions>
<tp1:TrackPointExtension>
<tp1:hr>126</tp1:hr>
</tp1:TrackPointExtension>
</extensions>
</trkpt>
<trkpt lat="46.1754077" lon="5.9997361">
<ele>343.8000000</ele>
<time>2014-12-04T12:01:10Z</time>
<extensions>
<tp1:TrackPointExtension>
<tp1:hr>127</tp1:hr>
</tp1:TrackPointExtension>
</extensions>
</trkpt>
<trkpt lat="46.1754146" lon="5.9996708">
<ele>344.2000000</ele>
<time>2014-12-04T12:01:11Z</time>
<extensions>
<tp1:TrackPointExtension>
<tp1:hr>127</tp1:hr>
</tp1:TrackPointExtension>
</extensions>
</trkpt>
<trkpt lat="46.1754239" lon="5.9996059">
<ele>344.6000000</ele>
<time>2014-12-04T12:01:12Z</time>
<extensions>
<tp1:TrackPointExtension>
<tp1:hr>127</tp1:hr>
</tp1:TrackPointExtension>
</extensions>
</trkpt>
<trkpt lat="46.1754307" lon="5.9995429">
<ele>345.0000000</ele>
<time>2014-12-04T12:01:13Z</time>
<extensions>
<tp1:TrackPointExtension>
<tp1:hr>128</tp1:hr>
</tp1:TrackPointExtension>
</extensions>
</trkpt>
<trkpt lat="46.1754780" lon="5.9992440">
<ele>345.0000000</ele>
<time>2014-12-04T12:01:18Z</time>
<extensions>
<tp1:TrackPointExtension>
<tp1:hr>129</tp1:hr>
</tp1:TrackPointExtension>
</extensions>
</trkpt>
<trkpt lat="46.1755167" lon="5.9990040">
<ele>345.4000000</ele>
<time>2014-12-04T12:01:22Z</time>
<extensions>
<tp1:TrackPointExtension>
<tp1:hr>129</tp1:hr>
</tp1:TrackPointExtension>
</extensions>
</trkpt>
<trkpt lat="46.1755283" lon="5.9989457">
<ele>346.0000000</ele>
<time>2014-12-04T12:01:23Z</time>
<extensions>
<tp1:TrackPointExtension>
<tp1:hr>129</tp1:hr>
</tp1:TrackPointExtension>
</extensions>
</trkpt>
<trkpt lat="46.1755395" lon="5.9988874">
<ele>346.4000000</ele>
<time>2014-12-04T12:01:24Z</time>
<extensions>
<tp1:TrackPointExtension>
<tp1:hr>129</tp1:hr>
</tp1:TrackPointExtension>
</extensions>
</trkpt>
<trkpt lat="46.1755507" lon="5.9988303">
<ele>346.8000000</ele>
<time>2014-12-04T12:01:25Z</time>
<extensions>
<tp1:TrackPointExtension>
<tp1:hr>129</tp1:hr>
</tp1:TrackPointExtension>
</extensions>
</trkpt>
<trkpt lat="46.1755611" lon="5.9987688">
<ele>347.4000000</ele>
<time>2014-12-04T12:01:26Z</time>
<extensions>
<tp1:TrackPointExtension>
<tp1:hr>130</tp1:hr>
</tp1:TrackPointExtension>
</extensions>
</trkpt>
<trkpt lat="46.1755893" lon="5.9985835">
<ele>347.4000000</ele>
<time>2014-12-04T12:01:29Z</time>
<extensions>
<tp1:TrackPointExtension>
<tp1:hr>130</tp1:hr>
</tp1:TrackPointExtension>
</extensions>
</trkpt>
<trkpt lat="46.1756540" lon="5.9983207">
<ele>347.8000000</ele>
<time>2014-12-04T12:01:34Z</time>
<extensions>
<tp1:TrackPointExtension>
<tp1:hr>131</tp1:hr>
</tp1:TrackPointExtension>
</extensions>
</trkpt>
<trkpt lat="46.1756692" lon="5.9982630">
<ele>348.2000000</ele>
<time>2014-12-04T12:01:35Z</time>
<extensions>
<tp1:TrackPointExtension>
<tp1:hr>131</tp1:hr>
</tp1:TrackPointExtension>
</extensions>
</trkpt>
<trkpt lat="46.1756789" lon="5.9982019">
<ele>348.6000000</ele>
<time>2014-12-04T12:01:36Z</time>
<extensions>
<tp1:TrackPointExtension>
<tp1:hr>131</tp1:hr>
</tp1:TrackPointExtension>
</extensions>
</trkpt>
<trkpt lat="46.1756881" lon="5.9981374">
<ele>349.2000000</ele>
<time>2014-12-04T12:01:37Z</time>
<extensions>
<tp1:TrackPointExtension>
<tp1:hr>131</tp1:hr>
</tp1:TrackPointExtension>
</extensions>
</trkpt>
<trkpt lat="46.1756932" lon="5.9980692">
<ele>349.6000000</ele>
<time>2014-12-04T12:01:38Z</time>
<extensions>
<tp1:TrackPointExtension>
<tp1:hr>131</tp1:hr>
</tp1:TrackPointExtension>
</extensions>
</trkpt>
<trkpt lat="46.1756951" lon="5.9979429">
<ele>349.6000000</ele>
<time>2014-12-04T12:01:40Z</time>
<extensions>
<tp1:TrackPointExtension>
<tp1:hr>132</tp1:hr>
</tp1:TrackPointExtension>
</extensions>
</trkpt>
<trkpt lat="46.1756886" lon="5.9978709">
<ele>349.6000000</ele>
<time>2014-12-04T12:01:41Z</time>
<extensions>
<tp1:TrackPointExtension>
<tp1:hr>132</tp1:hr>
</tp1:TrackPointExtension>
</extensions>
</trkpt>
<trkpt lat="46.1756750" lon="5.9977949">
<ele>349.6000000</ele>
<time>2014-12-04T12:01:42Z</time>
<extensions>
<tp1:TrackPointExtension>
<tp1:hr>132</tp1:hr>
</tp1:TrackPointExtension>
</extensions>
</trkpt>
<trkpt lat="46.1755741" lon="5.9976457">
<ele>349.6000000</ele>
<time>2014-12-04T12:01:45Z</time>
<extensions>
<tp1:TrackPointExtension>
<tp1:hr>132</tp1:hr>
</tp1:TrackPointExtension>
</extensions>
</trkpt>
<trkpt lat="46.1754007" lon="5.9975805">
<ele>349.6000000</ele>
<time>2014-12-04T12:01:49Z</time>
<extensions>
<tp1:TrackPointExtension>
<tp1:hr>133</tp1:hr>
</tp1:TrackPointExtension>
</extensions>
</trkpt>
<trkpt lat="46.1753173" lon="5.9975989">
<ele>350.0000000</ele>
<time>2014-12-04T12:01:51Z</time>
<extensions>
<tp1:TrackPointExtension>
<tp1:hr>133</tp1:hr>
</tp1:TrackPointExtension>
</extensions>
</trkpt>
<trkpt lat="46.1752781" lon="5.9976203">
<ele>350.4000000</ele>
<time>2014-12-04T12:01:52Z</time>
<extensions>
<tp1:TrackPointExtension>
<tp1:hr>133</tp1:hr>
</tp1:TrackPointExtension>
</extensions>
</trkpt>
<trkpt lat="46.1752427" lon="5.9976432">
<ele>350.8000000</ele>
<time>2014-12-04T12:01:53Z</time>
<extensions>
<tp1:TrackPointExtension>
<tp1:hr>133</tp1:hr>
</tp1:TrackPointExtension>
</extensions>
</trkpt>
<trkpt lat="46.1752077" lon="5.9976731">
<ele>351.2000000</ele>
<time>2014-12-04T12:01:54Z</time>
<extensions>
<tp1:TrackPointExtension>
<tp1:hr>134</tp1:hr>
</tp1:TrackPointExtension>
</extensions>
</trkpt>
<trkpt lat="46.1751742" lon="5.9977081">
<ele>351.6000000</ele>
<time>2014-12-04T12:01:55Z</time>
<extensions>
<tp1:TrackPointExtension>
<tp1:hr>134</tp1:hr>
</tp1:TrackPointExtension>
</extensions>
</trkpt>
<trkpt lat="46.1751001" lon="5.9978474">
<ele>351.6000000</ele>
<time>2014-12-04T12:01:58Z</time>
<extensions>
<tp1:TrackPointExtension>
<tp1:hr>134</tp1:hr>
</tp1:TrackPointExtension>
</extensions>
</trkpt>
<trkpt lat="46.1750450" lon="5.9981271">
<ele>352.0000000</ele>
<time>2014-12-04T12:02:03Z</time>
<extensions>
<tp1:TrackPointExtension>
<tp1:hr>135</tp1:hr>
</tp1:TrackPointExtension>
</extensions>
</trkpt>
<trkpt lat="46.1750350" lon="5.9981830">
<ele>352.4000000</ele>
<time>2014-12-04T12:02:04Z</time>
<extensions>
<tp1:TrackPointExtension>
<tp1:hr>135</tp1:hr>
</tp1:TrackPointExtension>
</extensions>
</trkpt>
<trkpt lat="46.1750244" lon="5.9982378">
<ele>352.8000000</ele>
<time>2014-12-04T12:02:05Z</time>
<extensions>
<tp1:TrackPointExtension>
<tp1:hr>135</tp1:hr>
</tp1:TrackPointExtension>
</extensions>
</trkpt>
<trkpt lat="46.1750142" lon="5.9982938">
<ele>353.2000000</ele>
<time>2014-12-04T12:02:06Z</time>
<extensions>
<tp1:TrackPointExtension>
<tp1:hr>135</tp1:hr>
</tp1:TrackPointExtension>
</extensions>
</trkpt>
<trkpt lat="46.1750043" lon="5.9983480">
<ele>353.6000000</ele>
<time>2014-12-04T12:02:07Z</time>
<extensions>
<tp1:TrackPointExtension>
<tp1:hr>135</tp1:hr>
</tp1:TrackPointExtension>
</extensions>
</trkpt>
<trkpt lat="46.1749233" lon="5.9988469">
<ele>353.6000000</ele>
<time>2014-12-04T12:02:16Z</time>
<extensions>
<tp1:TrackPointExtension>
<tp1:hr>135</tp1:hr>
</tp1:TrackPointExtension>
</extensions>
</trkpt>
<trkpt lat="46.1749157" lon="5.9989035">
<ele>354.2000000</ele>
<time>2014-12-04T12:02:17Z</time>
<extensions>
<tp1:TrackPointExtension>
<tp1:hr>135</tp1:hr>
</tp1:TrackPointExtension>
</extensions>
</trkpt>
<trkpt lat="46.1749064" lon="5.9989599">
<ele>354.6000000</ele>
<time>2014-12-04T12:02:18Z</time>
<extensions>
<tp1:TrackPointExtension>
<tp1:hr>135</tp1:hr>
</tp1:TrackPointExtension>
</extensions>
</trkpt>
<trkpt lat="46.1748966" lon="5.9990138">
<ele>355.0000000</ele>
<time>2014-12-04T12:02:19Z</time>
<extensions>
<tp1:TrackPointExtension>
<tp1:hr>136</tp1:hr>
</tp1:TrackPointExtension>
</extensions>
</trkpt>
<trkpt lat="46.1748868" lon="5.9990682">
<ele>355.4000000</ele>
<time>2014-12-04T12:02:20Z</time>
<extensions>
<tp1:TrackPointExtension>
<tp1:hr>135</tp1:hr>
</tp1:TrackPointExtension>
</extensions>
</trkpt>
<trkpt lat="46.1748766" lon="5.9991209">
<ele>356.0000000</ele>
<time>2014-12-04T12:02:21Z</time>
<extensions>
<tp1:TrackPointExtension>
<tp1:hr>136</tp1:hr>
</tp1:TrackPointExtension>
</extensions>
</trkpt>
<trkpt lat="46.1747797" lon="5.9996468">
<ele>356.0000000</ele>
<time>2014-12-04T12:02:31Z</time>
<extensions>
<tp1:TrackPointExtension>
<tp1:hr>136</tp1:hr>
</tp1:TrackPointExtension>
</extensions>
</trkpt>
<trkpt lat="46.1747505" lon="5.9997999">
<ele>356.4000000</ele>
<time>2014-12-04T12:02:34Z</time>
<extensions>
<tp1:TrackPointExtension>
<tp1:hr>137</tp1:hr>
</tp1:TrackPointExtension>
</extensions>
</trkpt>
<trkpt lat="46.1747413" lon="5.9998525">
<ele>356.8000000</ele>
<time>2014-12-04T12:02:35Z</time>
<extensions>
<tp1:TrackPointExtension>
<tp1:hr>136</tp1:hr>
</tp1:TrackPointExtension>
</extensions>
</trkpt>
<trkpt lat="46.1747324" lon="5.9999043">
<ele>357.2000000</ele>
<time>2014-12-04T12:02:36Z</time>
<extensions>
<tp1:TrackPointExtension>
<tp1:hr>136</tp1:hr>
</tp1:TrackPointExtension>
</extensions>
</trkpt>
<trkpt lat="46.1747231" lon="5.9999569">
<ele>357.8000000</ele>
<time>2014-12-04T12:02:37Z</time>
<extensions>
<tp1:TrackPointExtension>
<tp1:hr>137</tp1:hr>
</tp1:TrackPointExtension>
</extensions>
</trkpt>
<trkpt lat="46.1747128" lon="6.0000098">
<ele>358.2000000</ele>
<time>2014-12-04T12:02:38Z</time>
<extensions>
<tp1:TrackPointExtension>
<tp1:hr>137</tp1:hr>
</tp1:TrackPointExtension>
</extensions>
</trkpt>
<trkpt lat="46.1746027" lon="6.0005865">
<ele>358.6000000</ele>
<time>2014-12-04T12:02:49Z</time>
<extensions>
<tp1:TrackPointExtension>
<tp1:hr>138</tp1:hr>
</tp1:TrackPointExtension>
</extensions>
</trkpt>
<trkpt lat="46.1745930" lon="6.0006381">
<ele>359.0000000</ele>
<time>2014-12-04T12:02:50Z</time>
<extensions>
<tp1:TrackPointExtension>
<tp1:hr>138</tp1:hr>
</tp1:TrackPointExtension>
</extensions>
</trkpt>
<trkpt lat="46.1745841" lon="6.0006895">
<ele>359.4000000</ele>
<time>2014-12-04T12:02:51Z</time>
<extensions>
<tp1:TrackPointExtension>
<tp1:hr>138</tp1:hr>
</tp1:TrackPointExtension>
</extensions>
</trkpt>
<trkpt lat="46.1745760" lon="6.0007408">
<ele>359.8000000</ele>
<time>2014-12-04T12:02:52Z</time>
<extensions>
<tp1:TrackPointExtension>
<tp1:hr>138</tp1:hr>
</tp1:TrackPointExtension>
</extensions>
</trkpt>
<trkpt lat="46.1745686" lon="6.0007904">
<ele>360.2000000</ele>
<time>2014-12-04T12:02:53Z</time>
<extensions>
<tp1:TrackPointExtension>
<tp1:hr>138</tp1:hr>
</tp1:TrackPointExtension>
</extensions>
</trkpt>
<trkpt lat="46.1744920" lon="6.0012014">
<ele>360.2000000</ele>
<time>2014-12-04T12:03:01Z</time>
<extensions>
<tp1:TrackPointExtension>
<tp1:hr>139</tp1:hr>
</tp1:TrackPointExtension>
</extensions>
</trkpt>
<trkpt lat="46.1744798" lon="6.0012541">
<ele>360.8000000</ele>
<time>2014-12-04T12:03:02Z</time>
<extensions>
<tp1:TrackPointExtension>
<tp1:hr>139</tp1:hr>
</tp1:TrackPointExtension>
</extensions>
</trkpt>
<trkpt lat="46.1744693" lon="6.0013046">
<ele>361.2000000</ele>
<time>2014-12-04T12:03:03Z</time>
<extensions>
<tp1:TrackPointExtension>
<tp1:hr>139</tp1:hr>
</tp1:TrackPointExtension>
</extensions>
</trkpt>
<trkpt lat="46.1744605" lon="6.0013581">
<ele>361.6000000</ele>
<time>2014-12-04T12:03:04Z</time>
<extensions>
<tp1:TrackPointExtension>
<tp1:hr>139</tp1:hr>
</tp1:TrackPointExtension>
</extensions>
</trkpt>
<trkpt lat="46.1744508" lon="6.0014101">
<ele>362.2000000</ele>
<time>2014-12-04T12:03:05Z</time>
<extensions>
<tp1:TrackPointExtension>
<tp1:hr>139</tp1:hr>
</tp1:TrackPointExtension>
</extensions>
</trkpt>
<trkpt lat="46.1744392" lon="6.0014594">
<ele>362.6000000</ele>
<time>2014-12-04T12:03:06Z</time>
<extensions>
<tp1:TrackPointExtension>
<tp1:hr>139</tp1:hr>
</tp1:TrackPointExtension>
</extensions>
</trkpt>
<trkpt lat="46.1743876" lon="6.0017675">
<ele>362.6000000</ele>
<time>2014-12-04T12:03:12Z</time>
<extensions>
<tp1:TrackPointExtension>
<tp1:hr>140</tp1:hr>
</tp1:TrackPointExtension>
</extensions>
</trkpt>
<trkpt lat="46.1743659" lon="6.0018702">
<ele>363.0000000</ele>
<time>2014-12-04T12:03:14Z</time>
<extensions>
<tp1:TrackPointExtension>
<tp1:hr>140</tp1:hr>
</tp1:TrackPointExtension>
</extensions>
</trkpt>
<trkpt lat="46.1743544" lon="6.0019201">
<ele>363.4000000</ele>
<time>2014-12-04T12:03:15Z</time>
<extensions>
<tp1:TrackPointExtension>
<tp1:hr>139</tp1:hr>
</tp1:TrackPointExtension>
</extensions>
</trkpt>
<trkpt lat="46.1743477" lon="6.0019721">
<ele>363.8000000</ele>
<time>2014-12-04T12:03:16Z</time>
<extensions>
<tp1:TrackPointExtension>
<tp1:hr>140</tp1:hr>
</tp1:TrackPointExtension>
</extensions>
</trkpt>
<trkpt lat="46.1743401" lon="6.0020224">
<ele>364.4000000</ele>
<time>2014-12-04T12:03:17Z</time>
<extensions>
<tp1:TrackPointExtension>
<tp1:hr>139</tp1:hr>
</tp1:TrackPointExtension>
</extensions>
</trkpt>
<trkpt lat="46.1743301" lon="6.0020689">
<ele>364.8000000</ele>
<time>2014-12-04T12:03:18Z</time>
<extensions>
<tp1:TrackPointExtension>
<tp1:hr>140</tp1:hr>
</tp1:TrackPointExtension>
</extensions>
</trkpt>
<trkpt lat="46.1742544" lon="6.0024552">
<ele>365.2000000</ele>
<time>2014-12-04T12:03:26Z</time>
<extensions>
<tp1:TrackPointExtension>
<tp1:hr>140</tp1:hr>
</tp1:TrackPointExtension>
</extensions>
</trkpt>
<trkpt lat="46.1742404" lon="6.0025388">
<ele>365.6000000</ele>
<time>2014-12-04T12:03:27Z</time>
<extensions>
<tp1:TrackPointExtension>
<tp1:hr>141</tp1:hr>
</tp1:TrackPointExtension>
</extensions>
</trkpt>
<trkpt lat="46.1742315" lon="6.0025876">
<ele>366.0000000</ele>
<time>2014-12-04T12:03:28Z</time>
<extensions>
<tp1:TrackPointExtension>
<tp1:hr>141</tp1:hr>
</tp1:TrackPointExtension>
</extensions>
</trkpt>
<trkpt lat="46.1742191" lon="6.0026327">
<ele>366.4000000</ele>
<time>2014-12-04T12:03:29Z</time>
<extensions>
<tp1:TrackPointExtension>
<tp1:hr>141</tp1:hr>
</tp1:TrackPointExtension>
</extensions>
</trkpt>
<trkpt lat="46.1742058" lon="6.0026789">
<ele>366.8000000</ele>
<time>2014-12-04T12:03:30Z</time>
<extensions>
<tp1:TrackPointExtension>
<tp1:hr>140</tp1:hr>
</tp1:TrackPointExtension>
</extensions>
</trkpt>
<trkpt lat="46.1741558" lon="6.0029665">
<ele>367.2000000</ele>
<time>2014-12-04T12:03:36Z</time>
<extensions>
<tp1:TrackPointExtension>
<tp1:hr>141</tp1:hr>
</tp1:TrackPointExtension>
</extensions>
</trkpt>
<trkpt lat="46.1741446" lon="6.0030140">
<ele>367.6000000</ele>
<time>2014-12-04T12:03:37Z</time>
<extensions>
<tp1:TrackPointExtension>
<tp1:hr>141</tp1:hr>
</tp1:TrackPointExtension>
</extensions>
</trkpt>
<trkpt lat="46.1741331" lon="6.0030589">
<ele>368.0000000</ele>
<time>2014-12-04T12:03:38Z</time>
<extensions>
<tp1:TrackPointExtension>
<tp1:hr>141</tp1:hr>
</tp1:TrackPointExtension>
</extensions>
</trkpt>
<trkpt lat="46.1741228" lon="6.0031068">
<ele>368.4000000</ele>
<time>2014-12-04T12:03:39Z</time>
<extensions>
<tp1:TrackPointExtension>
<tp1:hr>141</tp1:hr>
</tp1:TrackPointExtension>
</extensions>
</trkpt>
<trkpt lat="46.1741140" lon="6.0031544">
<ele>368.8000000</ele>
<time>2014-12-04T12:03:40Z</time>
<extensions>
<tp1:TrackPointExtension>
<tp1:hr>141</tp1:hr>
</tp1:TrackPointExtension>
</extensions>
</trkpt>
<trkpt lat="46.1740564" lon="6.0034373">
<ele>369.4000000</ele>
<time>2014-12-04T12:03:46Z</time>
<extensions>
<tp1:TrackPointExtension>
<tp1:hr>142</tp1:hr>
</tp1:TrackPointExtension>
</extensions>
</trkpt>
<trkpt lat="46.1740487" lon="6.0034823">
<ele>369.8000000</ele>
<time>2014-12-04T12:03:47Z</time>
<extensions>
<tp1:TrackPointExtension>
<tp1:hr>142</tp1:hr>
</tp1:TrackPointExtension>
</extensions>
</trkpt>
<trkpt lat="46.1740357" lon="6.0035268">
<ele>370.2000000</ele>
<time>2014-12-04T12:03:48Z</time>
<extensions>
<tp1:TrackPointExtension>
<tp1:hr>142</tp1:hr>
</tp1:TrackPointExtension>
</extensions>
</trkpt>
<trkpt lat="46.1740225" lon="6.0035752">
<ele>370.6000000</ele>
<time>2014-12-04T12:03:49Z</time>
<extensions>
<tp1:TrackPointExtension>
<tp1:hr>142</tp1:hr>
</tp1:TrackPointExtension>
</extensions>
</trkpt>
<trkpt lat="46.1740168" lon="6.0036152">
<ele>371.0000000</ele>
<time>2014-12-04T12:03:50Z</time>
<extensions>
<tp1:TrackPointExtension>
<tp1:hr>142</tp1:hr>
</tp1:TrackPointExtension>
</extensions>
</trkpt>
<trkpt lat="46.1739716" lon="6.0038863">
<ele>371.0000000</ele>
<time>2014-12-04T12:03:56Z</time>
<extensions>
<tp1:TrackPointExtension>
<tp1:hr>143</tp1:hr>
</tp1:TrackPointExtension>
</extensions>
</trkpt>
<trkpt lat="46.1739598" lon="6.0039318">
<ele>371.4000000</ele>
<time>2014-12-04T12:03:57Z</time>
<extensions>
<tp1:TrackPointExtension>
<tp1:hr>143</tp1:hr>
</tp1:TrackPointExtension>
</extensions>
</trkpt>
<trkpt lat="46.1739492" lon="6.0039771">
<ele>372.0000000</ele>
<time>2014-12-04T12:03:58Z</time>
<extensions>
<tp1:TrackPointExtension>
<tp1:hr>143</tp1:hr>
</tp1:TrackPointExtension>
</extensions>
</trkpt>
<trkpt lat="46.1739401" lon="6.0040238">
<ele>372.4000000</ele>
<time>2014-12-04T12:03:59Z</time>
<extensions>
<tp1:TrackPointExtension>
<tp1:hr>143</tp1:hr>
</tp1:TrackPointExtension>
</extensions>
</trkpt>
<trkpt lat="46.1739308" lon="6.0040699">
<ele>373.0000000</ele>
<time>2014-12-04T12:04:00Z</time>
<extensions>
<tp1:TrackPointExtension>
<tp1:hr>143</tp1:hr>
</tp1:TrackPointExtension>
</extensions>
</trkpt>
<trkpt lat="46.1739263" lon="6.0041212">
<ele>373.4000000</ele>
<time>2014-12-04T12:04:01Z</time>
<extensions>
<tp1:TrackPointExtension>
<tp1:hr>143</tp1:hr>
</tp1:TrackPointExtension>
</extensions>
</trkpt>
<trkpt lat="46.1738824" lon="6.0043478">
<ele>373.4000000</ele>
<time>2014-12-04T12:04:06Z</time>
<extensions>
<tp1:TrackPointExtension>
<tp1:hr>144</tp1:hr>
</tp1:TrackPointExtension>
</extensions>
</trkpt>
<trkpt lat="46.1738764" lon="6.0043970">
<ele>374.0000000</ele>
<time>2014-12-04T12:04:07Z</time>
<extensions>
<tp1:TrackPointExtension>
<tp1:hr>144</tp1:hr>
</tp1:TrackPointExtension>
</extensions>
</trkpt>
<trkpt lat="46.1738730" lon="6.0044477">
<ele>374.4000000</ele>
<time>2014-12-04T12:04:08Z</time>
<extensions>
<tp1:TrackPointExtension>
<tp1:hr>144</tp1:hr>
</tp1:TrackPointExtension>
</extensions>
</trkpt>
<trkpt lat="46.1738659" lon="6.0044929">
<ele>374.8000000</ele>
<time>2014-12-04T12:04:09Z</time>
<extensions>
<tp1:TrackPointExtension>
<tp1:hr>144</tp1:hr>
</tp1:TrackPointExtension>
</extensions>
</trkpt>
<trkpt lat="46.1738583" lon="6.0045376">
<ele>375.2000000</ele>
<time>2014-12-04T12:04:10Z</time>
<extensions>
<tp1:TrackPointExtension>
<tp1:hr>144</tp1:hr>
</tp1:TrackPointExtension>
</extensions>
</trkpt>
<trkpt lat="46.1738493" lon="6.0045809">
<ele>375.8000000</ele>
<time>2014-12-04T12:04:11Z</time>
<extensions>
<tp1:TrackPointExtension>
<tp1:hr>144</tp1:hr>
</tp1:TrackPointExtension>
</extensions>
</trkpt>
<trkpt lat="46.1738383" lon="6.0046713">
<ele>375.8000000</ele>
<time>2014-12-04T12:04:13Z</time>
<extensions>
<tp1:TrackPointExtension>
<tp1:hr>145</tp1:hr>
</tp1:TrackPointExtension>
</extensions>
</trkpt>
<trkpt lat="46.1737814" lon="6.0050072">
<ele>376.2000000</ele>
<time>2014-12-04T12:04:20Z</time>
<extensions>
<tp1:TrackPointExtension>
<tp1:hr>145</tp1:hr>
</tp1:TrackPointExtension>
</extensions>
</trkpt>
<trkpt lat="46.1737793" lon="6.0050586">
<ele>376.6000000</ele>
<time>2014-12-04T12:04:21Z</time>
<extensions>
<tp1:TrackPointExtension>
<tp1:hr>145</tp1:hr>
</tp1:TrackPointExtension>
</extensions>
</trkpt>
<trkpt lat="46.1737778" lon="6.0051070">
<ele>377.0000000</ele>
<time>2014-12-04T12:04:22Z</time>
<extensions>
<tp1:TrackPointExtension>
<tp1:hr>145</tp1:hr>
</tp1:TrackPointExtension>
</extensions>
</trkpt>
<trkpt lat="46.1737758" lon="6.0051570">
<ele>377.4000000</ele>
<time>2014-12-04T12:04:23Z</time>
<extensions>
<tp1:TrackPointExtension>
<tp1:hr>145</tp1:hr>
</tp1:TrackPointExtension>
</extensions>
</trkpt>
<trkpt lat="46.1737692" lon="6.0052056">
<ele>377.8000000</ele>
<time>2014-12-04T12:04:24Z</time>
<extensions>
<tp1:TrackPointExtension>
<tp1:hr>145</tp1:hr>
</tp1:TrackPointExtension>
</extensions>
</trkpt>
<trkpt lat="46.1737234" lon="6.0053986">
<ele>378.2000000</ele>
<time>2014-12-04T12:04:28Z</time>
<extensions>
<tp1:TrackPointExtension>
<tp1:hr>145</tp1:hr>
</tp1:TrackPointExtension>
</extensions>
</trkpt>
<trkpt lat="46.1737223" lon="6.0054521">
<ele>378.6000000</ele>
<time>2014-12-04T12:04:29Z</time>
<extensions>
<tp1:TrackPointExtension>
<tp1:hr>145</tp1:hr>
</tp1:TrackPointExtension>
</extensions>
</trkpt>
<trkpt lat="46.1737292" lon="6.0054952">
<ele>379.0000000</ele>
<time>2014-12-04T12:04:30Z</time>
<extensions>
<tp1:TrackPointExtension>
<tp1:hr>145</tp1:hr>
</tp1:TrackPointExtension>
</extensions>
</trkpt>
<trkpt lat="46.1737446" lon="6.0055376">
<ele>379.6000000</ele>
<time>2014-12-04T12:04:31Z</time>
<extensions>
<tp1:TrackPointExtension>
<tp1:hr>146</tp1:hr>
</tp1:TrackPointExtension>
</extensions>
</trkpt>
<trkpt lat="46.1737670" lon="6.0055725">
<ele>380.0000000</ele>
<time>2014-12-04T12:04:32Z</time>
<extensions>
<tp1:TrackPointExtension>
<tp1:hr>146</tp1:hr>
</tp1:TrackPointExtension>
</extensions>
</trkpt>
<trkpt lat="46.1738988" lon="6.0057858">
<ele>380.0000000</ele>
<time>2014-12-04T12:04:38Z</time>
<extensions>
<tp1:TrackPointExtension>
<tp1:hr>146</tp1:hr>
</tp1:TrackPointExtension>
</extensions>
</trkpt>
<trkpt lat="46.1739947" lon="6.0060308">
<ele>380.4000000</ele>
<time>2014-12-04T12:04:44Z</time>
<extensions>
<tp1:TrackPointExtension>
<tp1:hr>146</tp1:hr>
</tp1:TrackPointExtension>
</extensions>
</trkpt>
<trkpt lat="46.1740123" lon="6.0060653">
<ele>380.8000000</ele>
<time>2014-12-04T12:04:45Z</time>
<extensions>
<tp1:TrackPointExtension>
<tp1:hr>145</tp1:hr>
</tp1:TrackPointExtension>
</extensions>
</trkpt>
<trkpt lat="46.1740310" lon="6.0060973">
<ele>381.2000000</ele>
<time>2014-12-04T12:04:46Z</time>
<extensions>
<tp1:TrackPointExtension>
<tp1:hr>145</tp1:hr>
</tp1:TrackPointExtension>
</extensions>
</trkpt>
<trkpt lat="46.1740509" lon="6.0061291">
<ele>381.6000000</ele>
<time>2014-12-04T12:04:47Z</time>
<extensions>
<tp1:TrackPointExtension>
<tp1:hr>145</tp1:hr>
</tp1:TrackPointExtension>
</extensions>
</trkpt>
<trkpt lat="46.1740796" lon="6.0061663">
<ele>382.2000000</ele>
<time>2014-12-04T12:04:48Z</time>
<extensions>
<tp1:TrackPointExtension>
<tp1:hr>145</tp1:hr>
</tp1:TrackPointExtension>
</extensions>
</trkpt>
<trkpt lat="46.1741445" lon="6.0062739">
<ele>382.2000000</ele>
<time>2014-12-04T12:04:51Z</time>
<extensions>
<tp1:TrackPointExtension>
<tp1:hr>145</tp1:hr>
</tp1:TrackPointExtension>
</extensions>
</trkpt>
<trkpt lat="46.1742658" lon="6.0065221">
<ele>382.2000000</ele>
<time>2014-12-04T12:04:58Z</time>
<extensions>
<tp1:TrackPointExtension>
<tp1:hr>145</tp1:hr>
</tp1:TrackPointExtension>
</extensions>
</trkpt>
<trkpt lat="46.1743611" lon="6.0067270">
<ele>382.6000000</ele>
<time>2014-12-04T12:05:04Z</time>
<extensions>
<tp1:TrackPointExtension>
<tp1:hr>145</tp1:hr>
</tp1:TrackPointExtension>
</extensions>
</trkpt>
<trkpt lat="46.1743728" lon="6.0067585">
<ele>383.0000000</ele>
<time>2014-12-04T12:05:05Z</time>
<extensions>
<tp1:TrackPointExtension>
<tp1:hr>145</tp1:hr>
</tp1:TrackPointExtension>
</extensions>
</trkpt>
<trkpt lat="46.1743838" lon="6.0067943">
<ele>383.4000000</ele>
<time>2014-12-04T12:05:06Z</time>
<extensions>
<tp1:TrackPointExtension>
<tp1:hr>144</tp1:hr>
</tp1:TrackPointExtension>
</extensions>
</trkpt>
<trkpt lat="46.1743981" lon="6.0068337">
<ele>383.8000000</ele>
<time>2014-12-04T12:05:07Z</time>
<extensions>
<tp1:TrackPointExtension>
<tp1:hr>144</tp1:hr>
</tp1:TrackPointExtension>
</extensions>
</trkpt>
<trkpt lat="46.1744175" lon="6.0068871">
<ele>384.2000000</ele>
<time>2014-12-04T12:05:08Z</time>
<extensions>
<tp1:TrackPointExtension>
<tp1:hr>145</tp1:hr>
</tp1:TrackPointExtension>
</extensions>
</trkpt>
<trkpt lat="46.1744994" lon="6.0071321">
<ele>384.2000000</ele>
<time>2014-12-04T12:05:13Z</time>
<extensions>
<tp1:TrackPointExtension>
<tp1:hr>144</tp1:hr>
</tp1:TrackPointExtension>
</extensions>
</trkpt>
<trkpt lat="46.1745678" lon="6.0073269">
<ele>384.6000000</ele>
<time>2014-12-04T12:05:17Z</time>
<extensions>
<tp1:TrackPointExtension>
<tp1:hr>145</tp1:hr>
</tp1:TrackPointExtension>
</extensions>
</trkpt>
<trkpt lat="46.1745961" lon="6.0073818">
<ele>385.0000000</ele>
<time>2014-12-04T12:05:18Z</time>
<extensions>
<tp1:TrackPointExtension>
<tp1:hr>145</tp1:hr>
</tp1:TrackPointExtension>
</extensions>
</trkpt>
<trkpt lat="46.1746178" lon="6.0074344">
<ele>385.4000000</ele>
<time>2014-12-04T12:05:19Z</time>
<extensions>
<tp1:TrackPointExtension>
<tp1:hr>144</tp1:hr>
</tp1:TrackPointExtension>
</extensions>
</trkpt>
<trkpt lat="46.1746324" lon="6.0074783">
<ele>385.8000000</ele>
<time>2014-12-04T12:05:20Z</time>
<extensions>
<tp1:TrackPointExtension>
<tp1:hr>145</tp1:hr>
</tp1:TrackPointExtension>
</extensions>
</trkpt>
<trkpt lat="46.1746447" lon="6.0075197">
<ele>386.4000000</ele>
<time>2014-12-04T12:05:21Z</time>
<extensions>
<tp1:TrackPointExtension>
<tp1:hr>145</tp1:hr>
</tp1:TrackPointExtension>
</extensions>
</trkpt>
<trkpt lat="46.1747450" lon="6.0078614">
<ele>386.4000000</ele>
<time>2014-12-04T12:05:28Z</time>
<extensions>
<tp1:TrackPointExtension>
<tp1:hr>145</tp1:hr>
</tp1:TrackPointExtension>
</extensions>
</trkpt>
<trkpt lat="46.1748036" lon="6.0080227">
<ele>386.8000000</ele>
<time>2014-12-04T12:05:31Z</time>
<extensions>
<tp1:TrackPointExtension>
<tp1:hr>145</tp1:hr>
</tp1:TrackPointExtension>
</extensions>
</trkpt>
<trkpt lat="46.1748230" lon="6.0080677">
<ele>387.2000000</ele>
<time>2014-12-04T12:05:32Z</time>
<extensions>
<tp1:TrackPointExtension>
<tp1:hr>144</tp1:hr>
</tp1:TrackPointExtension>
</extensions>
</trkpt>
<trkpt lat="46.1748413" lon="6.0081159">
<ele>387.8000000</ele>
<time>2014-12-04T12:05:33Z</time>
<extensions>
<tp1:TrackPointExtension>
<tp1:hr>144</tp1:hr>
</tp1:TrackPointExtension>
</extensions>
</trkpt>
<trkpt lat="46.1748589" lon="6.0081682">
<ele>388.2000000</ele>
<time>2014-12-04T12:05:34Z</time>
<extensions>
<tp1:TrackPointExtension>
<tp1:hr>145</tp1:hr>
</tp1:TrackPointExtension>
</extensions>
</trkpt>
<trkpt lat="46.1748754" lon="6.0082164">
<ele>388.6000000</ele>
<time>2014-12-04T12:05:35Z</time>
<extensions>
<tp1:TrackPointExtension>
<tp1:hr>145</tp1:hr>
</tp1:TrackPointExtension>
</extensions>
</trkpt>
<trkpt lat="46.1748907" lon="6.0082656">
<ele>388.6000000</ele>
<time>2014-12-04T12:05:36Z</time>
<extensions>
<tp1:TrackPointExtension>
<tp1:hr>144</tp1:hr>
</tp1:TrackPointExtension>
</extensions>
</trkpt>
<trkpt lat="46.1749817" lon="6.0085793">
<ele>389.0000000</ele>
<time>2014-12-04T12:05:43Z</time>
<extensions>
<tp1:TrackPointExtension>
<tp1:hr>144</tp1:hr>
</tp1:TrackPointExtension>
</extensions>
</trkpt>
<trkpt lat="46.1750023" lon="6.0086328">
<ele>389.4000000</ele>
<time>2014-12-04T12:05:44Z</time>
<extensions>
<tp1:TrackPointExtension>
<tp1:hr>144</tp1:hr>
</tp1:TrackPointExtension>
</extensions>
</trkpt>
<trkpt lat="46.1750124" lon="6.0086815">
<ele>390.0000000</ele>
<time>2014-12-04T12:05:45Z</time>
<extensions>
<tp1:TrackPointExtension>
<tp1:hr>144</tp1:hr>
</tp1:TrackPointExtension>
</extensions>
</trkpt>
<trkpt lat="46.1750290" lon="6.0087359">
<ele>390.4000000</ele>
<time>2014-12-04T12:05:46Z</time>
<extensions>
<tp1:TrackPointExtension>
<tp1:hr>144</tp1:hr>
</tp1:TrackPointExtension>
</extensions>
</trkpt>
<trkpt lat="46.1750444" lon="6.0087796">
<ele>390.8000000</ele>
<time>2014-12-04T12:05:47Z</time>
<extensions>
<tp1:TrackPointExtension>
<tp1:hr>144</tp1:hr>
</tp1:TrackPointExtension>
</extensions>
</trkpt>
<trkpt lat="46.1750617" lon="6.0088404">
<ele>390.8000000</ele>
<time>2014-12-04T12:05:48Z</time>
<extensions>
<tp1:TrackPointExtension>
<tp1:hr>144</tp1:hr>
</tp1:TrackPointExtension>
</extensions>
</trkpt>
<trkpt lat="46.1751531" lon="6.0091155">
<ele>390.8000000</ele>
<time>2014-12-04T12:05:54Z</time>
<extensions>
<tp1:TrackPointExtension>
<tp1:hr>145</tp1:hr>
</tp1:TrackPointExtension>
</extensions>
</trkpt>
<trkpt lat="46.1751826" lon="6.0092985">
<ele>391.2000000</ele>
<time>2014-12-04T12:05:58Z</time>
<extensions>
<tp1:TrackPointExtension>
<tp1:hr>144</tp1:hr>
</tp1:TrackPointExtension>
</extensions>
</trkpt>
<trkpt lat="46.1751932" lon="6.0093435">
<ele>391.6000000</ele>
<time>2014-12-04T12:05:59Z</time>
<extensions>
<tp1:TrackPointExtension>
<tp1:hr>144</tp1:hr>
</tp1:TrackPointExtension>
</extensions>
</trkpt>
<trkpt lat="46.1752064" lon="6.0093915">
<ele>392.0000000</ele>
<time>2014-12-04T12:06:00Z</time>
<extensions>
<tp1:TrackPointExtension>
<tp1:hr>144</tp1:hr>
</tp1:TrackPointExtension>
</extensions>
</trkpt>
<trkpt lat="46.1752185" lon="6.0094350">
<ele>392.4000000</ele>
<time>2014-12-04T12:06:01Z</time>
<extensions>
<tp1:TrackPointExtension>
<tp1:hr>144</tp1:hr>
</tp1:TrackPointExtension>
</extensions>
</trkpt>
<trkpt lat="46.1752307" lon="6.0094868">
<ele>392.8000000</ele>
<time>2014-12-04T12:06:02Z</time>
<extensions>
<tp1:TrackPointExtension>
<tp1:hr>144</tp1:hr>
</tp1:TrackPointExtension>
</extensions>
</trkpt>
<trkpt lat="46.1752453" lon="6.0097027">
<ele>392.8000000</ele>
<time>2014-12-04T12:06:06Z</time>
<extensions>
<tp1:TrackPointExtension>
<tp1:hr>144</tp1:hr>
</tp1:TrackPointExtension>
</extensions>
</trkpt>
<trkpt lat="46.1751945" lon="6.0099361">
<ele>392.8000000</ele>
<time>2014-12-04T12:06:11Z</time>
<extensions>
<tp1:TrackPointExtension>
<tp1:hr>144</tp1:hr>
</tp1:TrackPointExtension>
</extensions>
</trkpt>
<trkpt lat="46.1750415" lon="6.0101860">
<ele>393.2000000</ele>
<time>2014-12-04T12:06:17Z</time>
<extensions>
<tp1:TrackPointExtension>
<tp1:hr>144</tp1:hr>
</tp1:TrackPointExtension>
</extensions>
</trkpt>
<trkpt lat="46.1750089" lon="6.0102246">
<ele>393.6000000</ele>
<time>2014-12-04T12:06:18Z</time>
<extensions>
<tp1:TrackPointExtension>
<tp1:hr>144</tp1:hr>
</tp1:TrackPointExtension>
</extensions>
</trkpt>
<trkpt lat="46.1749815" lon="6.0102901">
<ele>394.0000000</ele>
<time>2014-12-04T12:06:19Z</time>
<extensions>
<tp1:TrackPointExtension>
<tp1:hr>144</tp1:hr>
</tp1:TrackPointExtension>
</extensions>
</trkpt>
<trkpt lat="46.1749382" lon="6.0103379">
<ele>394.4000000</ele>
<time>2014-12-04T12:06:20Z</time>
<extensions>
<tp1:TrackPointExtension>
<tp1:hr>144</tp1:hr>
</tp1:TrackPointExtension>
</extensions>
</trkpt>
<trkpt lat="46.1748947" lon="6.0103900">
<ele>394.8000000</ele>
<time>2014-12-04T12:06:21Z</time>
<extensions>
<tp1:TrackPointExtension>
<tp1:hr>144</tp1:hr>
</tp1:TrackPointExtension>
</extensions>
</trkpt>
<trkpt lat="46.1747633" lon="6.0105365">
<ele>394.8000000</ele>
<time>2014-12-04T12:06:25Z</time>
<extensions>
<tp1:TrackPointExtension>
<tp1:hr>144</tp1:hr>
</tp1:TrackPointExtension>
</extensions>
</trkpt>
<trkpt lat="46.1745989" lon="6.0107153">
<ele>395.2000000</ele>
<time>2014-12-04T12:06:30Z</time>
<extensions>
<tp1:TrackPointExtension>
<tp1:hr>143</tp1:hr>
</tp1:TrackPointExtension>
</extensions>
</trkpt>
<trkpt lat="46.1745705" lon="6.0107426">
<ele>395.6000000</ele>
<time>2014-12-04T12:06:31Z</time>
<extensions>
<tp1:TrackPointExtension>
<tp1:hr>143</tp1:hr>
</tp1:TrackPointExtension>
</extensions>
</trkpt>
<trkpt lat="46.1745411" lon="6.0107650">
<ele>396.0000000</ele>
<time>2014-12-04T12:06:32Z</time>
<extensions>
<tp1:TrackPointExtension>
<tp1:hr>144</tp1:hr>
</tp1:TrackPointExtension>
</extensions>
</trkpt>
<trkpt lat="46.1745102" lon="6.0107911">
<ele>396.4000000</ele>
<time>2014-12-04T12:06:33Z</time>
<extensions>
<tp1:TrackPointExtension>
<tp1:hr>143</tp1:hr>
</tp1:TrackPointExtension>
</extensions>
</trkpt>
<trkpt lat="46.1744781" lon="6.0108198">
<ele>396.8000000</ele>
<time>2014-12-04T12:06:34Z</time>
<extensions>
<tp1:TrackPointExtension>
<tp1:hr>144</tp1:hr>
</tp1:TrackPointExtension>
</extensions>
</trkpt>
<trkpt lat="46.1742246" lon="6.0110601">
<ele>396.8000000</ele>
<time>2014-12-04T12:06:42Z</time>
<extensions>
<tp1:TrackPointExtension>
<tp1:hr>143</tp1:hr>
</tp1:TrackPointExtension>
</extensions>
</trkpt>
<trkpt lat="46.1741389" lon="6.0112373">
<ele>396.8000000</ele>
<time>2014-12-04T12:06:46Z</time>
<extensions>
<tp1:TrackPointExtension>
<tp1:hr>142</tp1:hr>
</tp1:TrackPointExtension>
</extensions>
</trkpt>
<trkpt lat="46.1741357" lon="6.0114056">
<ele>396.8000000</ele>
<time>2014-12-04T12:06:49Z</time>
<extensions>
<tp1:TrackPointExtension>
<tp1:hr>141</tp1:hr>
</tp1:TrackPointExtension>
</extensions>
</trkpt>
<trkpt lat="46.1741433" lon="6.0114710">
<ele>396.8000000</ele>
<time>2014-12-04T12:06:50Z</time>
<extensions>
<tp1:TrackPointExtension>
<tp1:hr>141</tp1:hr>
</tp1:TrackPointExtension>
</extensions>
</trkpt>
<trkpt lat="46.1742027" lon="6.0118970">
<ele>396.8000000</ele>
<time>2014-12-04T12:06:58Z</time>
<extensions>
<tp1:TrackPointExtension>
<tp1:hr>139</tp1:hr>
</tp1:TrackPointExtension>
</extensions>
</trkpt>
<trkpt lat="46.1742607" lon="6.0123107">
<ele>396.8000000</ele>
<time>2014-12-04T12:07:06Z</time>
<extensions>
<tp1:TrackPointExtension>
<tp1:hr>136</tp1:hr>
</tp1:TrackPointExtension>
</extensions>
</trkpt>
<trkpt lat="46.1743016" lon="6.0125240">
<ele>396.8000000</ele>
<time>2014-12-04T12:07:10Z</time>
<extensions>
<tp1:TrackPointExtension>
<tp1:hr>136</tp1:hr>
</tp1:TrackPointExtension>
</extensions>
</trkpt>
<trkpt lat="46.1743242" lon="6.0129341">
<ele>396.8000000</ele>
<time>2014-12-04T12:07:18Z</time>
<extensions>
<tp1:TrackPointExtension>
<tp1:hr>136</tp1:hr>
</tp1:TrackPointExtension>
</extensions>
</trkpt>
<trkpt lat="46.1742779" lon="6.0129985">
<ele>397.4000000</ele>
<time>2014-12-04T12:07:20Z</time>
<extensions>
<tp1:TrackPointExtension>
<tp1:hr>136</tp1:hr>
</tp1:TrackPointExtension>
</extensions>
</trkpt>
<trkpt lat="46.1742517" lon="6.0130276">
<ele>397.8000000</ele>
<time>2014-12-04T12:07:21Z</time>
<extensions>
<tp1:TrackPointExtension>
<tp1:hr>136</tp1:hr>
</tp1:TrackPointExtension>
</extensions>
</trkpt>
<trkpt lat="46.1742239" lon="6.0130489">
<ele>398.4000000</ele>
<time>2014-12-04T12:07:22Z</time>
<extensions>
<tp1:TrackPointExtension>
<tp1:hr>137</tp1:hr>
</tp1:TrackPointExtension>
</extensions>
</trkpt>
<trkpt lat="46.1741952" lon="6.0130686">
<ele>399.0000000</ele>
<time>2014-12-04T12:07:23Z</time>
<extensions>
<tp1:TrackPointExtension>
<tp1:hr>137</tp1:hr>
</tp1:TrackPointExtension>
</extensions>
</trkpt>
<trkpt lat="46.1741668" lon="6.0130887">
<ele>399.4000000</ele>
<time>2014-12-04T12:07:24Z</time>
<extensions>
<tp1:TrackPointExtension>
<tp1:hr>137</tp1:hr>
</tp1:TrackPointExtension>
</extensions>
</trkpt>
<trkpt lat="46.1740846" lon="6.0131504">
<ele>399.8000000</ele>
<time>2014-12-04T12:07:27Z</time>
<extensions>
<tp1:TrackPointExtension>
<tp1:hr>138</tp1:hr>
</tp1:TrackPointExtension>
</extensions>
</trkpt>
<trkpt lat="46.1740583" lon="6.0131717">
<ele>400.4000000</ele>
<time>2014-12-04T12:07:28Z</time>
<extensions>
<tp1:TrackPointExtension>
<tp1:hr>139</tp1:hr>
</tp1:TrackPointExtension>
</extensions>
</trkpt>
<trkpt lat="46.1740313" lon="6.0131908">
<ele>400.8000000</ele>
<time>2014-12-04T12:07:29Z</time>
<extensions>
<tp1:TrackPointExtension>
<tp1:hr>139</tp1:hr>
</tp1:TrackPointExtension>
</extensions>
</trkpt>
<trkpt lat="46.1740009" lon="6.0132064">
<ele>401.2000000</ele>
<time>2014-12-04T12:07:30Z</time>
<extensions>
<tp1:TrackPointExtension>
<tp1:hr>139</tp1:hr>
</tp1:TrackPointExtension>
</extensions>
</trkpt>
<trkpt lat="46.1739659" lon="6.0132189">
<ele>401.6000000</ele>
<time>2014-12-04T12:07:31Z</time>
<extensions>
<tp1:TrackPointExtension>
<tp1:hr>139</tp1:hr>
</tp1:TrackPointExtension>
</extensions>
</trkpt>
<trkpt lat="46.1738070" lon="6.0133022">
<ele>402.0000000</ele>
<time>2014-12-04T12:07:36Z</time>
<extensions>
<tp1:TrackPointExtension>
<tp1:hr>140</tp1:hr>
</tp1:TrackPointExtension>
</extensions>
</trkpt>
<trkpt lat="46.1737773" lon="6.0133226">
<ele>402.4000000</ele>
<time>2014-12-04T12:07:37Z</time>
<extensions>
<tp1:TrackPointExtension>
<tp1:hr>140</tp1:hr>
</tp1:TrackPointExtension>
</extensions>
</trkpt>
<trkpt lat="46.1737475" lon="6.0133413">
<ele>403.0000000</ele>
<time>2014-12-04T12:07:38Z</time>
<extensions>
<tp1:TrackPointExtension>
<tp1:hr>140</tp1:hr>
</tp1:TrackPointExtension>
</extensions>
</trkpt>
<trkpt lat="46.1737150" lon="6.0133592">
<ele>403.4000000</ele>
<time>2014-12-04T12:07:39Z</time>
<extensions>
<tp1:TrackPointExtension>
<tp1:hr>140</tp1:hr>
</tp1:TrackPointExtension>
</extensions>
</trkpt>
<trkpt lat="46.1736817" lon="6.0133757">
<ele>403.8000000</ele>
<time>2014-12-04T12:07:40Z</time>
<extensions>
<tp1:TrackPointExtension>
<tp1:hr>140</tp1:hr>
</tp1:TrackPointExtension>
</extensions>
</trkpt>
<trkpt lat="46.1735591" lon="6.0134615">
<ele>403.8000000</ele>
<time>2014-12-04T12:07:44Z</time>
<extensions>
<tp1:TrackPointExtension>
<tp1:hr>140</tp1:hr>
</tp1:TrackPointExtension>
</extensions>
</trkpt>
<trkpt lat="46.1734946" lon="6.0134953">
<ele>404.2000000</ele>
<time>2014-12-04T12:07:46Z</time>
<extensions>
<tp1:TrackPointExtension>
<tp1:hr>141</tp1:hr>
</tp1:TrackPointExtension>
</extensions>
</trkpt>
<trkpt lat="46.1734611" lon="6.0135111">
<ele>404.6000000</ele>
<time>2014-12-04T12:07:47Z</time>
<extensions>
<tp1:TrackPointExtension>
<tp1:hr>141</tp1:hr>
</tp1:TrackPointExtension>
</extensions>
</trkpt>
<trkpt lat="46.1734296" lon="6.0135285">
<ele>405.0000000</ele>
<time>2014-12-04T12:07:48Z</time>
<extensions>
<tp1:TrackPointExtension>
<tp1:hr>141</tp1:hr>
</tp1:TrackPointExtension>
</extensions>
</trkpt>
<trkpt lat="46.1733991" lon="6.0135488">
<ele>405.4000000</ele>
<time>2014-12-04T12:07:49Z</time>
<extensions>
<tp1:TrackPointExtension>
<tp1:hr>141</tp1:hr>
</tp1:TrackPointExtension>
</extensions>
</trkpt>
<trkpt lat="46.1733686" lon="6.0135722">
<ele>405.8000000</ele>
<time>2014-12-04T12:07:50Z</time>
<extensions>
<tp1:TrackPointExtension>
<tp1:hr>141</tp1:hr>
</tp1:TrackPointExtension>
</extensions>
</trkpt>
<trkpt lat="46.1733099" lon="6.0136264">
<ele>405.8000000</ele>
<time>2014-12-04T12:07:52Z</time>
<extensions>
<tp1:TrackPointExtension>
<tp1:hr>142</tp1:hr>
</tp1:TrackPointExtension>
</extensions>
</trkpt>
<trkpt lat="46.1732346" lon="6.0137076">
<ele>406.2000000</ele>
<time>2014-12-04T12:07:55Z</time>
<extensions>
<tp1:TrackPointExtension>
<tp1:hr>142</tp1:hr>
</tp1:TrackPointExtension>
</extensions>
</trkpt>
<trkpt lat="46.1732136" lon="6.0137436">
<ele>406.6000000</ele>
<time>2014-12-04T12:07:56Z</time>
<extensions>
<tp1:TrackPointExtension>
<tp1:hr>142</tp1:hr>
</tp1:TrackPointExtension>
</extensions>
</trkpt>
<trkpt lat="46.1731944" lon="6.0137885">
<ele>407.2000000</ele>
<time>2014-12-04T12:07:57Z</time>
<extensions>
<tp1:TrackPointExtension>
<tp1:hr>143</tp1:hr>
</tp1:TrackPointExtension>
</extensions>
</trkpt>
<trkpt lat="46.1731756" lon="6.0138305">
<ele>407.6000000</ele>
<time>2014-12-04T12:07:58Z</time>
<extensions>
<tp1:TrackPointExtension>
<tp1:hr>143</tp1:hr>
</tp1:TrackPointExtension>
</extensions>
</trkpt>
<trkpt lat="46.1731582" lon="6.0138775">
<ele>408.0000000</ele>
<time>2014-12-04T12:07:59Z</time>
<extensions>
<tp1:TrackPointExtension>
<tp1:hr>143</tp1:hr>
</tp1:TrackPointExtension>
</extensions>
</trkpt>
<trkpt lat="46.1730619" lon="6.0140980">
<ele>408.4000000</ele>
<time>2014-12-04T12:08:04Z</time>
<extensions>
<tp1:TrackPointExtension>
<tp1:hr>145</tp1:hr>
</tp1:TrackPointExtension>
</extensions>
</trkpt>
<trkpt lat="46.1730437" lon="6.0141437">
<ele>408.8000000</ele>
<time>2014-12-04T12:08:05Z</time>
<extensions>
<tp1:TrackPointExtension>
<tp1:hr>145</tp1:hr>
</tp1:TrackPointExtension>
</extensions>
</trkpt>
<trkpt lat="46.1730240" lon="6.0141889">
<ele>409.2000000</ele>
<time>2014-12-04T12:08:06Z</time>
<extensions>
<tp1:TrackPointExtension>
<tp1:hr>145</tp1:hr>
</tp1:TrackPointExtension>
</extensions>
</trkpt>
<trkpt lat="46.1730066" lon="6.0142311">
<ele>409.6000000</ele>
<time>2014-12-04T12:08:07Z</time>
<extensions>
<tp1:TrackPointExtension>
<tp1:hr>145</tp1:hr>
</tp1:TrackPointExtension>
</extensions>
</trkpt>
<trkpt lat="46.1729884" lon="6.0142701">
<ele>410.0000000</ele>
<time>2014-12-04T12:08:08Z</time>
<extensions>
<tp1:TrackPointExtension>
<tp1:hr>145</tp1:hr>
</tp1:TrackPointExtension>
</extensions>
</trkpt>
<trkpt lat="46.1729133" lon="6.0144564">
<ele>410.4000000</ele>
<time>2014-12-04T12:08:12Z</time>
<extensions>
<tp1:TrackPointExtension>
<tp1:hr>146</tp1:hr>
</tp1:TrackPointExtension>
</extensions>
</trkpt>
<trkpt lat="46.1728949" lon="6.0144994">
<ele>410.8000000</ele>
<time>2014-12-04T12:08:13Z</time>
<extensions>
<tp1:TrackPointExtension>
<tp1:hr>146</tp1:hr>
</tp1:TrackPointExtension>
</extensions>
</trkpt>
<trkpt lat="46.1728759" lon="6.0145431">
<ele>411.2000000</ele>
<time>2014-12-04T12:08:14Z</time>
<extensions>
<tp1:TrackPointExtension>
<tp1:hr>146</tp1:hr>
</tp1:TrackPointExtension>
</extensions>
</trkpt>
<trkpt lat="46.1728566" lon="6.0145883">
<ele>411.6000000</ele>
<time>2014-12-04T12:08:15Z</time>
<extensions>
<tp1:TrackPointExtension>
<tp1:hr>146</tp1:hr>
</tp1:TrackPointExtension>
</extensions>
</trkpt>
<trkpt lat="46.1728179" lon="6.0146778">
<ele>412.0000000</ele>
<time>2014-12-04T12:08:17Z</time>
<extensions>
<tp1:TrackPointExtension>
<tp1:hr>146</tp1:hr>
</tp1:TrackPointExtension>
</extensions>
</trkpt>
<trkpt lat="46.1727684" lon="6.0148081">
<ele>412.4000000</ele>
<time>2014-12-04T12:08:20Z</time>
<extensions>
<tp1:TrackPointExtension>
<tp1:hr>146</tp1:hr>
</tp1:TrackPointExtension>
</extensions>
</trkpt>
<trkpt lat="46.1727564" lon="6.0148426">
<ele>412.8000000</ele>
<time>2014-12-04T12:08:21Z</time>
<extensions>
<tp1:TrackPointExtension>
<tp1:hr>146</tp1:hr>
</tp1:TrackPointExtension>
</extensions>
</trkpt>
<trkpt lat="46.1727381" lon="6.0148803">
<ele>413.2000000</ele>
<time>2014-12-04T12:08:22Z</time>
<extensions>
<tp1:TrackPointExtension>
<tp1:hr>146</tp1:hr>
</tp1:TrackPointExtension>
</extensions>
</trkpt>
<trkpt lat="46.1727185" lon="6.0149123">
<ele>413.8000000</ele>
<time>2014-12-04T12:08:23Z</time>
<extensions>
<tp1:TrackPointExtension>
<tp1:hr>146</tp1:hr>
</tp1:TrackPointExtension>
</extensions>
</trkpt>
<trkpt lat="46.1727012" lon="6.0149496">
<ele>414.2000000</ele>
<time>2014-12-04T12:08:24Z</time>
<extensions>
<tp1:TrackPointExtension>
<tp1:hr>146</tp1:hr>
</tp1:TrackPointExtension>
</extensions>
</trkpt>
<trkpt lat="46.1725734" lon="6.0152124">
<ele>414.6000000</ele>
<time>2014-12-04T12:08:31Z</time>
<extensions>
<tp1:TrackPointExtension>
<tp1:hr>147</tp1:hr>
</tp1:TrackPointExtension>
</extensions>
</trkpt>
<trkpt lat="46.1725582" lon="6.0152523">
<ele>415.0000000</ele>
<time>2014-12-04T12:08:32Z</time>
<extensions>
<tp1:TrackPointExtension>
<tp1:hr>147</tp1:hr>
</tp1:TrackPointExtension>
</extensions>
</trkpt>
<trkpt lat="46.1725442" lon="6.0152925">
<ele>415.6000000</ele>
<time>2014-12-04T12:08:33Z</time>
<extensions>
<tp1:TrackPointExtension>
<tp1:hr>147</tp1:hr>
</tp1:TrackPointExtension>
</extensions>
</trkpt>
<trkpt lat="46.1725289" lon="6.0153268">
<ele>416.0000000</ele>
<time>2014-12-04T12:08:34Z</time>
<extensions>
<tp1:TrackPointExtension>
<tp1:hr>147</tp1:hr>
</tp1:TrackPointExtension>
</extensions>
</trkpt>
<trkpt lat="46.1725153" lon="6.0153627">
<ele>416.4000000</ele>
<time>2014-12-04T12:08:35Z</time>
<extensions>
<tp1:TrackPointExtension>
<tp1:hr>147</tp1:hr>
</tp1:TrackPointExtension>
</extensions>
</trkpt>
<trkpt lat="46.1724191" lon="6.0156005">
<ele>417.0000000</ele>
<time>2014-12-04T12:08:41Z</time>
<extensions>
<tp1:TrackPointExtension>
<tp1:hr>148</tp1:hr>
</tp1:TrackPointExtension>
</extensions>
</trkpt>
<trkpt lat="46.1724025" lon="6.0156446">
<ele>417.4000000</ele>
<time>2014-12-04T12:08:42Z</time>
<extensions>
<tp1:TrackPointExtension>
<tp1:hr>148</tp1:hr>
</tp1:TrackPointExtension>
</extensions>
</trkpt>
<trkpt lat="46.1723900" lon="6.0156825">
<ele>417.8000000</ele>
<time>2014-12-04T12:08:43Z</time>
<extensions>
<tp1:TrackPointExtension>
<tp1:hr>148</tp1:hr>
</tp1:TrackPointExtension>
</extensions>
</trkpt>
<trkpt lat="46.1723752" lon="6.0157236">
<ele>418.2000000</ele>
<time>2014-12-04T12:08:44Z</time>
<extensions>
<tp1:TrackPointExtension>
<tp1:hr>148</tp1:hr>
</tp1:TrackPointExtension>
</extensions>
</trkpt>
<trkpt lat="46.1723614" lon="6.0157637">
<ele>418.6000000</ele>
<time>2014-12-04T12:08:45Z</time>
<extensions>
<tp1:TrackPointExtension>
<tp1:hr>148</tp1:hr>
</tp1:TrackPointExtension>
</extensions>
</trkpt>
<trkpt lat="46.1723138" lon="6.0159513">
<ele>418.6000000</ele>
<time>2014-12-04T12:08:49Z</time>
<extensions>
<tp1:TrackPointExtension>
<tp1:hr>149</tp1:hr>
</tp1:TrackPointExtension>
</extensions>
</trkpt>
<trkpt lat="46.1722975" lon="6.0163217">
<ele>418.6000000</ele>
<time>2014-12-04T12:08:56Z</time>
<extensions>
<tp1:TrackPointExtension>
<tp1:hr>148</tp1:hr>
</tp1:TrackPointExtension>
</extensions>
</trkpt>
<trkpt lat="46.1723081" lon="6.0165346">
<ele>419.0000000</ele>
<time>2014-12-04T12:09:00Z</time>
<extensions>
<tp1:TrackPointExtension>
<tp1:hr>149</tp1:hr>
</tp1:TrackPointExtension>
</extensions>
</trkpt>
<trkpt lat="46.1723144" lon="6.0165842">
<ele>419.6000000</ele>
<time>2014-12-04T12:09:01Z</time>
<extensions>
<tp1:TrackPointExtension>
<tp1:hr>148</tp1:hr>
</tp1:TrackPointExtension>
</extensions>
</trkpt>
<trkpt lat="46.1723232" lon="6.0166305">
<ele>420.0000000</ele>
<time>2014-12-04T12:09:02Z</time>
<extensions>
<tp1:TrackPointExtension>
<tp1:hr>148</tp1:hr>
</tp1:TrackPointExtension>
</extensions>
</trkpt>
<trkpt lat="46.1723346" lon="6.0166819">
<ele>420.4000000</ele>
<time>2014-12-04T12:09:03Z</time>
<extensions>
<tp1:TrackPointExtension>
<tp1:hr>149</tp1:hr>
</tp1:TrackPointExtension>
</extensions>
</trkpt>
<trkpt lat="46.1723451" lon="6.0167307">
<ele>420.8000000</ele>
<time>2014-12-04T12:09:04Z</time>
<extensions>
<tp1:TrackPointExtension>
<tp1:hr>149</tp1:hr>
</tp1:TrackPointExtension>
</extensions>
</trkpt>
<trkpt lat="46.1724454" lon="6.0170095">
<ele>420.8000000</ele>
<time>2014-12-04T12:09:10Z</time>
<extensions>
<tp1:TrackPointExtension>
<tp1:hr>148</tp1:hr>
</tp1:TrackPointExtension>
</extensions>
</trkpt>
<trkpt lat="46.1725661" lon="6.0172365">
<ele>420.8000000</ele>
<time>2014-12-04T12:09:15Z</time>
<extensions>
<tp1:TrackPointExtension>
<tp1:hr>148</tp1:hr>
</tp1:TrackPointExtension>
</extensions>
</trkpt>
<trkpt lat="46.1726512" lon="6.0173854">
<ele>420.8000000</ele>
<time>2014-12-04T12:09:18Z</time>
<extensions>
<tp1:TrackPointExtension>
<tp1:hr>147</tp1:hr>
</tp1:TrackPointExtension>
</extensions>
</trkpt>
<trkpt lat="46.1727611" lon="6.0174702">
<ele>420.8000000</ele>
<time>2014-12-04T12:09:21Z</time>
<extensions>
<tp1:TrackPointExtension>
<tp1:hr>147</tp1:hr>
</tp1:TrackPointExtension>
</extensions>
</trkpt>
<trkpt lat="46.1728764" lon="6.0173763">
<ele>420.8000000</ele>
<time>2014-12-04T12:09:24Z</time>
<extensions>
<tp1:TrackPointExtension>
<tp1:hr>146</tp1:hr>
</tp1:TrackPointExtension>
</extensions>
</trkpt>
<trkpt lat="46.1729437" lon="6.0172767">
<ele>420.8000000</ele>
<time>2014-12-04T12:09:26Z</time>
<extensions>
<tp1:TrackPointExtension>
<tp1:hr>146</tp1:hr>
</tp1:TrackPointExtension>
</extensions>
</trkpt>
<trkpt lat="46.1731262" lon="6.0170616">
<ele>420.8000000</ele>
<time>2014-12-04T12:09:31Z</time>
<extensions>
<tp1:TrackPointExtension>
<tp1:hr>144</tp1:hr>
</tp1:TrackPointExtension>
</extensions>
</trkpt>
<trkpt lat="46.1734126" lon="6.0167230">
<ele>420.8000000</ele>
<time>2014-12-04T12:09:40Z</time>
<extensions>
<tp1:TrackPointExtension>
<tp1:hr>142</tp1:hr>
</tp1:TrackPointExtension>
</extensions>
</trkpt>
<trkpt lat="46.1734499" lon="6.0166997">
<ele>420.8000000</ele>
<time>2014-12-04T12:09:41Z</time>
<extensions>
<tp1:TrackPointExtension>
<tp1:hr>142</tp1:hr>
</tp1:TrackPointExtension>
</extensions>
</trkpt>
<trkpt lat="46.1735741" lon="6.0166719">
<ele>420.8000000</ele>
<time>2014-12-04T12:09:44Z</time>
<extensions>
<tp1:TrackPointExtension>
<tp1:hr>142</tp1:hr>
</tp1:TrackPointExtension>
</extensions>
</trkpt>
<trkpt lat="46.1736988" lon="6.0167127">
<ele>420.8000000</ele>
<time>2014-12-04T12:09:47Z</time>
<extensions>
<tp1:TrackPointExtension>
<tp1:hr>141</tp1:hr>
</tp1:TrackPointExtension>
</extensions>
</trkpt>
<trkpt lat="46.1737825" lon="6.0167605">
<ele>420.8000000</ele>
<time>2014-12-04T12:09:49Z</time>
<extensions>
<tp1:TrackPointExtension>
<tp1:hr>140</tp1:hr>
</tp1:TrackPointExtension>
</extensions>
</trkpt>
<trkpt lat="46.1739272" lon="6.0168950">
<ele>420.8000000</ele>
<time>2014-12-04T12:09:53Z</time>
<extensions>
<tp1:TrackPointExtension>
<tp1:hr>139</tp1:hr>
</tp1:TrackPointExtension>
</extensions>
</trkpt>
<trkpt lat="46.1741253" lon="6.0171962">
<ele>420.8000000</ele>
<time>2014-12-04T12:09:59Z</time>
<extensions>
<tp1:TrackPointExtension>
<tp1:hr>137</tp1:hr>
</tp1:TrackPointExtension>
</extensions>
</trkpt>
<trkpt lat="46.1741565" lon="6.0172519">
<ele>420.8000000</ele>
<time>2014-12-04T12:10:00Z</time>
<extensions>
<tp1:TrackPointExtension>
<tp1:hr>136</tp1:hr>
</tp1:TrackPointExtension>
</extensions>
</trkpt>
<trkpt lat="46.1743297" lon="6.0175213">
<ele>420.8000000</ele>
<time>2014-12-04T12:10:05Z</time>
<extensions>
<tp1:TrackPointExtension>
<tp1:hr>136</tp1:hr>
</tp1:TrackPointExtension>
</extensions>
</trkpt>
<trkpt lat="46.1745248" lon="6.0178711">
<ele>420.8000000</ele>
<time>2014-12-04T12:10:11Z</time>
<extensions>
<tp1:TrackPointExtension>
<tp1:hr>133</tp1:hr>
</tp1:TrackPointExtension>
</extensions>
</trkpt>
<trkpt lat="46.1746121" lon="6.0180566">
<ele>420.8000000</ele>
<time>2014-12-04T12:10:14Z</time>
<extensions>
<tp1:TrackPointExtension>
<tp1:hr>130</tp1:hr>
</tp1:TrackPointExtension>
</extensions>
</trkpt>
<trkpt lat="46.1746725" lon="6.0181786">
<ele>420.8000000</ele>
<time>2014-12-04T12:10:16Z</time>
<extensions>
<tp1:TrackPointExtension>
<tp1:hr>127</tp1:hr>
</tp1:TrackPointExtension>
</extensions>
</trkpt>
<trkpt lat="46.1746920" lon="6.0182451">
<ele>420.8000000</ele>
<time>2014-12-04T12:10:17Z</time>
<extensions>
<tp1:TrackPointExtension>
<tp1:hr>127</tp1:hr>
</tp1:TrackPointExtension>
</extensions>
</trkpt>
<trkpt lat="46.1747472" lon="6.0184729">
<ele>420.8000000</ele>
<time>2014-12-04T12:10:20Z</time>
<extensions>
<tp1:TrackPointExtension>
<tp1:hr>125</tp1:hr>
</tp1:TrackPointExtension>
</extensions>
</trkpt>
<trkpt lat="46.1747563" lon="6.0185558">
<ele>420.8000000</ele>
<time>2014-12-04T12:10:21Z</time>
<extensions>
<tp1:TrackPointExtension>
<tp1:hr>125</tp1:hr>
</tp1:TrackPointExtension>
</extensions>
</trkpt>
<trkpt lat="46.1747314" lon="6.0187218">
<ele>420.4000000</ele>
<time>2014-12-04T12:10:23Z</time>
<extensions>
<tp1:TrackPointExtension>
<tp1:hr>126</tp1:hr>
</tp1:TrackPointExtension>
</extensions>
</trkpt>
<trkpt lat="46.1746976" lon="6.0187983">
<ele>420.0000000</ele>
<time>2014-12-04T12:10:24Z</time>
<extensions>
<tp1:TrackPointExtension>
<tp1:hr>127</tp1:hr>
</tp1:TrackPointExtension>
</extensions>
</trkpt>
<trkpt lat="46.1746559" lon="6.0188666">
<ele>419.6000000</ele>
<time>2014-12-04T12:10:25Z</time>
<extensions>
<tp1:TrackPointExtension>
<tp1:hr>127</tp1:hr>
</tp1:TrackPointExtension>
</extensions>
</trkpt>
<trkpt lat="46.1746135" lon="6.0189306">
<ele>419.0000000</ele>
<time>2014-12-04T12:10:26Z</time>
<extensions>
<tp1:TrackPointExtension>
<tp1:hr>127</tp1:hr>
</tp1:TrackPointExtension>
</extensions>
</trkpt>
<trkpt lat="46.1745636" lon="6.0190037">
<ele>418.6000000</ele>
<time>2014-12-04T12:10:27Z</time>
<extensions>
<tp1:TrackPointExtension>
<tp1:hr>127</tp1:hr>
</tp1:TrackPointExtension>
</extensions>
</trkpt>
<trkpt lat="46.1743671" lon="6.0192737">
<ele>418.6000000</ele>
<time>2014-12-04T12:10:32Z</time>
<extensions>
<tp1:TrackPointExtension>
<tp1:hr>125</tp1:hr>
</tp1:TrackPointExtension>
</extensions>
</trkpt>
<trkpt lat="46.1741930" lon="6.0195263">
<ele>418.6000000</ele>
<time>2014-12-04T12:10:38Z</time>
<extensions>
<tp1:TrackPointExtension>
<tp1:hr>124</tp1:hr>
</tp1:TrackPointExtension>
</extensions>
</trkpt>
<trkpt lat="46.1742029" lon="6.0196529">
<ele>418.6000000</ele>
<time>2014-12-04T12:10:40Z</time>
<extensions>
<tp1:TrackPointExtension>
<tp1:hr>124</tp1:hr>
</tp1:TrackPointExtension>
</extensions>
</trkpt>
<trkpt lat="46.1742528" lon="6.0198132">
<ele>418.6000000</ele>
<time>2014-12-04T12:10:43Z</time>
<extensions>
<tp1:TrackPointExtension>
<tp1:hr>125</tp1:hr>
</tp1:TrackPointExtension>
</extensions>
</trkpt>
<trkpt lat="46.1744150" lon="6.0200914">
<ele>418.6000000</ele>
<time>2014-12-04T12:10:48Z</time>
<extensions>
<tp1:TrackPointExtension>
<tp1:hr>126</tp1:hr>
</tp1:TrackPointExtension>
</extensions>
</trkpt>
<trkpt lat="46.1744485" lon="6.0201417">
<ele>418.6000000</ele>
<time>2014-12-04T12:10:49Z</time>
<extensions>
<tp1:TrackPointExtension>
<tp1:hr>126</tp1:hr>
</tp1:TrackPointExtension>
</extensions>
</trkpt>
<trkpt lat="46.1746649" lon="6.0204595">
<ele>418.6000000</ele>
<time>2014-12-04T12:10:55Z</time>
<extensions>
<tp1:TrackPointExtension>
<tp1:hr>127</tp1:hr>
</tp1:TrackPointExtension>
</extensions>
</trkpt>
<trkpt lat="46.1748738" lon="6.0208507">
<ele>419.0000000</ele>
<time>2014-12-04T12:11:02Z</time>
<extensions>
<tp1:TrackPointExtension>
<tp1:hr>128</tp1:hr>
</tp1:TrackPointExtension>
</extensions>
</trkpt>
<trkpt lat="46.1748970" lon="6.0209148">
<ele>419.6000000</ele>
<time>2014-12-04T12:11:03Z</time>
<extensions>
<tp1:TrackPointExtension>
<tp1:hr>129</tp1:hr>
</tp1:TrackPointExtension>
</extensions>
</trkpt>
<trkpt lat="46.1749194" lon="6.0209743">
<ele>420.0000000</ele>
<time>2014-12-04T12:11:04Z</time>
<extensions>
<tp1:TrackPointExtension>
<tp1:hr>129</tp1:hr>
</tp1:TrackPointExtension>
</extensions>
</trkpt>
<trkpt lat="46.1749349" lon="6.0210319">
<ele>420.6000000</ele>
<time>2014-12-04T12:11:05Z</time>
<extensions>
<tp1:TrackPointExtension>
<tp1:hr>129</tp1:hr>
</tp1:TrackPointExtension>
</extensions>
</trkpt>
<trkpt lat="46.1749445" lon="6.0210888">
<ele>421.0000000</ele>
<time>2014-12-04T12:11:06Z</time>
<extensions>
<tp1:TrackPointExtension>
<tp1:hr>130</tp1:hr>
</tp1:TrackPointExtension>
</extensions>
</trkpt>
<trkpt lat="46.1749877" lon="6.0212188">
<ele>421.0000000</ele>
<time>2014-12-04T12:11:08Z</time>
<extensions>
<tp1:TrackPointExtension>
<tp1:hr>131</tp1:hr>
</tp1:TrackPointExtension>
</extensions>
</trkpt>
<trkpt lat="46.1750280" lon="6.0213572">
<ele>421.0000000</ele>
<time>2014-12-04T12:11:10Z</time>
<extensions>
<tp1:TrackPointExtension>
<tp1:hr>131</tp1:hr>
</tp1:TrackPointExtension>
</extensions>
</trkpt>
<trkpt lat="46.1750564" lon="6.0215873">
<ele>421.0000000</ele>
<time>2014-12-04T12:11:13Z</time>
<extensions>
<tp1:TrackPointExtension>
<tp1:hr>132</tp1:hr>
</tp1:TrackPointExtension>
</extensions>
</trkpt>
<trkpt lat="46.1750254" lon="6.0218302">
<ele>421.0000000</ele>
<time>2014-12-04T12:11:16Z</time>
<extensions>
<tp1:TrackPointExtension>
<tp1:hr>133</tp1:hr>
</tp1:TrackPointExtension>
</extensions>
</trkpt>
<trkpt lat="46.1750078" lon="6.0219100">
<ele>421.0000000</ele>
<time>2014-12-04T12:11:17Z</time>
<extensions>
<tp1:TrackPointExtension>
<tp1:hr>133</tp1:hr>
</tp1:TrackPointExtension>
</extensions>
</trkpt>
<trkpt lat="46.1748405" lon="6.0224513">
<ele>421.0000000</ele>
<time>2014-12-04T12:11:24Z</time>
<extensions>
<tp1:TrackPointExtension>
<tp1:hr>133</tp1:hr>
</tp1:TrackPointExtension>
</extensions>
</trkpt>
<trkpt lat="46.1747697" lon="6.0225864">
<ele>421.0000000</ele>
<time>2014-12-04T12:11:26Z</time>
<extensions>
<tp1:TrackPointExtension>
<tp1:hr>133</tp1:hr>
</tp1:TrackPointExtension>
</extensions>
</trkpt>
<trkpt lat="46.1746190" lon="6.0228372">
<ele>421.0000000</ele>
<time>2014-12-04T12:11:30Z</time>
<extensions>
<tp1:TrackPointExtension>
<tp1:hr>133</tp1:hr>
</tp1:TrackPointExtension>
</extensions>
</trkpt>
<trkpt lat="46.1744430" lon="6.0232132">
<ele>421.0000000</ele>
<time>2014-12-04T12:11:35Z</time>
<extensions>
<tp1:TrackPointExtension>
<tp1:hr>133</tp1:hr>
</tp1:TrackPointExtension>
</extensions>
</trkpt>
<trkpt lat="46.1744289" lon="6.0232938">
<ele>421.0000000</ele>
<time>2014-12-04T12:11:36Z</time>
<extensions>
<tp1:TrackPointExtension>
<tp1:hr>133</tp1:hr>
</tp1:TrackPointExtension>
</extensions>
</trkpt>
<trkpt lat="46.1745460" lon="6.0234681">
<ele>421.0000000</ele>
<time>2014-12-04T12:11:39Z</time>
<extensions>
<tp1:TrackPointExtension>
<tp1:hr>132</tp1:hr>
</tp1:TrackPointExtension>
</extensions>
</trkpt>
<trkpt lat="46.1745934" lon="6.0235178">
<ele>421.0000000</ele>
<time>2014-12-04T12:11:40Z</time>
<extensions>
<tp1:TrackPointExtension>
<tp1:hr>133</tp1:hr>
</tp1:TrackPointExtension>
</extensions>
</trkpt>
<trkpt lat="46.1746790" lon="6.0236386">
<ele>421.0000000</ele>
<time>2014-12-04T12:11:42Z</time>
<extensions>
<tp1:TrackPointExtension>
<tp1:hr>133</tp1:hr>
</tp1:TrackPointExtension>
</extensions>
</trkpt>
<trkpt lat="46.1747298" lon="6.0237852">
<ele>421.0000000</ele>
<time>2014-12-04T12:11:45Z</time>
<extensions>
<tp1:TrackPointExtension>
<tp1:hr>133</tp1:hr>
</tp1:TrackPointExtension>
</extensions>
</trkpt>
<trkpt lat="46.1747661" lon="6.0239358">
<ele>421.0000000</ele>
<time>2014-12-04T12:11:47Z</time>
<extensions>
<tp1:TrackPointExtension>
<tp1:hr>133</tp1:hr>
</tp1:TrackPointExtension>
</extensions>
</trkpt>
<trkpt lat="46.1748472" lon="6.0242447">
<ele>421.0000000</ele>
<time>2014-12-04T12:11:51Z</time>
<extensions>
<tp1:TrackPointExtension>
<tp1:hr>133</tp1:hr>
</tp1:TrackPointExtension>
</extensions>
</trkpt>
<trkpt lat="46.1749806" lon="6.0249515">
<ele>421.0000000</ele>
<time>2014-12-04T12:12:00Z</time>
<extensions>
<tp1:TrackPointExtension>
<tp1:hr>133</tp1:hr>
</tp1:TrackPointExtension>
</extensions>
</trkpt>
<trkpt lat="46.1751940" lon="6.0257404">
<ele>421.0000000</ele>
<time>2014-12-04T12:12:10Z</time>
<extensions>
<tp1:TrackPointExtension>
<tp1:hr>134</tp1:hr>
</tp1:TrackPointExtension>
</extensions>
</trkpt>
<trkpt lat="46.1752114" lon="6.0258202">
<ele>421.0000000</ele>
<time>2014-12-04T12:12:11Z</time>
<extensions>
<tp1:TrackPointExtension>
<tp1:hr>134</tp1:hr>
</tp1:TrackPointExtension>
</extensions>
</trkpt>
<trkpt lat="46.1752191" lon="6.0259037">
<ele>421.0000000</ele>
<time>2014-12-04T12:12:12Z</time>
<extensions>
<tp1:TrackPointExtension>
<tp1:hr>134</tp1:hr>
</tp1:TrackPointExtension>
</extensions>
</trkpt>
<trkpt lat="46.1752843" lon="6.0262374">
<ele>421.0000000</ele>
<time>2014-12-04T12:12:16Z</time>
<extensions>
<tp1:TrackPointExtension>
<tp1:hr>134</tp1:hr>
</tp1:TrackPointExtension>
</extensions>
</trkpt>
<trkpt lat="46.1754665" lon="6.0270419">
<ele>421.0000000</ele>
<time>2014-12-04T12:12:26Z</time>
<extensions>
<tp1:TrackPointExtension>
<tp1:hr>135</tp1:hr>
</tp1:TrackPointExtension>
</extensions>
</trkpt>
<trkpt lat="46.1755165" lon="6.0272769">
<ele>421.0000000</ele>
<time>2014-12-04T12:12:29Z</time>
<extensions>
<tp1:TrackPointExtension>
<tp1:hr>135</tp1:hr>
</tp1:TrackPointExtension>
</extensions>
</trkpt>
<trkpt lat="46.1756996" lon="6.0280940">
<ele>421.0000000</ele>
<time>2014-12-04T12:12:39Z</time>
<extensions>
<tp1:TrackPointExtension>
<tp1:hr>135</tp1:hr>
</tp1:TrackPointExtension>
</extensions>
</trkpt>
<trkpt lat="46.1757850" lon="6.0285048">
<ele>421.0000000</ele>
<time>2014-12-04T12:12:44Z</time>
<extensions>
<tp1:TrackPointExtension>
<tp1:hr>136</tp1:hr>
</tp1:TrackPointExtension>
</extensions>
</trkpt>
<trkpt lat="46.1759472" lon="6.0292470">
<ele>421.0000000</ele>
<time>2014-12-04T12:12:53Z</time>
<extensions>
<tp1:TrackPointExtension>
<tp1:hr>136</tp1:hr>
</tp1:TrackPointExtension>
</extensions>
</trkpt>
<trkpt lat="46.1760927" lon="6.0299097">
<ele>421.0000000</ele>
<time>2014-12-04T12:13:01Z</time>
<extensions>
<tp1:TrackPointExtension>
<tp1:hr>136</tp1:hr>
</tp1:TrackPointExtension>
</extensions>
</trkpt>
<trkpt lat="46.1762667" lon="6.0306962">
<ele>421.0000000</ele>
<time>2014-12-04T12:13:10Z</time>
<extensions>
<tp1:TrackPointExtension>
<tp1:hr>136</tp1:hr>
</tp1:TrackPointExtension>
</extensions>
</trkpt>
<trkpt lat="46.1763921" lon="6.0312750">
<ele>421.0000000</ele>
<time>2014-12-04T12:13:17Z</time>
<extensions>
<tp1:TrackPointExtension>
<tp1:hr>136</tp1:hr>
</tp1:TrackPointExtension>
</extensions>
</trkpt>
<trkpt lat="46.1765803" lon="6.0321030">
<ele>421.0000000</ele>
<time>2014-12-04T12:13:27Z</time>
<extensions>
<tp1:TrackPointExtension>
<tp1:hr>135</tp1:hr>
</tp1:TrackPointExtension>
</extensions>
</trkpt>
<trkpt lat="46.1766788" lon="6.0325008">
<ele>421.0000000</ele>
<time>2014-12-04T12:13:32Z</time>
<extensions>
<tp1:TrackPointExtension>
<tp1:hr>135</tp1:hr>
</tp1:TrackPointExtension>
</extensions>
</trkpt>
<trkpt lat="46.1768433" lon="6.0331218">
<ele>421.0000000</ele>
<time>2014-12-04T12:13:40Z</time>
<extensions>
<tp1:TrackPointExtension>
<tp1:hr>135</tp1:hr>
</tp1:TrackPointExtension>
</extensions>
</trkpt>
<trkpt lat="46.1769547" lon="6.0334165">
<ele>421.0000000</ele>
<time>2014-12-04T12:13:44Z</time>
<extensions>
<tp1:TrackPointExtension>
<tp1:hr>135</tp1:hr>
</tp1:TrackPointExtension>
</extensions>
</trkpt>
<trkpt lat="46.1770256" lon="6.0336212">
<ele>421.0000000</ele>
<time>2014-12-04T12:13:47Z</time>
<extensions>
<tp1:TrackPointExtension>
<tp1:hr>135</tp1:hr>
</tp1:TrackPointExtension>
</extensions>
</trkpt>
<trkpt lat="46.1773427" lon="6.0342318">
<ele>421.0000000</ele>
<time>2014-12-04T12:13:56Z</time>
<extensions>
<tp1:TrackPointExtension>
<tp1:hr>135</tp1:hr>
</tp1:TrackPointExtension>
</extensions>
</trkpt>
<trkpt lat="46.1775901" lon="6.0346016">
<ele>421.0000000</ele>
<time>2014-12-04T12:14:02Z</time>
<extensions>
<tp1:TrackPointExtension>
<tp1:hr>135</tp1:hr>
</tp1:TrackPointExtension>
</extensions>
</trkpt>
<trkpt lat="46.1777654" lon="6.0348295">
<ele>421.0000000</ele>
<time>2014-12-04T12:14:06Z</time>
<extensions>
<tp1:TrackPointExtension>
<tp1:hr>133</tp1:hr>
</tp1:TrackPointExtension>
</extensions>
</trkpt>
<trkpt lat="46.1777944" lon="6.0349881">
<ele>421.0000000</ele>
<time>2014-12-04T12:14:08Z</time>
<extensions>
<tp1:TrackPointExtension>
<tp1:hr>132</tp1:hr>
</tp1:TrackPointExtension>
</extensions>
</trkpt>
<trkpt lat="46.1777054" lon="6.0351709">
<ele>421.0000000</ele>
<time>2014-12-04T12:14:11Z</time>
<extensions>
<tp1:TrackPointExtension>
<tp1:hr>131</tp1:hr>
</tp1:TrackPointExtension>
</extensions>
</trkpt>
<trkpt lat="46.1776649" lon="6.0352295">
<ele>421.0000000</ele>
<time>2014-12-04T12:14:12Z</time>
<extensions>
<tp1:TrackPointExtension>
<tp1:hr>132</tp1:hr>
</tp1:TrackPointExtension>
</extensions>
</trkpt>
<trkpt lat="46.1774402" lon="6.0356348">
<ele>421.0000000</ele>
<time>2014-12-04T12:14:18Z</time>
<extensions>
<tp1:TrackPointExtension>
<tp1:hr>132</tp1:hr>
</tp1:TrackPointExtension>
</extensions>
</trkpt>
<trkpt lat="46.1770762" lon="6.0362895">
<ele>421.0000000</ele>
<time>2014-12-04T12:14:28Z</time>
<extensions>
<tp1:TrackPointExtension>
<tp1:hr>133</tp1:hr>
</tp1:TrackPointExtension>
</extensions>
</trkpt>
<trkpt lat="46.1769730" lon="6.0363797">
<ele>421.0000000</ele>
<time>2014-12-04T12:14:30Z</time>
<extensions>
<tp1:TrackPointExtension>
<tp1:hr>134</tp1:hr>
</tp1:TrackPointExtension>
</extensions>
</trkpt>
<trkpt lat="46.1768631" lon="6.0364411">
<ele>421.0000000</ele>
<time>2014-12-04T12:14:32Z</time>
<extensions>
<tp1:TrackPointExtension>
<tp1:hr>134</tp1:hr>
</tp1:TrackPointExtension>
</extensions>
</trkpt>
<trkpt lat="46.1764524" lon="6.0366233">
<ele>421.0000000</ele>
<time>2014-12-04T12:14:39Z</time>
<extensions>
<tp1:TrackPointExtension>
<tp1:hr>135</tp1:hr>
</tp1:TrackPointExtension>
</extensions>
</trkpt>
<trkpt lat="46.1763435" lon="6.0366583">
<ele>421.0000000</ele>
<time>2014-12-04T12:14:41Z</time>
<extensions>
<tp1:TrackPointExtension>
<tp1:hr>134</tp1:hr>
</tp1:TrackPointExtension>
</extensions>
</trkpt>
<trkpt lat="46.1759803" lon="6.0368211">
<ele>421.0000000</ele>
<time>2014-12-04T12:14:47Z</time>
<extensions>
<tp1:TrackPointExtension>
<tp1:hr>134</tp1:hr>
</tp1:TrackPointExtension>
</extensions>
</trkpt>
<trkpt lat="46.1755477" lon="6.0370250">
<ele>421.0000000</ele>
<time>2014-12-04T12:14:54Z</time>
<extensions>
<tp1:TrackPointExtension>
<tp1:hr>133</tp1:hr>
</tp1:TrackPointExtension>
</extensions>
</trkpt>
<trkpt lat="46.1754388" lon="6.0371168">
<ele>421.0000000</ele>
<time>2014-12-04T12:14:56Z</time>
<extensions>
<tp1:TrackPointExtension>
<tp1:hr>133</tp1:hr>
</tp1:TrackPointExtension>
</extensions>
</trkpt>
<trkpt lat="46.1753644" lon="6.0372508">
<ele>421.0000000</ele>
<time>2014-12-04T12:14:58Z</time>
<extensions>
<tp1:TrackPointExtension>
<tp1:hr>133</tp1:hr>
</tp1:TrackPointExtension>
</extensions>
</trkpt>
<trkpt lat="46.1752942" lon="6.0374003">
<ele>421.0000000</ele>
<time>2014-12-04T12:15:00Z</time>
<extensions>
<tp1:TrackPointExtension>
<tp1:hr>133</tp1:hr>
</tp1:TrackPointExtension>
</extensions>
</trkpt>
<trkpt lat="46.1752274" lon="6.0376034">
<ele>421.0000000</ele>
<time>2014-12-04T12:15:03Z</time>
<extensions>
<tp1:TrackPointExtension>
<tp1:hr>133</tp1:hr>
</tp1:TrackPointExtension>
</extensions>
</trkpt>
<trkpt lat="46.1750121" lon="6.0381496">
<ele>421.0000000</ele>
<time>2014-12-04T12:15:10Z</time>
<extensions>
<tp1:TrackPointExtension>
<tp1:hr>133</tp1:hr>
</tp1:TrackPointExtension>
</extensions>
</trkpt>
<trkpt lat="46.1747493" lon="6.0387475">
<ele>421.4000000</ele>
<time>2014-12-04T12:15:18Z</time>
<extensions>
<tp1:TrackPointExtension>
<tp1:hr>133</tp1:hr>
</tp1:TrackPointExtension>
</extensions>
</trkpt>
<trkpt lat="46.1747183" lon="6.0388208">
<ele>421.8000000</ele>
<time>2014-12-04T12:15:19Z</time>
<extensions>
<tp1:TrackPointExtension>
<tp1:hr>133</tp1:hr>
</tp1:TrackPointExtension>
</extensions>
</trkpt>
<trkpt lat="46.1746826" lon="6.0389011">
<ele>422.2000000</ele>
<time>2014-12-04T12:15:20Z</time>
<extensions>
<tp1:TrackPointExtension>
<tp1:hr>133</tp1:hr>
</tp1:TrackPointExtension>
</extensions>
</trkpt>
<trkpt lat="46.1746485" lon="6.0389713">
<ele>422.6000000</ele>
<time>2014-12-04T12:15:21Z</time>
<extensions>
<tp1:TrackPointExtension>
<tp1:hr>133</tp1:hr>
</tp1:TrackPointExtension>
</extensions>
</trkpt>
<trkpt lat="46.1746160" lon="6.0390420">
<ele>423.2000000</ele>
<time>2014-12-04T12:15:22Z</time>
<extensions>
<tp1:TrackPointExtension>
<tp1:hr>133</tp1:hr>
</tp1:TrackPointExtension>
</extensions>
</trkpt>
<trkpt lat="46.1745844" lon="6.0391151">
<ele>423.2000000</ele>
<time>2014-12-04T12:15:23Z</time>
<extensions>
<tp1:TrackPointExtension>
<tp1:hr>133</tp1:hr>
</tp1:TrackPointExtension>
</extensions>
</trkpt>
<trkpt lat="46.1742622" lon="6.0398310">
<ele>423.2000000</ele>
<time>2014-12-04T12:15:33Z</time>
<extensions>
<tp1:TrackPointExtension>
<tp1:hr>133</tp1:hr>
</tp1:TrackPointExtension>
</extensions>
</trkpt>
<trkpt lat="46.1742060" lon="6.0399822">
<ele>423.2000000</ele>
<time>2014-12-04T12:15:35Z</time>
<extensions>
<tp1:TrackPointExtension>
<tp1:hr>133</tp1:hr>
</tp1:TrackPointExtension>
</extensions>
</trkpt>
<trkpt lat="46.1739181" lon="6.0406230">
<ele>423.2000000</ele>
<time>2014-12-04T12:15:44Z</time>
<extensions>
<tp1:TrackPointExtension>
<tp1:hr>134</tp1:hr>
</tp1:TrackPointExtension>
</extensions>
</trkpt>
<trkpt lat="46.1738456" lon="6.0407176">
<ele>423.2000000</ele>
<time>2014-12-04T12:15:46Z</time>
<extensions>
<tp1:TrackPointExtension>
<tp1:hr>133</tp1:hr>
</tp1:TrackPointExtension>
</extensions>
</trkpt>
<trkpt lat="46.1736917" lon="6.0407784">
<ele>423.2000000</ele>
<time>2014-12-04T12:15:49Z</time>
<extensions>
<tp1:TrackPointExtension>
<tp1:hr>133</tp1:hr>
</tp1:TrackPointExtension>
</extensions>
</trkpt>
<trkpt lat="46.1736038" lon="6.0407771">
<ele>423.2000000</ele>
<time>2014-12-04T12:15:51Z</time>
<extensions>
<tp1:TrackPointExtension>
<tp1:hr>133</tp1:hr>
</tp1:TrackPointExtension>
</extensions>
</trkpt>
<trkpt lat="46.1735524" lon="6.0408429">
<ele>423.2000000</ele>
<time>2014-12-04T12:15:53Z</time>
<extensions>
<tp1:TrackPointExtension>
<tp1:hr>132</tp1:hr>
</tp1:TrackPointExtension>
</extensions>
</trkpt>
<trkpt lat="46.1735419" lon="6.0409053">
<ele>423.2000000</ele>
<time>2014-12-04T12:15:54Z</time>
<extensions>
<tp1:TrackPointExtension>
<tp1:hr>132</tp1:hr>
</tp1:TrackPointExtension>
</extensions>
</trkpt>
<trkpt lat="46.1735488" lon="6.0411510">
<ele>423.2000000</ele>
<time>2014-12-04T12:15:57Z</time>
<extensions>
<tp1:TrackPointExtension>
<tp1:hr>132</tp1:hr>
</tp1:TrackPointExtension>
</extensions>
</trkpt>
<trkpt lat="46.1735051" lon="6.0414146">
<ele>423.2000000</ele>
<time>2014-12-04T12:16:00Z</time>
<extensions>
<tp1:TrackPointExtension>
<tp1:hr>132</tp1:hr>
</tp1:TrackPointExtension>
</extensions>
</trkpt>
<trkpt lat="46.1734503" lon="6.0415626">
<ele>423.2000000</ele>
<time>2014-12-04T12:16:02Z</time>
<extensions>
<tp1:TrackPointExtension>
<tp1:hr>132</tp1:hr>
</tp1:TrackPointExtension>
</extensions>
</trkpt>
<trkpt lat="46.1732292" lon="6.0421450">
<ele>423.2000000</ele>
<time>2014-12-04T12:16:10Z</time>
<extensions>
<tp1:TrackPointExtension>
<tp1:hr>130</tp1:hr>
</tp1:TrackPointExtension>
</extensions>
</trkpt>
<trkpt lat="46.1729714" lon="6.0426240">
<ele>423.2000000</ele>
<time>2014-12-04T12:16:17Z</time>
<extensions>
<tp1:TrackPointExtension>
<tp1:hr>129</tp1:hr>
</tp1:TrackPointExtension>
</extensions>
</trkpt>
<trkpt lat="46.1726314" lon="6.0431989">
<ele>423.2000000</ele>
<time>2014-12-04T12:16:25Z</time>
<extensions>
<tp1:TrackPointExtension>
<tp1:hr>129</tp1:hr>
</tp1:TrackPointExtension>
</extensions>
</trkpt>
<trkpt lat="46.1725144" lon="6.0433569">
<ele>423.2000000</ele>
<time>2014-12-04T12:16:28Z</time>
<extensions>
<tp1:TrackPointExtension>
<tp1:hr>127</tp1:hr>
</tp1:TrackPointExtension>
</extensions>
</trkpt>
<trkpt lat="46.1724655" lon="6.0433538">
<ele>423.2000000</ele>
<time>2014-12-04T12:16:29Z</time>
<extensions>
<tp1:TrackPointExtension>
<tp1:hr>126</tp1:hr>
</tp1:TrackPointExtension>
</extensions>
</trkpt>
<trkpt lat="46.1724216" lon="6.0432228">
<ele>423.2000000</ele>
<time>2014-12-04T12:16:31Z</time>
<extensions>
<tp1:TrackPointExtension>
<tp1:hr>126</tp1:hr>
</tp1:TrackPointExtension>
</extensions>
</trkpt>
<trkpt lat="46.1724130" lon="6.0430964">
<ele>423.2000000</ele>
<time>2014-12-04T12:16:33Z</time>
<extensions>
<tp1:TrackPointExtension>
<tp1:hr>125</tp1:hr>
</tp1:TrackPointExtension>
</extensions>
</trkpt>
<trkpt lat="46.1723997" lon="6.0429591">
<ele>423.2000000</ele>
<time>2014-12-04T12:16:35Z</time>
<extensions>
<tp1:TrackPointExtension>
<tp1:hr>126</tp1:hr>
</tp1:TrackPointExtension>
</extensions>
</trkpt>
<trkpt lat="46.1723404" lon="6.0427116">
<ele>423.2000000</ele>
<time>2014-12-04T12:16:39Z</time>
<extensions>
<tp1:TrackPointExtension>
<tp1:hr>128</tp1:hr>
</tp1:TrackPointExtension>
</extensions>
</trkpt>
<trkpt lat="46.1723066" lon="6.0425552">
<ele>423.2000000</ele>
<time>2014-12-04T12:16:41Z</time>
<extensions>
<tp1:TrackPointExtension>
<tp1:hr>129</tp1:hr>
</tp1:TrackPointExtension>
</extensions>
</trkpt>
<trkpt lat="46.1721653" lon="6.0418937">
<ele>423.2000000</ele>
<time>2014-12-04T12:16:50Z</time>
<extensions>
<tp1:TrackPointExtension>
<tp1:hr>131</tp1:hr>
</tp1:TrackPointExtension>
</extensions>
</trkpt>
<trkpt lat="46.1719969" lon="6.0413113">
<ele>423.6000000</ele>
<time>2014-12-04T12:16:58Z</time>
<extensions>
<tp1:TrackPointExtension>
<tp1:hr>133</tp1:hr>
</tp1:TrackPointExtension>
</extensions>
</trkpt>
<trkpt lat="46.1719758" lon="6.0412445">
<ele>424.0000000</ele>
<time>2014-12-04T12:16:59Z</time>
<extensions>
<tp1:TrackPointExtension>
<tp1:hr>133</tp1:hr>
</tp1:TrackPointExtension>
</extensions>
</trkpt>
<trkpt lat="46.1719466" lon="6.0411586">
<ele>424.4000000</ele>
<time>2014-12-04T12:17:00Z</time>
<extensions>
<tp1:TrackPointExtension>
<tp1:hr>133</tp1:hr>
</tp1:TrackPointExtension>
</extensions>
</trkpt>
<trkpt lat="46.1719260" lon="6.0410970">
<ele>424.8000000</ele>
<time>2014-12-04T12:17:01Z</time>
<extensions>
<tp1:TrackPointExtension>
<tp1:hr>133</tp1:hr>
</tp1:TrackPointExtension>
</extensions>
</trkpt>
<trkpt lat="46.1718970" lon="6.0410147">
<ele>425.2000000</ele>
<time>2014-12-04T12:17:02Z</time>
<extensions>
<tp1:TrackPointExtension>
<tp1:hr>134</tp1:hr>
</tp1:TrackPointExtension>
</extensions>
</trkpt>
<trkpt lat="46.1718707" lon="6.0409396">
<ele>425.2000000</ele>
<time>2014-12-04T12:17:03Z</time>
<extensions>
<tp1:TrackPointExtension>
<tp1:hr>134</tp1:hr>
</tp1:TrackPointExtension>
</extensions>
</trkpt>
<trkpt lat="46.1715752" lon="6.0402179">
<ele>425.2000000</ele>
<time>2014-12-04T12:17:13Z</time>
<extensions>
<tp1:TrackPointExtension>
<tp1:hr>136</tp1:hr>
</tp1:TrackPointExtension>
</extensions>
</trkpt>
<trkpt lat="46.1714182" lon="6.0398462">
<ele>425.2000000</ele>
<time>2014-12-04T12:17:18Z</time>
<extensions>
<tp1:TrackPointExtension>
<tp1:hr>137</tp1:hr>
</tp1:TrackPointExtension>
</extensions>
</trkpt>
<trkpt lat="46.1711038" lon="6.0391561">
<ele>425.2000000</ele>
<time>2014-12-04T12:17:28Z</time>
<extensions>
<tp1:TrackPointExtension>
<tp1:hr>138</tp1:hr>
</tp1:TrackPointExtension>
</extensions>
</trkpt>
<trkpt lat="46.1708696" lon="6.0385544">
<ele>425.2000000</ele>
<time>2014-12-04T12:17:37Z</time>
<extensions>
<tp1:TrackPointExtension>
<tp1:hr>137</tp1:hr>
</tp1:TrackPointExtension>
</extensions>
</trkpt>
<trkpt lat="46.1708608" lon="6.0382873">
<ele>425.2000000</ele>
<time>2014-12-04T12:17:41Z</time>
<extensions>
<tp1:TrackPointExtension>
<tp1:hr>136</tp1:hr>
</tp1:TrackPointExtension>
</extensions>
</trkpt>
<trkpt lat="46.1707168" lon="6.0381960">
<ele>425.2000000</ele>
<time>2014-12-04T12:17:44Z</time>
<extensions>
<tp1:TrackPointExtension>
<tp1:hr>135</tp1:hr>
</tp1:TrackPointExtension>
</extensions>
</trkpt>
<trkpt lat="46.1706548" lon="6.0381078">
<ele>425.2000000</ele>
<time>2014-12-04T12:17:46Z</time>
<extensions>
<tp1:TrackPointExtension>
<tp1:hr>135</tp1:hr>
</tp1:TrackPointExtension>
</extensions>
</trkpt>
<trkpt lat="46.1704625" lon="6.0377859">
<ele>425.2000000</ele>
<time>2014-12-04T12:17:51Z</time>
<extensions>
<tp1:TrackPointExtension>
<tp1:hr>135</tp1:hr>
</tp1:TrackPointExtension>
</extensions>
</trkpt>
<trkpt lat="46.1701337" lon="6.0370782">
<ele>425.2000000</ele>
<time>2014-12-04T12:18:01Z</time>
<extensions>
<tp1:TrackPointExtension>
<tp1:hr>135</tp1:hr>
</tp1:TrackPointExtension>
</extensions>
</trkpt>
<trkpt lat="46.1699003" lon="6.0365663">
<ele>425.2000000</ele>
<time>2014-12-04T12:18:08Z</time>
<extensions>
<tp1:TrackPointExtension>
<tp1:hr>135</tp1:hr>
</tp1:TrackPointExtension>
</extensions>
</trkpt>
<trkpt lat="46.1695820" lon="6.0358279">
<ele>425.2000000</ele>
<time>2014-12-04T12:18:18Z</time>
<extensions>
<tp1:TrackPointExtension>
<tp1:hr>134</tp1:hr>
</tp1:TrackPointExtension>
</extensions>
</trkpt>
<trkpt lat="46.1695208" lon="6.0356775">
<ele>425.2000000</ele>
<time>2014-12-04T12:18:20Z</time>
<extensions>
<tp1:TrackPointExtension>
<tp1:hr>134</tp1:hr>
</tp1:TrackPointExtension>
</extensions>
</trkpt>
<trkpt lat="46.1692415" lon="6.0349973">
<ele>425.2000000</ele>
<time>2014-12-04T12:18:29Z</time>
<extensions>
<tp1:TrackPointExtension>
<tp1:hr>135</tp1:hr>
</tp1:TrackPointExtension>
</extensions>
</trkpt>
<trkpt lat="46.1690092" lon="6.0343856">
<ele>425.2000000</ele>
<time>2014-12-04T12:18:37Z</time>
<extensions>
<tp1:TrackPointExtension>
<tp1:hr>135</tp1:hr>
</tp1:TrackPointExtension>
</extensions>
</trkpt>
<trkpt lat="46.1687547" lon="6.0336616">
<ele>425.2000000</ele>
<time>2014-12-04T12:18:46Z</time>
<extensions>
<tp1:TrackPointExtension>
<tp1:hr>136</tp1:hr>
</tp1:TrackPointExtension>
</extensions>
</trkpt>
<trkpt lat="46.1685825" lon="6.0331676">
<ele>425.2000000</ele>
<time>2014-12-04T12:18:52Z</time>
<extensions>
<tp1:TrackPointExtension>
<tp1:hr>136</tp1:hr>
</tp1:TrackPointExtension>
</extensions>
</trkpt>
<trkpt lat="46.1683324" lon="6.0324224">
<ele>425.2000000</ele>
<time>2014-12-04T12:19:01Z</time>
<extensions>
<tp1:TrackPointExtension>
<tp1:hr>136</tp1:hr>
</tp1:TrackPointExtension>
</extensions>
</trkpt>
<trkpt lat="46.1682105" lon="6.0320518">
<ele>425.2000000</ele>
<time>2014-12-04T12:19:06Z</time>
<extensions>
<tp1:TrackPointExtension>
<tp1:hr>136</tp1:hr>
</tp1:TrackPointExtension>
</extensions>
</trkpt>
<trkpt lat="46.1682174" lon="6.0319613">
<ele>425.2000000</ele>
<time>2014-12-04T12:19:08Z</time>
<extensions>
<tp1:TrackPointExtension>
<tp1:hr>135</tp1:hr>
</tp1:TrackPointExtension>
</extensions>
</trkpt>
<trkpt lat="46.1682574" lon="6.0319097">
<ele>425.2000000</ele>
<time>2014-12-04T12:19:09Z</time>
<extensions>
<tp1:TrackPointExtension>
<tp1:hr>135</tp1:hr>
</tp1:TrackPointExtension>
</extensions>
</trkpt>
<trkpt lat="46.1684664" lon="6.0315403">
<ele>425.2000000</ele>
<time>2014-12-04T12:19:15Z</time>
<extensions>
<tp1:TrackPointExtension>
<tp1:hr>135</tp1:hr>
</tp1:TrackPointExtension>
</extensions>
</trkpt>
<trkpt lat="46.1688280" lon="6.0310133">
<ele>425.2000000</ele>
<time>2014-12-04T12:19:24Z</time>
<extensions>
<tp1:TrackPointExtension>
<tp1:hr>136</tp1:hr>
</tp1:TrackPointExtension>
</extensions>
</trkpt>
<trkpt lat="46.1692266" lon="6.0304570">
<ele>425.2000000</ele>
<time>2014-12-04T12:19:34Z</time>
<extensions>
<tp1:TrackPointExtension>
<tp1:hr>137</tp1:hr>
</tp1:TrackPointExtension>
</extensions>
</trkpt>
<trkpt lat="46.1693811" lon="6.0302061">
<ele>425.2000000</ele>
<time>2014-12-04T12:19:38Z</time>
<extensions>
<tp1:TrackPointExtension>
<tp1:hr>136</tp1:hr>
</tp1:TrackPointExtension>
</extensions>
</trkpt>
<trkpt lat="46.1697017" lon="6.0296894">
<ele>425.2000000</ele>
<time>2014-12-04T12:19:46Z</time>
<extensions>
<tp1:TrackPointExtension>
<tp1:hr>135</tp1:hr>
</tp1:TrackPointExtension>
</extensions>
</trkpt>
<trkpt lat="46.1700285" lon="6.0290532">
<ele>425.2000000</ele>
<time>2014-12-04T12:19:55Z</time>
<extensions>
<tp1:TrackPointExtension>
<tp1:hr>135</tp1:hr>
</tp1:TrackPointExtension>
</extensions>
</trkpt>
<trkpt lat="46.1703724" lon="6.0284055">
<ele>425.2000000</ele>
<time>2014-12-04T12:20:04Z</time>
<extensions>
<tp1:TrackPointExtension>
<tp1:hr>136</tp1:hr>
</tp1:TrackPointExtension>
</extensions>
</trkpt>
<trkpt lat="46.1704462" lon="6.0282669">
<ele>425.2000000</ele>
<time>2014-12-04T12:20:06Z</time>
<extensions>
<tp1:TrackPointExtension>
<tp1:hr>135</tp1:hr>
</tp1:TrackPointExtension>
</extensions>
</trkpt>
<trkpt lat="46.1707878" lon="6.0276454">
<ele>425.2000000</ele>
<time>2014-12-04T12:20:15Z</time>
<extensions>
<tp1:TrackPointExtension>
<tp1:hr>136</tp1:hr>
</tp1:TrackPointExtension>
</extensions>
</trkpt>
<trkpt lat="46.1708633" lon="6.0275100">
<ele>425.2000000</ele>
<time>2014-12-04T12:20:17Z</time>
<extensions>
<tp1:TrackPointExtension>
<tp1:hr>136</tp1:hr>
</tp1:TrackPointExtension>
</extensions>
</trkpt>
<trkpt lat="46.1712001" lon="6.0268919">
<ele>425.2000000</ele>
<time>2014-12-04T12:20:25Z</time>
<extensions>
<tp1:TrackPointExtension>
<tp1:hr>136</tp1:hr>
</tp1:TrackPointExtension>
</extensions>
</trkpt>
<trkpt lat="46.1712404" lon="6.0268209">
<ele>425.2000000</ele>
<time>2014-12-04T12:20:26Z</time>
<extensions>
<tp1:TrackPointExtension>
<tp1:hr>135</tp1:hr>
</tp1:TrackPointExtension>
</extensions>
</trkpt>
<trkpt lat="46.1715643" lon="6.0262653">
<ele>425.2000000</ele>
<time>2014-12-04T12:20:34Z</time>
<extensions>
<tp1:TrackPointExtension>
<tp1:hr>135</tp1:hr>
</tp1:TrackPointExtension>
</extensions>
</trkpt>
<trkpt lat="46.1716887" lon="6.0260696">
<ele>424.6000000</ele>
<time>2014-12-04T12:20:37Z</time>
<extensions>
<tp1:TrackPointExtension>
<tp1:hr>135</tp1:hr>
</tp1:TrackPointExtension>
</extensions>
</trkpt>
<trkpt lat="46.1717295" lon="6.0260078">
<ele>424.2000000</ele>
<time>2014-12-04T12:20:38Z</time>
<extensions>
<tp1:TrackPointExtension>
<tp1:hr>135</tp1:hr>
</tp1:TrackPointExtension>
</extensions>
</trkpt>
<trkpt lat="46.1717713" lon="6.0259421">
<ele>423.8000000</ele>
<time>2014-12-04T12:20:39Z</time>
<extensions>
<tp1:TrackPointExtension>
<tp1:hr>134</tp1:hr>
</tp1:TrackPointExtension>
</extensions>
</trkpt>
<trkpt lat="46.1718153" lon="6.0258735">
<ele>423.4000000</ele>
<time>2014-12-04T12:20:40Z</time>
<extensions>
<tp1:TrackPointExtension>
<tp1:hr>134</tp1:hr>
</tp1:TrackPointExtension>
</extensions>
</trkpt>
<trkpt lat="46.1718523" lon="6.0258171">
<ele>423.0000000</ele>
<time>2014-12-04T12:20:41Z</time>
<extensions>
<tp1:TrackPointExtension>
<tp1:hr>134</tp1:hr>
</tp1:TrackPointExtension>
</extensions>
</trkpt>
<trkpt lat="46.1719439" lon="6.0256803">
<ele>423.0000000</ele>
<time>2014-12-04T12:20:43Z</time>
<extensions>
<tp1:TrackPointExtension>
<tp1:hr>134</tp1:hr>
</tp1:TrackPointExtension>
</extensions>
</trkpt>
<trkpt lat="46.1723382" lon="6.0250816">
<ele>423.0000000</ele>
<time>2014-12-04T12:20:52Z</time>
<extensions>
<tp1:TrackPointExtension>
<tp1:hr>134</tp1:hr>
</tp1:TrackPointExtension>
</extensions>
</trkpt>
<trkpt lat="46.1725681" lon="6.0247357">
<ele>423.0000000</ele>
<time>2014-12-04T12:20:58Z</time>
<extensions>
<tp1:TrackPointExtension>
<tp1:hr>131</tp1:hr>
</tp1:TrackPointExtension>
</extensions>
</trkpt>
<trkpt lat="46.1726381" lon="6.0246264">
<ele>423.0000000</ele>
<time>2014-12-04T12:21:00Z</time>
<extensions>
<tp1:TrackPointExtension>
<tp1:hr>130</tp1:hr>
</tp1:TrackPointExtension>
</extensions>
</trkpt>
<trkpt lat="46.1727238" lon="6.0244583">
<ele>423.0000000</ele>
<time>2014-12-04T12:21:03Z</time>
<extensions>
<tp1:TrackPointExtension>
<tp1:hr>128</tp1:hr>
</tp1:TrackPointExtension>
</extensions>
</trkpt>
<trkpt lat="46.1727614" lon="6.0243391">
<ele>423.0000000</ele>
<time>2014-12-04T12:21:05Z</time>
<extensions>
<tp1:TrackPointExtension>
<tp1:hr>127</tp1:hr>
</tp1:TrackPointExtension>
</extensions>
</trkpt>
<trkpt lat="46.1727633" lon="6.0242715">
<ele>423.0000000</ele>
<time>2014-12-04T12:21:06Z</time>
<extensions>
<tp1:TrackPointExtension>
<tp1:hr>126</tp1:hr>
</tp1:TrackPointExtension>
</extensions>
</trkpt>
<trkpt lat="46.1727469" lon="6.0241296">
<ele>423.0000000</ele>
<time>2014-12-04T12:21:08Z</time>
<extensions>
<tp1:TrackPointExtension>
<tp1:hr>126</tp1:hr>
</tp1:TrackPointExtension>
</extensions>
</trkpt>
<trkpt lat="46.1727068" lon="6.0238829">
<ele>423.0000000</ele>
<time>2014-12-04T12:21:12Z</time>
<extensions>
<tp1:TrackPointExtension>
<tp1:hr>126</tp1:hr>
</tp1:TrackPointExtension>
</extensions>
</trkpt>
<trkpt lat="46.1726074" lon="6.0235204">
<ele>423.0000000</ele>
<time>2014-12-04T12:21:18Z</time>
<extensions>
<tp1:TrackPointExtension>
<tp1:hr>124</tp1:hr>
</tp1:TrackPointExtension>
</extensions>
</trkpt>
<trkpt lat="46.1726474" lon="6.0233884">
<ele>423.0000000</ele>
<time>2014-12-04T12:21:20Z</time>
<extensions>
<tp1:TrackPointExtension>
<tp1:hr>123</tp1:hr>
</tp1:TrackPointExtension>
</extensions>
</trkpt>
<trkpt lat="46.1727050" lon="6.0232646">
<ele>423.0000000</ele>
<time>2014-12-04T12:21:22Z</time>
<extensions>
<tp1:TrackPointExtension>
<tp1:hr>123</tp1:hr>
</tp1:TrackPointExtension>
</extensions>
</trkpt>
<trkpt lat="46.1727420" lon="6.0231901">
<ele>423.0000000</ele>
<time>2014-12-04T12:21:23Z</time>
<extensions>
<tp1:TrackPointExtension>
<tp1:hr>123</tp1:hr>
</tp1:TrackPointExtension>
</extensions>
</trkpt>
<trkpt lat="46.1728076" lon="6.0230515">
<ele>422.4000000</ele>
<time>2014-12-04T12:21:25Z</time>
<extensions>
<tp1:TrackPointExtension>
<tp1:hr>124</tp1:hr>
</tp1:TrackPointExtension>
</extensions>
</trkpt>
<trkpt lat="46.1728423" lon="6.0229790">
<ele>422.0000000</ele>
<time>2014-12-04T12:21:26Z</time>
<extensions>
<tp1:TrackPointExtension>
<tp1:hr>124</tp1:hr>
</tp1:TrackPointExtension>
</extensions>
</trkpt>
<trkpt lat="46.1728777" lon="6.0229144">
<ele>421.6000000</ele>
<time>2014-12-04T12:21:27Z</time>
<extensions>
<tp1:TrackPointExtension>
<tp1:hr>124</tp1:hr>
</tp1:TrackPointExtension>
</extensions>
</trkpt>
<trkpt lat="46.1729096" lon="6.0228446">
<ele>421.2000000</ele>
<time>2014-12-04T12:21:28Z</time>
<extensions>
<tp1:TrackPointExtension>
<tp1:hr>124</tp1:hr>
</tp1:TrackPointExtension>
</extensions>
</trkpt>
<trkpt lat="46.1729446" lon="6.0227599">
<ele>420.8000000</ele>
<time>2014-12-04T12:21:29Z</time>
<extensions>
<tp1:TrackPointExtension>
<tp1:hr>125</tp1:hr>
</tp1:TrackPointExtension>
</extensions>
</trkpt>
<trkpt lat="46.1729753" lon="6.0226974">
<ele>420.8000000</ele>
<time>2014-12-04T12:21:30Z</time>
<extensions>
<tp1:TrackPointExtension>
<tp1:hr>124</tp1:hr>
</tp1:TrackPointExtension>
</extensions>
</trkpt>
<trkpt lat="46.1730176" lon="6.0226392">
<ele>420.8000000</ele>
<time>2014-12-04T12:21:31Z</time>
<extensions>
<tp1:TrackPointExtension>
<tp1:hr>124</tp1:hr>
</tp1:TrackPointExtension>
</extensions>
</trkpt>
<trkpt lat="46.1731779" lon="6.0223932">
<ele>420.8000000</ele>
<time>2014-12-04T12:21:35Z</time>
<extensions>
<tp1:TrackPointExtension>
<tp1:hr>124</tp1:hr>
</tp1:TrackPointExtension>
</extensions>
</trkpt>
<trkpt lat="46.1734334" lon="6.0219681">
<ele>420.8000000</ele>
<time>2014-12-04T12:21:42Z</time>
<extensions>
<tp1:TrackPointExtension>
<tp1:hr>124</tp1:hr>
</tp1:TrackPointExtension>
</extensions>
</trkpt>
<trkpt lat="46.1735599" lon="6.0217732">
<ele>420.8000000</ele>
<time>2014-12-04T12:21:46Z</time>
<extensions>
<tp1:TrackPointExtension>
<tp1:hr>122</tp1:hr>
</tp1:TrackPointExtension>
</extensions>
</trkpt>
<trkpt lat="46.1736431" lon="6.0216247">
<ele>420.8000000</ele>
<time>2014-12-04T12:21:49Z</time>
<extensions>
<tp1:TrackPointExtension>
<tp1:hr>121</tp1:hr>
</tp1:TrackPointExtension>
</extensions>
</trkpt>
<trkpt lat="46.1736866" lon="6.0214931">
<ele>420.8000000</ele>
<time>2014-12-04T12:21:51Z</time>
<extensions>
<tp1:TrackPointExtension>
<tp1:hr>121</tp1:hr>
</tp1:TrackPointExtension>
</extensions>
</trkpt>
<trkpt lat="46.1737004" lon="6.0213574">
<ele>420.8000000</ele>
<time>2014-12-04T12:21:53Z</time>
<extensions>
<tp1:TrackPointExtension>
<tp1:hr>120</tp1:hr>
</tp1:TrackPointExtension>
</extensions>
</trkpt>
<trkpt lat="46.1736625" lon="6.0210207">
<ele>420.8000000</ele>
<time>2014-12-04T12:21:57Z</time>
<extensions>
<tp1:TrackPointExtension>
<tp1:hr>118</tp1:hr>
</tp1:TrackPointExtension>
</extensions>
</trkpt>
<trkpt lat="46.1736598" lon="6.0209367">
<ele>420.2000000</ele>
<time>2014-12-04T12:21:58Z</time>
<extensions>
<tp1:TrackPointExtension>
<tp1:hr>117</tp1:hr>
</tp1:TrackPointExtension>
</extensions>
</trkpt>
<trkpt lat="46.1736552" lon="6.0208578">
<ele>419.8000000</ele>
<time>2014-12-04T12:21:59Z</time>
<extensions>
<tp1:TrackPointExtension>
<tp1:hr>117</tp1:hr>
</tp1:TrackPointExtension>
</extensions>
</trkpt>
<trkpt lat="46.1736510" lon="6.0207780">
<ele>419.4000000</ele>
<time>2014-12-04T12:22:00Z</time>
<extensions>
<tp1:TrackPointExtension>
<tp1:hr>117</tp1:hr>
</tp1:TrackPointExtension>
</extensions>
</trkpt>
<trkpt lat="46.1736488" lon="6.0207059">
<ele>419.0000000</ele>
<time>2014-12-04T12:22:01Z</time>
<extensions>
<tp1:TrackPointExtension>
<tp1:hr>117</tp1:hr>
</tp1:TrackPointExtension>
</extensions>
</trkpt>
<trkpt lat="46.1736498" lon="6.0206321">
<ele>418.4000000</ele>
<time>2014-12-04T12:22:02Z</time>
<extensions>
<tp1:TrackPointExtension>
<tp1:hr>117</tp1:hr>
</tp1:TrackPointExtension>
</extensions>
</trkpt>
<trkpt lat="46.1736418" lon="6.0205501">
<ele>418.4000000</ele>
<time>2014-12-04T12:22:03Z</time>
<extensions>
<tp1:TrackPointExtension>
<tp1:hr>117</tp1:hr>
</tp1:TrackPointExtension>
</extensions>
</trkpt>
<trkpt lat="46.1735944" lon="6.0204408">
<ele>418.4000000</ele>
<time>2014-12-04T12:22:05Z</time>
<extensions>
<tp1:TrackPointExtension>
<tp1:hr>116</tp1:hr>
</tp1:TrackPointExtension>
</extensions>
</trkpt>
<trkpt lat="46.1735045" lon="6.0203665">
<ele>418.4000000</ele>
<time>2014-12-04T12:22:07Z</time>
<extensions>
<tp1:TrackPointExtension>
<tp1:hr>116</tp1:hr>
</tp1:TrackPointExtension>
</extensions>
</trkpt>
<trkpt lat="46.1732791" lon="6.0202014">
<ele>418.4000000</ele>
<time>2014-12-04T12:22:12Z</time>
<extensions>
<tp1:TrackPointExtension>
<tp1:hr>119</tp1:hr>
</tp1:TrackPointExtension>
</extensions>
</trkpt>
<trkpt lat="46.1731401" lon="6.0200784">
<ele>418.4000000</ele>
<time>2014-12-04T12:22:15Z</time>
<extensions>
<tp1:TrackPointExtension>
<tp1:hr>121</tp1:hr>
</tp1:TrackPointExtension>
</extensions>
</trkpt>
<trkpt lat="46.1731081" lon="6.0200290">
<ele>418.4000000</ele>
<time>2014-12-04T12:22:16Z</time>
<extensions>
<tp1:TrackPointExtension>
<tp1:hr>121</tp1:hr>
</tp1:TrackPointExtension>
</extensions>
</trkpt>
<trkpt lat="46.1730652" lon="6.0199129">
<ele>419.0000000</ele>
<time>2014-12-04T12:22:18Z</time>
<extensions>
<tp1:TrackPointExtension>
<tp1:hr>122</tp1:hr>
</tp1:TrackPointExtension>
</extensions>
</trkpt>
<trkpt lat="46.1730728" lon="6.0198440">
<ele>419.4000000</ele>
<time>2014-12-04T12:22:19Z</time>
<extensions>
<tp1:TrackPointExtension>
<tp1:hr>123</tp1:hr>
</tp1:TrackPointExtension>
</extensions>
</trkpt>
<trkpt lat="46.1731085" lon="6.0197918">
<ele>420.0000000</ele>
<time>2014-12-04T12:22:20Z</time>
<extensions>
<tp1:TrackPointExtension>
<tp1:hr>123</tp1:hr>
</tp1:TrackPointExtension>
</extensions>
</trkpt>
<trkpt lat="46.1731461" lon="6.0197357">
<ele>420.6000000</ele>
<time>2014-12-04T12:22:21Z</time>
<extensions>
<tp1:TrackPointExtension>
<tp1:hr>123</tp1:hr>
</tp1:TrackPointExtension>
</extensions>
</trkpt>
<trkpt lat="46.1731908" lon="6.0196772">
<ele>421.0000000</ele>
<time>2014-12-04T12:22:22Z</time>
<extensions>
<tp1:TrackPointExtension>
<tp1:hr>124</tp1:hr>
</tp1:TrackPointExtension>
</extensions>
</trkpt>
<trkpt lat="46.1733152" lon="6.0195302">
<ele>421.0000000</ele>
<time>2014-12-04T12:22:25Z</time>
<extensions>
<tp1:TrackPointExtension>
<tp1:hr>124</tp1:hr>
</tp1:TrackPointExtension>
</extensions>
</trkpt>
<trkpt lat="46.1734766" lon="6.0193524">
<ele>421.0000000</ele>
<time>2014-12-04T12:22:29Z</time>
<extensions>
<tp1:TrackPointExtension>
<tp1:hr>125</tp1:hr>
</tp1:TrackPointExtension>
</extensions>
</trkpt>
<trkpt lat="46.1737149" lon="6.0190318">
<ele>421.0000000</ele>
<time>2014-12-04T12:22:36Z</time>
<extensions>
<tp1:TrackPointExtension>
<tp1:hr>123</tp1:hr>
</tp1:TrackPointExtension>
</extensions>
</trkpt>
<trkpt lat="46.1737004" lon="6.0188843">
<ele>421.0000000</ele>
<time>2014-12-04T12:22:39Z</time>
<extensions>
<tp1:TrackPointExtension>
<tp1:hr>122</tp1:hr>
</tp1:TrackPointExtension>
</extensions>
</trkpt>
<trkpt lat="46.1736449" lon="6.0187936">
<ele>421.0000000</ele>
<time>2014-12-04T12:22:41Z</time>
<extensions>
<tp1:TrackPointExtension>
<tp1:hr>122</tp1:hr>
</tp1:TrackPointExtension>
</extensions>
</trkpt>
<trkpt lat="46.1734891" lon="6.0185985">
<ele>421.0000000</ele>
<time>2014-12-04T12:22:45Z</time>
<extensions>
<tp1:TrackPointExtension>
<tp1:hr>123</tp1:hr>
</tp1:TrackPointExtension>
</extensions>
</trkpt>
<trkpt lat="46.1733297" lon="6.0183939">
<ele>421.0000000</ele>
<time>2014-12-04T12:22:49Z</time>
<extensions>
<tp1:TrackPointExtension>
<tp1:hr>126</tp1:hr>
</tp1:TrackPointExtension>
</extensions>
</trkpt>
<trkpt lat="46.1733127" lon="6.0183280">
<ele>421.0000000</ele>
<time>2014-12-04T12:22:50Z</time>
<extensions>
<tp1:TrackPointExtension>
<tp1:hr>126</tp1:hr>
</tp1:TrackPointExtension>
</extensions>
</trkpt>
<trkpt lat="46.1732153" lon="6.0182191">
<ele>421.0000000</ele>
<time>2014-12-04T12:22:52Z</time>
<extensions>
<tp1:TrackPointExtension>
<tp1:hr>127</tp1:hr>
</tp1:TrackPointExtension>
</extensions>
</trkpt>
<trkpt lat="46.1731357" lon="6.0180968">
<ele>421.0000000</ele>
<time>2014-12-04T12:22:54Z</time>
<extensions>
<tp1:TrackPointExtension>
<tp1:hr>128</tp1:hr>
</tp1:TrackPointExtension>
</extensions>
</trkpt>
<trkpt lat="46.1728381" lon="6.0176397">
<ele>421.0000000</ele>
<time>2014-12-04T12:23:02Z</time>
<extensions>
<tp1:TrackPointExtension>
<tp1:hr>129</tp1:hr>
</tp1:TrackPointExtension>
</extensions>
</trkpt>
<trkpt lat="46.1727943" lon="6.0176151">
<ele>421.0000000</ele>
<time>2014-12-04T12:23:03Z</time>
<extensions>
<tp1:TrackPointExtension>
<tp1:hr>128</tp1:hr>
</tp1:TrackPointExtension>
</extensions>
</trkpt>
<trkpt lat="46.1726962" lon="6.0176083">
<ele>421.0000000</ele>
<time>2014-12-04T12:23:05Z</time>
<extensions>
<tp1:TrackPointExtension>
<tp1:hr>129</tp1:hr>
</tp1:TrackPointExtension>
</extensions>
</trkpt>
<trkpt lat="46.1725575" lon="6.0177706">
<ele>421.0000000</ele>
<time>2014-12-04T12:23:08Z</time>
<extensions>
<tp1:TrackPointExtension>
<tp1:hr>129</tp1:hr>
</tp1:TrackPointExtension>
</extensions>
</trkpt>
<trkpt lat="46.1723120" lon="6.0180630">
<ele>421.0000000</ele>
<time>2014-12-04T12:23:14Z</time>
<extensions>
<tp1:TrackPointExtension>
<tp1:hr>129</tp1:hr>
</tp1:TrackPointExtension>
</extensions>
</trkpt>
<trkpt lat="46.1722684" lon="6.0181008">
<ele>421.0000000</ele>
<time>2014-12-04T12:23:15Z</time>
<extensions>
<tp1:TrackPointExtension>
<tp1:hr>129</tp1:hr>
</tp1:TrackPointExtension>
</extensions>
</trkpt>
<trkpt lat="46.1722235" lon="6.0181372">
<ele>421.4000000</ele>
<time>2014-12-04T12:23:16Z</time>
<extensions>
<tp1:TrackPointExtension>
<tp1:hr>130</tp1:hr>
</tp1:TrackPointExtension>
</extensions>
</trkpt>
<trkpt lat="46.1721811" lon="6.0181759">
<ele>421.8000000</ele>
<time>2014-12-04T12:23:17Z</time>
<extensions>
<tp1:TrackPointExtension>
<tp1:hr>130</tp1:hr>
</tp1:TrackPointExtension>
</extensions>
</trkpt>
<trkpt lat="46.1721377" lon="6.0182177">
<ele>422.2000000</ele>
<time>2014-12-04T12:23:18Z</time>
<extensions>
<tp1:TrackPointExtension>
<tp1:hr>130</tp1:hr>
</tp1:TrackPointExtension>
</extensions>
</trkpt>
<trkpt lat="46.1720951" lon="6.0182610">
<ele>422.8000000</ele>
<time>2014-12-04T12:23:19Z</time>
<extensions>
<tp1:TrackPointExtension>
<tp1:hr>130</tp1:hr>
</tp1:TrackPointExtension>
</extensions>
</trkpt>
<trkpt lat="46.1720524" lon="6.0183042">
<ele>423.2000000</ele>
<time>2014-12-04T12:23:20Z</time>
<extensions>
<tp1:TrackPointExtension>
<tp1:hr>130</tp1:hr>
</tp1:TrackPointExtension>
</extensions>
</trkpt>
<trkpt lat="46.1719341" lon="6.0184185">
<ele>423.2000000</ele>
<time>2014-12-04T12:23:23Z</time>
<extensions>
<tp1:TrackPointExtension>
<tp1:hr>130</tp1:hr>
</tp1:TrackPointExtension>
</extensions>
</trkpt>
<trkpt lat="46.1716096" lon="6.0186874">
<ele>423.2000000</ele>
<time>2014-12-04T12:23:30Z</time>
<extensions>
<tp1:TrackPointExtension>
<tp1:hr>130</tp1:hr>
</tp1:TrackPointExtension>
</extensions>
</trkpt>
<trkpt lat="46.1712463" lon="6.0189156">
<ele>423.2000000</ele>
<time>2014-12-04T12:23:37Z</time>
<extensions>
<tp1:TrackPointExtension>
<tp1:hr>130</tp1:hr>
</tp1:TrackPointExtension>
</extensions>
</trkpt>
<trkpt lat="46.1709894" lon="6.0190484">
<ele>423.2000000</ele>
<time>2014-12-04T12:23:42Z</time>
<extensions>
<tp1:TrackPointExtension>
<tp1:hr>130</tp1:hr>
</tp1:TrackPointExtension>
</extensions>
</trkpt>
<trkpt lat="46.1708969" lon="6.0191146">
<ele>422.8000000</ele>
<time>2014-12-04T12:23:44Z</time>
<extensions>
<tp1:TrackPointExtension>
<tp1:hr>130</tp1:hr>
</tp1:TrackPointExtension>
</extensions>
</trkpt>
<trkpt lat="46.1708355" lon="6.0191632">
<ele>422.4000000</ele>
<time>2014-12-04T12:23:45Z</time>
<extensions>
<tp1:TrackPointExtension>
<tp1:hr>130</tp1:hr>
</tp1:TrackPointExtension>
</extensions>
</trkpt>
<trkpt lat="46.1707843" lon="6.0192016">
<ele>422.0000000</ele>
<time>2014-12-04T12:23:46Z</time>
<extensions>
<tp1:TrackPointExtension>
<tp1:hr>130</tp1:hr>
</tp1:TrackPointExtension>
</extensions>
</trkpt>
<trkpt lat="46.1707385" lon="6.0192331">
<ele>421.4000000</ele>
<time>2014-12-04T12:23:47Z</time>
<extensions>
<tp1:TrackPointExtension>
<tp1:hr>130</tp1:hr>
</tp1:TrackPointExtension>
</extensions>
</trkpt>
<trkpt lat="46.1706906" lon="6.0192724">
<ele>421.0000000</ele>
<time>2014-12-04T12:23:48Z</time>
<extensions>
<tp1:TrackPointExtension>
<tp1:hr>130</tp1:hr>
</tp1:TrackPointExtension>
</extensions>
</trkpt>
<trkpt lat="46.1706359" lon="6.0193191">
<ele>421.0000000</ele>
<time>2014-12-04T12:23:49Z</time>
<extensions>
<tp1:TrackPointExtension>
<tp1:hr>130</tp1:hr>
</tp1:TrackPointExtension>
</extensions>
</trkpt>
<trkpt lat="46.1701206" lon="6.0197381">
<ele>421.0000000</ele>
<time>2014-12-04T12:23:59Z</time>
<extensions>
<tp1:TrackPointExtension>
<tp1:hr>130</tp1:hr>
</tp1:TrackPointExtension>
</extensions>
</trkpt>
<trkpt lat="46.1700236" lon="6.0198016">
<ele>421.0000000</ele>
<time>2014-12-04T12:24:01Z</time>
<extensions>
<tp1:TrackPointExtension>
<tp1:hr>130</tp1:hr>
</tp1:TrackPointExtension>
</extensions>
</trkpt>
<trkpt lat="46.1697594" lon="6.0200052">
<ele>421.0000000</ele>
<time>2014-12-04T12:24:06Z</time>
<extensions>
<tp1:TrackPointExtension>
<tp1:hr>129</tp1:hr>
</tp1:TrackPointExtension>
</extensions>
</trkpt>
<trkpt lat="46.1693354" lon="6.0203087">
<ele>421.0000000</ele>
<time>2014-12-04T12:24:14Z</time>
<extensions>
<tp1:TrackPointExtension>
<tp1:hr>128</tp1:hr>
</tp1:TrackPointExtension>
</extensions>
</trkpt>
<trkpt lat="46.1688500" lon="6.0206423">
<ele>421.0000000</ele>
<time>2014-12-04T12:24:23Z</time>
<extensions>
<tp1:TrackPointExtension>
<tp1:hr>128</tp1:hr>
</tp1:TrackPointExtension>
</extensions>
</trkpt>
<trkpt lat="46.1684448" lon="6.0208282">
<ele>421.0000000</ele>
<time>2014-12-04T12:24:30Z</time>
<extensions>
<tp1:TrackPointExtension>
<tp1:hr>129</tp1:hr>
</tp1:TrackPointExtension>
</extensions>
</trkpt>
<trkpt lat="46.1683288" lon="6.0208171">
<ele>421.0000000</ele>
<time>2014-12-04T12:24:32Z</time>
<extensions>
<tp1:TrackPointExtension>
<tp1:hr>129</tp1:hr>
</tp1:TrackPointExtension>
</extensions>
</trkpt>
<trkpt lat="46.1678754" lon="6.0206721">
<ele>421.0000000</ele>
<time>2014-12-04T12:24:40Z</time>
<extensions>
<tp1:TrackPointExtension>
<tp1:hr>129</tp1:hr>
</tp1:TrackPointExtension>
</extensions>
</trkpt>
<trkpt lat="46.1675379" lon="6.0205418">
<ele>421.0000000</ele>
<time>2014-12-04T12:24:46Z</time>
<extensions>
<tp1:TrackPointExtension>
<tp1:hr>130</tp1:hr>
</tp1:TrackPointExtension>
</extensions>
</trkpt>
<trkpt lat="46.1670485" lon="6.0204504">
<ele>421.0000000</ele>
<time>2014-12-04T12:24:53Z</time>
<extensions>
<tp1:TrackPointExtension>
<tp1:hr>130</tp1:hr>
</tp1:TrackPointExtension>
</extensions>
</trkpt>
<trkpt lat="46.1668120" lon="6.0204605">
<ele>420.6000000</ele>
<time>2014-12-04T12:24:56Z</time>
<extensions>
<tp1:TrackPointExtension>
<tp1:hr>131</tp1:hr>
</tp1:TrackPointExtension>
</extensions>
</trkpt>
<trkpt lat="46.1667306" lon="6.0204708">
<ele>420.2000000</ele>
<time>2014-12-04T12:24:57Z</time>
<extensions>
<tp1:TrackPointExtension>
<tp1:hr>130</tp1:hr>
</tp1:TrackPointExtension>
</extensions>
</trkpt>
<trkpt lat="46.1666504" lon="6.0204869">
<ele>419.8000000</ele>
<time>2014-12-04T12:24:58Z</time>
<extensions>
<tp1:TrackPointExtension>
<tp1:hr>131</tp1:hr>
</tp1:TrackPointExtension>
</extensions>
</trkpt>
<trkpt lat="46.1665786" lon="6.0204974">
<ele>419.4000000</ele>
<time>2014-12-04T12:24:59Z</time>
<extensions>
<tp1:TrackPointExtension>
<tp1:hr>130</tp1:hr>
</tp1:TrackPointExtension>
</extensions>
</trkpt>
<trkpt lat="46.1664872" lon="6.0205042">
<ele>418.8000000</ele>
<time>2014-12-04T12:25:00Z</time>
<extensions>
<tp1:TrackPointExtension>
<tp1:hr>130</tp1:hr>
</tp1:TrackPointExtension>
</extensions>
</trkpt>
<trkpt lat="46.1664080" lon="6.0205115">
<ele>418.4000000</ele>
<time>2014-12-04T12:25:01Z</time>
<extensions>
<tp1:TrackPointExtension>
<tp1:hr>129</tp1:hr>
</tp1:TrackPointExtension>
</extensions>
</trkpt>
<trkpt lat="46.1663316" lon="6.0205279">
<ele>418.0000000</ele>
<time>2014-12-04T12:25:02Z</time>
<extensions>
<tp1:TrackPointExtension>
<tp1:hr>129</tp1:hr>
</tp1:TrackPointExtension>
</extensions>
</trkpt>
<trkpt lat="46.1662542" lon="6.0205365">
<ele>417.4000000</ele>
<time>2014-12-04T12:25:03Z</time>
<extensions>
<tp1:TrackPointExtension>
<tp1:hr>128</tp1:hr>
</tp1:TrackPointExtension>
</extensions>
</trkpt>
<trkpt lat="46.1661773" lon="6.0205408">
<ele>417.0000000</ele>
<time>2014-12-04T12:25:04Z</time>
<extensions>
<tp1:TrackPointExtension>
<tp1:hr>128</tp1:hr>
</tp1:TrackPointExtension>
</extensions>
</trkpt>
<trkpt lat="46.1660998" lon="6.0205371">
<ele>416.6000000</ele>
<time>2014-12-04T12:25:05Z</time>
<extensions>
<tp1:TrackPointExtension>
<tp1:hr>128</tp1:hr>
</tp1:TrackPointExtension>
</extensions>
</trkpt>
<trkpt lat="46.1656290" lon="6.0204646">
<ele>416.6000000</ele>
<time>2014-12-04T12:25:12Z</time>
<extensions>
<tp1:TrackPointExtension>
<tp1:hr>127</tp1:hr>
</tp1:TrackPointExtension>
</extensions>
</trkpt>
<trkpt lat="46.1652309" lon="6.0205597">
<ele>416.6000000</ele>
<time>2014-12-04T12:25:18Z</time>
<extensions>
<tp1:TrackPointExtension>
<tp1:hr>128</tp1:hr>
</tp1:TrackPointExtension>
</extensions>
</trkpt>
<trkpt lat="46.1646552" lon="6.0207951">
<ele>416.6000000</ele>
<time>2014-12-04T12:25:27Z</time>
<extensions>
<tp1:TrackPointExtension>
<tp1:hr>129</tp1:hr>
</tp1:TrackPointExtension>
</extensions>
</trkpt>
<trkpt lat="46.1645961" lon="6.0208244">
<ele>416.6000000</ele>
<time>2014-12-04T12:25:28Z</time>
<extensions>
<tp1:TrackPointExtension>
<tp1:hr>129</tp1:hr>
</tp1:TrackPointExtension>
</extensions>
</trkpt>
<trkpt lat="46.1643645" lon="6.0209188">
<ele>416.6000000</ele>
<time>2014-12-04T12:25:32Z</time>
<extensions>
<tp1:TrackPointExtension>
<tp1:hr>129</tp1:hr>
</tp1:TrackPointExtension>
</extensions>
</trkpt>
<trkpt lat="46.1641566" lon="6.0209467">
<ele>416.6000000</ele>
<time>2014-12-04T12:25:36Z</time>
<extensions>
<tp1:TrackPointExtension>
<tp1:hr>128</tp1:hr>
</tp1:TrackPointExtension>
</extensions>
</trkpt>
<trkpt lat="46.1641156" lon="6.0209226">
<ele>416.6000000</ele>
<time>2014-12-04T12:25:37Z</time>
<extensions>
<tp1:TrackPointExtension>
<tp1:hr>127</tp1:hr>
</tp1:TrackPointExtension>
</extensions>
</trkpt>
<trkpt lat="46.1640803" lon="6.0208759">
<ele>417.0000000</ele>
<time>2014-12-04T12:25:38Z</time>
<extensions>
<tp1:TrackPointExtension>
<tp1:hr>127</tp1:hr>
</tp1:TrackPointExtension>
</extensions>
</trkpt>
<trkpt lat="46.1640515" lon="6.0208158">
<ele>417.4000000</ele>
<time>2014-12-04T12:25:39Z</time>
<extensions>
<tp1:TrackPointExtension>
<tp1:hr>126</tp1:hr>
</tp1:TrackPointExtension>
</extensions>
</trkpt>
<trkpt lat="46.1640249" lon="6.0207472">
<ele>418.0000000</ele>
<time>2014-12-04T12:25:40Z</time>
<extensions>
<tp1:TrackPointExtension>
<tp1:hr>126</tp1:hr>
</tp1:TrackPointExtension>
</extensions>
</trkpt>
<trkpt lat="46.1640013" lon="6.0206816">
<ele>418.4000000</ele>
<time>2014-12-04T12:25:41Z</time>
<extensions>
<tp1:TrackPointExtension>
<tp1:hr>127</tp1:hr>
</tp1:TrackPointExtension>
</extensions>
</trkpt>
<trkpt lat="46.1639783" lon="6.0206143">
<ele>418.8000000</ele>
<time>2014-12-04T12:25:42Z</time>
<extensions>
<tp1:TrackPointExtension>
<tp1:hr>127</tp1:hr>
</tp1:TrackPointExtension>
</extensions>
</trkpt>
<trkpt lat="46.1638708" lon="6.0203434">
<ele>418.8000000</ele>
<time>2014-12-04T12:25:46Z</time>
<extensions>
<tp1:TrackPointExtension>
<tp1:hr>128</tp1:hr>
</tp1:TrackPointExtension>
</extensions>
</trkpt>
<trkpt lat="46.1637044" lon="6.0199496">
<ele>418.8000000</ele>
<time>2014-12-04T12:25:52Z</time>
<extensions>
<tp1:TrackPointExtension>
<tp1:hr>130</tp1:hr>
</tp1:TrackPointExtension>
</extensions>
</trkpt>
<trkpt lat="46.1635679" lon="6.0196508">
<ele>418.8000000</ele>
<time>2014-12-04T12:25:57Z</time>
<extensions>
<tp1:TrackPointExtension>
<tp1:hr>130</tp1:hr>
</tp1:TrackPointExtension>
</extensions>
</trkpt>
<trkpt lat="46.1635213" lon="6.0195049">
<ele>419.2000000</ele>
<time>2014-12-04T12:25:59Z</time>
<extensions>
<tp1:TrackPointExtension>
<tp1:hr>130</tp1:hr>
</tp1:TrackPointExtension>
</extensions>
</trkpt>
<trkpt lat="46.1634938" lon="6.0194355">
<ele>419.8000000</ele>
<time>2014-12-04T12:26:00Z</time>
<extensions>
<tp1:TrackPointExtension>
<tp1:hr>130</tp1:hr>
</tp1:TrackPointExtension>
</extensions>
</trkpt>
<trkpt lat="46.1634636" lon="6.0193702">
<ele>420.2000000</ele>
<time>2014-12-04T12:26:01Z</time>
<extensions>
<tp1:TrackPointExtension>
<tp1:hr>130</tp1:hr>
</tp1:TrackPointExtension>
</extensions>
</trkpt>
<trkpt lat="46.1634340" lon="6.0193036">
<ele>420.6000000</ele>
<time>2014-12-04T12:26:02Z</time>
<extensions>
<tp1:TrackPointExtension>
<tp1:hr>130</tp1:hr>
</tp1:TrackPointExtension>
</extensions>
</trkpt>
<trkpt lat="46.1634030" lon="6.0192351">
<ele>421.0000000</ele>
<time>2014-12-04T12:26:03Z</time>
<extensions>
<tp1:TrackPointExtension>
<tp1:hr>130</tp1:hr>
</tp1:TrackPointExtension>
</extensions>
</trkpt>
<trkpt lat="46.1633174" lon="6.0190240">
<ele>421.0000000</ele>
<time>2014-12-04T12:26:06Z</time>
<extensions>
<tp1:TrackPointExtension>
<tp1:hr>131</tp1:hr>
</tp1:TrackPointExtension>
</extensions>
</trkpt>
<trkpt lat="46.1632616" lon="6.0188901">
<ele>421.0000000</ele>
<time>2014-12-04T12:26:08Z</time>
<extensions>
<tp1:TrackPointExtension>
<tp1:hr>131</tp1:hr>
</tp1:TrackPointExtension>
</extensions>
</trkpt>
<trkpt lat="46.1631455" lon="6.0186241">
<ele>421.0000000</ele>
<time>2014-12-04T12:26:12Z</time>
<extensions>
<tp1:TrackPointExtension>
<tp1:hr>131</tp1:hr>
</tp1:TrackPointExtension>
</extensions>
</trkpt>
<trkpt lat="46.1629355" lon="6.0181232">
<ele>421.0000000</ele>
<time>2014-12-04T12:26:20Z</time>
<extensions>
<tp1:TrackPointExtension>
<tp1:hr>130</tp1:hr>
</tp1:TrackPointExtension>
</extensions>
</trkpt>
<trkpt lat="46.1629065" lon="6.0180170">
<ele>421.0000000</ele>
<time>2014-12-04T12:26:21Z</time>
<extensions>
<tp1:TrackPointExtension>
<tp1:hr>130</tp1:hr>
</tp1:TrackPointExtension>
</extensions>
</trkpt>
<trkpt lat="46.1629116" lon="6.0178973">
<ele>421.0000000</ele>
<time>2014-12-04T12:26:23Z</time>
<extensions>
<tp1:TrackPointExtension>
<tp1:hr>130</tp1:hr>
</tp1:TrackPointExtension>
</extensions>
</trkpt>
<trkpt lat="46.1629381" lon="6.0177689">
<ele>421.0000000</ele>
<time>2014-12-04T12:26:25Z</time>
<extensions>
<tp1:TrackPointExtension>
<tp1:hr>130</tp1:hr>
</tp1:TrackPointExtension>
</extensions>
</trkpt>
<trkpt lat="46.1630140" lon="6.0176650">
<ele>421.0000000</ele>
<time>2014-12-04T12:26:27Z</time>
<extensions>
<tp1:TrackPointExtension>
<tp1:hr>130</tp1:hr>
</tp1:TrackPointExtension>
</extensions>
</trkpt>
<trkpt lat="46.1631653" lon="6.0175224">
<ele>421.0000000</ele>
<time>2014-12-04T12:26:30Z</time>
<extensions>
<tp1:TrackPointExtension>
<tp1:hr>130</tp1:hr>
</tp1:TrackPointExtension>
</extensions>
</trkpt>
<trkpt lat="46.1633178" lon="6.0173731">
<ele>421.0000000</ele>
<time>2014-12-04T12:26:33Z</time>
<extensions>
<tp1:TrackPointExtension>
<tp1:hr>131</tp1:hr>
</tp1:TrackPointExtension>
</extensions>
</trkpt>
<trkpt lat="46.1637358" lon="6.0168292">
<ele>421.0000000</ele>
<time>2014-12-04T12:26:42Z</time>
<extensions>
<tp1:TrackPointExtension>
<tp1:hr>132</tp1:hr>
</tp1:TrackPointExtension>
</extensions>
</trkpt>
<trkpt lat="46.1639728" lon="6.0162838">
<ele>421.0000000</ele>
<time>2014-12-04T12:26:49Z</time>
<extensions>
<tp1:TrackPointExtension>
<tp1:hr>131</tp1:hr>
</tp1:TrackPointExtension>
</extensions>
</trkpt>
<trkpt lat="46.1641909" lon="6.0154970">
<ele>421.0000000</ele>
<time>2014-12-04T12:26:58Z</time>
<extensions>
<tp1:TrackPointExtension>
<tp1:hr>131</tp1:hr>
</tp1:TrackPointExtension>
</extensions>
</trkpt>
<trkpt lat="46.1643840" lon="6.0146728">
<ele>421.0000000</ele>
<time>2014-12-04T12:27:07Z</time>
<extensions>
<tp1:TrackPointExtension>
<tp1:hr>131</tp1:hr>
</tp1:TrackPointExtension>
</extensions>
</trkpt>
<trkpt lat="46.1644692" lon="6.0143073">
<ele>421.0000000</ele>
<time>2014-12-04T12:27:11Z</time>
<extensions>
<tp1:TrackPointExtension>
<tp1:hr>131</tp1:hr>
</tp1:TrackPointExtension>
</extensions>
</trkpt>
<trkpt lat="46.1646448" lon="6.0135682">
<ele>421.0000000</ele>
<time>2014-12-04T12:27:19Z</time>
<extensions>
<tp1:TrackPointExtension>
<tp1:hr>130</tp1:hr>
</tp1:TrackPointExtension>
</extensions>
</trkpt>
<trkpt lat="46.1647789" lon="6.0130058">
<ele>421.0000000</ele>
<time>2014-12-04T12:27:25Z</time>
<extensions>
<tp1:TrackPointExtension>
<tp1:hr>129</tp1:hr>
</tp1:TrackPointExtension>
</extensions>
</trkpt>
<trkpt lat="46.1649517" lon="6.0122444">
<ele>421.0000000</ele>
<time>2014-12-04T12:27:33Z</time>
<extensions>
<tp1:TrackPointExtension>
<tp1:hr>130</tp1:hr>
</tp1:TrackPointExtension>
</extensions>
</trkpt>
<trkpt lat="46.1649949" lon="6.0120556">
<ele>420.6000000</ele>
<time>2014-12-04T12:27:35Z</time>
<extensions>
<tp1:TrackPointExtension>
<tp1:hr>130</tp1:hr>
</tp1:TrackPointExtension>
</extensions>
</trkpt>
<trkpt lat="46.1650172" lon="6.0119622">
<ele>420.2000000</ele>
<time>2014-12-04T12:27:36Z</time>
<extensions>
<tp1:TrackPointExtension>
<tp1:hr>130</tp1:hr>
</tp1:TrackPointExtension>
</extensions>
</trkpt>
<trkpt lat="46.1650405" lon="6.0118680">
<ele>419.8000000</ele>
<time>2014-12-04T12:27:37Z</time>
<extensions>
<tp1:TrackPointExtension>
<tp1:hr>130</tp1:hr>
</tp1:TrackPointExtension>
</extensions>
</trkpt>
<trkpt lat="46.1650632" lon="6.0117722">
<ele>419.4000000</ele>
<time>2014-12-04T12:27:38Z</time>
<extensions>
<tp1:TrackPointExtension>
<tp1:hr>130</tp1:hr>
</tp1:TrackPointExtension>
</extensions>
</trkpt>
<trkpt lat="46.1650874" lon="6.0116773">
<ele>418.8000000</ele>
<time>2014-12-04T12:27:39Z</time>
<extensions>
<tp1:TrackPointExtension>
<tp1:hr>130</tp1:hr>
</tp1:TrackPointExtension>
</extensions>
</trkpt>
<trkpt lat="46.1651090" lon="6.0115849">
<ele>418.8000000</ele>
<time>2014-12-04T12:27:40Z</time>
<extensions>
<tp1:TrackPointExtension>
<tp1:hr>130</tp1:hr>
</tp1:TrackPointExtension>
</extensions>
</trkpt>
<trkpt lat="46.1652891" lon="6.0108345">
<ele>418.8000000</ele>
<time>2014-12-04T12:27:48Z</time>
<extensions>
<tp1:TrackPointExtension>
<tp1:hr>130</tp1:hr>
</tp1:TrackPointExtension>
</extensions>
</trkpt>
<trkpt lat="46.1654714" lon="6.0100837">
<ele>418.8000000</ele>
<time>2014-12-04T12:27:56Z</time>
<extensions>
<tp1:TrackPointExtension>
<tp1:hr>131</tp1:hr>
</tp1:TrackPointExtension>
</extensions>
</trkpt>
<trkpt lat="46.1655379" lon="6.0097986">
<ele>418.8000000</ele>
<time>2014-12-04T12:27:59Z</time>
<extensions>
<tp1:TrackPointExtension>
<tp1:hr>131</tp1:hr>
</tp1:TrackPointExtension>
</extensions>
</trkpt>
<trkpt lat="46.1657258" lon="6.0090387">
<ele>418.8000000</ele>
<time>2014-12-04T12:28:07Z</time>
<extensions>
<tp1:TrackPointExtension>
<tp1:hr>130</tp1:hr>
</tp1:TrackPointExtension>
</extensions>
</trkpt>
<trkpt lat="46.1659072" lon="6.0082669">
<ele>418.8000000</ele>
<time>2014-12-04T12:28:15Z</time>
<extensions>
<tp1:TrackPointExtension>
<tp1:hr>131</tp1:hr>
</tp1:TrackPointExtension>
</extensions>
</trkpt>
<trkpt lat="46.1659543" lon="6.0080738">
<ele>418.8000000</ele>
<time>2014-12-04T12:28:17Z</time>
<extensions>
<tp1:TrackPointExtension>
<tp1:hr>131</tp1:hr>
</tp1:TrackPointExtension>
</extensions>
</trkpt>
<trkpt lat="46.1660744" lon="6.0075978">
<ele>418.4000000</ele>
<time>2014-12-04T12:28:22Z</time>
<extensions>
<tp1:TrackPointExtension>
<tp1:hr>131</tp1:hr>
</tp1:TrackPointExtension>
</extensions>
</trkpt>
<trkpt lat="46.1660993" lon="6.0075087">
<ele>418.0000000</ele>
<time>2014-12-04T12:28:23Z</time>
<extensions>
<tp1:TrackPointExtension>
<tp1:hr>131</tp1:hr>
</tp1:TrackPointExtension>
</extensions>
</trkpt>
<trkpt lat="46.1661262" lon="6.0074216">
<ele>417.6000000</ele>
<time>2014-12-04T12:28:24Z</time>
<extensions>
<tp1:TrackPointExtension>
<tp1:hr>130</tp1:hr>
</tp1:TrackPointExtension>
</extensions>
</trkpt>
<trkpt lat="46.1661538" lon="6.0073381">
<ele>417.0000000</ele>
<time>2014-12-04T12:28:25Z</time>
<extensions>
<tp1:TrackPointExtension>
<tp1:hr>130</tp1:hr>
</tp1:TrackPointExtension>
</extensions>
</trkpt>
<trkpt lat="46.1661830" lon="6.0072555">
<ele>416.6000000</ele>
<time>2014-12-04T12:28:26Z</time>
<extensions>
<tp1:TrackPointExtension>
<tp1:hr>129</tp1:hr>
</tp1:TrackPointExtension>
</extensions>
</trkpt>
<trkpt lat="46.1662154" lon="6.0071782">
<ele>416.6000000</ele>
<time>2014-12-04T12:28:27Z</time>
<extensions>
<tp1:TrackPointExtension>
<tp1:hr>129</tp1:hr>
</tp1:TrackPointExtension>
</extensions>
</trkpt>
<trkpt lat="46.1663945" lon="6.0066981">
<ele>416.6000000</ele>
<time>2014-12-04T12:28:33Z</time>
<extensions>
<tp1:TrackPointExtension>
<tp1:hr>128</tp1:hr>
</tp1:TrackPointExtension>
</extensions>
</trkpt>
<trkpt lat="46.1666987" lon="6.0060539">
<ele>416.6000000</ele>
<time>2014-12-04T12:28:41Z</time>
<extensions>
<tp1:TrackPointExtension>
<tp1:hr>129</tp1:hr>
</tp1:TrackPointExtension>
</extensions>
</trkpt>
<trkpt lat="46.1667416" lon="6.0059824">
<ele>416.6000000</ele>
<time>2014-12-04T12:28:42Z</time>
<extensions>
<tp1:TrackPointExtension>
<tp1:hr>129</tp1:hr>
</tp1:TrackPointExtension>
</extensions>
</trkpt>
<trkpt lat="46.1668092" lon="6.0058357">
<ele>416.6000000</ele>
<time>2014-12-04T12:28:44Z</time>
<extensions>
<tp1:TrackPointExtension>
<tp1:hr>129</tp1:hr>
</tp1:TrackPointExtension>
</extensions>
</trkpt>
<trkpt lat="46.1669142" lon="6.0056215">
<ele>416.6000000</ele>
<time>2014-12-04T12:28:47Z</time>
<extensions>
<tp1:TrackPointExtension>
<tp1:hr>128</tp1:hr>
</tp1:TrackPointExtension>
</extensions>
</trkpt>
<trkpt lat="46.1670156" lon="6.0054066">
<ele>416.6000000</ele>
<time>2014-12-04T12:28:50Z</time>
<extensions>
<tp1:TrackPointExtension>
<tp1:hr>128</tp1:hr>
</tp1:TrackPointExtension>
</extensions>
</trkpt>
<trkpt lat="46.1670145" lon="6.0053235">
<ele>416.6000000</ele>
<time>2014-12-04T12:28:51Z</time>
<extensions>
<tp1:TrackPointExtension>
<tp1:hr>128</tp1:hr>
</tp1:TrackPointExtension>
</extensions>
</trkpt>
<trkpt lat="46.1669353" lon="6.0051045">
<ele>416.6000000</ele>
<time>2014-12-04T12:28:54Z</time>
<extensions>
<tp1:TrackPointExtension>
<tp1:hr>127</tp1:hr>
</tp1:TrackPointExtension>
</extensions>
</trkpt>
<trkpt lat="46.1668981" lon="6.0050350">
<ele>416.6000000</ele>
<time>2014-12-04T12:28:55Z</time>
<extensions>
<tp1:TrackPointExtension>
<tp1:hr>128</tp1:hr>
</tp1:TrackPointExtension>
</extensions>
</trkpt>
<trkpt lat="46.1666450" lon="6.0045147">
<ele>416.6000000</ele>
<time>2014-12-04T12:29:02Z</time>
<extensions>
<tp1:TrackPointExtension>
<tp1:hr>128</tp1:hr>
</tp1:TrackPointExtension>
</extensions>
</trkpt>
<trkpt lat="46.1663128" lon="6.0038104">
<ele>416.2000000</ele>
<time>2014-12-04T12:29:11Z</time>
<extensions>
<tp1:TrackPointExtension>
<tp1:hr>129</tp1:hr>
</tp1:TrackPointExtension>
</extensions>
</trkpt>
<trkpt lat="46.1662741" lon="6.0037313">
<ele>415.8000000</ele>
<time>2014-12-04T12:29:12Z</time>
<extensions>
<tp1:TrackPointExtension>
<tp1:hr>129</tp1:hr>
</tp1:TrackPointExtension>
</extensions>
</trkpt>
<trkpt lat="46.1662349" lon="6.0036490">
<ele>415.4000000</ele>
<time>2014-12-04T12:29:13Z</time>
<extensions>
<tp1:TrackPointExtension>
<tp1:hr>129</tp1:hr>
</tp1:TrackPointExtension>
</extensions>
</trkpt>
<trkpt lat="46.1661963" lon="6.0035633">
<ele>414.8000000</ele>
<time>2014-12-04T12:29:14Z</time>
<extensions>
<tp1:TrackPointExtension>
<tp1:hr>129</tp1:hr>
</tp1:TrackPointExtension>
</extensions>
</trkpt>
<trkpt lat="46.1661625" lon="6.0034784">
<ele>414.4000000</ele>
<time>2014-12-04T12:29:15Z</time>
<extensions>
<tp1:TrackPointExtension>
<tp1:hr>128</tp1:hr>
</tp1:TrackPointExtension>
</extensions>
</trkpt>
<trkpt lat="46.1661028" lon="6.0033154">
<ele>414.4000000</ele>
<time>2014-12-04T12:29:17Z</time>
<extensions>
<tp1:TrackPointExtension>
<tp1:hr>128</tp1:hr>
</tp1:TrackPointExtension>
</extensions>
</trkpt>
<trkpt lat="46.1660722" lon="6.0031543">
<ele>414.4000000</ele>
<time>2014-12-04T12:29:19Z</time>
<extensions>
<tp1:TrackPointExtension>
<tp1:hr>128</tp1:hr>
</tp1:TrackPointExtension>
</extensions>
</trkpt>
<trkpt lat="46.1660614" lon="6.0030004">
<ele>414.4000000</ele>
<time>2014-12-04T12:29:21Z</time>
<extensions>
<tp1:TrackPointExtension>
<tp1:hr>127</tp1:hr>
</tp1:TrackPointExtension>
</extensions>
</trkpt>
<trkpt lat="46.1660514" lon="6.0029342">
<ele>414.4000000</ele>
<time>2014-12-04T12:29:22Z</time>
<extensions>
<tp1:TrackPointExtension>
<tp1:hr>127</tp1:hr>
</tp1:TrackPointExtension>
</extensions>
</trkpt>
<trkpt lat="46.1659809" lon="6.0028313">
<ele>414.4000000</ele>
<time>2014-12-04T12:29:24Z</time>
<extensions>
<tp1:TrackPointExtension>
<tp1:hr>126</tp1:hr>
</tp1:TrackPointExtension>
</extensions>
</trkpt>
<trkpt lat="46.1658150" lon="6.0028195">
<ele>414.4000000</ele>
<time>2014-12-04T12:29:27Z</time>
<extensions>
<tp1:TrackPointExtension>
<tp1:hr>125</tp1:hr>
</tp1:TrackPointExtension>
</extensions>
</trkpt>
<trkpt lat="46.1653899" lon="6.0029285">
<ele>414.4000000</ele>
<time>2014-12-04T12:29:34Z</time>
<extensions>
<tp1:TrackPointExtension>
<tp1:hr>126</tp1:hr>
</tp1:TrackPointExtension>
</extensions>
</trkpt>
<trkpt lat="46.1648597" lon="6.0030737">
<ele>414.4000000</ele>
<time>2014-12-04T12:29:42Z</time>
<extensions>
<tp1:TrackPointExtension>
<tp1:hr>126</tp1:hr>
</tp1:TrackPointExtension>
</extensions>
</trkpt>
<trkpt lat="46.1646610" lon="6.0031458">
<ele>414.0000000</ele>
<time>2014-12-04T12:29:45Z</time>
<extensions>
<tp1:TrackPointExtension>
<tp1:hr>126</tp1:hr>
</tp1:TrackPointExtension>
</extensions>
</trkpt>
<trkpt lat="46.1645945" lon="6.0031693">
<ele>413.6000000</ele>
<time>2014-12-04T12:29:46Z</time>
<extensions>
<tp1:TrackPointExtension>
<tp1:hr>126</tp1:hr>
</tp1:TrackPointExtension>
</extensions>
</trkpt>
<trkpt lat="46.1645282" lon="6.0031937">
<ele>413.2000000</ele>
<time>2014-12-04T12:29:47Z</time>
<extensions>
<tp1:TrackPointExtension>
<tp1:hr>126</tp1:hr>
</tp1:TrackPointExtension>
</extensions>
</trkpt>
<trkpt lat="46.1644614" lon="6.0032165">
<ele>412.8000000</ele>
<time>2014-12-04T12:29:48Z</time>
<extensions>
<tp1:TrackPointExtension>
<tp1:hr>126</tp1:hr>
</tp1:TrackPointExtension>
</extensions>
</trkpt>
<trkpt lat="46.1643945" lon="6.0032404">
<ele>412.2000000</ele>
<time>2014-12-04T12:29:49Z</time>
<extensions>
<tp1:TrackPointExtension>
<tp1:hr>126</tp1:hr>
</tp1:TrackPointExtension>
</extensions>
</trkpt>
<trkpt lat="46.1642014" lon="6.0033087">
<ele>412.2000000</ele>
<time>2014-12-04T12:29:52Z</time>
<extensions>
<tp1:TrackPointExtension>
<tp1:hr>127</tp1:hr>
</tp1:TrackPointExtension>
</extensions>
</trkpt>
<trkpt lat="46.1636357" lon="6.0035018">
<ele>412.2000000</ele>
<time>2014-12-04T12:30:01Z</time>
<extensions>
<tp1:TrackPointExtension>
<tp1:hr>129</tp1:hr>
</tp1:TrackPointExtension>
</extensions>
</trkpt>
<trkpt lat="46.1635128" lon="6.0035311">
<ele>412.2000000</ele>
<time>2014-12-04T12:30:03Z</time>
<extensions>
<tp1:TrackPointExtension>
<tp1:hr>129</tp1:hr>
</tp1:TrackPointExtension>
</extensions>
</trkpt>
<trkpt lat="46.1634551" lon="6.0035288">
<ele>412.6000000</ele>
<time>2014-12-04T12:30:04Z</time>
<extensions>
<tp1:TrackPointExtension>
<tp1:hr>129</tp1:hr>
</tp1:TrackPointExtension>
</extensions>
</trkpt>
<trkpt lat="46.1633953" lon="6.0035127">
<ele>413.0000000</ele>
<time>2014-12-04T12:30:05Z</time>
<extensions>
<tp1:TrackPointExtension>
<tp1:hr>130</tp1:hr>
</tp1:TrackPointExtension>
</extensions>
</trkpt>
<trkpt lat="46.1633345" lon="6.0034851">
<ele>413.4000000</ele>
<time>2014-12-04T12:30:06Z</time>
<extensions>
<tp1:TrackPointExtension>
<tp1:hr>130</tp1:hr>
</tp1:TrackPointExtension>
</extensions>
</trkpt>
<trkpt lat="46.1632782" lon="6.0034485">
<ele>413.8000000</ele>
<time>2014-12-04T12:30:07Z</time>
<extensions>
<tp1:TrackPointExtension>
<tp1:hr>130</tp1:hr>
</tp1:TrackPointExtension>
</extensions>
</trkpt>
<trkpt lat="46.1632243" lon="6.0034020">
<ele>414.2000000</ele>
<time>2014-12-04T12:30:08Z</time>
<extensions>
<tp1:TrackPointExtension>
<tp1:hr>130</tp1:hr>
</tp1:TrackPointExtension>
</extensions>
</trkpt>
<trkpt lat="46.1631207" lon="6.0033022">
<ele>414.2000000</ele>
<time>2014-12-04T12:30:10Z</time>
<extensions>
<tp1:TrackPointExtension>
<tp1:hr>131</tp1:hr>
</tp1:TrackPointExtension>
</extensions>
</trkpt>
<trkpt lat="46.1630135" lon="6.0032035">
<ele>414.2000000</ele>
<time>2014-12-04T12:30:12Z</time>
<extensions>
<tp1:TrackPointExtension>
<tp1:hr>131</tp1:hr>
</tp1:TrackPointExtension>
</extensions>
</trkpt>
<trkpt lat="46.1625007" lon="6.0027810">
<ele>414.2000000</ele>
<time>2014-12-04T12:30:21Z</time>
<extensions>
<tp1:TrackPointExtension>
<tp1:hr>132</tp1:hr>
</tp1:TrackPointExtension>
</extensions>
</trkpt>
<trkpt lat="46.1624467" lon="6.0027336">
<ele>414.2000000</ele>
<time>2014-12-04T12:30:22Z</time>
<extensions>
<tp1:TrackPointExtension>
<tp1:hr>131</tp1:hr>
</tp1:TrackPointExtension>
</extensions>
</trkpt>
<trkpt lat="46.1621352" lon="6.0023840">
<ele>414.2000000</ele>
<time>2014-12-04T12:30:27Z</time>
<extensions>
<tp1:TrackPointExtension>
<tp1:hr>132</tp1:hr>
</tp1:TrackPointExtension>
</extensions>
</trkpt>
<trkpt lat="46.1620691" lon="6.0023036">
<ele>413.8000000</ele>
<time>2014-12-04T12:30:28Z</time>
<extensions>
<tp1:TrackPointExtension>
<tp1:hr>132</tp1:hr>
</tp1:TrackPointExtension>
</extensions>
</trkpt>
<trkpt lat="46.1620011" lon="6.0022184">
<ele>413.4000000</ele>
<time>2014-12-04T12:30:29Z</time>
<extensions>
<tp1:TrackPointExtension>
<tp1:hr>132</tp1:hr>
</tp1:TrackPointExtension>
</extensions>
</trkpt>
<trkpt lat="46.1619315" lon="6.0021327">
<ele>413.0000000</ele>
<time>2014-12-04T12:30:30Z</time>
<extensions>
<tp1:TrackPointExtension>
<tp1:hr>132</tp1:hr>
</tp1:TrackPointExtension>
</extensions>
</trkpt>
<trkpt lat="46.1618665" lon="6.0020517">
<ele>412.4000000</ele>
<time>2014-12-04T12:30:31Z</time>
<extensions>
<tp1:TrackPointExtension>
<tp1:hr>132</tp1:hr>
</tp1:TrackPointExtension>
</extensions>
</trkpt>
<trkpt lat="46.1618015" lon="6.0019719">
<ele>412.0000000</ele>
<time>2014-12-04T12:30:32Z</time>
<extensions>
<tp1:TrackPointExtension>
<tp1:hr>132</tp1:hr>
</tp1:TrackPointExtension>
</extensions>
</trkpt>
<trkpt lat="46.1617383" lon="6.0018948">
<ele>412.0000000</ele>
<time>2014-12-04T12:30:33Z</time>
<extensions>
<tp1:TrackPointExtension>
<tp1:hr>133</tp1:hr>
</tp1:TrackPointExtension>
</extensions>
</trkpt>
<trkpt lat="46.1613892" lon="6.0015037">
<ele>412.0000000</ele>
<time>2014-12-04T12:30:39Z</time>
<extensions>
<tp1:TrackPointExtension>
<tp1:hr>134</tp1:hr>
</tp1:TrackPointExtension>
</extensions>
</trkpt>
<trkpt lat="46.1610308" lon="6.0011368">
<ele>412.4000000</ele>
<time>2014-12-04T12:30:46Z</time>
<extensions>
<tp1:TrackPointExtension>
<tp1:hr>134</tp1:hr>
</tp1:TrackPointExtension>
</extensions>
</trkpt>
<trkpt lat="46.1609805" lon="6.0010868">
<ele>412.8000000</ele>
<time>2014-12-04T12:30:47Z</time>
<extensions>
<tp1:TrackPointExtension>
<tp1:hr>135</tp1:hr>
</tp1:TrackPointExtension>
</extensions>
</trkpt>
<trkpt lat="46.1609290" lon="6.0010374">
<ele>413.2000000</ele>
<time>2014-12-04T12:30:48Z</time>
<extensions>
<tp1:TrackPointExtension>
<tp1:hr>135</tp1:hr>
</tp1:TrackPointExtension>
</extensions>
</trkpt>
<trkpt lat="46.1608785" lon="6.0009876">
<ele>413.8000000</ele>
<time>2014-12-04T12:30:49Z</time>
<extensions>
<tp1:TrackPointExtension>
<tp1:hr>135</tp1:hr>
</tp1:TrackPointExtension>
</extensions>
</trkpt>
<trkpt lat="46.1608280" lon="6.0009377">
<ele>414.2000000</ele>
<time>2014-12-04T12:30:50Z</time>
<extensions>
<tp1:TrackPointExtension>
<tp1:hr>134</tp1:hr>
</tp1:TrackPointExtension>
</extensions>
</trkpt>
<trkpt lat="46.1603320" lon="6.0005651">
<ele>414.2000000</ele>
<time>2014-12-04T12:30:59Z</time>
<extensions>
<tp1:TrackPointExtension>
<tp1:hr>135</tp1:hr>
</tp1:TrackPointExtension>
</extensions>
</trkpt>
<trkpt lat="46.1598546" lon="6.0002959">
<ele>414.2000000</ele>
<time>2014-12-04T12:31:07Z</time>
<extensions>
<tp1:TrackPointExtension>
<tp1:hr>135</tp1:hr>
</tp1:TrackPointExtension>
</extensions>
</trkpt>
<trkpt lat="46.1594266" lon="5.9998248">
<ele>414.2000000</ele>
<time>2014-12-04T12:31:15Z</time>
<extensions>
<tp1:TrackPointExtension>
<tp1:hr>134</tp1:hr>
</tp1:TrackPointExtension>
</extensions>
</trkpt>
<trkpt lat="46.1591517" lon="5.9994240">
<ele>414.2000000</ele>
<time>2014-12-04T12:31:21Z</time>
<extensions>
<tp1:TrackPointExtension>
<tp1:hr>131</tp1:hr>
</tp1:TrackPointExtension>
</extensions>
</trkpt>
<trkpt lat="46.1590745" lon="5.9992837">
<ele>414.2000000</ele>
<time>2014-12-04T12:31:23Z</time>
<extensions>
<tp1:TrackPointExtension>
<tp1:hr>131</tp1:hr>
</tp1:TrackPointExtension>
</extensions>
</trkpt>
<trkpt lat="46.1588047" lon="5.9987801">
<ele>413.8000000</ele>
<time>2014-12-04T12:31:30Z</time>
<extensions>
<tp1:TrackPointExtension>
<tp1:hr>128</tp1:hr>
</tp1:TrackPointExtension>
</extensions>
</trkpt>
<trkpt lat="46.1587654" lon="5.9987080">
<ele>413.2000000</ele>
<time>2014-12-04T12:31:31Z</time>
<extensions>
<tp1:TrackPointExtension>
<tp1:hr>128</tp1:hr>
</tp1:TrackPointExtension>
</extensions>
</trkpt>
<trkpt lat="46.1587276" lon="5.9986377">
<ele>412.8000000</ele>
<time>2014-12-04T12:31:32Z</time>
<extensions>
<tp1:TrackPointExtension>
<tp1:hr>128</tp1:hr>
</tp1:TrackPointExtension>
</extensions>
</trkpt>
<trkpt lat="46.1586881" lon="5.9985637">
<ele>412.4000000</ele>
<time>2014-12-04T12:31:33Z</time>
<extensions>
<tp1:TrackPointExtension>
<tp1:hr>128</tp1:hr>
</tp1:TrackPointExtension>
</extensions>
</trkpt>
<trkpt lat="46.1586517" lon="5.9984879">
<ele>412.0000000</ele>
<time>2014-12-04T12:31:34Z</time>
<extensions>
<tp1:TrackPointExtension>
<tp1:hr>127</tp1:hr>
</tp1:TrackPointExtension>
</extensions>
</trkpt>
<trkpt lat="46.1585716" lon="5.9983787">
<ele>412.0000000</ele>
<time>2014-12-04T12:31:36Z</time>
<extensions>
<tp1:TrackPointExtension>
<tp1:hr>125</tp1:hr>
</tp1:TrackPointExtension>
</extensions>
</trkpt>
<trkpt lat="46.1585117" lon="5.9983724">
<ele>412.0000000</ele>
<time>2014-12-04T12:31:37Z</time>
<extensions>
<tp1:TrackPointExtension>
<tp1:hr>124</tp1:hr>
</tp1:TrackPointExtension>
</extensions>
</trkpt>
<trkpt lat="46.1583600" lon="5.9985169">
<ele>411.4000000</ele>
<time>2014-12-04T12:31:40Z</time>
<extensions>
<tp1:TrackPointExtension>
<tp1:hr>123</tp1:hr>
</tp1:TrackPointExtension>
</extensions>
</trkpt>
<trkpt lat="46.1583205" lon="5.9985858">
<ele>411.0000000</ele>
<time>2014-12-04T12:31:41Z</time>
<extensions>
<tp1:TrackPointExtension>
<tp1:hr>122</tp1:hr>
</tp1:TrackPointExtension>
</extensions>
</trkpt>
<trkpt lat="46.1582907" lon="5.9986471">
<ele>410.6000000</ele>
<time>2014-12-04T12:31:42Z</time>
<extensions>
<tp1:TrackPointExtension>
<tp1:hr>122</tp1:hr>
</tp1:TrackPointExtension>
</extensions>
</trkpt>
<trkpt lat="46.1582580" lon="5.9987191">
<ele>410.0000000</ele>
<time>2014-12-04T12:31:43Z</time>
<extensions>
<tp1:TrackPointExtension>
<tp1:hr>122</tp1:hr>
</tp1:TrackPointExtension>
</extensions>
</trkpt>
<trkpt lat="46.1582316" lon="5.9987909">
<ele>409.6000000</ele>
<time>2014-12-04T12:31:44Z</time>
<extensions>
<tp1:TrackPointExtension>
<tp1:hr>123</tp1:hr>
</tp1:TrackPointExtension>
</extensions>
</trkpt>
<trkpt lat="46.1582079" lon="5.9988610">
<ele>409.6000000</ele>
<time>2014-12-04T12:31:45Z</time>
<extensions>
<tp1:TrackPointExtension>
<tp1:hr>123</tp1:hr>
</tp1:TrackPointExtension>
</extensions>
</trkpt>
<trkpt lat="46.1579883" lon="5.9993159">
<ele>409.6000000</ele>
<time>2014-12-04T12:31:52Z</time>
<extensions>
<tp1:TrackPointExtension>
<tp1:hr>125</tp1:hr>
</tp1:TrackPointExtension>
</extensions>
</trkpt>
<trkpt lat="46.1578108" lon="5.9996318">
<ele>409.6000000</ele>
<time>2014-12-04T12:31:57Z</time>
<extensions>
<tp1:TrackPointExtension>
<tp1:hr>126</tp1:hr>
</tp1:TrackPointExtension>
</extensions>
</trkpt>
<trkpt lat="46.1577184" lon="5.9997390">
<ele>409.6000000</ele>
<time>2014-12-04T12:31:59Z</time>
<extensions>
<tp1:TrackPointExtension>
<tp1:hr>126</tp1:hr>
</tp1:TrackPointExtension>
</extensions>
</trkpt>
<trkpt lat="46.1572958" lon="6.0001566">
<ele>409.6000000</ele>
<time>2014-12-04T12:32:07Z</time>
<extensions>
<tp1:TrackPointExtension>
<tp1:hr>128</tp1:hr>
</tp1:TrackPointExtension>
</extensions>
</trkpt>
<trkpt lat="46.1568808" lon="6.0006271">
<ele>409.6000000</ele>
<time>2014-12-04T12:32:15Z</time>
<extensions>
<tp1:TrackPointExtension>
<tp1:hr>129</tp1:hr>
</tp1:TrackPointExtension>
</extensions>
</trkpt>
<trkpt lat="46.1568367" lon="6.0007034">
<ele>409.6000000</ele>
<time>2014-12-04T12:32:16Z</time>
<extensions>
<tp1:TrackPointExtension>
<tp1:hr>129</tp1:hr>
</tp1:TrackPointExtension>
</extensions>
</trkpt>
<trkpt lat="46.1567091" lon="6.0010754">
<ele>409.6000000</ele>
<time>2014-12-04T12:32:20Z</time>
<extensions>
<tp1:TrackPointExtension>
<tp1:hr>129</tp1:hr>
</tp1:TrackPointExtension>
</extensions>
</trkpt>
<trkpt lat="46.1566901" lon="6.0011744">
<ele>409.6000000</ele>
<time>2014-12-04T12:32:21Z</time>
<extensions>
<tp1:TrackPointExtension>
<tp1:hr>129</tp1:hr>
</tp1:TrackPointExtension>
</extensions>
</trkpt>
<trkpt lat="46.1566720" lon="6.0013834">
<ele>409.6000000</ele>
<time>2014-12-04T12:32:23Z</time>
<extensions>
<tp1:TrackPointExtension>
<tp1:hr>129</tp1:hr>
</tp1:TrackPointExtension>
</extensions>
</trkpt>
<trkpt lat="46.1566620" lon="6.0015956">
<ele>409.6000000</ele>
<time>2014-12-04T12:32:25Z</time>
<extensions>
<tp1:TrackPointExtension>
<tp1:hr>129</tp1:hr>
</tp1:TrackPointExtension>
</extensions>
</trkpt>
<trkpt lat="46.1565793" lon="6.0022506">
<ele>409.6000000</ele>
<time>2014-12-04T12:32:32Z</time>
<extensions>
<tp1:TrackPointExtension>
<tp1:hr>130</tp1:hr>
</tp1:TrackPointExtension>
</extensions>
</trkpt>
<trkpt lat="46.1565327" lon="6.0023839">
<ele>409.6000000</ele>
<time>2014-12-04T12:32:34Z</time>
<extensions>
<tp1:TrackPointExtension>
<tp1:hr>130</tp1:hr>
</tp1:TrackPointExtension>
</extensions>
</trkpt>
<trkpt lat="46.1564726" lon="6.0024902">
<ele>409.6000000</ele>
<time>2014-12-04T12:32:36Z</time>
<extensions>
<tp1:TrackPointExtension>
<tp1:hr>130</tp1:hr>
</tp1:TrackPointExtension>
</extensions>
</trkpt>
<trkpt lat="46.1564228" lon="6.0025799">
<ele>410.0000000</ele>
<time>2014-12-04T12:32:38Z</time>
<extensions>
<tp1:TrackPointExtension>
<tp1:hr>131</tp1:hr>
</tp1:TrackPointExtension>
</extensions>
</trkpt>
<trkpt lat="46.1563942" lon="6.0026206">
<ele>410.6000000</ele>
<time>2014-12-04T12:32:39Z</time>
<extensions>
<tp1:TrackPointExtension>
<tp1:hr>131</tp1:hr>
</tp1:TrackPointExtension>
</extensions>
</trkpt>
<trkpt lat="46.1563664" lon="6.0026470">
<ele>411.2000000</ele>
<time>2014-12-04T12:32:40Z</time>
<extensions>
<tp1:TrackPointExtension>
<tp1:hr>131</tp1:hr>
</tp1:TrackPointExtension>
</extensions>
</trkpt>
<trkpt lat="46.1563369" lon="6.0026731">
<ele>411.8000000</ele>
<time>2014-12-04T12:32:41Z</time>
<extensions>
<tp1:TrackPointExtension>
<tp1:hr>132</tp1:hr>
</tp1:TrackPointExtension>
</extensions>
</trkpt>
<trkpt lat="46.1563087" lon="6.0026892">
<ele>412.2000000</ele>
<time>2014-12-04T12:32:42Z</time>
<extensions>
<tp1:TrackPointExtension>
<tp1:hr>132</tp1:hr>
</tp1:TrackPointExtension>
</extensions>
</trkpt>
<trkpt lat="46.1561867" lon="6.0027772">
<ele>412.2000000</ele>
<time>2014-12-04T12:32:46Z</time>
<extensions>
<tp1:TrackPointExtension>
<tp1:hr>133</tp1:hr>
</tp1:TrackPointExtension>
</extensions>
</trkpt>
<trkpt lat="46.1559865" lon="6.0030737">
<ele>412.2000000</ele>
<time>2014-12-04T12:32:53Z</time>
<extensions>
<tp1:TrackPointExtension>
<tp1:hr>134</tp1:hr>
</tp1:TrackPointExtension>
</extensions>
</trkpt>
<trkpt lat="46.1557282" lon="6.0034729">
<ele>412.2000000</ele>
<time>2014-12-04T12:33:01Z</time>
<extensions>
<tp1:TrackPointExtension>
<tp1:hr>135</tp1:hr>
</tp1:TrackPointExtension>
</extensions>
</trkpt>
<trkpt lat="46.1553818" lon="6.0039865">
<ele>412.2000000</ele>
<time>2014-12-04T12:33:11Z</time>
<extensions>
<tp1:TrackPointExtension>
<tp1:hr>134</tp1:hr>
</tp1:TrackPointExtension>
</extensions>
</trkpt>
<trkpt lat="46.1551250" lon="6.0044582">
<ele>412.2000000</ele>
<time>2014-12-04T12:33:19Z</time>
<extensions>
<tp1:TrackPointExtension>
<tp1:hr>134</tp1:hr>
</tp1:TrackPointExtension>
</extensions>
</trkpt>
<trkpt lat="46.1549067" lon="6.0049339">
<ele>412.2000000</ele>
<time>2014-12-04T12:33:27Z</time>
<extensions>
<tp1:TrackPointExtension>
<tp1:hr>133</tp1:hr>
</tp1:TrackPointExtension>
</extensions>
</trkpt>
<trkpt lat="46.1548868" lon="6.0050050">
<ele>412.2000000</ele>
<time>2014-12-04T12:33:28Z</time>
<extensions>
<tp1:TrackPointExtension>
<tp1:hr>133</tp1:hr>
</tp1:TrackPointExtension>
</extensions>
</trkpt>
<trkpt lat="46.1548722" lon="6.0050784">
<ele>412.2000000</ele>
<time>2014-12-04T12:33:29Z</time>
<extensions>
<tp1:TrackPointExtension>
<tp1:hr>133</tp1:hr>
</tp1:TrackPointExtension>
</extensions>
</trkpt>
<trkpt lat="46.1548574" lon="6.0053149">
<ele>412.2000000</ele>
<time>2014-12-04T12:33:32Z</time>
<extensions>
<tp1:TrackPointExtension>
<tp1:hr>132</tp1:hr>
</tp1:TrackPointExtension>
</extensions>
</trkpt>
<trkpt lat="46.1548452" lon="6.0057814">
<ele>412.2000000</ele>
<time>2014-12-04T12:33:38Z</time>
<extensions>
<tp1:TrackPointExtension>
<tp1:hr>131</tp1:hr>
</tp1:TrackPointExtension>
</extensions>
</trkpt>
<trkpt lat="46.1548298" lon="6.0059324">
<ele>412.2000000</ele>
<time>2014-12-04T12:33:40Z</time>
<extensions>
<tp1:TrackPointExtension>
<tp1:hr>131</tp1:hr>
</tp1:TrackPointExtension>
</extensions>
</trkpt>
<trkpt lat="46.1548155" lon="6.0060820">
<ele>412.6000000</ele>
<time>2014-12-04T12:33:42Z</time>
<extensions>
<tp1:TrackPointExtension>
<tp1:hr>131</tp1:hr>
</tp1:TrackPointExtension>
</extensions>
</trkpt>
<trkpt lat="46.1548109" lon="6.0061560">
<ele>413.0000000</ele>
<time>2014-12-04T12:33:43Z</time>
<extensions>
<tp1:TrackPointExtension>
<tp1:hr>131</tp1:hr>
</tp1:TrackPointExtension>
</extensions>
</trkpt>
<trkpt lat="46.1548042" lon="6.0062296">
<ele>413.4000000</ele>
<time>2014-12-04T12:33:44Z</time>
<extensions>
<tp1:TrackPointExtension>
<tp1:hr>131</tp1:hr>
</tp1:TrackPointExtension>
</extensions>
</trkpt>
<trkpt lat="46.1548004" lon="6.0063044">
<ele>413.8000000</ele>
<time>2014-12-04T12:33:45Z</time>
<extensions>
<tp1:TrackPointExtension>
<tp1:hr>131</tp1:hr>
</tp1:TrackPointExtension>
</extensions>
</trkpt>
<trkpt lat="46.1547943" lon="6.0063752">
<ele>414.2000000</ele>
<time>2014-12-04T12:33:46Z</time>
<extensions>
<tp1:TrackPointExtension>
<tp1:hr>131</tp1:hr>
</tp1:TrackPointExtension>
</extensions>
</trkpt>
<trkpt lat="46.1547688" lon="6.0065796">
<ele>414.2000000</ele>
<time>2014-12-04T12:33:49Z</time>
<extensions>
<tp1:TrackPointExtension>
<tp1:hr>131</tp1:hr>
</tp1:TrackPointExtension>
</extensions>
</trkpt>
<trkpt lat="46.1547239" lon="6.0072156">
<ele>414.2000000</ele>
<time>2014-12-04T12:33:58Z</time>
<extensions>
<tp1:TrackPointExtension>
<tp1:hr>131</tp1:hr>
</tp1:TrackPointExtension>
</extensions>
</trkpt>
<trkpt lat="46.1547462" lon="6.0075723">
<ele>414.2000000</ele>
<time>2014-12-04T12:34:03Z</time>
<extensions>
<tp1:TrackPointExtension>
<tp1:hr>131</tp1:hr>
</tp1:TrackPointExtension>
</extensions>
</trkpt>
<trkpt lat="46.1547515" lon="6.0077159">
<ele>414.6000000</ele>
<time>2014-12-04T12:34:05Z</time>
<extensions>
<tp1:TrackPointExtension>
<tp1:hr>130</tp1:hr>
</tp1:TrackPointExtension>
</extensions>
</trkpt>
<trkpt lat="46.1547507" lon="6.0077890">
<ele>415.2000000</ele>
<time>2014-12-04T12:34:06Z</time>
<extensions>
<tp1:TrackPointExtension>
<tp1:hr>130</tp1:hr>
</tp1:TrackPointExtension>
</extensions>
</trkpt>
<trkpt lat="46.1547440" lon="6.0078616">
<ele>415.6000000</ele>
<time>2014-12-04T12:34:07Z</time>
<extensions>
<tp1:TrackPointExtension>
<tp1:hr>131</tp1:hr>
</tp1:TrackPointExtension>
</extensions>
</trkpt>
<trkpt lat="46.1547321" lon="6.0079334">
<ele>416.0000000</ele>
<time>2014-12-04T12:34:08Z</time>
<extensions>
<tp1:TrackPointExtension>
<tp1:hr>130</tp1:hr>
</tp1:TrackPointExtension>
</extensions>
</trkpt>
<trkpt lat="46.1547204" lon="6.0080040">
<ele>416.4000000</ele>
<time>2014-12-04T12:34:09Z</time>
<extensions>
<tp1:TrackPointExtension>
<tp1:hr>131</tp1:hr>
</tp1:TrackPointExtension>
</extensions>
</trkpt>
<trkpt lat="46.1546830" lon="6.0082871">
<ele>416.4000000</ele>
<time>2014-12-04T12:34:13Z</time>
<extensions>
<tp1:TrackPointExtension>
<tp1:hr>131</tp1:hr>
</tp1:TrackPointExtension>
</extensions>
</trkpt>
<trkpt lat="46.1545267" lon="6.0089925">
<ele>416.4000000</ele>
<time>2014-12-04T12:34:23Z</time>
<extensions>
<tp1:TrackPointExtension>
<tp1:hr>132</tp1:hr>
</tp1:TrackPointExtension>
</extensions>
</trkpt>
<trkpt lat="46.1543028" lon="6.0097569">
<ele>416.4000000</ele>
<time>2014-12-04T12:34:34Z</time>
<extensions>
<tp1:TrackPointExtension>
<tp1:hr>132</tp1:hr>
</tp1:TrackPointExtension>
</extensions>
</trkpt>
<trkpt lat="46.1540646" lon="6.0105326">
<ele>416.4000000</ele>
<time>2014-12-04T12:34:45Z</time>
<extensions>
<tp1:TrackPointExtension>
<tp1:hr>132</tp1:hr>
</tp1:TrackPointExtension>
</extensions>
</trkpt>
<trkpt lat="46.1540434" lon="6.0106018">
<ele>416.4000000</ele>
<time>2014-12-04T12:34:46Z</time>
<extensions>
<tp1:TrackPointExtension>
<tp1:hr>132</tp1:hr>
</tp1:TrackPointExtension>
</extensions>
</trkpt>
<trkpt lat="46.1538052" lon="6.0113001">
<ele>416.4000000</ele>
<time>2014-12-04T12:34:56Z</time>
<extensions>
<tp1:TrackPointExtension>
<tp1:hr>132</tp1:hr>
</tp1:TrackPointExtension>
</extensions>
</trkpt>
<trkpt lat="46.1537540" lon="6.0114450">
<ele>416.4000000</ele>
<time>2014-12-04T12:34:58Z</time>
<extensions>
<tp1:TrackPointExtension>
<tp1:hr>132</tp1:hr>
</tp1:TrackPointExtension>
</extensions>
</trkpt>
<trkpt lat="46.1536159" lon="6.0118895">
<ele>416.4000000</ele>
<time>2014-12-04T12:35:04Z</time>
<extensions>
<tp1:TrackPointExtension>
<tp1:hr>131</tp1:hr>
</tp1:TrackPointExtension>
</extensions>
</trkpt>
<trkpt lat="46.1535924" lon="6.0120422">
<ele>416.4000000</ele>
<time>2014-12-04T12:35:06Z</time>
<extensions>
<tp1:TrackPointExtension>
<tp1:hr>131</tp1:hr>
</tp1:TrackPointExtension>
</extensions>
</trkpt>
<trkpt lat="46.1535821" lon="6.0121949">
<ele>416.4000000</ele>
<time>2014-12-04T12:35:08Z</time>
<extensions>
<tp1:TrackPointExtension>
<tp1:hr>131</tp1:hr>
</tp1:TrackPointExtension>
</extensions>
</trkpt>
<trkpt lat="46.1535981" lon="6.0124220">
<ele>416.4000000</ele>
<time>2014-12-04T12:35:11Z</time>
<extensions>
<tp1:TrackPointExtension>
<tp1:hr>131</tp1:hr>
</tp1:TrackPointExtension>
</extensions>
</trkpt>
<trkpt lat="46.1536785" lon="6.0129322">
<ele>416.4000000</ele>
<time>2014-12-04T12:35:18Z</time>
<extensions>
<tp1:TrackPointExtension>
<tp1:hr>132</tp1:hr>
</tp1:TrackPointExtension>
</extensions>
</trkpt>
<trkpt lat="46.1537568" lon="6.0137727">
<ele>416.4000000</ele>
<time>2014-12-04T12:35:29Z</time>
<extensions>
<tp1:TrackPointExtension>
<tp1:hr>133</tp1:hr>
</tp1:TrackPointExtension>
</extensions>
</trkpt>
<trkpt lat="46.1537276" lon="6.0145511">
<ele>416.4000000</ele>
<time>2014-12-04T12:35:39Z</time>
<extensions>
<tp1:TrackPointExtension>
<tp1:hr>134</tp1:hr>
</tp1:TrackPointExtension>
</extensions>
</trkpt>
<trkpt lat="46.1536502" lon="6.0153117">
<ele>416.4000000</ele>
<time>2014-12-04T12:35:49Z</time>
<extensions>
<tp1:TrackPointExtension>
<tp1:hr>134</tp1:hr>
</tp1:TrackPointExtension>
</extensions>
</trkpt>
<trkpt lat="46.1536401" lon="6.0154663">
<ele>416.4000000</ele>
<time>2014-12-04T12:35:51Z</time>
<extensions>
<tp1:TrackPointExtension>
<tp1:hr>134</tp1:hr>
</tp1:TrackPointExtension>
</extensions>
</trkpt>
<trkpt lat="46.1536007" lon="6.0157744">
<ele>416.4000000</ele>
<time>2014-12-04T12:35:55Z</time>
<extensions>
<tp1:TrackPointExtension>
<tp1:hr>134</tp1:hr>
</tp1:TrackPointExtension>
</extensions>
</trkpt>
<trkpt lat="46.1535774" lon="6.0159323">
<ele>416.4000000</ele>
<time>2014-12-04T12:35:57Z</time>
<extensions>
<tp1:TrackPointExtension>
<tp1:hr>134</tp1:hr>
</tp1:TrackPointExtension>
</extensions>
</trkpt>
<trkpt lat="46.1535318" lon="6.0164140">
<ele>416.8000000</ele>
<time>2014-12-04T12:36:03Z</time>
<extensions>
<tp1:TrackPointExtension>
<tp1:hr>135</tp1:hr>
</tp1:TrackPointExtension>
</extensions>
</trkpt>
<trkpt lat="46.1535329" lon="6.0164940">
<ele>417.2000000</ele>
<time>2014-12-04T12:36:04Z</time>
<extensions>
<tp1:TrackPointExtension>
<tp1:hr>135</tp1:hr>
</tp1:TrackPointExtension>
</extensions>
</trkpt>
<trkpt lat="46.1535379" lon="6.0165760">
<ele>417.6000000</ele>
<time>2014-12-04T12:36:05Z</time>
<extensions>
<tp1:TrackPointExtension>
<tp1:hr>135</tp1:hr>
</tp1:TrackPointExtension>
</extensions>
</trkpt>
<trkpt lat="46.1535480" lon="6.0166528">
<ele>418.0000000</ele>
<time>2014-12-04T12:36:06Z</time>
<extensions>
<tp1:TrackPointExtension>
<tp1:hr>134</tp1:hr>
</tp1:TrackPointExtension>
</extensions>
</trkpt>
<trkpt lat="46.1535646" lon="6.0167348">
<ele>418.4000000</ele>
<time>2014-12-04T12:36:07Z</time>
<extensions>
<tp1:TrackPointExtension>
<tp1:hr>134</tp1:hr>
</tp1:TrackPointExtension>
</extensions>
</trkpt>
<trkpt lat="46.1536497" lon="6.0170314">
<ele>418.4000000</ele>
<time>2014-12-04T12:36:11Z</time>
<extensions>
<tp1:TrackPointExtension>
<tp1:hr>134</tp1:hr>
</tp1:TrackPointExtension>
</extensions>
</trkpt>
<trkpt lat="46.1539654" lon="6.0177401">
<ele>418.4000000</ele>
<time>2014-12-04T12:36:22Z</time>
<extensions>
<tp1:TrackPointExtension>
<tp1:hr>135</tp1:hr>
</tp1:TrackPointExtension>
</extensions>
</trkpt>
<trkpt lat="46.1539888" lon="6.0178028">
<ele>418.4000000</ele>
<time>2014-12-04T12:36:23Z</time>
<extensions>
<tp1:TrackPointExtension>
<tp1:hr>135</tp1:hr>
</tp1:TrackPointExtension>
</extensions>
</trkpt>
<trkpt lat="46.1540731" lon="6.0181046">
<ele>418.8000000</ele>
<time>2014-12-04T12:36:28Z</time>
<extensions>
<tp1:TrackPointExtension>
<tp1:hr>136</tp1:hr>
</tp1:TrackPointExtension>
</extensions>
</trkpt>
<trkpt lat="46.1540856" lon="6.0181650">
<ele>419.2000000</ele>
<time>2014-12-04T12:36:29Z</time>
<extensions>
<tp1:TrackPointExtension>
<tp1:hr>136</tp1:hr>
</tp1:TrackPointExtension>
</extensions>
</trkpt>
<trkpt lat="46.1540961" lon="6.0182253">
<ele>419.8000000</ele>
<time>2014-12-04T12:36:30Z</time>
<extensions>
<tp1:TrackPointExtension>
<tp1:hr>136</tp1:hr>
</tp1:TrackPointExtension>
</extensions>
</trkpt>
<trkpt lat="46.1541038" lon="6.0182853">
<ele>420.2000000</ele>
<time>2014-12-04T12:36:31Z</time>
<extensions>
<tp1:TrackPointExtension>
<tp1:hr>136</tp1:hr>
</tp1:TrackPointExtension>
</extensions>
</trkpt>
<trkpt lat="46.1541105" lon="6.0183496">
<ele>420.6000000</ele>
<time>2014-12-04T12:36:32Z</time>
<extensions>
<tp1:TrackPointExtension>
<tp1:hr>136</tp1:hr>
</tp1:TrackPointExtension>
</extensions>
</trkpt>
<trkpt lat="46.1541159" lon="6.0184718">
<ele>421.0000000</ele>
<time>2014-12-04T12:36:34Z</time>
<extensions>
<tp1:TrackPointExtension>
<tp1:hr>136</tp1:hr>
</tp1:TrackPointExtension>
</extensions>
</trkpt>
<trkpt lat="46.1541167" lon="6.0185336">
<ele>421.4000000</ele>
<time>2014-12-04T12:36:35Z</time>
<extensions>
<tp1:TrackPointExtension>
<tp1:hr>136</tp1:hr>
</tp1:TrackPointExtension>
</extensions>
</trkpt>
<trkpt lat="46.1541171" lon="6.0185956">
<ele>421.8000000</ele>
<time>2014-12-04T12:36:36Z</time>
<extensions>
<tp1:TrackPointExtension>
<tp1:hr>136</tp1:hr>
</tp1:TrackPointExtension>
</extensions>
</trkpt>
<trkpt lat="46.1541176" lon="6.0186573">
<ele>422.2000000</ele>
<time>2014-12-04T12:36:37Z</time>
<extensions>
<tp1:TrackPointExtension>
<tp1:hr>137</tp1:hr>
</tp1:TrackPointExtension>
</extensions>
</trkpt>
<trkpt lat="46.1541177" lon="6.0187206">
<ele>422.6000000</ele>
<time>2014-12-04T12:36:38Z</time>
<extensions>
<tp1:TrackPointExtension>
<tp1:hr>137</tp1:hr>
</tp1:TrackPointExtension>
</extensions>
</trkpt>
<trkpt lat="46.1541175" lon="6.0187825">
<ele>422.6000000</ele>
<time>2014-12-04T12:36:39Z</time>
<extensions>
<tp1:TrackPointExtension>
<tp1:hr>137</tp1:hr>
</tp1:TrackPointExtension>
</extensions>
</trkpt>
<trkpt lat="46.1541136" lon="6.0194809">
<ele>422.6000000</ele>
<time>2014-12-04T12:36:50Z</time>
<extensions>
<tp1:TrackPointExtension>
<tp1:hr>138</tp1:hr>
</tp1:TrackPointExtension>
</extensions>
</trkpt>
<trkpt lat="46.1541310" lon="6.0198573">
<ele>423.0000000</ele>
<time>2014-12-04T12:36:56Z</time>
<extensions>
<tp1:TrackPointExtension>
<tp1:hr>138</tp1:hr>
</tp1:TrackPointExtension>
</extensions>
</trkpt>
<trkpt lat="46.1541351" lon="6.0199198">
<ele>423.4000000</ele>
<time>2014-12-04T12:36:57Z</time>
<extensions>
<tp1:TrackPointExtension>
<tp1:hr>138</tp1:hr>
</tp1:TrackPointExtension>
</extensions>
</trkpt>
<trkpt lat="46.1541375" lon="6.0199843">
<ele>423.8000000</ele>
<time>2014-12-04T12:36:58Z</time>
<extensions>
<tp1:TrackPointExtension>
<tp1:hr>137</tp1:hr>
</tp1:TrackPointExtension>
</extensions>
</trkpt>
<trkpt lat="46.1541405" lon="6.0200508">
<ele>424.2000000</ele>
<time>2014-12-04T12:36:59Z</time>
<extensions>
<tp1:TrackPointExtension>
<tp1:hr>138</tp1:hr>
</tp1:TrackPointExtension>
</extensions>
</trkpt>
<trkpt lat="46.1541438" lon="6.0201175">
<ele>424.6000000</ele>
<time>2014-12-04T12:37:00Z</time>
<extensions>
<tp1:TrackPointExtension>
<tp1:hr>138</tp1:hr>
</tp1:TrackPointExtension>
</extensions>
</trkpt>
<trkpt lat="46.1541479" lon="6.0201810">
<ele>424.6000000</ele>
<time>2014-12-04T12:37:01Z</time>
<extensions>
<tp1:TrackPointExtension>
<tp1:hr>137</tp1:hr>
</tp1:TrackPointExtension>
</extensions>
</trkpt>
<trkpt lat="46.1542032" lon="6.0209261">
<ele>424.6000000</ele>
<time>2014-12-04T12:37:12Z</time>
<extensions>
<tp1:TrackPointExtension>
<tp1:hr>139</tp1:hr>
</tp1:TrackPointExtension>
</extensions>
</trkpt>
<trkpt lat="46.1542436" lon="6.0217353">
<ele>424.6000000</ele>
<time>2014-12-04T12:37:23Z</time>
<extensions>
<tp1:TrackPointExtension>
<tp1:hr>138</tp1:hr>
</tp1:TrackPointExtension>
</extensions>
</trkpt>
<trkpt lat="46.1542637" lon="6.0220316">
<ele>424.6000000</ele>
<time>2014-12-04T12:37:27Z</time>
<extensions>
<tp1:TrackPointExtension>
<tp1:hr>137</tp1:hr>
</tp1:TrackPointExtension>
</extensions>
</trkpt>
<trkpt lat="46.1543361" lon="6.0228449">
<ele>424.6000000</ele>
<time>2014-12-04T12:37:38Z</time>
<extensions>
<tp1:TrackPointExtension>
<tp1:hr>136</tp1:hr>
</tp1:TrackPointExtension>
</extensions>
</trkpt>
<trkpt lat="46.1543401" lon="6.0229210">
<ele>424.6000000</ele>
<time>2014-12-04T12:37:39Z</time>
<extensions>
<tp1:TrackPointExtension>
<tp1:hr>136</tp1:hr>
</tp1:TrackPointExtension>
</extensions>
</trkpt>
<trkpt lat="46.1543242" lon="6.0236834">
<ele>424.6000000</ele>
<time>2014-12-04T12:37:49Z</time>
<extensions>
<tp1:TrackPointExtension>
<tp1:hr>135</tp1:hr>
</tp1:TrackPointExtension>
</extensions>
</trkpt>
<trkpt lat="46.1542038" lon="6.0244021">
<ele>424.6000000</ele>
<time>2014-12-04T12:37:59Z</time>
<extensions>
<tp1:TrackPointExtension>
<tp1:hr>137</tp1:hr>
</tp1:TrackPointExtension>
</extensions>
</trkpt>
<trkpt lat="46.1540570" lon="6.0252044">
<ele>424.6000000</ele>
<time>2014-12-04T12:38:10Z</time>
<extensions>
<tp1:TrackPointExtension>
<tp1:hr>138</tp1:hr>
</tp1:TrackPointExtension>
</extensions>
</trkpt>
<trkpt lat="46.1540441" lon="6.0252773">
<ele>425.2000000</ele>
<time>2014-12-04T12:38:11Z</time>
<extensions>
<tp1:TrackPointExtension>
<tp1:hr>138</tp1:hr>
</tp1:TrackPointExtension>
</extensions>
</trkpt>
<trkpt lat="46.1540354" lon="6.0253515">
<ele>425.6000000</ele>
<time>2014-12-04T12:38:12Z</time>
<extensions>
<tp1:TrackPointExtension>
<tp1:hr>138</tp1:hr>
</tp1:TrackPointExtension>
</extensions>
</trkpt>
<trkpt lat="46.1540264" lon="6.0254258">
<ele>426.2000000</ele>
<time>2014-12-04T12:38:13Z</time>
<extensions>
<tp1:TrackPointExtension>
<tp1:hr>138</tp1:hr>
</tp1:TrackPointExtension>
</extensions>
</trkpt>
<trkpt lat="46.1540174" lon="6.0254986">
<ele>426.6000000</ele>
<time>2014-12-04T12:38:14Z</time>
<extensions>
<tp1:TrackPointExtension>
<tp1:hr>138</tp1:hr>
</tp1:TrackPointExtension>
</extensions>
</trkpt>
<trkpt lat="46.1540080" lon="6.0255719">
<ele>427.2000000</ele>
<time>2014-12-04T12:38:15Z</time>
<extensions>
<tp1:TrackPointExtension>
<tp1:hr>138</tp1:hr>
</tp1:TrackPointExtension>
</extensions>
</trkpt>
<trkpt lat="46.1538979" lon="6.0263890">
<ele>427.2000000</ele>
<time>2014-12-04T12:38:26Z</time>
<extensions>
<tp1:TrackPointExtension>
<tp1:hr>138</tp1:hr>
</tp1:TrackPointExtension>
</extensions>
</trkpt>
<trkpt lat="46.1538703" lon="6.0266141">
<ele>427.2000000</ele>
<time>2014-12-04T12:38:29Z</time>
<extensions>
<tp1:TrackPointExtension>
<tp1:hr>139</tp1:hr>
</tp1:TrackPointExtension>
</extensions>
</trkpt>
<trkpt lat="46.1537474" lon="6.0274344">
<ele>427.2000000</ele>
<time>2014-12-04T12:38:40Z</time>
<extensions>
<tp1:TrackPointExtension>
<tp1:hr>138</tp1:hr>
</tp1:TrackPointExtension>
</extensions>
</trkpt>
<trkpt lat="46.1537372" lon="6.0275111">
<ele>427.2000000</ele>
<time>2014-12-04T12:38:41Z</time>
<extensions>
<tp1:TrackPointExtension>
<tp1:hr>138</tp1:hr>
</tp1:TrackPointExtension>
</extensions>
</trkpt>
<trkpt lat="46.1536858" lon="6.0282954">
<ele>427.2000000</ele>
<time>2014-12-04T12:38:51Z</time>
<extensions>
<tp1:TrackPointExtension>
<tp1:hr>139</tp1:hr>
</tp1:TrackPointExtension>
</extensions>
</trkpt>
<trkpt lat="46.1536832" lon="6.0283733">
<ele>427.2000000</ele>
<time>2014-12-04T12:38:52Z</time>
<extensions>
<tp1:TrackPointExtension>
<tp1:hr>138</tp1:hr>
</tp1:TrackPointExtension>
</extensions>
</trkpt>
<trkpt lat="46.1536670" lon="6.0291542">
<ele>427.2000000</ele>
<time>2014-12-04T12:39:02Z</time>
<extensions>
<tp1:TrackPointExtension>
<tp1:hr>139</tp1:hr>
</tp1:TrackPointExtension>
</extensions>
</trkpt>
<trkpt lat="46.1536699" lon="6.0293037">
<ele>427.2000000</ele>
<time>2014-12-04T12:39:04Z</time>
<extensions>
<tp1:TrackPointExtension>
<tp1:hr>139</tp1:hr>
</tp1:TrackPointExtension>
</extensions>
</trkpt>
<trkpt lat="46.1536592" lon="6.0297546">
<ele>427.2000000</ele>
<time>2014-12-04T12:39:11Z</time>
<extensions>
<tp1:TrackPointExtension>
<tp1:hr>137</tp1:hr>
</tp1:TrackPointExtension>
</extensions>
</trkpt>
<trkpt lat="46.1536637" lon="6.0299701">
<ele>427.2000000</ele>
<time>2014-12-04T12:39:16Z</time>
<extensions>
<tp1:TrackPointExtension>
<tp1:hr>137</tp1:hr>
</tp1:TrackPointExtension>
</extensions>
</trkpt>
<trkpt lat="46.1537877" lon="6.0301944">
<ele>427.2000000</ele>
<time>2014-12-04T12:39:21Z</time>
<extensions>
<tp1:TrackPointExtension>
<tp1:hr>136</tp1:hr>
</tp1:TrackPointExtension>
</extensions>
</trkpt>
<trkpt lat="46.1538234" lon="6.0302390">
<ele>427.2000000</ele>
<time>2014-12-04T12:39:22Z</time>
<extensions>
<tp1:TrackPointExtension>
<tp1:hr>136</tp1:hr>
</tp1:TrackPointExtension>
</extensions>
</trkpt>
<trkpt lat="46.1541972" lon="6.0306951">
<ele>427.2000000</ele>
<time>2014-12-04T12:39:31Z</time>
<extensions>
<tp1:TrackPointExtension>
<tp1:hr>133</tp1:hr>
</tp1:TrackPointExtension>
</extensions>
</trkpt>
<trkpt lat="46.1542806" lon="6.0308020">
<ele>427.2000000</ele>
<time>2014-12-04T12:39:33Z</time>
<extensions>
<tp1:TrackPointExtension>
<tp1:hr>130</tp1:hr>
</tp1:TrackPointExtension>
</extensions>
</trkpt>
<trkpt lat="46.1543696" lon="6.0309165">
<ele>426.8000000</ele>
<time>2014-12-04T12:39:35Z</time>
<extensions>
<tp1:TrackPointExtension>
<tp1:hr>128</tp1:hr>
</tp1:TrackPointExtension>
</extensions>
</trkpt>
<trkpt lat="46.1544146" lon="6.0309748">
<ele>426.4000000</ele>
<time>2014-12-04T12:39:36Z</time>
<extensions>
<tp1:TrackPointExtension>
<tp1:hr>128</tp1:hr>
</tp1:TrackPointExtension>
</extensions>
</trkpt>
<trkpt lat="46.1544598" lon="6.0310351">
<ele>426.0000000</ele>
<time>2014-12-04T12:39:37Z</time>
<extensions>
<tp1:TrackPointExtension>
<tp1:hr>127</tp1:hr>
</tp1:TrackPointExtension>
</extensions>
</trkpt>
<trkpt lat="46.1545057" lon="6.0310965">
<ele>425.6000000</ele>
<time>2014-12-04T12:39:38Z</time>
<extensions>
<tp1:TrackPointExtension>
<tp1:hr>126</tp1:hr>
</tp1:TrackPointExtension>
</extensions>
</trkpt>
<trkpt lat="46.1545543" lon="6.0311608">
<ele>425.2000000</ele>
<time>2014-12-04T12:39:39Z</time>
<extensions>
<tp1:TrackPointExtension>
<tp1:hr>126</tp1:hr>
</tp1:TrackPointExtension>
</extensions>
</trkpt>
<trkpt lat="46.1546462" lon="6.0312815">
<ele>425.2000000</ele>
<time>2014-12-04T12:39:41Z</time>
<extensions>
<tp1:TrackPointExtension>
<tp1:hr>125</tp1:hr>
</tp1:TrackPointExtension>
</extensions>
</trkpt>
<trkpt lat="46.1548573" lon="6.0315599">
<ele>425.2000000</ele>
<time>2014-12-04T12:39:46Z</time>
<extensions>
<tp1:TrackPointExtension>
<tp1:hr>124</tp1:hr>
</tp1:TrackPointExtension>
</extensions>
</trkpt>
<trkpt lat="46.1548768" lon="6.0316260">
<ele>424.8000000</ele>
<time>2014-12-04T12:39:47Z</time>
<extensions>
<tp1:TrackPointExtension>
<tp1:hr>124</tp1:hr>
</tp1:TrackPointExtension>
</extensions>
</trkpt>
<trkpt lat="46.1548803" lon="6.0316969">
<ele>424.4000000</ele>
<time>2014-12-04T12:39:48Z</time>
<extensions>
<tp1:TrackPointExtension>
<tp1:hr>124</tp1:hr>
</tp1:TrackPointExtension>
</extensions>
</trkpt>
<trkpt lat="46.1548705" lon="6.0317665">
<ele>423.8000000</ele>
<time>2014-12-04T12:39:49Z</time>
<extensions>
<tp1:TrackPointExtension>
<tp1:hr>123</tp1:hr>
</tp1:TrackPointExtension>
</extensions>
</trkpt>
<trkpt lat="46.1548435" lon="6.0318294">
<ele>423.4000000</ele>
<time>2014-12-04T12:39:50Z</time>
<extensions>
<tp1:TrackPointExtension>
<tp1:hr>123</tp1:hr>
</tp1:TrackPointExtension>
</extensions>
</trkpt>
<trkpt lat="46.1548102" lon="6.0318840">
<ele>423.0000000</ele>
<time>2014-12-04T12:39:51Z</time>
<extensions>
<tp1:TrackPointExtension>
<tp1:hr>124</tp1:hr>
</tp1:TrackPointExtension>
</extensions>
</trkpt>
<trkpt lat="46.1547745" lon="6.0319387">
<ele>423.0000000</ele>
<time>2014-12-04T12:39:52Z</time>
<extensions>
<tp1:TrackPointExtension>
<tp1:hr>124</tp1:hr>
</tp1:TrackPointExtension>
</extensions>
</trkpt>
<trkpt lat="46.1546152" lon="6.0321546">
<ele>423.0000000</ele>
<time>2014-12-04T12:39:56Z</time>
<extensions>
<tp1:TrackPointExtension>
<tp1:hr>125</tp1:hr>
</tp1:TrackPointExtension>
</extensions>
</trkpt>
<trkpt lat="46.1542250" lon="6.0325930">
<ele>423.0000000</ele>
<time>2014-12-04T12:40:05Z</time>
<extensions>
<tp1:TrackPointExtension>
<tp1:hr>127</tp1:hr>
</tp1:TrackPointExtension>
</extensions>
</trkpt>
<trkpt lat="46.1540697" lon="6.0327939">
<ele>423.0000000</ele>
<time>2014-12-04T12:40:09Z</time>
<extensions>
<tp1:TrackPointExtension>
<tp1:hr>127</tp1:hr>
</tp1:TrackPointExtension>
</extensions>
</trkpt>
<trkpt lat="46.1539977" lon="6.0329685">
<ele>423.0000000</ele>
<time>2014-12-04T12:40:12Z</time>
<extensions>
<tp1:TrackPointExtension>
<tp1:hr>126</tp1:hr>
</tp1:TrackPointExtension>
</extensions>
</trkpt>
<trkpt lat="46.1540039" lon="6.0331862">
<ele>423.0000000</ele>
<time>2014-12-04T12:40:15Z</time>
<extensions>
<tp1:TrackPointExtension>
<tp1:hr>127</tp1:hr>
</tp1:TrackPointExtension>
</extensions>
</trkpt>
<trkpt lat="46.1541492" lon="6.0335503">
<ele>423.0000000</ele>
<time>2014-12-04T12:40:20Z</time>
<extensions>
<tp1:TrackPointExtension>
<tp1:hr>128</tp1:hr>
</tp1:TrackPointExtension>
</extensions>
</trkpt>
<trkpt lat="46.1544178" lon="6.0339983">
<ele>423.0000000</ele>
<time>2014-12-04T12:40:27Z</time>
<extensions>
<tp1:TrackPointExtension>
<tp1:hr>129</tp1:hr>
</tp1:TrackPointExtension>
</extensions>
</trkpt>
<trkpt lat="46.1544618" lon="6.0340475">
<ele>423.0000000</ele>
<time>2014-12-04T12:40:28Z</time>
<extensions>
<tp1:TrackPointExtension>
<tp1:hr>129</tp1:hr>
</tp1:TrackPointExtension>
</extensions>
</trkpt>
<trkpt lat="46.1547543" lon="6.0343527">
<ele>423.0000000</ele>
<time>2014-12-04T12:40:34Z</time>
<extensions>
<tp1:TrackPointExtension>
<tp1:hr>128</tp1:hr>
</tp1:TrackPointExtension>
</extensions>
</trkpt>
<trkpt lat="46.1548466" lon="6.0344468">
<ele>422.6000000</ele>
<time>2014-12-04T12:40:36Z</time>
<extensions>
<tp1:TrackPointExtension>
<tp1:hr>128</tp1:hr>
</tp1:TrackPointExtension>
</extensions>
</trkpt>
<trkpt lat="46.1548940" lon="6.0344947">
<ele>422.2000000</ele>
<time>2014-12-04T12:40:37Z</time>
<extensions>
<tp1:TrackPointExtension>
<tp1:hr>128</tp1:hr>
</tp1:TrackPointExtension>
</extensions>
</trkpt>
<trkpt lat="46.1549315" lon="6.0345535">
<ele>421.8000000</ele>
<time>2014-12-04T12:40:38Z</time>
<extensions>
<tp1:TrackPointExtension>
<tp1:hr>127</tp1:hr>
</tp1:TrackPointExtension>
</extensions>
</trkpt>
<trkpt lat="46.1549587" lon="6.0346244">
<ele>421.4000000</ele>
<time>2014-12-04T12:40:39Z</time>
<extensions>
<tp1:TrackPointExtension>
<tp1:hr>127</tp1:hr>
</tp1:TrackPointExtension>
</extensions>
</trkpt>
<trkpt lat="46.1549813" lon="6.0347012">
<ele>420.8000000</ele>
<time>2014-12-04T12:40:40Z</time>
<extensions>
<tp1:TrackPointExtension>
<tp1:hr>127</tp1:hr>
</tp1:TrackPointExtension>
</extensions>
</trkpt>
<trkpt lat="46.1550670" lon="6.0350891">
<ele>420.8000000</ele>
<time>2014-12-04T12:40:45Z</time>
<extensions>
<tp1:TrackPointExtension>
<tp1:hr>126</tp1:hr>
</tp1:TrackPointExtension>
</extensions>
</trkpt>
<trkpt lat="46.1552567" lon="6.0356805">
<ele>421.2000000</ele>
<time>2014-12-04T12:40:54Z</time>
<extensions>
<tp1:TrackPointExtension>
<tp1:hr>127</tp1:hr>
</tp1:TrackPointExtension>
</extensions>
</trkpt>
<trkpt lat="46.1552794" lon="6.0357236">
<ele>421.6000000</ele>
<time>2014-12-04T12:40:55Z</time>
<extensions>
<tp1:TrackPointExtension>
<tp1:hr>127</tp1:hr>
</tp1:TrackPointExtension>
</extensions>
</trkpt>
<trkpt lat="46.1553051" lon="6.0357649">
<ele>422.0000000</ele>
<time>2014-12-04T12:40:56Z</time>
<extensions>
<tp1:TrackPointExtension>
<tp1:hr>127</tp1:hr>
</tp1:TrackPointExtension>
</extensions>
</trkpt>
<trkpt lat="46.1553348" lon="6.0358127">
<ele>422.4000000</ele>
<time>2014-12-04T12:40:57Z</time>
<extensions>
<tp1:TrackPointExtension>
<tp1:hr>127</tp1:hr>
</tp1:TrackPointExtension>
</extensions>
</trkpt>
<trkpt lat="46.1553637" lon="6.0358620">
<ele>422.8000000</ele>
<time>2014-12-04T12:40:58Z</time>
<extensions>
<tp1:TrackPointExtension>
<tp1:hr>127</tp1:hr>
</tp1:TrackPointExtension>
</extensions>
</trkpt>
<trkpt lat="46.1554415" lon="6.0359682">
<ele>423.2000000</ele>
<time>2014-12-04T12:41:01Z</time>
<extensions>
<tp1:TrackPointExtension>
<tp1:hr>128</tp1:hr>
</tp1:TrackPointExtension>
</extensions>
</trkpt>
<trkpt lat="46.1554632" lon="6.0360018">
<ele>423.8000000</ele>
<time>2014-12-04T12:41:02Z</time>
<extensions>
<tp1:TrackPointExtension>
<tp1:hr>129</tp1:hr>
</tp1:TrackPointExtension>
</extensions>
</trkpt>
<trkpt lat="46.1554703" lon="6.0360481">
<ele>424.2000000</ele>
<time>2014-12-04T12:41:03Z</time>
<extensions>
<tp1:TrackPointExtension>
<tp1:hr>130</tp1:hr>
</tp1:TrackPointExtension>
</extensions>
</trkpt>
<trkpt lat="46.1554623" lon="6.0360961">
<ele>424.6000000</ele>
<time>2014-12-04T12:41:04Z</time>
<extensions>
<tp1:TrackPointExtension>
<tp1:hr>130</tp1:hr>
</tp1:TrackPointExtension>
</extensions>
</trkpt>
<trkpt lat="46.1554474" lon="6.0361366">
<ele>425.0000000</ele>
<time>2014-12-04T12:41:05Z</time>
<extensions>
<tp1:TrackPointExtension>
<tp1:hr>130</tp1:hr>
</tp1:TrackPointExtension>
</extensions>
</trkpt>
<trkpt lat="46.1554257" lon="6.0361743">
<ele>425.4000000</ele>
<time>2014-12-04T12:41:06Z</time>
<extensions>
<tp1:TrackPointExtension>
<tp1:hr>131</tp1:hr>
</tp1:TrackPointExtension>
</extensions>
</trkpt>
<trkpt lat="46.1553981" lon="6.0362099">
<ele>426.0000000</ele>
<time>2014-12-04T12:41:07Z</time>
<extensions>
<tp1:TrackPointExtension>
<tp1:hr>131</tp1:hr>
</tp1:TrackPointExtension>
</extensions>
</trkpt>
<trkpt lat="46.1553718" lon="6.0362498">
<ele>426.4000000</ele>
<time>2014-12-04T12:41:08Z</time>
<extensions>
<tp1:TrackPointExtension>
<tp1:hr>132</tp1:hr>
</tp1:TrackPointExtension>
</extensions>
</trkpt>
<trkpt lat="46.1553426" lon="6.0362909">
<ele>426.8000000</ele>
<time>2014-12-04T12:41:09Z</time>
<extensions>
<tp1:TrackPointExtension>
<tp1:hr>133</tp1:hr>
</tp1:TrackPointExtension>
</extensions>
</trkpt>
<trkpt lat="46.1553091" lon="6.0363297">
<ele>427.2000000</ele>
<time>2014-12-04T12:41:10Z</time>
<extensions>
<tp1:TrackPointExtension>
<tp1:hr>133</tp1:hr>
</tp1:TrackPointExtension>
</extensions>
</trkpt>
<trkpt lat="46.1552747" lon="6.0363724">
<ele>427.2000000</ele>
<time>2014-12-04T12:41:11Z</time>
<extensions>
<tp1:TrackPointExtension>
<tp1:hr>134</tp1:hr>
</tp1:TrackPointExtension>
</extensions>
</trkpt>
<trkpt lat="46.1550989" lon="6.0365658">
<ele>427.2000000</ele>
<time>2014-12-04T12:41:16Z</time>
<extensions>
<tp1:TrackPointExtension>
<tp1:hr>135</tp1:hr>
</tp1:TrackPointExtension>
</extensions>
</trkpt>
<trkpt lat="46.1550658" lon="6.0366105">
<ele>427.2000000</ele>
<time>2014-12-04T12:41:17Z</time>
<extensions>
<tp1:TrackPointExtension>
<tp1:hr>135</tp1:hr>
</tp1:TrackPointExtension>
</extensions>
</trkpt>
<trkpt lat="46.1548916" lon="6.0369309">
<ele>427.2000000</ele>
<time>2014-12-04T12:41:23Z</time>
<extensions>
<tp1:TrackPointExtension>
<tp1:hr>136</tp1:hr>
</tp1:TrackPointExtension>
</extensions>
</trkpt>
<trkpt lat="46.1548698" lon="6.0369933">
<ele>427.2000000</ele>
<time>2014-12-04T12:41:24Z</time>
<extensions>
<tp1:TrackPointExtension>
<tp1:hr>136</tp1:hr>
</tp1:TrackPointExtension>
</extensions>
</trkpt>
<trkpt lat="46.1547282" lon="6.0372906">
<ele>427.2000000</ele>
<time>2014-12-04T12:41:29Z</time>
<extensions>
<tp1:TrackPointExtension>
<tp1:hr>137</tp1:hr>
</tp1:TrackPointExtension>
</extensions>
</trkpt>
<trkpt lat="46.1545104" lon="6.0377172">
<ele>427.2000000</ele>
<time>2014-12-04T12:41:36Z</time>
<extensions>
<tp1:TrackPointExtension>
<tp1:hr>137</tp1:hr>
</tp1:TrackPointExtension>
</extensions>
</trkpt>
<trkpt lat="46.1543327" lon="6.0380491">
<ele>427.2000000</ele>
<time>2014-12-04T12:41:42Z</time>
<extensions>
<tp1:TrackPointExtension>
<tp1:hr>138</tp1:hr>
</tp1:TrackPointExtension>
</extensions>
</trkpt>
<trkpt lat="46.1543066" lon="6.0381042">
<ele>427.8000000</ele>
<time>2014-12-04T12:41:43Z</time>
<extensions>
<tp1:TrackPointExtension>
<tp1:hr>138</tp1:hr>
</tp1:TrackPointExtension>
</extensions>
</trkpt>
<trkpt lat="46.1542800" lon="6.0381572">
<ele>428.2000000</ele>
<time>2014-12-04T12:41:44Z</time>
<extensions>
<tp1:TrackPointExtension>
<tp1:hr>138</tp1:hr>
</tp1:TrackPointExtension>
</extensions>
</trkpt>
<trkpt lat="46.1542538" lon="6.0382069">
<ele>428.6000000</ele>
<time>2014-12-04T12:41:45Z</time>
<extensions>
<tp1:TrackPointExtension>
<tp1:hr>138</tp1:hr>
</tp1:TrackPointExtension>
</extensions>
</trkpt>
<trkpt lat="46.1542255" lon="6.0382535">
<ele>429.0000000</ele>
<time>2014-12-04T12:41:46Z</time>
<extensions>
<tp1:TrackPointExtension>
<tp1:hr>138</tp1:hr>
</tp1:TrackPointExtension>
</extensions>
</trkpt>
<trkpt lat="46.1541928" lon="6.0383004">
<ele>429.4000000</ele>
<time>2014-12-04T12:41:47Z</time>
<extensions>
<tp1:TrackPointExtension>
<tp1:hr>138</tp1:hr>
</tp1:TrackPointExtension>
</extensions>
</trkpt>
<trkpt lat="46.1541610" lon="6.0383453">
<ele>429.4000000</ele>
<time>2014-12-04T12:41:48Z</time>
<extensions>
<tp1:TrackPointExtension>
<tp1:hr>138</tp1:hr>
</tp1:TrackPointExtension>
</extensions>
</trkpt>
<trkpt lat="46.1540707" lon="6.0384945">
<ele>429.4000000</ele>
<time>2014-12-04T12:41:51Z</time>
<extensions>
<tp1:TrackPointExtension>
<tp1:hr>137</tp1:hr>
</tp1:TrackPointExtension>
</extensions>
</trkpt>
<trkpt lat="46.1540504" lon="6.0386233">
<ele>429.4000000</ele>
<time>2014-12-04T12:41:53Z</time>
<extensions>
<tp1:TrackPointExtension>
<tp1:hr>137</tp1:hr>
</tp1:TrackPointExtension>
</extensions>
</trkpt>
<trkpt lat="46.1541266" lon="6.0387811">
<ele>429.4000000</ele>
<time>2014-12-04T12:41:56Z</time>
<extensions>
<tp1:TrackPointExtension>
<tp1:hr>135</tp1:hr>
</tp1:TrackPointExtension>
</extensions>
</trkpt>
<trkpt lat="46.1541577" lon="6.0388251">
<ele>429.4000000</ele>
<time>2014-12-04T12:41:57Z</time>
<extensions>
<tp1:TrackPointExtension>
<tp1:hr>135</tp1:hr>
</tp1:TrackPointExtension>
</extensions>
</trkpt>
<trkpt lat="46.1542721" lon="6.0390584">
<ele>429.4000000</ele>
<time>2014-12-04T12:42:02Z</time>
<extensions>
<tp1:TrackPointExtension>
<tp1:hr>135</tp1:hr>
</tp1:TrackPointExtension>
</extensions>
</trkpt>
<trkpt lat="46.1542605" lon="6.0392212">
<ele>429.8000000</ele>
<time>2014-12-04T12:42:05Z</time>
<extensions>
<tp1:TrackPointExtension>
<tp1:hr>135</tp1:hr>
</tp1:TrackPointExtension>
</extensions>
</trkpt>
<trkpt lat="46.1542415" lon="6.0392755">
<ele>430.4000000</ele>
<time>2014-12-04T12:42:06Z</time>
<extensions>
<tp1:TrackPointExtension>
<tp1:hr>135</tp1:hr>
</tp1:TrackPointExtension>
</extensions>
</trkpt>
<trkpt lat="46.1542200" lon="6.0393278">
<ele>430.8000000</ele>
<time>2014-12-04T12:42:07Z</time>
<extensions>
<tp1:TrackPointExtension>
<tp1:hr>135</tp1:hr>
</tp1:TrackPointExtension>
</extensions>
</trkpt>
<trkpt lat="46.1541985" lon="6.0393780">
<ele>431.2000000</ele>
<time>2014-12-04T12:42:08Z</time>
<extensions>
<tp1:TrackPointExtension>
<tp1:hr>136</tp1:hr>
</tp1:TrackPointExtension>
</extensions>
</trkpt>
<trkpt lat="46.1541770" lon="6.0394270">
<ele>431.6000000</ele>
<time>2014-12-04T12:42:09Z</time>
<extensions>
<tp1:TrackPointExtension>
<tp1:hr>135</tp1:hr>
</tp1:TrackPointExtension>
</extensions>
</trkpt>
<trkpt lat="46.1540597" lon="6.0396728">
<ele>431.6000000</ele>
<time>2014-12-04T12:42:14Z</time>
<extensions>
<tp1:TrackPointExtension>
<tp1:hr>136</tp1:hr>
</tp1:TrackPointExtension>
</extensions>
</trkpt>
<trkpt lat="46.1538335" lon="6.0401277">
<ele>431.6000000</ele>
<time>2014-12-04T12:42:23Z</time>
<extensions>
<tp1:TrackPointExtension>
<tp1:hr>137</tp1:hr>
</tp1:TrackPointExtension>
</extensions>
</trkpt>
<trkpt lat="46.1535666" lon="6.0407117">
<ele>431.6000000</ele>
<time>2014-12-04T12:42:33Z</time>
<extensions>
<tp1:TrackPointExtension>
<tp1:hr>137</tp1:hr>
</tp1:TrackPointExtension>
</extensions>
</trkpt>
<trkpt lat="46.1535367" lon="6.0407649">
<ele>431.6000000</ele>
<time>2014-12-04T12:42:34Z</time>
<extensions>
<tp1:TrackPointExtension>
<tp1:hr>137</tp1:hr>
</tp1:TrackPointExtension>
</extensions>
</trkpt>
<trkpt lat="46.1535051" lon="6.0408113">
<ele>432.0000000</ele>
<time>2014-12-04T12:42:35Z</time>
<extensions>
<tp1:TrackPointExtension>
<tp1:hr>137</tp1:hr>
</tp1:TrackPointExtension>
</extensions>
</trkpt>
<trkpt lat="46.1534748" lon="6.0408629">
<ele>432.4000000</ele>
<time>2014-12-04T12:42:36Z</time>
<extensions>
<tp1:TrackPointExtension>
<tp1:hr>137</tp1:hr>
</tp1:TrackPointExtension>
</extensions>
</trkpt>
<trkpt lat="46.1534472" lon="6.0409202">
<ele>432.8000000</ele>
<time>2014-12-04T12:42:37Z</time>
<extensions>
<tp1:TrackPointExtension>
<tp1:hr>136</tp1:hr>
</tp1:TrackPointExtension>
</extensions>
</trkpt>
<trkpt lat="46.1534181" lon="6.0409768">
<ele>433.2000000</ele>
<time>2014-12-04T12:42:38Z</time>
<extensions>
<tp1:TrackPointExtension>
<tp1:hr>137</tp1:hr>
</tp1:TrackPointExtension>
</extensions>
</trkpt>
<trkpt lat="46.1533904" lon="6.0410381">
<ele>433.6000000</ele>
<time>2014-12-04T12:42:39Z</time>
<extensions>
<tp1:TrackPointExtension>
<tp1:hr>137</tp1:hr>
</tp1:TrackPointExtension>
</extensions>
</trkpt>
<trkpt lat="46.1533083" lon="6.0412175">
<ele>433.6000000</ele>
<time>2014-12-04T12:42:42Z</time>
<extensions>
<tp1:TrackPointExtension>
<tp1:hr>137</tp1:hr>
</tp1:TrackPointExtension>
</extensions>
</trkpt>
<trkpt lat="46.1530041" lon="6.0419244">
<ele>433.6000000</ele>
<time>2014-12-04T12:42:54Z</time>
<extensions>
<tp1:TrackPointExtension>
<tp1:hr>138</tp1:hr>
</tp1:TrackPointExtension>
</extensions>
</trkpt>
<trkpt lat="46.1529862" lon="6.0419889">
<ele>434.0000000</ele>
<time>2014-12-04T12:42:55Z</time>
<extensions>
<tp1:TrackPointExtension>
<tp1:hr>138</tp1:hr>
</tp1:TrackPointExtension>
</extensions>
</trkpt>
<trkpt lat="46.1529712" lon="6.0420500">
<ele>434.4000000</ele>
<time>2014-12-04T12:42:56Z</time>
<extensions>
<tp1:TrackPointExtension>
<tp1:hr>138</tp1:hr>
</tp1:TrackPointExtension>
</extensions>
</trkpt>
<trkpt lat="46.1529562" lon="6.0421122">
<ele>434.8000000</ele>
<time>2014-12-04T12:42:57Z</time>
<extensions>
<tp1:TrackPointExtension>
<tp1:hr>139</tp1:hr>
</tp1:TrackPointExtension>
</extensions>
</trkpt>
<trkpt lat="46.1529405" lon="6.0421731">
<ele>435.2000000</ele>
<time>2014-12-04T12:42:58Z</time>
<extensions>
<tp1:TrackPointExtension>
<tp1:hr>138</tp1:hr>
</tp1:TrackPointExtension>
</extensions>
</trkpt>
<trkpt lat="46.1529267" lon="6.0422337">
<ele>435.6000000</ele>
<time>2014-12-04T12:42:59Z</time>
<extensions>
<tp1:TrackPointExtension>
<tp1:hr>139</tp1:hr>
</tp1:TrackPointExtension>
</extensions>
</trkpt>
<trkpt lat="46.1529118" lon="6.0423541">
<ele>435.6000000</ele>
<time>2014-12-04T12:43:01Z</time>
<extensions>
<tp1:TrackPointExtension>
<tp1:hr>139</tp1:hr>
</tp1:TrackPointExtension>
</extensions>
</trkpt>
<trkpt lat="46.1529073" lon="6.0424670">
<ele>435.6000000</ele>
<time>2014-12-04T12:43:03Z</time>
<extensions>
<tp1:TrackPointExtension>
<tp1:hr>139</tp1:hr>
</tp1:TrackPointExtension>
</extensions>
</trkpt>
<trkpt lat="46.1528869" lon="6.0426852">
<ele>436.2000000</ele>
<time>2014-12-04T12:43:07Z</time>
<extensions>
<tp1:TrackPointExtension>
<tp1:hr>139</tp1:hr>
</tp1:TrackPointExtension>
</extensions>
</trkpt>
<trkpt lat="46.1528819" lon="6.0427395">
<ele>436.6000000</ele>
<time>2014-12-04T12:43:08Z</time>
<extensions>
<tp1:TrackPointExtension>
<tp1:hr>139</tp1:hr>
</tp1:TrackPointExtension>
</extensions>
</trkpt>
<trkpt lat="46.1528775" lon="6.0427933">
<ele>437.0000000</ele>
<time>2014-12-04T12:43:09Z</time>
<extensions>
<tp1:TrackPointExtension>
<tp1:hr>139</tp1:hr>
</tp1:TrackPointExtension>
</extensions>
</trkpt>
<trkpt lat="46.1528742" lon="6.0428442">
<ele>437.4000000</ele>
<time>2014-12-04T12:43:10Z</time>
<extensions>
<tp1:TrackPointExtension>
<tp1:hr>139</tp1:hr>
</tp1:TrackPointExtension>
</extensions>
</trkpt>
<trkpt lat="46.1528683" lon="6.0428971">
<ele>437.8000000</ele>
<time>2014-12-04T12:43:11Z</time>
<extensions>
<tp1:TrackPointExtension>
<tp1:hr>139</tp1:hr>
</tp1:TrackPointExtension>
</extensions>
</trkpt>
<trkpt lat="46.1528402" lon="6.0431052">
<ele>437.8000000</ele>
<time>2014-12-04T12:43:15Z</time>
<extensions>
<tp1:TrackPointExtension>
<tp1:hr>139</tp1:hr>
</tp1:TrackPointExtension>
</extensions>
</trkpt>
<trkpt lat="46.1528247" lon="6.0432612">
<ele>438.2000000</ele>
<time>2014-12-04T12:43:18Z</time>
<extensions>
<tp1:TrackPointExtension>
<tp1:hr>140</tp1:hr>
</tp1:TrackPointExtension>
</extensions>
</trkpt>
<trkpt lat="46.1528183" lon="6.0433128">
<ele>438.6000000</ele>
<time>2014-12-04T12:43:19Z</time>
<extensions>
<tp1:TrackPointExtension>
<tp1:hr>140</tp1:hr>
</tp1:TrackPointExtension>
</extensions>
</trkpt>
<trkpt lat="46.1528123" lon="6.0433643">
<ele>439.0000000</ele>
<time>2014-12-04T12:43:20Z</time>
<extensions>
<tp1:TrackPointExtension>
<tp1:hr>141</tp1:hr>
</tp1:TrackPointExtension>
</extensions>
</trkpt>
<trkpt lat="46.1528061" lon="6.0434142">
<ele>439.4000000</ele>
<time>2014-12-04T12:43:21Z</time>
<extensions>
<tp1:TrackPointExtension>
<tp1:hr>141</tp1:hr>
</tp1:TrackPointExtension>
</extensions>
</trkpt>
<trkpt lat="46.1527998" lon="6.0434688">
<ele>439.8000000</ele>
<time>2014-12-04T12:43:22Z</time>
<extensions>
<tp1:TrackPointExtension>
<tp1:hr>141</tp1:hr>
</tp1:TrackPointExtension>
</extensions>
</trkpt>
<trkpt lat="46.1527630" lon="6.0436689">
<ele>440.2000000</ele>
<time>2014-12-04T12:43:26Z</time>
<extensions>
<tp1:TrackPointExtension>
<tp1:hr>141</tp1:hr>
</tp1:TrackPointExtension>
</extensions>
</trkpt>
<trkpt lat="46.1527508" lon="6.0437182">
<ele>440.6000000</ele>
<time>2014-12-04T12:43:27Z</time>
<extensions>
<tp1:TrackPointExtension>
<tp1:hr>142</tp1:hr>
</tp1:TrackPointExtension>
</extensions>
</trkpt>
<trkpt lat="46.1527415" lon="6.0437679">
<ele>441.2000000</ele>
<time>2014-12-04T12:43:28Z</time>
<extensions>
<tp1:TrackPointExtension>
<tp1:hr>142</tp1:hr>
</tp1:TrackPointExtension>
</extensions>
</trkpt>
<trkpt lat="46.1527316" lon="6.0438175">
<ele>441.6000000</ele>
<time>2014-12-04T12:43:29Z</time>
<extensions>
<tp1:TrackPointExtension>
<tp1:hr>142</tp1:hr>
</tp1:TrackPointExtension>
</extensions>
</trkpt>
<trkpt lat="46.1527223" lon="6.0438649">
<ele>442.0000000</ele>
<time>2014-12-04T12:43:30Z</time>
<extensions>
<tp1:TrackPointExtension>
<tp1:hr>142</tp1:hr>
</tp1:TrackPointExtension>
</extensions>
</trkpt>
<trkpt lat="46.1526702" lon="6.0441052">
<ele>442.0000000</ele>
<time>2014-12-04T12:43:35Z</time>
<extensions>
<tp1:TrackPointExtension>
<tp1:hr>143</tp1:hr>
</tp1:TrackPointExtension>
</extensions>
</trkpt>
<trkpt lat="46.1526489" lon="6.0442021">
<ele>442.4000000</ele>
<time>2014-12-04T12:43:37Z</time>
<extensions>
<tp1:TrackPointExtension>
<tp1:hr>143</tp1:hr>
</tp1:TrackPointExtension>
</extensions>
</trkpt>
<trkpt lat="46.1526412" lon="6.0442527">
<ele>442.8000000</ele>
<time>2014-12-04T12:43:38Z</time>
<extensions>
<tp1:TrackPointExtension>
<tp1:hr>143</tp1:hr>
</tp1:TrackPointExtension>
</extensions>
</trkpt>
<trkpt lat="46.1526336" lon="6.0443013">
<ele>443.2000000</ele>
<time>2014-12-04T12:43:39Z</time>
<extensions>
<tp1:TrackPointExtension>
<tp1:hr>143</tp1:hr>
</tp1:TrackPointExtension>
</extensions>
</trkpt>
<trkpt lat="46.1526263" lon="6.0443500">
<ele>443.8000000</ele>
<time>2014-12-04T12:43:40Z</time>
<extensions>
<tp1:TrackPointExtension>
<tp1:hr>143</tp1:hr>
</tp1:TrackPointExtension>
</extensions>
</trkpt>
<trkpt lat="46.1526174" lon="6.0444001">
<ele>444.2000000</ele>
<time>2014-12-04T12:43:41Z</time>
<extensions>
<tp1:TrackPointExtension>
<tp1:hr>143</tp1:hr>
</tp1:TrackPointExtension>
</extensions>
</trkpt>
<trkpt lat="46.1525245" lon="6.0448002">
<ele>444.6000000</ele>
<time>2014-12-04T12:43:49Z</time>
<extensions>
<tp1:TrackPointExtension>
<tp1:hr>144</tp1:hr>
</tp1:TrackPointExtension>
</extensions>
</trkpt>
<trkpt lat="46.1525058" lon="6.0448430">
<ele>445.0000000</ele>
<time>2014-12-04T12:43:50Z</time>
<extensions>
<tp1:TrackPointExtension>
<tp1:hr>144</tp1:hr>
</tp1:TrackPointExtension>
</extensions>
</trkpt>
<trkpt lat="46.1524862" lon="6.0448872">
<ele>445.4000000</ele>
<time>2014-12-04T12:43:51Z</time>
<extensions>
<tp1:TrackPointExtension>
<tp1:hr>144</tp1:hr>
</tp1:TrackPointExtension>
</extensions>
</trkpt>
<trkpt lat="46.1524676" lon="6.0449313">
<ele>445.8000000</ele>
<time>2014-12-04T12:43:52Z</time>
<extensions>
<tp1:TrackPointExtension>
<tp1:hr>144</tp1:hr>
</tp1:TrackPointExtension>
</extensions>
</trkpt>
<trkpt lat="46.1524477" lon="6.0449768">
<ele>446.2000000</ele>
<time>2014-12-04T12:43:53Z</time>
<extensions>
<tp1:TrackPointExtension>
<tp1:hr>144</tp1:hr>
</tp1:TrackPointExtension>
</extensions>
</trkpt>
<trkpt lat="46.1523582" lon="6.0451533">
<ele>446.6000000</ele>
<time>2014-12-04T12:43:57Z</time>
<extensions>
<tp1:TrackPointExtension>
<tp1:hr>145</tp1:hr>
</tp1:TrackPointExtension>
</extensions>
</trkpt>
<trkpt lat="46.1523395" lon="6.0451994">
<ele>447.2000000</ele>
<time>2014-12-04T12:43:58Z</time>
<extensions>
<tp1:TrackPointExtension>
<tp1:hr>145</tp1:hr>
</tp1:TrackPointExtension>
</extensions>
</trkpt>
<trkpt lat="46.1523205" lon="6.0452462">
<ele>447.6000000</ele>
<time>2014-12-04T12:43:59Z</time>
<extensions>
<tp1:TrackPointExtension>
<tp1:hr>145</tp1:hr>
</tp1:TrackPointExtension>
</extensions>
</trkpt>
<trkpt lat="46.1522979" lon="6.0452885">
<ele>448.0000000</ele>
<time>2014-12-04T12:44:00Z</time>
<extensions>
<tp1:TrackPointExtension>
<tp1:hr>145</tp1:hr>
</tp1:TrackPointExtension>
</extensions>
</trkpt>
<trkpt lat="46.1522750" lon="6.0453295">
<ele>448.6000000</ele>
<time>2014-12-04T12:44:01Z</time>
<extensions>
<tp1:TrackPointExtension>
<tp1:hr>145</tp1:hr>
</tp1:TrackPointExtension>
</extensions>
</trkpt>
<trkpt lat="46.1521835" lon="6.0454947">
<ele>448.6000000</ele>
<time>2014-12-04T12:44:05Z</time>
<extensions>
<tp1:TrackPointExtension>
<tp1:hr>146</tp1:hr>
</tp1:TrackPointExtension>
</extensions>
</trkpt>
<trkpt lat="46.1521356" lon="6.0455715">
<ele>449.0000000</ele>
<time>2014-12-04T12:44:07Z</time>
<extensions>
<tp1:TrackPointExtension>
<tp1:hr>146</tp1:hr>
</tp1:TrackPointExtension>
</extensions>
</trkpt>
<trkpt lat="46.1521125" lon="6.0456135">
<ele>449.4000000</ele>
<time>2014-12-04T12:44:08Z</time>
<extensions>
<tp1:TrackPointExtension>
<tp1:hr>146</tp1:hr>
</tp1:TrackPointExtension>
</extensions>
</trkpt>
<trkpt lat="46.1520897" lon="6.0456546">
<ele>449.8000000</ele>
<time>2014-12-04T12:44:09Z</time>
<extensions>
<tp1:TrackPointExtension>
<tp1:hr>146</tp1:hr>
</tp1:TrackPointExtension>
</extensions>
</trkpt>
<trkpt lat="46.1520685" lon="6.0456992">
<ele>450.2000000</ele>
<time>2014-12-04T12:44:10Z</time>
<extensions>
<tp1:TrackPointExtension>
<tp1:hr>146</tp1:hr>
</tp1:TrackPointExtension>
</extensions>
</trkpt>
<trkpt lat="46.1520451" lon="6.0457421">
<ele>450.6000000</ele>
<time>2014-12-04T12:44:11Z</time>
<extensions>
<tp1:TrackPointExtension>
<tp1:hr>146</tp1:hr>
</tp1:TrackPointExtension>
</extensions>
</trkpt>
<trkpt lat="46.1519992" lon="6.0458238">
<ele>450.6000000</ele>
<time>2014-12-04T12:44:13Z</time>
<extensions>
<tp1:TrackPointExtension>
<tp1:hr>146</tp1:hr>
</tp1:TrackPointExtension>
</extensions>
</trkpt>
<trkpt lat="46.1518700" lon="6.0460049">
<ele>451.0000000</ele>
<time>2014-12-04T12:44:18Z</time>
<extensions>
<tp1:TrackPointExtension>
<tp1:hr>147</tp1:hr>
</tp1:TrackPointExtension>
</extensions>
</trkpt>
<trkpt lat="46.1518431" lon="6.0460416">
<ele>451.6000000</ele>
<time>2014-12-04T12:44:19Z</time>
<extensions>
<tp1:TrackPointExtension>
<tp1:hr>147</tp1:hr>
</tp1:TrackPointExtension>
</extensions>
</trkpt>
<trkpt lat="46.1518155" lon="6.0460787">
<ele>452.0000000</ele>
<time>2014-12-04T12:44:20Z</time>
<extensions>
<tp1:TrackPointExtension>
<tp1:hr>147</tp1:hr>
</tp1:TrackPointExtension>
</extensions>
</trkpt>
<trkpt lat="46.1517892" lon="6.0461135">
<ele>452.4000000</ele>
<time>2014-12-04T12:44:21Z</time>
<extensions>
<tp1:TrackPointExtension>
<tp1:hr>147</tp1:hr>
</tp1:TrackPointExtension>
</extensions>
</trkpt>
<trkpt lat="46.1517605" lon="6.0461461">
<ele>452.8000000</ele>
<time>2014-12-04T12:44:22Z</time>
<extensions>
<tp1:TrackPointExtension>
<tp1:hr>147</tp1:hr>
</tp1:TrackPointExtension>
</extensions>
</trkpt>
<trkpt lat="46.1515523" lon="6.0463479">
<ele>452.8000000</ele>
<time>2014-12-04T12:44:28Z</time>
<extensions>
<tp1:TrackPointExtension>
<tp1:hr>146</tp1:hr>
</tp1:TrackPointExtension>
</extensions>
</trkpt>
<trkpt lat="46.1514055" lon="6.0464620">
<ele>452.8000000</ele>
<time>2014-12-04T12:44:32Z</time>
<extensions>
<tp1:TrackPointExtension>
<tp1:hr>146</tp1:hr>
</tp1:TrackPointExtension>
</extensions>
</trkpt>
<trkpt lat="46.1512604" lon="6.0465669">
<ele>452.8000000</ele>
<time>2014-12-04T12:44:36Z</time>
<extensions>
<tp1:TrackPointExtension>
<tp1:hr>146</tp1:hr>
</tp1:TrackPointExtension>
</extensions>
</trkpt>
<trkpt lat="46.1509060" lon="6.0468895">
<ele>452.8000000</ele>
<time>2014-12-04T12:44:45Z</time>
<extensions>
<tp1:TrackPointExtension>
<tp1:hr>145</tp1:hr>
</tp1:TrackPointExtension>
</extensions>
</trkpt>
<trkpt lat="46.1505525" lon="6.0472130">
<ele>452.8000000</ele>
<time>2014-12-04T12:44:54Z</time>
<extensions>
<tp1:TrackPointExtension>
<tp1:hr>143</tp1:hr>
</tp1:TrackPointExtension>
</extensions>
</trkpt>
<trkpt lat="46.1503724" lon="6.0473921">
<ele>453.2000000</ele>
<time>2014-12-04T12:44:59Z</time>
<extensions>
<tp1:TrackPointExtension>
<tp1:hr>143</tp1:hr>
</tp1:TrackPointExtension>
</extensions>
</trkpt>
<trkpt lat="46.1503384" lon="6.0474325">
<ele>453.6000000</ele>
<time>2014-12-04T12:45:00Z</time>
<extensions>
<tp1:TrackPointExtension>
<tp1:hr>143</tp1:hr>
</tp1:TrackPointExtension>
</extensions>
</trkpt>
<trkpt lat="46.1503043" lon="6.0474721">
<ele>454.0000000</ele>
<time>2014-12-04T12:45:01Z</time>
<extensions>
<tp1:TrackPointExtension>
<tp1:hr>143</tp1:hr>
</tp1:TrackPointExtension>
</extensions>
</trkpt>
<trkpt lat="46.1502692" lon="6.0475084">
<ele>454.4000000</ele>
<time>2014-12-04T12:45:02Z</time>
<extensions>
<tp1:TrackPointExtension>
<tp1:hr>143</tp1:hr>
</tp1:TrackPointExtension>
</extensions>
</trkpt>
<trkpt lat="46.1502342" lon="6.0475469">
<ele>455.0000000</ele>
<time>2014-12-04T12:45:03Z</time>
<extensions>
<tp1:TrackPointExtension>
<tp1:hr>143</tp1:hr>
</tp1:TrackPointExtension>
</extensions>
</trkpt>
<trkpt lat="46.1501986" lon="6.0475882">
<ele>455.0000000</ele>
<time>2014-12-04T12:45:04Z</time>
<extensions>
<tp1:TrackPointExtension>
<tp1:hr>143</tp1:hr>
</tp1:TrackPointExtension>
</extensions>
</trkpt>
<trkpt lat="46.1499162" lon="6.0479772">
<ele>455.0000000</ele>
<time>2014-12-04T12:45:12Z</time>
<extensions>
<tp1:TrackPointExtension>
<tp1:hr>141</tp1:hr>
</tp1:TrackPointExtension>
</extensions>
</trkpt>
<trkpt lat="46.1496601" lon="6.0483069">
<ele>455.0000000</ele>
<time>2014-12-04T12:45:19Z</time>
<extensions>
<tp1:TrackPointExtension>
<tp1:hr>140</tp1:hr>
</tp1:TrackPointExtension>
</extensions>
</trkpt>
<trkpt lat="46.1496164" lon="6.0483644">
<ele>454.4000000</ele>
<time>2014-12-04T12:45:20Z</time>
<extensions>
<tp1:TrackPointExtension>
<tp1:hr>140</tp1:hr>
</tp1:TrackPointExtension>
</extensions>
</trkpt>
<trkpt lat="46.1495757" lon="6.0484185">
<ele>454.0000000</ele>
<time>2014-12-04T12:45:21Z</time>
<extensions>
<tp1:TrackPointExtension>
<tp1:hr>140</tp1:hr>
</tp1:TrackPointExtension>
</extensions>
</trkpt>
<trkpt lat="46.1495375" lon="6.0484761">
<ele>453.6000000</ele>
<time>2014-12-04T12:45:22Z</time>
<extensions>
<tp1:TrackPointExtension>
<tp1:hr>139</tp1:hr>
</tp1:TrackPointExtension>
</extensions>
</trkpt>
<trkpt lat="46.1494929" lon="6.0485387">
<ele>453.2000000</ele>
<time>2014-12-04T12:45:23Z</time>
<extensions>
<tp1:TrackPointExtension>
<tp1:hr>139</tp1:hr>
</tp1:TrackPointExtension>
</extensions>
</trkpt>
<trkpt lat="46.1494491" lon="6.0485995">
<ele>452.8000000</ele>
<time>2014-12-04T12:45:24Z</time>
<extensions>
<tp1:TrackPointExtension>
<tp1:hr>138</tp1:hr>
</tp1:TrackPointExtension>
</extensions>
</trkpt>
<trkpt lat="46.1494102" lon="6.0486563">
<ele>452.4000000</ele>
<time>2014-12-04T12:45:25Z</time>
<extensions>
<tp1:TrackPointExtension>
<tp1:hr>138</tp1:hr>
</tp1:TrackPointExtension>
</extensions>
</trkpt>
<trkpt lat="46.1493789" lon="6.0487008">
<ele>452.0000000</ele>
<time>2014-12-04T12:45:26Z</time>
<extensions>
<tp1:TrackPointExtension>
<tp1:hr>137</tp1:hr>
</tp1:TrackPointExtension>
</extensions>
</trkpt>
<trkpt lat="46.1493516" lon="6.0487361">
<ele>451.4000000</ele>
<time>2014-12-04T12:45:27Z</time>
<extensions>
<tp1:TrackPointExtension>
<tp1:hr>137</tp1:hr>
</tp1:TrackPointExtension>
</extensions>
</trkpt>
<trkpt lat="46.1493249" lon="6.0487548">
<ele>451.0000000</ele>
<time>2014-12-04T12:45:28Z</time>
<extensions>
<tp1:TrackPointExtension>
<tp1:hr>136</tp1:hr>
</tp1:TrackPointExtension>
</extensions>
</trkpt>
<trkpt lat="46.1493011" lon="6.0487772">
<ele>450.6000000</ele>
<time>2014-12-04T12:45:29Z</time>
<extensions>
<tp1:TrackPointExtension>
<tp1:hr>135</tp1:hr>
</tp1:TrackPointExtension>
</extensions>
</trkpt>
<trkpt lat="46.1492741" lon="6.0488443">
<ele>450.6000000</ele>
<time>2014-12-04T12:45:32Z</time>
<extensions>
<tp1:TrackPointExtension>
<tp1:hr>132</tp1:hr>
</tp1:TrackPointExtension>
</extensions>
</trkpt>
<trkpt lat="46.1492814" lon="6.0489162">
<ele>450.2000000</ele>
<time>2014-12-04T12:45:34Z</time>
<extensions>
<tp1:TrackPointExtension>
<tp1:hr>131</tp1:hr>
</tp1:TrackPointExtension>
</extensions>
</trkpt>
<trkpt lat="46.1492992" lon="6.0489453">
<ele>449.6000000</ele>
<time>2014-12-04T12:45:35Z</time>
<extensions>
<tp1:TrackPointExtension>
<tp1:hr>130</tp1:hr>
</tp1:TrackPointExtension>
</extensions>
</trkpt>
<trkpt lat="46.1493703" lon="6.0489439">
<ele>449.2000000</ele>
<time>2014-12-04T12:45:36Z</time>
<extensions>
<tp1:TrackPointExtension>
<tp1:hr>129</tp1:hr>
</tp1:TrackPointExtension>
</extensions>
</trkpt>
<trkpt lat="46.1494110" lon="6.0489553">
<ele>448.6000000</ele>
<time>2014-12-04T12:45:37Z</time>
<extensions>
<tp1:TrackPointExtension>
<tp1:hr>129</tp1:hr>
</tp1:TrackPointExtension>
</extensions>
</trkpt>
<trkpt lat="46.1494530" lon="6.0489723">
<ele>448.2000000</ele>
<time>2014-12-04T12:45:38Z</time>
<extensions>
<tp1:TrackPointExtension>
<tp1:hr>130</tp1:hr>
</tp1:TrackPointExtension>
</extensions>
</trkpt>
<trkpt lat="46.1496767" lon="6.0490639">
<ele>448.2000000</ele>
<time>2014-12-04T12:45:43Z</time>
<extensions>
<tp1:TrackPointExtension>
<tp1:hr>132</tp1:hr>
</tp1:TrackPointExtension>
</extensions>
</trkpt>
<trkpt lat="46.1501715" lon="6.0492392">
<ele>448.2000000</ele>
<time>2014-12-04T12:45:53Z</time>
<extensions>
<tp1:TrackPointExtension>
<tp1:hr>134</tp1:hr>
</tp1:TrackPointExtension>
</extensions>
</trkpt>
<trkpt lat="46.1505902" lon="6.0494004">
<ele>448.2000000</ele>
<time>2014-12-04T12:46:01Z</time>
<extensions>
<tp1:TrackPointExtension>
<tp1:hr>135</tp1:hr>
</tp1:TrackPointExtension>
</extensions>
</trkpt>
<trkpt lat="46.1509021" lon="6.0495232">
<ele>448.6000000</ele>
<time>2014-12-04T12:46:07Z</time>
<extensions>
<tp1:TrackPointExtension>
<tp1:hr>135</tp1:hr>
</tp1:TrackPointExtension>
</extensions>
</trkpt>
<trkpt lat="46.1509547" lon="6.0495431">
<ele>449.0000000</ele>
<time>2014-12-04T12:46:08Z</time>
<extensions>
<tp1:TrackPointExtension>
<tp1:hr>135</tp1:hr>
</tp1:TrackPointExtension>
</extensions>
</trkpt>
<trkpt lat="46.1510098" lon="6.0495667">
<ele>449.6000000</ele>
<time>2014-12-04T12:46:09Z</time>
<extensions>
<tp1:TrackPointExtension>
<tp1:hr>136</tp1:hr>
</tp1:TrackPointExtension>
</extensions>
</trkpt>
<trkpt lat="46.1510659" lon="6.0495911">
<ele>450.0000000</ele>
<time>2014-12-04T12:46:10Z</time>
<extensions>
<tp1:TrackPointExtension>
<tp1:hr>136</tp1:hr>
</tp1:TrackPointExtension>
</extensions>
</trkpt>
<trkpt lat="46.1511219" lon="6.0496145">
<ele>450.6000000</ele>
<time>2014-12-04T12:46:11Z</time>
<extensions>
<tp1:TrackPointExtension>
<tp1:hr>136</tp1:hr>
</tp1:TrackPointExtension>
</extensions>
</trkpt>
<trkpt lat="46.1514631" lon="6.0497777">
<ele>450.0000000</ele>
<time>2014-12-04T12:46:17Z</time>
<extensions>
<tp1:TrackPointExtension>
<tp1:hr>135</tp1:hr>
</tp1:TrackPointExtension>
</extensions>
</trkpt>
<trkpt lat="46.1515198" lon="6.0498094">
<ele>449.6000000</ele>
<time>2014-12-04T12:46:18Z</time>
<extensions>
<tp1:TrackPointExtension>
<tp1:hr>135</tp1:hr>
</tp1:TrackPointExtension>
</extensions>
</trkpt>
<trkpt lat="46.1515766" lon="6.0498437">
<ele>449.2000000</ele>
<time>2014-12-04T12:46:19Z</time>
<extensions>
<tp1:TrackPointExtension>
<tp1:hr>136</tp1:hr>
</tp1:TrackPointExtension>
</extensions>
</trkpt>
<trkpt lat="46.1516380" lon="6.0498811">
<ele>448.8000000</ele>
<time>2014-12-04T12:46:20Z</time>
<extensions>
<tp1:TrackPointExtension>
<tp1:hr>136</tp1:hr>
</tp1:TrackPointExtension>
</extensions>
</trkpt>
<trkpt lat="46.1516958" lon="6.0499171">
<ele>448.4000000</ele>
<time>2014-12-04T12:46:21Z</time>
<extensions>
<tp1:TrackPointExtension>
<tp1:hr>135</tp1:hr>
</tp1:TrackPointExtension>
</extensions>
</trkpt>
<trkpt lat="46.1520472" lon="6.0501607">
<ele>447.8000000</ele>
<time>2014-12-04T12:46:27Z</time>
<extensions>
<tp1:TrackPointExtension>
<tp1:hr>133</tp1:hr>
</tp1:TrackPointExtension>
</extensions>
</trkpt>
<trkpt lat="46.1521052" lon="6.0502094">
<ele>447.4000000</ele>
<time>2014-12-04T12:46:28Z</time>
<extensions>
<tp1:TrackPointExtension>
<tp1:hr>133</tp1:hr>
</tp1:TrackPointExtension>
</extensions>
</trkpt>
<trkpt lat="46.1521684" lon="6.0502610">
<ele>447.0000000</ele>
<time>2014-12-04T12:46:29Z</time>
<extensions>
<tp1:TrackPointExtension>
<tp1:hr>132</tp1:hr>
</tp1:TrackPointExtension>
</extensions>
</trkpt>
<trkpt lat="46.1522290" lon="6.0503082">
<ele>446.6000000</ele>
<time>2014-12-04T12:46:30Z</time>
<extensions>
<tp1:TrackPointExtension>
<tp1:hr>132</tp1:hr>
</tp1:TrackPointExtension>
</extensions>
</trkpt>
<trkpt lat="46.1522952" lon="6.0503558">
<ele>446.2000000</ele>
<time>2014-12-04T12:46:31Z</time>
<extensions>
<tp1:TrackPointExtension>
<tp1:hr>132</tp1:hr>
</tp1:TrackPointExtension>
</extensions>
</trkpt>
<trkpt lat="46.1524860" lon="6.0504988">
<ele>445.8000000</ele>
<time>2014-12-04T12:46:34Z</time>
<extensions>
<tp1:TrackPointExtension>
<tp1:hr>132</tp1:hr>
</tp1:TrackPointExtension>
</extensions>
</trkpt>
<trkpt lat="46.1525515" lon="6.0505481">
<ele>445.4000000</ele>
<time>2014-12-04T12:46:35Z</time>
<extensions>
<tp1:TrackPointExtension>
<tp1:hr>131</tp1:hr>
</tp1:TrackPointExtension>
</extensions>
</trkpt>
<trkpt lat="46.1526169" lon="6.0505966">
<ele>445.0000000</ele>
<time>2014-12-04T12:46:36Z</time>
<extensions>
<tp1:TrackPointExtension>
<tp1:hr>131</tp1:hr>
</tp1:TrackPointExtension>
</extensions>
</trkpt>
<trkpt lat="46.1526833" lon="6.0506445">
<ele>444.6000000</ele>
<time>2014-12-04T12:46:37Z</time>
<extensions>
<tp1:TrackPointExtension>
<tp1:hr>131</tp1:hr>
</tp1:TrackPointExtension>
</extensions>
</trkpt>
<trkpt lat="46.1527462" lon="6.0506957">
<ele>444.2000000</ele>
<time>2014-12-04T12:46:38Z</time>
<extensions>
<tp1:TrackPointExtension>
<tp1:hr>130</tp1:hr>
</tp1:TrackPointExtension>
</extensions>
</trkpt>
<trkpt lat="46.1528748" lon="6.0507932">
<ele>444.2000000</ele>
<time>2014-12-04T12:46:40Z</time>
<extensions>
<tp1:TrackPointExtension>
<tp1:hr>130</tp1:hr>
</tp1:TrackPointExtension>
</extensions>
</trkpt>
<trkpt lat="46.1530004" lon="6.0508931">
<ele>443.6000000</ele>
<time>2014-12-04T12:46:42Z</time>
<extensions>
<tp1:TrackPointExtension>
<tp1:hr>129</tp1:hr>
</tp1:TrackPointExtension>
</extensions>
</trkpt>
<trkpt lat="46.1530630" lon="6.0509437">
<ele>443.2000000</ele>
<time>2014-12-04T12:46:43Z</time>
<extensions>
<tp1:TrackPointExtension>
<tp1:hr>129</tp1:hr>
</tp1:TrackPointExtension>
</extensions>
</trkpt>
<trkpt lat="46.1531308" lon="6.0509956">
<ele>442.6000000</ele>
<time>2014-12-04T12:46:44Z</time>
<extensions>
<tp1:TrackPointExtension>
<tp1:hr>129</tp1:hr>
</tp1:TrackPointExtension>
</extensions>
</trkpt>
<trkpt lat="46.1531972" lon="6.0510446">
<ele>442.2000000</ele>
<time>2014-12-04T12:46:45Z</time>
<extensions>
<tp1:TrackPointExtension>
<tp1:hr>128</tp1:hr>
</tp1:TrackPointExtension>
</extensions>
</trkpt>
<trkpt lat="46.1532858" lon="6.0511047">
<ele>441.8000000</ele>
<time>2014-12-04T12:46:46Z</time>
<extensions>
<tp1:TrackPointExtension>
<tp1:hr>128</tp1:hr>
</tp1:TrackPointExtension>
</extensions>
</trkpt>
<trkpt lat="46.1535535" lon="6.0513065">
<ele>441.8000000</ele>
<time>2014-12-04T12:46:51Z</time>
<extensions>
<tp1:TrackPointExtension>
<tp1:hr>127</tp1:hr>
</tp1:TrackPointExtension>
</extensions>
</trkpt>
<trkpt lat="46.1538913" lon="6.0515622">
<ele>441.4000000</ele>
<time>2014-12-04T12:46:56Z</time>
<extensions>
<tp1:TrackPointExtension>
<tp1:hr>128</tp1:hr>
</tp1:TrackPointExtension>
</extensions>
</trkpt>
<trkpt lat="46.1539588" lon="6.0516134">
<ele>440.8000000</ele>
<time>2014-12-04T12:46:57Z</time>
<extensions>
<tp1:TrackPointExtension>
<tp1:hr>128</tp1:hr>
</tp1:TrackPointExtension>
</extensions>
</trkpt>
<trkpt lat="46.1540281" lon="6.0516650">
<ele>440.4000000</ele>
<time>2014-12-04T12:46:58Z</time>
<extensions>
<tp1:TrackPointExtension>
<tp1:hr>128</tp1:hr>
</tp1:TrackPointExtension>
</extensions>
</trkpt>
<trkpt lat="46.1540967" lon="6.0517165">
<ele>440.0000000</ele>
<time>2014-12-04T12:46:59Z</time>
<extensions>
<tp1:TrackPointExtension>
<tp1:hr>128</tp1:hr>
</tp1:TrackPointExtension>
</extensions>
</trkpt>
<trkpt lat="46.1541690" lon="6.0517705">
<ele>439.6000000</ele>
<time>2014-12-04T12:47:00Z</time>
<extensions>
<tp1:TrackPointExtension>
<tp1:hr>128</tp1:hr>
</tp1:TrackPointExtension>
</extensions>
</trkpt>
<trkpt lat="46.1543694" lon="6.0519268">
<ele>439.6000000</ele>
<time>2014-12-04T12:47:03Z</time>
<extensions>
<tp1:TrackPointExtension>
<tp1:hr>128</tp1:hr>
</tp1:TrackPointExtension>
</extensions>
</trkpt>
<trkpt lat="46.1544386" lon="6.0519798">
<ele>439.0000000</ele>
<time>2014-12-04T12:47:04Z</time>
<extensions>
<tp1:TrackPointExtension>
<tp1:hr>128</tp1:hr>
</tp1:TrackPointExtension>
</extensions>
</trkpt>
<trkpt lat="46.1545065" lon="6.0520331">
<ele>438.6000000</ele>
<time>2014-12-04T12:47:05Z</time>
<extensions>
<tp1:TrackPointExtension>
<tp1:hr>127</tp1:hr>
</tp1:TrackPointExtension>
</extensions>
</trkpt>
<trkpt lat="46.1545743" lon="6.0520857">
<ele>438.2000000</ele>
<time>2014-12-04T12:47:06Z</time>
<extensions>
<tp1:TrackPointExtension>
<tp1:hr>127</tp1:hr>
</tp1:TrackPointExtension>
</extensions>
</trkpt>
<trkpt lat="46.1546431" lon="6.0521373">
<ele>437.8000000</ele>
<time>2014-12-04T12:47:07Z</time>
<extensions>
<tp1:TrackPointExtension>
<tp1:hr>127</tp1:hr>
</tp1:TrackPointExtension>
</extensions>
</trkpt>
<trkpt lat="46.1547137" lon="6.0521912">
<ele>437.4000000</ele>
<time>2014-12-04T12:47:08Z</time>
<extensions>
<tp1:TrackPointExtension>
<tp1:hr>127</tp1:hr>
</tp1:TrackPointExtension>
</extensions>
</trkpt>
<trkpt lat="46.1548530" lon="6.0523042">
<ele>437.0000000</ele>
<time>2014-12-04T12:47:10Z</time>
<extensions>
<tp1:TrackPointExtension>
<tp1:hr>126</tp1:hr>
</tp1:TrackPointExtension>
</extensions>
</trkpt>
<trkpt lat="46.1549227" lon="6.0523565">
<ele>436.6000000</ele>
<time>2014-12-04T12:47:11Z</time>
<extensions>
<tp1:TrackPointExtension>
<tp1:hr>126</tp1:hr>
</tp1:TrackPointExtension>
</extensions>
</trkpt>
<trkpt lat="46.1549920" lon="6.0524089">
<ele>436.2000000</ele>
<time>2014-12-04T12:47:12Z</time>
<extensions>
<tp1:TrackPointExtension>
<tp1:hr>126</tp1:hr>
</tp1:TrackPointExtension>
</extensions>
</trkpt>
<trkpt lat="46.1550623" lon="6.0524607">
<ele>435.6000000</ele>
<time>2014-12-04T12:47:13Z</time>
<extensions>
<tp1:TrackPointExtension>
<tp1:hr>126</tp1:hr>
</tp1:TrackPointExtension>
</extensions>
</trkpt>
<trkpt lat="46.1551321" lon="6.0525122">
<ele>435.2000000</ele>
<time>2014-12-04T12:47:14Z</time>
<extensions>
<tp1:TrackPointExtension>
<tp1:hr>125</tp1:hr>
</tp1:TrackPointExtension>
</extensions>
</trkpt>
<trkpt lat="46.1554148" lon="6.0527243">
<ele>434.6000000</ele>
<time>2014-12-04T12:47:18Z</time>
<extensions>
<tp1:TrackPointExtension>
<tp1:hr>125</tp1:hr>
</tp1:TrackPointExtension>
</extensions>
</trkpt>
<trkpt lat="46.1554830" lon="6.0527809">
<ele>434.0000000</ele>
<time>2014-12-04T12:47:19Z</time>
<extensions>
<tp1:TrackPointExtension>
<tp1:hr>125</tp1:hr>
</tp1:TrackPointExtension>
</extensions>
</trkpt>
<trkpt lat="46.1555509" lon="6.0528408">
<ele>433.4000000</ele>
<time>2014-12-04T12:47:20Z</time>
<extensions>
<tp1:TrackPointExtension>
<tp1:hr>125</tp1:hr>
</tp1:TrackPointExtension>
</extensions>
</trkpt>
<trkpt lat="46.1556148" lon="6.0528972">
<ele>432.8000000</ele>
<time>2014-12-04T12:47:21Z</time>
<extensions>
<tp1:TrackPointExtension>
<tp1:hr>125</tp1:hr>
</tp1:TrackPointExtension>
</extensions>
</trkpt>
<trkpt lat="46.1556826" lon="6.0529583">
<ele>432.2000000</ele>
<time>2014-12-04T12:47:22Z</time>
<extensions>
<tp1:TrackPointExtension>
<tp1:hr>125</tp1:hr>
</tp1:TrackPointExtension>
</extensions>
</trkpt>
<trkpt lat="46.1559474" lon="6.0532165">
<ele>431.8000000</ele>
<time>2014-12-04T12:47:26Z</time>
<extensions>
<tp1:TrackPointExtension>
<tp1:hr>126</tp1:hr>
</tp1:TrackPointExtension>
</extensions>
</trkpt>
<trkpt lat="46.1560126" lon="6.0532829">
<ele>431.4000000</ele>
<time>2014-12-04T12:47:27Z</time>
<extensions>
<tp1:TrackPointExtension>
<tp1:hr>125</tp1:hr>
</tp1:TrackPointExtension>
</extensions>
</trkpt>
<trkpt lat="46.1560751" lon="6.0533524">
<ele>431.0000000</ele>
<time>2014-12-04T12:47:28Z</time>
<extensions>
<tp1:TrackPointExtension>
<tp1:hr>126</tp1:hr>
</tp1:TrackPointExtension>
</extensions>
</trkpt>
<trkpt lat="46.1561364" lon="6.0534238">
<ele>430.6000000</ele>
<time>2014-12-04T12:47:29Z</time>
<extensions>
<tp1:TrackPointExtension>
<tp1:hr>126</tp1:hr>
</tp1:TrackPointExtension>
</extensions>
</trkpt>
<trkpt lat="46.1561967" lon="6.0534965">
<ele>430.2000000</ele>
<time>2014-12-04T12:47:30Z</time>
<extensions>
<tp1:TrackPointExtension>
<tp1:hr>126</tp1:hr>
</tp1:TrackPointExtension>
</extensions>
</trkpt>
<trkpt lat="46.1564253" lon="6.0538053">
<ele>430.2000000</ele>
<time>2014-12-04T12:47:34Z</time>
<extensions>
<tp1:TrackPointExtension>
<tp1:hr>126</tp1:hr>
</tp1:TrackPointExtension>
</extensions>
</trkpt>
<trkpt lat="46.1565384" lon="6.0539719">
<ele>429.6000000</ele>
<time>2014-12-04T12:47:36Z</time>
<extensions>
<tp1:TrackPointExtension>
<tp1:hr>126</tp1:hr>
</tp1:TrackPointExtension>
</extensions>
</trkpt>
<trkpt lat="46.1565935" lon="6.0540571">
<ele>429.2000000</ele>
<time>2014-12-04T12:47:37Z</time>
<extensions>
<tp1:TrackPointExtension>
<tp1:hr>127</tp1:hr>
</tp1:TrackPointExtension>
</extensions>
</trkpt>
<trkpt lat="46.1566480" lon="6.0541422">
<ele>428.6000000</ele>
<time>2014-12-04T12:47:38Z</time>
<extensions>
<tp1:TrackPointExtension>
<tp1:hr>127</tp1:hr>
</tp1:TrackPointExtension>
</extensions>
</trkpt>
<trkpt lat="46.1567023" lon="6.0542293">
<ele>428.2000000</ele>
<time>2014-12-04T12:47:39Z</time>
<extensions>
<tp1:TrackPointExtension>
<tp1:hr>127</tp1:hr>
</tp1:TrackPointExtension>
</extensions>
</trkpt>
<trkpt lat="46.1567579" lon="6.0543200">
<ele>427.8000000</ele>
<time>2014-12-04T12:47:40Z</time>
<extensions>
<tp1:TrackPointExtension>
<tp1:hr>127</tp1:hr>
</tp1:TrackPointExtension>
</extensions>
</trkpt>
<trkpt lat="46.1568673" lon="6.0545128">
<ele>427.4000000</ele>
<time>2014-12-04T12:47:42Z</time>
<extensions>
<tp1:TrackPointExtension>
<tp1:hr>127</tp1:hr>
</tp1:TrackPointExtension>
</extensions>
</trkpt>
<trkpt lat="46.1569191" lon="6.0546118">
<ele>426.8000000</ele>
<time>2014-12-04T12:47:43Z</time>
<extensions>
<tp1:TrackPointExtension>
<tp1:hr>127</tp1:hr>
</tp1:TrackPointExtension>
</extensions>
</trkpt>
<trkpt lat="46.1569708" lon="6.0547127">
<ele>426.4000000</ele>
<time>2014-12-04T12:47:44Z</time>
<extensions>
<tp1:TrackPointExtension>
<tp1:hr>128</tp1:hr>
</tp1:TrackPointExtension>
</extensions>
</trkpt>
<trkpt lat="46.1570248" lon="6.0548182">
<ele>425.6000000</ele>
<time>2014-12-04T12:47:45Z</time>
<extensions>
<tp1:TrackPointExtension>
<tp1:hr>127</tp1:hr>
</tp1:TrackPointExtension>
</extensions>
</trkpt>
<trkpt lat="46.1570749" lon="6.0549199">
<ele>424.8000000</ele>
<time>2014-12-04T12:47:46Z</time>
<extensions>
<tp1:TrackPointExtension>
<tp1:hr>127</tp1:hr>
</tp1:TrackPointExtension>
</extensions>
</trkpt>
<trkpt lat="46.1571245" lon="6.0550262">
<ele>424.2000000</ele>
<time>2014-12-04T12:47:47Z</time>
<extensions>
<tp1:TrackPointExtension>
<tp1:hr>127</tp1:hr>
</tp1:TrackPointExtension>
</extensions>
</trkpt>
<trkpt lat="46.1571725" lon="6.0551340">
<ele>423.4000000</ele>
<time>2014-12-04T12:47:48Z</time>
<extensions>
<tp1:TrackPointExtension>
<tp1:hr>127</tp1:hr>
</tp1:TrackPointExtension>
</extensions>
</trkpt>
<trkpt lat="46.1572215" lon="6.0552443">
<ele>422.6000000</ele>
<time>2014-12-04T12:47:49Z</time>
<extensions>
<tp1:TrackPointExtension>
<tp1:hr>127</tp1:hr>
</tp1:TrackPointExtension>
</extensions>
</trkpt>
<trkpt lat="46.1572682" lon="6.0553556">
<ele>422.0000000</ele>
<time>2014-12-04T12:47:50Z</time>
<extensions>
<tp1:TrackPointExtension>
<tp1:hr>128</tp1:hr>
</tp1:TrackPointExtension>
</extensions>
</trkpt>
<trkpt lat="46.1573154" lon="6.0554673">
<ele>421.6000000</ele>
<time>2014-12-04T12:47:51Z</time>
<extensions>
<tp1:TrackPointExtension>
<tp1:hr>128</tp1:hr>
</tp1:TrackPointExtension>
</extensions>
</trkpt>
<trkpt lat="46.1573625" lon="6.0555819">
<ele>421.2000000</ele>
<time>2014-12-04T12:47:52Z</time>
<extensions>
<tp1:TrackPointExtension>
<tp1:hr>128</tp1:hr>
</tp1:TrackPointExtension>
</extensions>
</trkpt>
<trkpt lat="46.1574084" lon="6.0556974">
<ele>420.6000000</ele>
<time>2014-12-04T12:47:53Z</time>
<extensions>
<tp1:TrackPointExtension>
<tp1:hr>128</tp1:hr>
</tp1:TrackPointExtension>
</extensions>
</trkpt>
<trkpt lat="46.1574534" lon="6.0558121">
<ele>420.2000000</ele>
<time>2014-12-04T12:47:54Z</time>
<extensions>
<tp1:TrackPointExtension>
<tp1:hr>128</tp1:hr>
</tp1:TrackPointExtension>
</extensions>
</trkpt>
<trkpt lat="46.1575013" lon="6.0559324">
<ele>419.6000000</ele>
<time>2014-12-04T12:47:55Z</time>
<extensions>
<tp1:TrackPointExtension>
<tp1:hr>128</tp1:hr>
</tp1:TrackPointExtension>
</extensions>
</trkpt>
<trkpt lat="46.1575472" lon="6.0560456">
<ele>419.2000000</ele>
<time>2014-12-04T12:47:56Z</time>
<extensions>
<tp1:TrackPointExtension>
<tp1:hr>128</tp1:hr>
</tp1:TrackPointExtension>
</extensions>
</trkpt>
<trkpt lat="46.1575925" lon="6.0561607">
<ele>418.6000000</ele>
<time>2014-12-04T12:47:57Z</time>
<extensions>
<tp1:TrackPointExtension>
<tp1:hr>128</tp1:hr>
</tp1:TrackPointExtension>
</extensions>
</trkpt>
<trkpt lat="46.1576375" lon="6.0562757">
<ele>418.2000000</ele>
<time>2014-12-04T12:47:58Z</time>
<extensions>
<tp1:TrackPointExtension>
<tp1:hr>128</tp1:hr>
</tp1:TrackPointExtension>
</extensions>
</trkpt>
<trkpt lat="46.1576860" lon="6.0563938">
<ele>417.8000000</ele>
<time>2014-12-04T12:47:59Z</time>
<extensions>
<tp1:TrackPointExtension>
<tp1:hr>128</tp1:hr>
</tp1:TrackPointExtension>
</extensions>
</trkpt>
<trkpt lat="46.1577338" lon="6.0565130">
<ele>417.2000000</ele>
<time>2014-12-04T12:48:00Z</time>
<extensions>
<tp1:TrackPointExtension>
<tp1:hr>128</tp1:hr>
</tp1:TrackPointExtension>
</extensions>
</trkpt>
<trkpt lat="46.1577828" lon="6.0566326">
<ele>416.8000000</ele>
<time>2014-12-04T12:48:01Z</time>
<extensions>
<tp1:TrackPointExtension>
<tp1:hr>128</tp1:hr>
</tp1:TrackPointExtension>
</extensions>
</trkpt>
<trkpt lat="46.1578303" lon="6.0567512">
<ele>416.4000000</ele>
<time>2014-12-04T12:48:02Z</time>
<extensions>
<tp1:TrackPointExtension>
<tp1:hr>128</tp1:hr>
</tp1:TrackPointExtension>
</extensions>
</trkpt>
<trkpt lat="46.1578779" lon="6.0568703">
<ele>415.8000000</ele>
<time>2014-12-04T12:48:03Z</time>
<extensions>
<tp1:TrackPointExtension>
<tp1:hr>128</tp1:hr>
</tp1:TrackPointExtension>
</extensions>
</trkpt>
<trkpt lat="46.1579289" lon="6.0569965">
<ele>415.2000000</ele>
<time>2014-12-04T12:48:04Z</time>
<extensions>
<tp1:TrackPointExtension>
<tp1:hr>128</tp1:hr>
</tp1:TrackPointExtension>
</extensions>
</trkpt>
<trkpt lat="46.1579739" lon="6.0571076">
<ele>414.6000000</ele>
<time>2014-12-04T12:48:05Z</time>
<extensions>
<tp1:TrackPointExtension>
<tp1:hr>128</tp1:hr>
</tp1:TrackPointExtension>
</extensions>
</trkpt>
<trkpt lat="46.1580212" lon="6.0572237">
<ele>414.2000000</ele>
<time>2014-12-04T12:48:06Z</time>
<extensions>
<tp1:TrackPointExtension>
<tp1:hr>128</tp1:hr>
</tp1:TrackPointExtension>
</extensions>
</trkpt>
<trkpt lat="46.1580675" lon="6.0573383">
<ele>413.6000000</ele>
<time>2014-12-04T12:48:07Z</time>
<extensions>
<tp1:TrackPointExtension>
<tp1:hr>128</tp1:hr>
</tp1:TrackPointExtension>
</extensions>
</trkpt>
<trkpt lat="46.1582075" lon="6.0576909">
<ele>413.2000000</ele>
<time>2014-12-04T12:48:10Z</time>
<extensions>
<tp1:TrackPointExtension>
<tp1:hr>127</tp1:hr>
</tp1:TrackPointExtension>
</extensions>
</trkpt>
<trkpt lat="46.1582504" lon="6.0578053">
<ele>412.6000000</ele>
<time>2014-12-04T12:48:11Z</time>
<extensions>
<tp1:TrackPointExtension>
<tp1:hr>128</tp1:hr>
</tp1:TrackPointExtension>
</extensions>
</trkpt>
<trkpt lat="46.1582955" lon="6.0579209">
<ele>412.2000000</ele>
<time>2014-12-04T12:48:12Z</time>
<extensions>
<tp1:TrackPointExtension>
<tp1:hr>128</tp1:hr>
</tp1:TrackPointExtension>
</extensions>
</trkpt>
<trkpt lat="46.1583407" lon="6.0580360">
<ele>411.8000000</ele>
<time>2014-12-04T12:48:13Z</time>
<extensions>
<tp1:TrackPointExtension>
<tp1:hr>128</tp1:hr>
</tp1:TrackPointExtension>
</extensions>
</trkpt>
<trkpt lat="46.1583870" lon="6.0581507">
<ele>411.4000000</ele>
<time>2014-12-04T12:48:14Z</time>
<extensions>
<tp1:TrackPointExtension>
<tp1:hr>128</tp1:hr>
</tp1:TrackPointExtension>
</extensions>
</trkpt>
<trkpt lat="46.1585261" lon="6.0584961">
<ele>411.0000000</ele>
<time>2014-12-04T12:48:17Z</time>
<extensions>
<tp1:TrackPointExtension>
<tp1:hr>128</tp1:hr>
</tp1:TrackPointExtension>
</extensions>
</trkpt>
<trkpt lat="46.1585723" lon="6.0586116">
<ele>410.6000000</ele>
<time>2014-12-04T12:48:18Z</time>
<extensions>
<tp1:TrackPointExtension>
<tp1:hr>129</tp1:hr>
</tp1:TrackPointExtension>
</extensions>
</trkpt>
<trkpt lat="46.1586178" lon="6.0587288">
<ele>410.0000000</ele>
<time>2014-12-04T12:48:19Z</time>
<extensions>
<tp1:TrackPointExtension>
<tp1:hr>129</tp1:hr>
</tp1:TrackPointExtension>
</extensions>
</trkpt>
<trkpt lat="46.1586623" lon="6.0588426">
<ele>409.6000000</ele>
<time>2014-12-04T12:48:20Z</time>
<extensions>
<tp1:TrackPointExtension>
<tp1:hr>130</tp1:hr>
</tp1:TrackPointExtension>
</extensions>
</trkpt>
<trkpt lat="46.1587079" lon="6.0589581">
<ele>409.2000000</ele>
<time>2014-12-04T12:48:21Z</time>
<extensions>
<tp1:TrackPointExtension>
<tp1:hr>130</tp1:hr>
</tp1:TrackPointExtension>
</extensions>
</trkpt>
<trkpt lat="46.1590119" lon="6.0597203">
<ele>409.2000000</ele>
<time>2014-12-04T12:48:28Z</time>
<extensions>
<tp1:TrackPointExtension>
<tp1:hr>131</tp1:hr>
</tp1:TrackPointExtension>
</extensions>
</trkpt>
<trkpt lat="46.1590962" lon="6.0599251">
<ele>409.2000000</ele>
<time>2014-12-04T12:48:30Z</time>
<extensions>
<tp1:TrackPointExtension>
<tp1:hr>130</tp1:hr>
</tp1:TrackPointExtension>
</extensions>
</trkpt>
<trkpt lat="46.1592580" lon="6.0603343">
<ele>408.8000000</ele>
<time>2014-12-04T12:48:34Z</time>
<extensions>
<tp1:TrackPointExtension>
<tp1:hr>130</tp1:hr>
</tp1:TrackPointExtension>
</extensions>
</trkpt>
<trkpt lat="46.1593004" lon="6.0604348">
<ele>408.4000000</ele>
<time>2014-12-04T12:48:35Z</time>
<extensions>
<tp1:TrackPointExtension>
<tp1:hr>130</tp1:hr>
</tp1:TrackPointExtension>
</extensions>
</trkpt>
<trkpt lat="46.1593413" lon="6.0605368">
<ele>408.0000000</ele>
<time>2014-12-04T12:48:36Z</time>
<extensions>
<tp1:TrackPointExtension>
<tp1:hr>129</tp1:hr>
</tp1:TrackPointExtension>
</extensions>
</trkpt>
<trkpt lat="46.1593807" lon="6.0606396">
<ele>407.6000000</ele>
<time>2014-12-04T12:48:37Z</time>
<extensions>
<tp1:TrackPointExtension>
<tp1:hr>129</tp1:hr>
</tp1:TrackPointExtension>
</extensions>
</trkpt>
<trkpt lat="46.1594217" lon="6.0607398">
<ele>407.2000000</ele>
<time>2014-12-04T12:48:38Z</time>
<extensions>
<tp1:TrackPointExtension>
<tp1:hr>129</tp1:hr>
</tp1:TrackPointExtension>
</extensions>
</trkpt>
<trkpt lat="46.1596709" lon="6.0613414">
<ele>407.2000000</ele>
<time>2014-12-04T12:48:44Z</time>
<extensions>
<tp1:TrackPointExtension>
<tp1:hr>129</tp1:hr>
</tp1:TrackPointExtension>
</extensions>
</trkpt>
<trkpt lat="46.1598347" lon="6.0617397">
<ele>406.8000000</ele>
<time>2014-12-04T12:48:48Z</time>
<extensions>
<tp1:TrackPointExtension>
<tp1:hr>129</tp1:hr>
</tp1:TrackPointExtension>
</extensions>
</trkpt>
<trkpt lat="46.1598733" lon="6.0618390">
<ele>406.4000000</ele>
<time>2014-12-04T12:48:49Z</time>
<extensions>
<tp1:TrackPointExtension>
<tp1:hr>130</tp1:hr>
</tp1:TrackPointExtension>
</extensions>
</trkpt>
<trkpt lat="46.1599136" lon="6.0619372">
<ele>406.0000000</ele>
<time>2014-12-04T12:48:50Z</time>
<extensions>
<tp1:TrackPointExtension>
<tp1:hr>130</tp1:hr>
</tp1:TrackPointExtension>
</extensions>
</trkpt>
<trkpt lat="46.1599541" lon="6.0620354">
<ele>405.4000000</ele>
<time>2014-12-04T12:48:51Z</time>
<extensions>
<tp1:TrackPointExtension>
<tp1:hr>130</tp1:hr>
</tp1:TrackPointExtension>
</extensions>
</trkpt>
<trkpt lat="46.1599944" lon="6.0621328">
<ele>405.0000000</ele>
<time>2014-12-04T12:48:52Z</time>
<extensions>
<tp1:TrackPointExtension>
<tp1:hr>130</tp1:hr>
</tp1:TrackPointExtension>
</extensions>
</trkpt>
<trkpt lat="46.1601100" lon="6.0624201">
<ele>405.0000000</ele>
<time>2014-12-04T12:48:55Z</time>
<extensions>
<tp1:TrackPointExtension>
<tp1:hr>130</tp1:hr>
</tp1:TrackPointExtension>
</extensions>
</trkpt>
<trkpt lat="46.1604017" lon="6.0631704">
<ele>405.0000000</ele>
<time>2014-12-04T12:49:03Z</time>
<extensions>
<tp1:TrackPointExtension>
<tp1:hr>131</tp1:hr>
</tp1:TrackPointExtension>
</extensions>
</trkpt>
<trkpt lat="46.1605037" lon="6.0634473">
<ele>405.0000000</ele>
<time>2014-12-04T12:49:06Z</time>
<extensions>
<tp1:TrackPointExtension>
<tp1:hr>131</tp1:hr>
</tp1:TrackPointExtension>
</extensions>
</trkpt>
<trkpt lat="46.1607834" lon="6.0641591">
<ele>405.0000000</ele>
<time>2014-12-04T12:49:14Z</time>
<extensions>
<tp1:TrackPointExtension>
<tp1:hr>130</tp1:hr>
</tp1:TrackPointExtension>
</extensions>
</trkpt>
<trkpt lat="46.1608073" lon="6.0642452">
<ele>405.0000000</ele>
<time>2014-12-04T12:49:15Z</time>
<extensions>
<tp1:TrackPointExtension>
<tp1:hr>130</tp1:hr>
</tp1:TrackPointExtension>
</extensions>
</trkpt>
<trkpt lat="46.1609742" lon="6.0647397">
<ele>405.0000000</ele>
<time>2014-12-04T12:49:21Z</time>
<extensions>
<tp1:TrackPointExtension>
<tp1:hr>127</tp1:hr>
</tp1:TrackPointExtension>
</extensions>
</trkpt>
<trkpt lat="46.1610025" lon="6.0648217">
<ele>405.0000000</ele>
<time>2014-12-04T12:49:22Z</time>
<extensions>
<tp1:TrackPointExtension>
<tp1:hr>127</tp1:hr>
</tp1:TrackPointExtension>
</extensions>
</trkpt>
<trkpt lat="46.1612253" lon="6.0654575">
<ele>404.6000000</ele>
<time>2014-12-04T12:49:30Z</time>
<extensions>
<tp1:TrackPointExtension>
<tp1:hr>125</tp1:hr>
</tp1:TrackPointExtension>
</extensions>
</trkpt>
<trkpt lat="46.1612512" lon="6.0655348">
<ele>404.0000000</ele>
<time>2014-12-04T12:49:31Z</time>
<extensions>
<tp1:TrackPointExtension>
<tp1:hr>125</tp1:hr>
</tp1:TrackPointExtension>
</extensions>
</trkpt>
<trkpt lat="46.1612761" lon="6.0656110">
<ele>403.6000000</ele>
<time>2014-12-04T12:49:32Z</time>
<extensions>
<tp1:TrackPointExtension>
<tp1:hr>124</tp1:hr>
</tp1:TrackPointExtension>
</extensions>
</trkpt>
<trkpt lat="46.1613002" lon="6.0656848">
<ele>403.0000000</ele>
<time>2014-12-04T12:49:33Z</time>
<extensions>
<tp1:TrackPointExtension>
<tp1:hr>124</tp1:hr>
</tp1:TrackPointExtension>
</extensions>
</trkpt>
<trkpt lat="46.1613244" lon="6.0657598">
<ele>402.6000000</ele>
<time>2014-12-04T12:49:34Z</time>
<extensions>
<tp1:TrackPointExtension>
<tp1:hr>124</tp1:hr>
</tp1:TrackPointExtension>
</extensions>
</trkpt>
<trkpt lat="46.1614527" lon="6.0661102">
<ele>402.6000000</ele>
<time>2014-12-04T12:49:39Z</time>
<extensions>
<tp1:TrackPointExtension>
<tp1:hr>121</tp1:hr>
</tp1:TrackPointExtension>
</extensions>
</trkpt>
<trkpt lat="46.1614957" lon="6.0662351">
<ele>402.6000000</ele>
<time>2014-12-04T12:49:41Z</time>
<extensions>
<tp1:TrackPointExtension>
<tp1:hr>121</tp1:hr>
</tp1:TrackPointExtension>
</extensions>
</trkpt>
<trkpt lat="46.1616026" lon="6.0665369">
<ele>402.6000000</ele>
<time>2014-12-04T12:49:46Z</time>
<extensions>
<tp1:TrackPointExtension>
<tp1:hr>121</tp1:hr>
</tp1:TrackPointExtension>
</extensions>
</trkpt>
<trkpt lat="46.1616720" lon="6.0667613">
<ele>402.2000000</ele>
<time>2014-12-04T12:49:49Z</time>
<extensions>
<tp1:TrackPointExtension>
<tp1:hr>123</tp1:hr>
</tp1:TrackPointExtension>
</extensions>
</trkpt>
<trkpt lat="46.1616985" lon="6.0668435">
<ele>401.8000000</ele>
<time>2014-12-04T12:49:50Z</time>
<extensions>
<tp1:TrackPointExtension>
<tp1:hr>123</tp1:hr>
</tp1:TrackPointExtension>
</extensions>
</trkpt>
<trkpt lat="46.1617230" lon="6.0669267">
<ele>401.4000000</ele>
<time>2014-12-04T12:49:51Z</time>
<extensions>
<tp1:TrackPointExtension>
<tp1:hr>123</tp1:hr>
</tp1:TrackPointExtension>
</extensions>
</trkpt>
<trkpt lat="46.1617464" lon="6.0670063">
<ele>401.0000000</ele>
<time>2014-12-04T12:49:52Z</time>
<extensions>
<tp1:TrackPointExtension>
<tp1:hr>123</tp1:hr>
</tp1:TrackPointExtension>
</extensions>
</trkpt>
<trkpt lat="46.1617726" lon="6.0670886">
<ele>400.6000000</ele>
<time>2014-12-04T12:49:53Z</time>
<extensions>
<tp1:TrackPointExtension>
<tp1:hr>123</tp1:hr>
</tp1:TrackPointExtension>
</extensions>
</trkpt>
<trkpt lat="46.1620025" lon="6.0678460">
<ele>400.6000000</ele>
<time>2014-12-04T12:50:02Z</time>
<extensions>
<tp1:TrackPointExtension>
<tp1:hr>125</tp1:hr>
</tp1:TrackPointExtension>
</extensions>
</trkpt>
<trkpt lat="46.1620782" lon="6.0681091">
<ele>400.6000000</ele>
<time>2014-12-04T12:50:05Z</time>
<extensions>
<tp1:TrackPointExtension>
<tp1:hr>126</tp1:hr>
</tp1:TrackPointExtension>
</extensions>
</trkpt>
<trkpt lat="46.1623173" lon="6.0689004">
<ele>400.6000000</ele>
<time>2014-12-04T12:50:14Z</time>
<extensions>
<tp1:TrackPointExtension>
<tp1:hr>128</tp1:hr>
</tp1:TrackPointExtension>
</extensions>
</trkpt>
<trkpt lat="46.1624209" lon="6.0691437">
<ele>400.6000000</ele>
<time>2014-12-04T12:50:17Z</time>
<extensions>
<tp1:TrackPointExtension>
<tp1:hr>129</tp1:hr>
</tp1:TrackPointExtension>
</extensions>
</trkpt>
<trkpt lat="46.1624588" lon="6.0692208">
<ele>400.6000000</ele>
<time>2014-12-04T12:50:18Z</time>
<extensions>
<tp1:TrackPointExtension>
<tp1:hr>129</tp1:hr>
</tp1:TrackPointExtension>
</extensions>
</trkpt>
<trkpt lat="46.1625404" lon="6.0694776">
<ele>400.6000000</ele>
<time>2014-12-04T12:50:21Z</time>
<extensions>
<tp1:TrackPointExtension>
<tp1:hr>129</tp1:hr>
</tp1:TrackPointExtension>
</extensions>
</trkpt>
<trkpt lat="46.1627027" lon="6.0700470">
<ele>400.6000000</ele>
<time>2014-12-04T12:50:28Z</time>
<extensions>
<tp1:TrackPointExtension>
<tp1:hr>130</tp1:hr>
</tp1:TrackPointExtension>
</extensions>
</trkpt>
<trkpt lat="46.1628886" lon="6.0707007">
<ele>400.6000000</ele>
<time>2014-12-04T12:50:37Z</time>
<extensions>
<tp1:TrackPointExtension>
<tp1:hr>129</tp1:hr>
</tp1:TrackPointExtension>
</extensions>
</trkpt>
<trkpt lat="46.1629712" lon="6.0709860">
<ele>400.6000000</ele>
<time>2014-12-04T12:50:43Z</time>
<extensions>
<tp1:TrackPointExtension>
<tp1:hr>127</tp1:hr>
</tp1:TrackPointExtension>
</extensions>
</trkpt>
<trkpt lat="46.1628914" lon="6.0711198">
<ele>400.6000000</ele>
<time>2014-12-04T12:50:47Z</time>
<extensions>
<tp1:TrackPointExtension>
<tp1:hr>127</tp1:hr>
</tp1:TrackPointExtension>
</extensions>
</trkpt>
<trkpt lat="46.1628561" lon="6.0711630">
<ele>400.6000000</ele>
<time>2014-12-04T12:50:48Z</time>
<extensions>
<tp1:TrackPointExtension>
<tp1:hr>126</tp1:hr>
</tp1:TrackPointExtension>
</extensions>
</trkpt>
<trkpt lat="46.1628614" lon="6.0713052">
<ele>400.2000000</ele>
<time>2014-12-04T12:50:50Z</time>
<extensions>
<tp1:TrackPointExtension>
<tp1:hr>127</tp1:hr>
</tp1:TrackPointExtension>
</extensions>
</trkpt>
<trkpt lat="46.1628790" lon="6.0713799">
<ele>399.6000000</ele>
<time>2014-12-04T12:50:51Z</time>
<extensions>
<tp1:TrackPointExtension>
<tp1:hr>127</tp1:hr>
</tp1:TrackPointExtension>
</extensions>
</trkpt>
<trkpt lat="46.1628955" lon="6.0714553">
<ele>399.2000000</ele>
<time>2014-12-04T12:50:52Z</time>
<extensions>
<tp1:TrackPointExtension>
<tp1:hr>128</tp1:hr>
</tp1:TrackPointExtension>
</extensions>
</trkpt>
<trkpt lat="46.1629083" lon="6.0715345">
<ele>398.8000000</ele>
<time>2014-12-04T12:50:53Z</time>
<extensions>
<tp1:TrackPointExtension>
<tp1:hr>128</tp1:hr>
</tp1:TrackPointExtension>
</extensions>
</trkpt>
<trkpt lat="46.1629215" lon="6.0716162">
<ele>398.4000000</ele>
<time>2014-12-04T12:50:54Z</time>
<extensions>
<tp1:TrackPointExtension>
<tp1:hr>128</tp1:hr>
</tp1:TrackPointExtension>
</extensions>
</trkpt>
<trkpt lat="46.1630368" lon="6.0721993">
<ele>398.4000000</ele>
<time>2014-12-04T12:51:01Z</time>
<extensions>
<tp1:TrackPointExtension>
<tp1:hr>129</tp1:hr>
</tp1:TrackPointExtension>
</extensions>
</trkpt>
<trkpt lat="46.1631906" lon="6.0727287">
<ele>398.4000000</ele>
<time>2014-12-04T12:51:07Z</time>
<extensions>
<tp1:TrackPointExtension>
<tp1:hr>130</tp1:hr>
</tp1:TrackPointExtension>
</extensions>
</trkpt>
<trkpt lat="46.1634217" lon="6.0734550">
<ele>398.4000000</ele>
<time>2014-12-04T12:51:15Z</time>
<extensions>
<tp1:TrackPointExtension>
<tp1:hr>129</tp1:hr>
</tp1:TrackPointExtension>
</extensions>
</trkpt>
<trkpt lat="46.1634445" lon="6.0735522">
<ele>398.4000000</ele>
<time>2014-12-04T12:51:16Z</time>
<extensions>
<tp1:TrackPointExtension>
<tp1:hr>130</tp1:hr>
</tp1:TrackPointExtension>
</extensions>
</trkpt>
<trkpt lat="46.1635100" lon="6.0740445">
<ele>398.4000000</ele>
<time>2014-12-04T12:51:21Z</time>
<extensions>
<tp1:TrackPointExtension>
<tp1:hr>130</tp1:hr>
</tp1:TrackPointExtension>
</extensions>
</trkpt>
<trkpt lat="46.1635107" lon="6.0741439">
<ele>398.4000000</ele>
<time>2014-12-04T12:51:22Z</time>
<extensions>
<tp1:TrackPointExtension>
<tp1:hr>130</tp1:hr>
</tp1:TrackPointExtension>
</extensions>
</trkpt>
<trkpt lat="46.1634804" lon="6.0748467">
<ele>398.4000000</ele>
<time>2014-12-04T12:51:29Z</time>
<extensions>
<tp1:TrackPointExtension>
<tp1:hr>131</tp1:hr>
</tp1:TrackPointExtension>
</extensions>
</trkpt>
<trkpt lat="46.1634234" lon="6.0756679">
<ele>398.4000000</ele>
<time>2014-12-04T12:51:37Z</time>
<extensions>
<tp1:TrackPointExtension>
<tp1:hr>134</tp1:hr>
</tp1:TrackPointExtension>
</extensions>
</trkpt>
<trkpt lat="46.1634090" lon="6.0757677">
<ele>398.4000000</ele>
<time>2014-12-04T12:51:38Z</time>
<extensions>
<tp1:TrackPointExtension>
<tp1:hr>134</tp1:hr>
</tp1:TrackPointExtension>
</extensions>
</trkpt>
<trkpt lat="46.1632668" lon="6.0764486">
<ele>398.4000000</ele>
<time>2014-12-04T12:51:45Z</time>
<extensions>
<tp1:TrackPointExtension>
<tp1:hr>135</tp1:hr>
</tp1:TrackPointExtension>
</extensions>
</trkpt>
<trkpt lat="46.1631061" lon="6.0769679">
<ele>398.4000000</ele>
<time>2014-12-04T12:51:51Z</time>
<extensions>
<tp1:TrackPointExtension>
<tp1:hr>137</tp1:hr>
</tp1:TrackPointExtension>
</extensions>
</trkpt>
<trkpt lat="46.1630957" lon="6.0770554">
<ele>398.4000000</ele>
<time>2014-12-04T12:51:52Z</time>
<extensions>
<tp1:TrackPointExtension>
<tp1:hr>136</tp1:hr>
</tp1:TrackPointExtension>
</extensions>
</trkpt>
<trkpt lat="46.1630591" lon="6.0772218">
<ele>398.4000000</ele>
<time>2014-12-04T12:51:54Z</time>
<extensions>
<tp1:TrackPointExtension>
<tp1:hr>136</tp1:hr>
</tp1:TrackPointExtension>
</extensions>
</trkpt>
<trkpt lat="46.1629866" lon="6.0773753">
<ele>398.4000000</ele>
<time>2014-12-04T12:51:56Z</time>
<extensions>
<tp1:TrackPointExtension>
<tp1:hr>137</tp1:hr>
</tp1:TrackPointExtension>
</extensions>
</trkpt>
<trkpt lat="46.1626921" lon="6.0779244">
<ele>398.4000000</ele>
<time>2014-12-04T12:52:03Z</time>
<extensions>
<tp1:TrackPointExtension>
<tp1:hr>137</tp1:hr>
</tp1:TrackPointExtension>
</extensions>
</trkpt>
<trkpt lat="46.1623723" lon="6.0784674">
<ele>398.4000000</ele>
<time>2014-12-04T12:52:10Z</time>
<extensions>
<tp1:TrackPointExtension>
<tp1:hr>138</tp1:hr>
</tp1:TrackPointExtension>
</extensions>
</trkpt>
<trkpt lat="46.1620460" lon="6.0789814">
<ele>398.4000000</ele>
<time>2014-12-04T12:52:17Z</time>
<extensions>
<tp1:TrackPointExtension>
<tp1:hr>138</tp1:hr>
</tp1:TrackPointExtension>
</extensions>
</trkpt>
<trkpt lat="46.1616496" lon="6.0796040">
<ele>398.4000000</ele>
<time>2014-12-04T12:52:26Z</time>
<extensions>
<tp1:TrackPointExtension>
<tp1:hr>138</tp1:hr>
</tp1:TrackPointExtension>
</extensions>
</trkpt>
<trkpt lat="46.1612589" lon="6.0802254">
<ele>398.4000000</ele>
<time>2014-12-04T12:52:36Z</time>
<extensions>
<tp1:TrackPointExtension>
<tp1:hr>138</tp1:hr>
</tp1:TrackPointExtension>
</extensions>
</trkpt>
<trkpt lat="46.1611828" lon="6.0803489">
<ele>398.4000000</ele>
<time>2014-12-04T12:52:38Z</time>
<extensions>
<tp1:TrackPointExtension>
<tp1:hr>137</tp1:hr>
</tp1:TrackPointExtension>
</extensions>
</trkpt>
<trkpt lat="46.1608762" lon="6.0808237">
<ele>398.4000000</ele>
<time>2014-12-04T12:52:46Z</time>
<extensions>
<tp1:TrackPointExtension>
<tp1:hr>137</tp1:hr>
</tp1:TrackPointExtension>
</extensions>
</trkpt>
<trkpt lat="46.1607053" lon="6.0810811">
<ele>398.4000000</ele>
<time>2014-12-04T12:52:51Z</time>
<extensions>
<tp1:TrackPointExtension>
<tp1:hr>135</tp1:hr>
</tp1:TrackPointExtension>
</extensions>
</trkpt>
<trkpt lat="46.1606158" lon="6.0812263">
<ele>398.4000000</ele>
<time>2014-12-04T12:52:54Z</time>
<extensions>
<tp1:TrackPointExtension>
<tp1:hr>136</tp1:hr>
</tp1:TrackPointExtension>
</extensions>
</trkpt>
<trkpt lat="46.1605586" lon="6.0812668">
<ele>398.4000000</ele>
<time>2014-12-04T12:52:56Z</time>
<extensions>
<tp1:TrackPointExtension>
<tp1:hr>135</tp1:hr>
</tp1:TrackPointExtension>
</extensions>
</trkpt>
<trkpt lat="46.1605280" lon="6.0812481">
<ele>398.4000000</ele>
<time>2014-12-04T12:52:57Z</time>
<extensions>
<tp1:TrackPointExtension>
<tp1:hr>135</tp1:hr>
</tp1:TrackPointExtension>
</extensions>
</trkpt>
<trkpt lat="46.1604276" lon="6.0810924">
<ele>398.4000000</ele>
<time>2014-12-04T12:53:00Z</time>
<extensions>
<tp1:TrackPointExtension>
<tp1:hr>136</tp1:hr>
</tp1:TrackPointExtension>
</extensions>
</trkpt>
<trkpt lat="46.1601449" lon="6.0807097">
<ele>398.4000000</ele>
<time>2014-12-04T12:53:07Z</time>
<extensions>
<tp1:TrackPointExtension>
<tp1:hr>137</tp1:hr>
</tp1:TrackPointExtension>
</extensions>
</trkpt>
<trkpt lat="46.1597409" lon="6.0801456">
<ele>398.8000000</ele>
<time>2014-12-04T12:53:17Z</time>
<extensions>
<tp1:TrackPointExtension>
<tp1:hr>137</tp1:hr>
</tp1:TrackPointExtension>
</extensions>
</trkpt>
<trkpt lat="46.1597005" lon="6.0800894">
<ele>399.2000000</ele>
<time>2014-12-04T12:53:18Z</time>
<extensions>
<tp1:TrackPointExtension>
<tp1:hr>137</tp1:hr>
</tp1:TrackPointExtension>
</extensions>
</trkpt>
<trkpt lat="46.1596582" lon="6.0800360">
<ele>399.6000000</ele>
<time>2014-12-04T12:53:19Z</time>
<extensions>
<tp1:TrackPointExtension>
<tp1:hr>137</tp1:hr>
</tp1:TrackPointExtension>
</extensions>
</trkpt>
<trkpt lat="46.1596143" lon="6.0799826">
<ele>400.0000000</ele>
<time>2014-12-04T12:53:20Z</time>
<extensions>
<tp1:TrackPointExtension>
<tp1:hr>137</tp1:hr>
</tp1:TrackPointExtension>
</extensions>
</trkpt>
<trkpt lat="46.1595723" lon="6.0799291">
<ele>400.4000000</ele>
<time>2014-12-04T12:53:21Z</time>
<extensions>
<tp1:TrackPointExtension>
<tp1:hr>137</tp1:hr>
</tp1:TrackPointExtension>
</extensions>
</trkpt>
<trkpt lat="46.1591561" lon="6.0793649">
<ele>400.4000000</ele>
<time>2014-12-04T12:53:31Z</time>
<extensions>
<tp1:TrackPointExtension>
<tp1:hr>137</tp1:hr>
</tp1:TrackPointExtension>
</extensions>
</trkpt>
<trkpt lat="46.1588045" lon="6.0788948">
<ele>400.4000000</ele>
<time>2014-12-04T12:53:39Z</time>
<extensions>
<tp1:TrackPointExtension>
<tp1:hr>137</tp1:hr>
</tp1:TrackPointExtension>
</extensions>
</trkpt>
<trkpt lat="46.1584014" lon="6.0783454">
<ele>400.4000000</ele>
<time>2014-12-04T12:53:49Z</time>
<extensions>
<tp1:TrackPointExtension>
<tp1:hr>136</tp1:hr>
</tp1:TrackPointExtension>
</extensions>
</trkpt>
<trkpt lat="46.1581706" lon="6.0780191">
<ele>400.4000000</ele>
<time>2014-12-04T12:53:56Z</time>
<extensions>
<tp1:TrackPointExtension>
<tp1:hr>133</tp1:hr>
</tp1:TrackPointExtension>
</extensions>
</trkpt>
<trkpt lat="46.1581411" lon="6.0779729">
<ele>400.8000000</ele>
<time>2014-12-04T12:53:57Z</time>
<extensions>
<tp1:TrackPointExtension>
<tp1:hr>133</tp1:hr>
</tp1:TrackPointExtension>
</extensions>
</trkpt>
<trkpt lat="46.1581091" lon="6.0779376">
<ele>401.2000000</ele>
<time>2014-12-04T12:53:58Z</time>
<extensions>
<tp1:TrackPointExtension>
<tp1:hr>133</tp1:hr>
</tp1:TrackPointExtension>
</extensions>
</trkpt>
<trkpt lat="46.1580755" lon="6.0779073">
<ele>401.8000000</ele>
<time>2014-12-04T12:53:59Z</time>
<extensions>
<tp1:TrackPointExtension>
<tp1:hr>132</tp1:hr>
</tp1:TrackPointExtension>
</extensions>
</trkpt>
<trkpt lat="46.1580394" lon="6.0778871">
<ele>402.2000000</ele>
<time>2014-12-04T12:54:00Z</time>
<extensions>
<tp1:TrackPointExtension>
<tp1:hr>131</tp1:hr>
</tp1:TrackPointExtension>
</extensions>
</trkpt>
<trkpt lat="46.1579989" lon="6.0778842">
<ele>402.6000000</ele>
<time>2014-12-04T12:54:01Z</time>
<extensions>
<tp1:TrackPointExtension>
<tp1:hr>131</tp1:hr>
</tp1:TrackPointExtension>
</extensions>
</trkpt>
<trkpt lat="46.1578240" lon="6.0780000">
<ele>402.6000000</ele>
<time>2014-12-04T12:54:05Z</time>
<extensions>
<tp1:TrackPointExtension>
<tp1:hr>131</tp1:hr>
</tp1:TrackPointExtension>
</extensions>
</trkpt>
<trkpt lat="46.1574857" lon="6.0782551">
<ele>402.6000000</ele>
<time>2014-12-04T12:54:12Z</time>
<extensions>
<tp1:TrackPointExtension>
<tp1:hr>133</tp1:hr>
</tp1:TrackPointExtension>
</extensions>
</trkpt>
<trkpt lat="46.1570881" lon="6.0785675">
<ele>402.6000000</ele>
<time>2014-12-04T12:54:20Z</time>
<extensions>
<tp1:TrackPointExtension>
<tp1:hr>134</tp1:hr>
</tp1:TrackPointExtension>
</extensions>
</trkpt>
<trkpt lat="46.1566363" lon="6.0788981">
<ele>402.6000000</ele>
<time>2014-12-04T12:54:29Z</time>
<extensions>
<tp1:TrackPointExtension>
<tp1:hr>135</tp1:hr>
</tp1:TrackPointExtension>
</extensions>
</trkpt>
<trkpt lat="46.1562151" lon="6.0792205">
<ele>402.6000000</ele>
<time>2014-12-04T12:54:37Z</time>
<extensions>
<tp1:TrackPointExtension>
<tp1:hr>135</tp1:hr>
</tp1:TrackPointExtension>
</extensions>
</trkpt>
<trkpt lat="46.1559597" lon="6.0794271">
<ele>402.6000000</ele>
<time>2014-12-04T12:54:42Z</time>
<extensions>
<tp1:TrackPointExtension>
<tp1:hr>135</tp1:hr>
</tp1:TrackPointExtension>
</extensions>
</trkpt>
<trkpt lat="46.1558117" lon="6.0795593">
<ele>402.6000000</ele>
<time>2014-12-04T12:54:45Z</time>
<extensions>
<tp1:TrackPointExtension>
<tp1:hr>135</tp1:hr>
</tp1:TrackPointExtension>
</extensions>
</trkpt>
<trkpt lat="46.1554988" lon="6.0799541">
<ele>402.6000000</ele>
<time>2014-12-04T12:54:52Z</time>
<extensions>
<tp1:TrackPointExtension>
<tp1:hr>134</tp1:hr>
</tp1:TrackPointExtension>
</extensions>
</trkpt>
<trkpt lat="46.1552444" lon="6.0803515">
<ele>403.0000000</ele>
<time>2014-12-04T12:54:59Z</time>
<extensions>
<tp1:TrackPointExtension>
<tp1:hr>135</tp1:hr>
</tp1:TrackPointExtension>
</extensions>
</trkpt>
<trkpt lat="46.1552186" lon="6.0804095">
<ele>403.4000000</ele>
<time>2014-12-04T12:55:00Z</time>
<extensions>
<tp1:TrackPointExtension>
<tp1:hr>135</tp1:hr>
</tp1:TrackPointExtension>
</extensions>
</trkpt>
<trkpt lat="46.1551994" lon="6.0804634">
<ele>403.8000000</ele>
<time>2014-12-04T12:55:01Z</time>
<extensions>
<tp1:TrackPointExtension>
<tp1:hr>135</tp1:hr>
</tp1:TrackPointExtension>
</extensions>
</trkpt>
<trkpt lat="46.1551990" lon="6.0805190">
<ele>404.2000000</ele>
<time>2014-12-04T12:55:02Z</time>
<extensions>
<tp1:TrackPointExtension>
<tp1:hr>134</tp1:hr>
</tp1:TrackPointExtension>
</extensions>
</trkpt>
<trkpt lat="46.1552251" lon="6.0805766">
<ele>404.6000000</ele>
<time>2014-12-04T12:55:03Z</time>
<extensions>
<tp1:TrackPointExtension>
<tp1:hr>134</tp1:hr>
</tp1:TrackPointExtension>
</extensions>
</trkpt>
<trkpt lat="46.1552950" lon="6.0806813">
<ele>404.6000000</ele>
<time>2014-12-04T12:55:05Z</time>
<extensions>
<tp1:TrackPointExtension>
<tp1:hr>134</tp1:hr>
</tp1:TrackPointExtension>
</extensions>
</trkpt>
<trkpt lat="46.1553701" lon="6.0807958">
<ele>404.6000000</ele>
<time>2014-12-04T12:55:07Z</time>
<extensions>
<tp1:TrackPointExtension>
<tp1:hr>134</tp1:hr>
</tp1:TrackPointExtension>
</extensions>
</trkpt>
<trkpt lat="46.1556275" lon="6.0812244">
<ele>404.6000000</ele>
<time>2014-12-04T12:55:14Z</time>
<extensions>
<tp1:TrackPointExtension>
<tp1:hr>134</tp1:hr>
</tp1:TrackPointExtension>
</extensions>
</trkpt>
<trkpt lat="46.1559801" lon="6.0817131">
<ele>404.6000000</ele>
<time>2014-12-04T12:55:22Z</time>
<extensions>
<tp1:TrackPointExtension>
<tp1:hr>133</tp1:hr>
</tp1:TrackPointExtension>
</extensions>
</trkpt>
<trkpt lat="46.1562278" lon="6.0820642">
<ele>404.6000000</ele>
<time>2014-12-04T12:55:28Z</time>
<extensions>
<tp1:TrackPointExtension>
<tp1:hr>132</tp1:hr>
</tp1:TrackPointExtension>
</extensions>
</trkpt>
<trkpt lat="46.1565209" lon="6.0824714">
<ele>404.6000000</ele>
<time>2014-12-04T12:55:35Z</time>
<extensions>
<tp1:TrackPointExtension>
<tp1:hr>131</tp1:hr>
</tp1:TrackPointExtension>
</extensions>
</trkpt>
<trkpt lat="46.1567826" lon="6.0828330">
<ele>404.6000000</ele>
<time>2014-12-04T12:55:41Z</time>
<extensions>
<tp1:TrackPointExtension>
<tp1:hr>131</tp1:hr>
</tp1:TrackPointExtension>
</extensions>
</trkpt>
<trkpt lat="46.1568320" lon="6.0829012">
<ele>404.2000000</ele>
<time>2014-12-04T12:55:42Z</time>
<extensions>
<tp1:TrackPointExtension>
<tp1:hr>131</tp1:hr>
</tp1:TrackPointExtension>
</extensions>
</trkpt>
<trkpt lat="46.1568782" lon="6.0829670">
<ele>403.8000000</ele>
<time>2014-12-04T12:55:43Z</time>
<extensions>
<tp1:TrackPointExtension>
<tp1:hr>131</tp1:hr>
</tp1:TrackPointExtension>
</extensions>
</trkpt>
<trkpt lat="46.1569211" lon="6.0830312">
<ele>403.4000000</ele>
<time>2014-12-04T12:55:44Z</time>
<extensions>
<tp1:TrackPointExtension>
<tp1:hr>131</tp1:hr>
</tp1:TrackPointExtension>
</extensions>
</trkpt>
<trkpt lat="46.1569676" lon="6.0830953">
<ele>403.0000000</ele>
<time>2014-12-04T12:55:45Z</time>
<extensions>
<tp1:TrackPointExtension>
<tp1:hr>131</tp1:hr>
</tp1:TrackPointExtension>
</extensions>
</trkpt>
<trkpt lat="46.1570152" lon="6.0831603">
<ele>402.6000000</ele>
<time>2014-12-04T12:55:46Z</time>
<extensions>
<tp1:TrackPointExtension>
<tp1:hr>131</tp1:hr>
</tp1:TrackPointExtension>
</extensions>
</trkpt>
<trkpt lat="46.1571634" lon="6.0833707">
<ele>402.6000000</ele>
<time>2014-12-04T12:55:49Z</time>
<extensions>
<tp1:TrackPointExtension>
<tp1:hr>131</tp1:hr>
</tp1:TrackPointExtension>
</extensions>
</trkpt>
<trkpt lat="46.1575920" lon="6.0839598">
<ele>402.6000000</ele>
<time>2014-12-04T12:55:58Z</time>
<extensions>
<tp1:TrackPointExtension>
<tp1:hr>132</tp1:hr>
</tp1:TrackPointExtension>
</extensions>
</trkpt>
<trkpt lat="46.1577769" lon="6.0842283">
<ele>402.6000000</ele>
<time>2014-12-04T12:56:02Z</time>
<extensions>
<tp1:TrackPointExtension>
<tp1:hr>131</tp1:hr>
</tp1:TrackPointExtension>
</extensions>
</trkpt>
<trkpt lat="46.1580289" lon="6.0846316">
<ele>402.6000000</ele>
<time>2014-12-04T12:56:09Z</time>
<extensions>
<tp1:TrackPointExtension>
<tp1:hr>131</tp1:hr>
</tp1:TrackPointExtension>
</extensions>
</trkpt>
<trkpt lat="46.1581711" lon="6.0849505">
<ele>402.6000000</ele>
<time>2014-12-04T12:56:15Z</time>
<extensions>
<tp1:TrackPointExtension>
<tp1:hr>130</tp1:hr>
</tp1:TrackPointExtension>
</extensions>
</trkpt>
<trkpt lat="46.1582052" lon="6.0849973">
<ele>402.6000000</ele>
<time>2014-12-04T12:56:16Z</time>
<extensions>
<tp1:TrackPointExtension>
<tp1:hr>130</tp1:hr>
</tp1:TrackPointExtension>
</extensions>
</trkpt>
<trkpt lat="46.1583446" lon="6.0851004">
<ele>402.6000000</ele>
<time>2014-12-04T12:56:19Z</time>
<extensions>
<tp1:TrackPointExtension>
<tp1:hr>130</tp1:hr>
</tp1:TrackPointExtension>
</extensions>
</trkpt>
<trkpt lat="46.1583960" lon="6.0851497">
<ele>402.6000000</ele>
<time>2014-12-04T12:56:20Z</time>
<extensions>
<tp1:TrackPointExtension>
<tp1:hr>130</tp1:hr>
</tp1:TrackPointExtension>
</extensions>
</trkpt>
<trkpt lat="46.1586992" lon="6.0855900">
<ele>402.6000000</ele>
<time>2014-12-04T12:56:27Z</time>
<extensions>
<tp1:TrackPointExtension>
<tp1:hr>132</tp1:hr>
</tp1:TrackPointExtension>
</extensions>
</trkpt>
<trkpt lat="46.1590981" lon="6.0861704">
<ele>402.6000000</ele>
<time>2014-12-04T12:56:36Z</time>
<extensions>
<tp1:TrackPointExtension>
<tp1:hr>133</tp1:hr>
</tp1:TrackPointExtension>
</extensions>
</trkpt>
<trkpt lat="46.1595107" lon="6.0867600">
<ele>402.6000000</ele>
<time>2014-12-04T12:56:45Z</time>
<extensions>
<tp1:TrackPointExtension>
<tp1:hr>133</tp1:hr>
</tp1:TrackPointExtension>
</extensions>
</trkpt>
<trkpt lat="46.1599282" lon="6.0873622">
<ele>402.6000000</ele>
<time>2014-12-04T12:56:54Z</time>
<extensions>
<tp1:TrackPointExtension>
<tp1:hr>134</tp1:hr>
</tp1:TrackPointExtension>
</extensions>
</trkpt>
<trkpt lat="46.1601089" lon="6.0876321">
<ele>402.2000000</ele>
<time>2014-12-04T12:56:58Z</time>
<extensions>
<tp1:TrackPointExtension>
<tp1:hr>135</tp1:hr>
</tp1:TrackPointExtension>
</extensions>
</trkpt>
<trkpt lat="46.1601523" lon="6.0877015">
<ele>401.6000000</ele>
<time>2014-12-04T12:56:59Z</time>
<extensions>
<tp1:TrackPointExtension>
<tp1:hr>135</tp1:hr>
</tp1:TrackPointExtension>
</extensions>
</trkpt>
<trkpt lat="46.1601966" lon="6.0877723">
<ele>401.2000000</ele>
<time>2014-12-04T12:57:00Z</time>
<extensions>
<tp1:TrackPointExtension>
<tp1:hr>135</tp1:hr>
</tp1:TrackPointExtension>
</extensions>
</trkpt>
<trkpt lat="46.1602405" lon="6.0878440">
<ele>400.8000000</ele>
<time>2014-12-04T12:57:01Z</time>
<extensions>
<tp1:TrackPointExtension>
<tp1:hr>135</tp1:hr>
</tp1:TrackPointExtension>
</extensions>
</trkpt>
<trkpt lat="46.1602834" lon="6.0879144">
<ele>400.4000000</ele>
<time>2014-12-04T12:57:02Z</time>
<extensions>
<tp1:TrackPointExtension>
<tp1:hr>135</tp1:hr>
</tp1:TrackPointExtension>
</extensions>
</trkpt>
<trkpt lat="46.1605017" lon="6.0882714">
<ele>400.4000000</ele>
<time>2014-12-04T12:57:07Z</time>
<extensions>
<tp1:TrackPointExtension>
<tp1:hr>135</tp1:hr>
</tp1:TrackPointExtension>
</extensions>
</trkpt>
<trkpt lat="46.1608643" lon="6.0888805">
<ele>400.4000000</ele>
<time>2014-12-04T12:57:15Z</time>
<extensions>
<tp1:TrackPointExtension>
<tp1:hr>136</tp1:hr>
</tp1:TrackPointExtension>
</extensions>
</trkpt>
<trkpt lat="46.1610064" lon="6.0891201">
<ele>400.4000000</ele>
<time>2014-12-04T12:57:18Z</time>
<extensions>
<tp1:TrackPointExtension>
<tp1:hr>137</tp1:hr>
</tp1:TrackPointExtension>
</extensions>
</trkpt>
<trkpt lat="46.1613812" lon="6.0897465">
<ele>400.4000000</ele>
<time>2014-12-04T12:57:26Z</time>
<extensions>
<tp1:TrackPointExtension>
<tp1:hr>137</tp1:hr>
</tp1:TrackPointExtension>
</extensions>
</trkpt>
<trkpt lat="46.1615253" lon="6.0899830">
<ele>400.0000000</ele>
<time>2014-12-04T12:57:29Z</time>
<extensions>
<tp1:TrackPointExtension>
<tp1:hr>137</tp1:hr>
</tp1:TrackPointExtension>
</extensions>
</trkpt>
<trkpt lat="46.1615737" lon="6.0900601">
<ele>399.6000000</ele>
<time>2014-12-04T12:57:30Z</time>
<extensions>
<tp1:TrackPointExtension>
<tp1:hr>137</tp1:hr>
</tp1:TrackPointExtension>
</extensions>
</trkpt>
<trkpt lat="46.1616230" lon="6.0901387">
<ele>399.0000000</ele>
<time>2014-12-04T12:57:31Z</time>
<extensions>
<tp1:TrackPointExtension>
<tp1:hr>137</tp1:hr>
</tp1:TrackPointExtension>
</extensions>
</trkpt>
<trkpt lat="46.1616694" lon="6.0902149">
<ele>398.6000000</ele>
<time>2014-12-04T12:57:32Z</time>
<extensions>
<tp1:TrackPointExtension>
<tp1:hr>137</tp1:hr>
</tp1:TrackPointExtension>
</extensions>
</trkpt>
<trkpt lat="46.1617160" lon="6.0902931">
<ele>398.2000000</ele>
<time>2014-12-04T12:57:33Z</time>
<extensions>
<tp1:TrackPointExtension>
<tp1:hr>137</tp1:hr>
</tp1:TrackPointExtension>
</extensions>
</trkpt>
<trkpt lat="46.1620777" lon="6.0909017">
<ele>398.2000000</ele>
<time>2014-12-04T12:57:41Z</time>
<extensions>
<tp1:TrackPointExtension>
<tp1:hr>138</tp1:hr>
</tp1:TrackPointExtension>
</extensions>
</trkpt>
<trkpt lat="46.1621682" lon="6.0910513">
<ele>398.2000000</ele>
<time>2014-12-04T12:57:43Z</time>
<extensions>
<tp1:TrackPointExtension>
<tp1:hr>138</tp1:hr>
</tp1:TrackPointExtension>
</extensions>
</trkpt>
<trkpt lat="46.1625508" lon="6.0916878">
<ele>398.2000000</ele>
<time>2014-12-04T12:57:52Z</time>
<extensions>
<tp1:TrackPointExtension>
<tp1:hr>139</tp1:hr>
</tp1:TrackPointExtension>
</extensions>
</trkpt>
<trkpt lat="46.1625913" lon="6.0917523">
<ele>398.2000000</ele>
<time>2014-12-04T12:57:53Z</time>
<extensions>
<tp1:TrackPointExtension>
<tp1:hr>138</tp1:hr>
</tp1:TrackPointExtension>
</extensions>
</trkpt>
<trkpt lat="46.1629703" lon="6.0924001">
<ele>398.2000000</ele>
<time>2014-12-04T12:58:03Z</time>
<extensions>
<tp1:TrackPointExtension>
<tp1:hr>138</tp1:hr>
</tp1:TrackPointExtension>
</extensions>
</trkpt>
<trkpt lat="46.1630433" lon="6.0925276">
<ele>398.2000000</ele>
<time>2014-12-04T12:58:05Z</time>
<extensions>
<tp1:TrackPointExtension>
<tp1:hr>138</tp1:hr>
</tp1:TrackPointExtension>
</extensions>
</trkpt>
<trkpt lat="46.1633641" lon="6.0931031">
<ele>398.2000000</ele>
<time>2014-12-04T12:58:14Z</time>
<extensions>
<tp1:TrackPointExtension>
<tp1:hr>137</tp1:hr>
</tp1:TrackPointExtension>
</extensions>
</trkpt>
<trkpt lat="46.1635287" lon="6.0936176">
<ele>398.2000000</ele>
<time>2014-12-04T12:58:21Z</time>
<extensions>
<tp1:TrackPointExtension>
<tp1:hr>135</tp1:hr>
</tp1:TrackPointExtension>
</extensions>
</trkpt>
<trkpt lat="46.1636107" lon="6.0939959">
<ele>398.2000000</ele>
<time>2014-12-04T12:58:26Z</time>
<extensions>
<tp1:TrackPointExtension>
<tp1:hr>135</tp1:hr>
</tp1:TrackPointExtension>
</extensions>
</trkpt>
<trkpt lat="46.1636713" lon="6.0940230">
<ele>398.2000000</ele>
<time>2014-12-04T12:58:27Z</time>
<extensions>
<tp1:TrackPointExtension>
<tp1:hr>135</tp1:hr>
</tp1:TrackPointExtension>
</extensions>
</trkpt>
<trkpt lat="46.1637273" lon="6.0940561">
<ele>398.2000000</ele>
<time>2014-12-04T12:58:28Z</time>
<extensions>
<tp1:TrackPointExtension>
<tp1:hr>134</tp1:hr>
</tp1:TrackPointExtension>
</extensions>
</trkpt>
<trkpt lat="46.1639411" lon="6.0942314">
<ele>398.2000000</ele>
<time>2014-12-04T12:58:32Z</time>
<extensions>
<tp1:TrackPointExtension>
<tp1:hr>134</tp1:hr>
</tp1:TrackPointExtension>
</extensions>
</trkpt>
<trkpt lat="46.1640206" lon="6.0943627">
<ele>398.2000000</ele>
<time>2014-12-04T12:58:34Z</time>
<extensions>
<tp1:TrackPointExtension>
<tp1:hr>134</tp1:hr>
</tp1:TrackPointExtension>
</extensions>
</trkpt>
<trkpt lat="46.1643427" lon="6.0949146">
<ele>398.2000000</ele>
<time>2014-12-04T12:58:42Z</time>
<extensions>
<tp1:TrackPointExtension>
<tp1:hr>133</tp1:hr>
</tp1:TrackPointExtension>
</extensions>
</trkpt>
<trkpt lat="46.1645447" lon="6.0952605">
<ele>397.8000000</ele>
<time>2014-12-04T12:58:47Z</time>
<extensions>
<tp1:TrackPointExtension>
<tp1:hr>133</tp1:hr>
</tp1:TrackPointExtension>
</extensions>
</trkpt>
<trkpt lat="46.1645837" lon="6.0953314">
<ele>397.4000000</ele>
<time>2014-12-04T12:58:48Z</time>
<extensions>
<tp1:TrackPointExtension>
<tp1:hr>133</tp1:hr>
</tp1:TrackPointExtension>
</extensions>
</trkpt>
<trkpt lat="46.1646319" lon="6.0954116">
<ele>397.0000000</ele>
<time>2014-12-04T12:58:49Z</time>
<extensions>
<tp1:TrackPointExtension>
<tp1:hr>133</tp1:hr>
</tp1:TrackPointExtension>
</extensions>
</trkpt>
<trkpt lat="46.1646739" lon="6.0954743">
<ele>396.4000000</ele>
<time>2014-12-04T12:58:50Z</time>
<extensions>
<tp1:TrackPointExtension>
<tp1:hr>133</tp1:hr>
</tp1:TrackPointExtension>
</extensions>
</trkpt>
<trkpt lat="46.1647188" lon="6.0955356">
<ele>396.0000000</ele>
<time>2014-12-04T12:58:51Z</time>
<extensions>
<tp1:TrackPointExtension>
<tp1:hr>132</tp1:hr>
</tp1:TrackPointExtension>
</extensions>
</trkpt>
<trkpt lat="46.1650807" lon="6.0961911">
<ele>396.0000000</ele>
<time>2014-12-04T12:59:00Z</time>
<extensions>
<tp1:TrackPointExtension>
<tp1:hr>132</tp1:hr>
</tp1:TrackPointExtension>
</extensions>
</trkpt>
<trkpt lat="46.1651936" lon="6.0964206">
<ele>396.0000000</ele>
<time>2014-12-04T12:59:03Z</time>
<extensions>
<tp1:TrackPointExtension>
<tp1:hr>132</tp1:hr>
</tp1:TrackPointExtension>
</extensions>
</trkpt>
<trkpt lat="46.1652686" lon="6.0965658">
<ele>396.0000000</ele>
<time>2014-12-04T12:59:05Z</time>
<extensions>
<tp1:TrackPointExtension>
<tp1:hr>132</tp1:hr>
</tp1:TrackPointExtension>
</extensions>
</trkpt>
<trkpt lat="46.1655778" lon="6.0971191">
<ele>396.0000000</ele>
<time>2014-12-04T12:59:13Z</time>
<extensions>
<tp1:TrackPointExtension>
<tp1:hr>132</tp1:hr>
</tp1:TrackPointExtension>
</extensions>
</trkpt>
<trkpt lat="46.1658936" lon="6.0976541">
<ele>396.0000000</ele>
<time>2014-12-04T12:59:21Z</time>
<extensions>
<tp1:TrackPointExtension>
<tp1:hr>131</tp1:hr>
</tp1:TrackPointExtension>
</extensions>
</trkpt>
<trkpt lat="46.1662446" lon="6.0982585">
<ele>396.0000000</ele>
<time>2014-12-04T12:59:30Z</time>
<extensions>
<tp1:TrackPointExtension>
<tp1:hr>132</tp1:hr>
</tp1:TrackPointExtension>
</extensions>
</trkpt>
<trkpt lat="46.1663635" lon="6.0984712">
<ele>396.0000000</ele>
<time>2014-12-04T12:59:33Z</time>
<extensions>
<tp1:TrackPointExtension>
<tp1:hr>132</tp1:hr>
</tp1:TrackPointExtension>
</extensions>
</trkpt>
<trkpt lat="46.1667296" lon="6.0991056">
<ele>396.0000000</ele>
<time>2014-12-04T12:59:42Z</time>
<extensions>
<tp1:TrackPointExtension>
<tp1:hr>132</tp1:hr>
</tp1:TrackPointExtension>
</extensions>
</trkpt>
<trkpt lat="46.1667746" lon="6.0991825">
<ele>396.0000000</ele>
<time>2014-12-04T12:59:43Z</time>
<extensions>
<tp1:TrackPointExtension>
<tp1:hr>132</tp1:hr>
</tp1:TrackPointExtension>
</extensions>
</trkpt>
<trkpt lat="46.1668184" lon="6.0992570">
<ele>395.6000000</ele>
<time>2014-12-04T12:59:44Z</time>
<extensions>
<tp1:TrackPointExtension>
<tp1:hr>132</tp1:hr>
</tp1:TrackPointExtension>
</extensions>
</trkpt>
<trkpt lat="46.1668616" lon="6.0993312">
<ele>395.2000000</ele>
<time>2014-12-04T12:59:45Z</time>
<extensions>
<tp1:TrackPointExtension>
<tp1:hr>132</tp1:hr>
</tp1:TrackPointExtension>
</extensions>
</trkpt>
<trkpt lat="46.1669049" lon="6.0994076">
<ele>394.8000000</ele>
<time>2014-12-04T12:59:46Z</time>
<extensions>
<tp1:TrackPointExtension>
<tp1:hr>132</tp1:hr>
</tp1:TrackPointExtension>
</extensions>
</trkpt>
<trkpt lat="46.1669505" lon="6.0994886">
<ele>394.4000000</ele>
<time>2014-12-04T12:59:47Z</time>
<extensions>
<tp1:TrackPointExtension>
<tp1:hr>132</tp1:hr>
</tp1:TrackPointExtension>
</extensions>
</trkpt>
<trkpt lat="46.1669980" lon="6.0995723">
<ele>394.0000000</ele>
<time>2014-12-04T12:59:48Z</time>
<extensions>
<tp1:TrackPointExtension>
<tp1:hr>132</tp1:hr>
</tp1:TrackPointExtension>
</extensions>
</trkpt>
<trkpt lat="46.1671361" lon="6.0998140">
<ele>393.6000000</ele>
<time>2014-12-04T12:59:51Z</time>
<extensions>
<tp1:TrackPointExtension>
<tp1:hr>132</tp1:hr>
</tp1:TrackPointExtension>
</extensions>
</trkpt>
<trkpt lat="46.1671824" lon="6.0998974">
<ele>393.2000000</ele>
<time>2014-12-04T12:59:52Z</time>
<extensions>
<tp1:TrackPointExtension>
<tp1:hr>132</tp1:hr>
</tp1:TrackPointExtension>
</extensions>
</trkpt>
<trkpt lat="46.1672305" lon="6.0999824">
<ele>392.8000000</ele>
<time>2014-12-04T12:59:53Z</time>
<extensions>
<tp1:TrackPointExtension>
<tp1:hr>132</tp1:hr>
</tp1:TrackPointExtension>
</extensions>
</trkpt>
<trkpt lat="46.1672757" lon="6.1000620">
<ele>392.4000000</ele>
<time>2014-12-04T12:59:54Z</time>
<extensions>
<tp1:TrackPointExtension>
<tp1:hr>133</tp1:hr>
</tp1:TrackPointExtension>
</extensions>
</trkpt>
<trkpt lat="46.1673252" lon="6.1001476">
<ele>392.0000000</ele>
<time>2014-12-04T12:59:55Z</time>
<extensions>
<tp1:TrackPointExtension>
<tp1:hr>132</tp1:hr>
</tp1:TrackPointExtension>
</extensions>
</trkpt>
<trkpt lat="46.1676915" lon="6.1007861">
<ele>392.0000000</ele>
<time>2014-12-04T13:00:03Z</time>
<extensions>
<tp1:TrackPointExtension>
<tp1:hr>130</tp1:hr>
</tp1:TrackPointExtension>
</extensions>
</trkpt>
<trkpt lat="46.1679706" lon="6.1013581">
<ele>392.0000000</ele>
<time>2014-12-04T13:00:10Z</time>
<extensions>
<tp1:TrackPointExtension>
<tp1:hr>130</tp1:hr>
</tp1:TrackPointExtension>
</extensions>
</trkpt>
<trkpt lat="46.1683206" lon="6.1020079">
<ele>392.0000000</ele>
<time>2014-12-04T13:00:19Z</time>
<extensions>
<tp1:TrackPointExtension>
<tp1:hr>129</tp1:hr>
</tp1:TrackPointExtension>
</extensions>
</trkpt>
<trkpt lat="46.1683371" lon="6.1020779">
<ele>392.0000000</ele>
<time>2014-12-04T13:00:20Z</time>
<extensions>
<tp1:TrackPointExtension>
<tp1:hr>129</tp1:hr>
</tp1:TrackPointExtension>
</extensions>
</trkpt>
<trkpt lat="46.1683858" lon="6.1023010">
<ele>392.0000000</ele>
<time>2014-12-04T13:00:23Z</time>
<extensions>
<tp1:TrackPointExtension>
<tp1:hr>129</tp1:hr>
</tp1:TrackPointExtension>
</extensions>
</trkpt>
<trkpt lat="46.1684485" lon="6.1023453">
<ele>392.0000000</ele>
<time>2014-12-04T13:00:24Z</time>
<extensions>
<tp1:TrackPointExtension>
<tp1:hr>129</tp1:hr>
</tp1:TrackPointExtension>
</extensions>
</trkpt>
<trkpt lat="46.1684976" lon="6.1023987">
<ele>392.0000000</ele>
<time>2014-12-04T13:00:25Z</time>
<extensions>
<tp1:TrackPointExtension>
<tp1:hr>129</tp1:hr>
</tp1:TrackPointExtension>
</extensions>
</trkpt>
<trkpt lat="46.1686994" lon="6.1027538">
<ele>391.6000000</ele>
<time>2014-12-04T13:00:30Z</time>
<extensions>
<tp1:TrackPointExtension>
<tp1:hr>131</tp1:hr>
</tp1:TrackPointExtension>
</extensions>
</trkpt>
<trkpt lat="46.1687397" lon="6.1028373">
<ele>391.2000000</ele>
<time>2014-12-04T13:00:31Z</time>
<extensions>
<tp1:TrackPointExtension>
<tp1:hr>131</tp1:hr>
</tp1:TrackPointExtension>
</extensions>
</trkpt>
<trkpt lat="46.1687795" lon="6.1029106">
<ele>390.8000000</ele>
<time>2014-12-04T13:00:32Z</time>
<extensions>
<tp1:TrackPointExtension>
<tp1:hr>131</tp1:hr>
</tp1:TrackPointExtension>
</extensions>
</trkpt>
<trkpt lat="46.1688188" lon="6.1029909">
<ele>390.4000000</ele>
<time>2014-12-04T13:00:33Z</time>
<extensions>
<tp1:TrackPointExtension>
<tp1:hr>131</tp1:hr>
</tp1:TrackPointExtension>
</extensions>
</trkpt>
<trkpt lat="46.1688563" lon="6.1030715">
<ele>390.0000000</ele>
<time>2014-12-04T13:00:34Z</time>
<extensions>
<tp1:TrackPointExtension>
<tp1:hr>131</tp1:hr>
</tp1:TrackPointExtension>
</extensions>
</trkpt>
<trkpt lat="46.1690338" lon="6.1034571">
<ele>390.0000000</ele>
<time>2014-12-04T13:00:39Z</time>
<extensions>
<tp1:TrackPointExtension>
<tp1:hr>130</tp1:hr>
</tp1:TrackPointExtension>
</extensions>
</trkpt>
<trkpt lat="46.1693596" lon="6.1041611">
<ele>390.0000000</ele>
<time>2014-12-04T13:00:48Z</time>
<extensions>
<tp1:TrackPointExtension>
<tp1:hr>129</tp1:hr>
</tp1:TrackPointExtension>
</extensions>
</trkpt>
<trkpt lat="46.1696865" lon="6.1048616">
<ele>390.0000000</ele>
<time>2014-12-04T13:00:57Z</time>
<extensions>
<tp1:TrackPointExtension>
<tp1:hr>129</tp1:hr>
</tp1:TrackPointExtension>
</extensions>
</trkpt>
<trkpt lat="46.1699393" lon="6.1054089">
<ele>390.0000000</ele>
<time>2014-12-04T13:01:04Z</time>
<extensions>
<tp1:TrackPointExtension>
<tp1:hr>129</tp1:hr>
</tp1:TrackPointExtension>
</extensions>
</trkpt>
<trkpt lat="46.1702724" lon="6.1061002">
<ele>390.0000000</ele>
<time>2014-12-04T13:01:13Z</time>
<extensions>
<tp1:TrackPointExtension>
<tp1:hr>131</tp1:hr>
</tp1:TrackPointExtension>
</extensions>
</trkpt>
<trkpt lat="46.1703811" lon="6.1063308">
<ele>390.0000000</ele>
<time>2014-12-04T13:01:16Z</time>
<extensions>
<tp1:TrackPointExtension>
<tp1:hr>130</tp1:hr>
</tp1:TrackPointExtension>
</extensions>
</trkpt>
<trkpt lat="46.1707011" lon="6.1070268">
<ele>389.4000000</ele>
<time>2014-12-04T13:01:25Z</time>
<extensions>
<tp1:TrackPointExtension>
<tp1:hr>131</tp1:hr>
</tp1:TrackPointExtension>
</extensions>
</trkpt>
<trkpt lat="46.1707326" lon="6.1070976">
<ele>389.0000000</ele>
<time>2014-12-04T13:01:26Z</time>
<extensions>
<tp1:TrackPointExtension>
<tp1:hr>131</tp1:hr>
</tp1:TrackPointExtension>
</extensions>
</trkpt>
<trkpt lat="46.1707652" lon="6.1071748">
<ele>388.6000000</ele>
<time>2014-12-04T13:01:27Z</time>
<extensions>
<tp1:TrackPointExtension>
<tp1:hr>131</tp1:hr>
</tp1:TrackPointExtension>
</extensions>
</trkpt>
<trkpt lat="46.1707957" lon="6.1072470">
<ele>388.2000000</ele>
<time>2014-12-04T13:01:28Z</time>
<extensions>
<tp1:TrackPointExtension>
<tp1:hr>131</tp1:hr>
</tp1:TrackPointExtension>
</extensions>
</trkpt>
<trkpt lat="46.1708245" lon="6.1073194">
<ele>387.6000000</ele>
<time>2014-12-04T13:01:29Z</time>
<extensions>
<tp1:TrackPointExtension>
<tp1:hr>131</tp1:hr>
</tp1:TrackPointExtension>
</extensions>
</trkpt>
<trkpt lat="46.1708426" lon="6.1074040">
<ele>387.6000000</ele>
<time>2014-12-04T13:01:30Z</time>
<extensions>
<tp1:TrackPointExtension>
<tp1:hr>130</tp1:hr>
</tp1:TrackPointExtension>
</extensions>
</trkpt>
<trkpt lat="46.1709775" lon="6.1076982">
<ele>387.6000000</ele>
<time>2014-12-04T13:01:34Z</time>
<extensions>
<tp1:TrackPointExtension>
<tp1:hr>129</tp1:hr>
</tp1:TrackPointExtension>
</extensions>
</trkpt>
<trkpt lat="46.1712224" lon="6.1082065">
<ele>387.6000000</ele>
<time>2014-12-04T13:01:41Z</time>
<extensions>
<tp1:TrackPointExtension>
<tp1:hr>130</tp1:hr>
</tp1:TrackPointExtension>
</extensions>
</trkpt>
<trkpt lat="46.1714554" lon="6.1087772">
<ele>387.6000000</ele>
<time>2014-12-04T13:01:49Z</time>
<extensions>
<tp1:TrackPointExtension>
<tp1:hr>130</tp1:hr>
</tp1:TrackPointExtension>
</extensions>
</trkpt>
<trkpt lat="46.1716032" lon="6.1091454">
<ele>387.6000000</ele>
<time>2014-12-04T13:01:54Z</time>
<extensions>
<tp1:TrackPointExtension>
<tp1:hr>130</tp1:hr>
</tp1:TrackPointExtension>
</extensions>
</trkpt>
<trkpt lat="46.1716145" lon="6.1093132">
<ele>387.6000000</ele>
<time>2014-12-04T13:01:56Z</time>
<extensions>
<tp1:TrackPointExtension>
<tp1:hr>129</tp1:hr>
</tp1:TrackPointExtension>
</extensions>
</trkpt>
<trkpt lat="46.1716513" lon="6.1093790">
<ele>387.6000000</ele>
<time>2014-12-04T13:01:57Z</time>
<extensions>
<tp1:TrackPointExtension>
<tp1:hr>130</tp1:hr>
</tp1:TrackPointExtension>
</extensions>
</trkpt>
<trkpt lat="46.1717565" lon="6.1094827">
<ele>387.6000000</ele>
<time>2014-12-04T13:01:59Z</time>
<extensions>
<tp1:TrackPointExtension>
<tp1:hr>130</tp1:hr>
</tp1:TrackPointExtension>
</extensions>
</trkpt>
<trkpt lat="46.1720132" lon="6.1099639">
<ele>387.6000000</ele>
<time>2014-12-04T13:02:06Z</time>
<extensions>
<tp1:TrackPointExtension>
<tp1:hr>129</tp1:hr>
</tp1:TrackPointExtension>
</extensions>
</trkpt>
<trkpt lat="46.1722183" lon="6.1104766">
<ele>387.6000000</ele>
<time>2014-12-04T13:02:13Z</time>
<extensions>
<tp1:TrackPointExtension>
<tp1:hr>130</tp1:hr>
</tp1:TrackPointExtension>
</extensions>
</trkpt>
<trkpt lat="46.1723982" lon="6.1109150">
<ele>387.6000000</ele>
<time>2014-12-04T13:02:19Z</time>
<extensions>
<tp1:TrackPointExtension>
<tp1:hr>128</tp1:hr>
</tp1:TrackPointExtension>
</extensions>
</trkpt>
<trkpt lat="46.1724064" lon="6.1109929">
<ele>387.6000000</ele>
<time>2014-12-04T13:02:20Z</time>
<extensions>
<tp1:TrackPointExtension>
<tp1:hr>128</tp1:hr>
</tp1:TrackPointExtension>
</extensions>
</trkpt>
<trkpt lat="46.1723624" lon="6.1112149">
<ele>387.6000000</ele>
<time>2014-12-04T13:02:23Z</time>
<extensions>
<tp1:TrackPointExtension>
<tp1:hr>126</tp1:hr>
</tp1:TrackPointExtension>
</extensions>
</trkpt>
<trkpt lat="46.1722079" lon="6.1114303">
<ele>387.6000000</ele>
<time>2014-12-04T13:02:27Z</time>
<extensions>
<tp1:TrackPointExtension>
<tp1:hr>127</tp1:hr>
</tp1:TrackPointExtension>
</extensions>
</trkpt>
<trkpt lat="46.1718559" lon="6.1118731">
<ele>387.6000000</ele>
<time>2014-12-04T13:02:36Z</time>
<extensions>
<tp1:TrackPointExtension>
<tp1:hr>129</tp1:hr>
</tp1:TrackPointExtension>
</extensions>
</trkpt>
<trkpt lat="46.1715394" lon="6.1123204">
<ele>387.6000000</ele>
<time>2014-12-04T13:02:45Z</time>
<extensions>
<tp1:TrackPointExtension>
<tp1:hr>130</tp1:hr>
</tp1:TrackPointExtension>
</extensions>
</trkpt>
<trkpt lat="46.1712920" lon="6.1126764">
<ele>387.6000000</ele>
<time>2014-12-04T13:02:52Z</time>
<extensions>
<tp1:TrackPointExtension>
<tp1:hr>130</tp1:hr>
</tp1:TrackPointExtension>
</extensions>
</trkpt>
<trkpt lat="46.1709504" lon="6.1131463">
<ele>387.6000000</ele>
<time>2014-12-04T13:03:01Z</time>
<extensions>
<tp1:TrackPointExtension>
<tp1:hr>130</tp1:hr>
</tp1:TrackPointExtension>
</extensions>
</trkpt>
<trkpt lat="46.1706050" lon="6.1135402">
<ele>387.6000000</ele>
<time>2014-12-04T13:03:09Z</time>
<extensions>
<tp1:TrackPointExtension>
<tp1:hr>130</tp1:hr>
</tp1:TrackPointExtension>
</extensions>
</trkpt>
<trkpt lat="46.1702473" lon="6.1140436">
<ele>387.6000000</ele>
<time>2014-12-04T13:03:18Z</time>
<extensions>
<tp1:TrackPointExtension>
<tp1:hr>129</tp1:hr>
</tp1:TrackPointExtension>
</extensions>
</trkpt>
<trkpt lat="46.1699560" lon="6.1144452">
<ele>387.6000000</ele>
<time>2014-12-04T13:03:26Z</time>
<extensions>
<tp1:TrackPointExtension>
<tp1:hr>128</tp1:hr>
</tp1:TrackPointExtension>
</extensions>
</trkpt>
<trkpt lat="46.1698967" lon="6.1145533">
<ele>387.6000000</ele>
<time>2014-12-04T13:03:28Z</time>
<extensions>
<tp1:TrackPointExtension>
<tp1:hr>128</tp1:hr>
</tp1:TrackPointExtension>
</extensions>
</trkpt>
<trkpt lat="46.1698944" lon="6.1146867">
<ele>387.6000000</ele>
<time>2014-12-04T13:03:30Z</time>
<extensions>
<tp1:TrackPointExtension>
<tp1:hr>127</tp1:hr>
</tp1:TrackPointExtension>
</extensions>
</trkpt>
<trkpt lat="46.1699577" lon="6.1149024">
<ele>387.6000000</ele>
<time>2014-12-04T13:03:33Z</time>
<extensions>
<tp1:TrackPointExtension>
<tp1:hr>127</tp1:hr>
</tp1:TrackPointExtension>
</extensions>
</trkpt>
<trkpt lat="46.1701361" lon="6.1154708">
<ele>387.6000000</ele>
<time>2014-12-04T13:03:41Z</time>
<extensions>
<tp1:TrackPointExtension>
<tp1:hr>128</tp1:hr>
</tp1:TrackPointExtension>
</extensions>
</trkpt>
<trkpt lat="46.1703174" lon="6.1160670">
<ele>387.6000000</ele>
<time>2014-12-04T13:03:49Z</time>
<extensions>
<tp1:TrackPointExtension>
<tp1:hr>127</tp1:hr>
</tp1:TrackPointExtension>
</extensions>
</trkpt>
<trkpt lat="46.1704490" lon="6.1165624">
<ele>387.6000000</ele>
<time>2014-12-04T13:03:56Z</time>
<extensions>
<tp1:TrackPointExtension>
<tp1:hr>126</tp1:hr>
</tp1:TrackPointExtension>
</extensions>
</trkpt>
<trkpt lat="46.1705105" lon="6.1168333">
<ele>387.6000000</ele>
<time>2014-12-04T13:04:00Z</time>
<extensions>
<tp1:TrackPointExtension>
<tp1:hr>126</tp1:hr>
</tp1:TrackPointExtension>
</extensions>
</trkpt>
<trkpt lat="46.1705117" lon="6.1169767">
<ele>387.6000000</ele>
<time>2014-12-04T13:04:02Z</time>
<extensions>
<tp1:TrackPointExtension>
<tp1:hr>125</tp1:hr>
</tp1:TrackPointExtension>
</extensions>
</trkpt>
<trkpt lat="46.1704902" lon="6.1174595">
<ele>387.6000000</ele>
<time>2014-12-04T13:04:08Z</time>
<extensions>
<tp1:TrackPointExtension>
<tp1:hr>124</tp1:hr>
</tp1:TrackPointExtension>
</extensions>
</trkpt>
<trkpt lat="46.1705215" lon="6.1179461">
<ele>387.6000000</ele>
<time>2014-12-04T13:04:14Z</time>
<extensions>
<tp1:TrackPointExtension>
<tp1:hr>123</tp1:hr>
</tp1:TrackPointExtension>
</extensions>
</trkpt>
<trkpt lat="46.1705534" lon="6.1180090">
<ele>387.2000000</ele>
<time>2014-12-04T13:04:15Z</time>
<extensions>
<tp1:TrackPointExtension>
<tp1:hr>122</tp1:hr>
</tp1:TrackPointExtension>
</extensions>
</trkpt>
<trkpt lat="46.1705933" lon="6.1180712">
<ele>386.8000000</ele>
<time>2014-12-04T13:04:16Z</time>
<extensions>
<tp1:TrackPointExtension>
<tp1:hr>122</tp1:hr>
</tp1:TrackPointExtension>
</extensions>
</trkpt>
<trkpt lat="46.1706278" lon="6.1181355">
<ele>386.4000000</ele>
<time>2014-12-04T13:04:17Z</time>
<extensions>
<tp1:TrackPointExtension>
<tp1:hr>122</tp1:hr>
</tp1:TrackPointExtension>
</extensions>
</trkpt>
<trkpt lat="46.1706650" lon="6.1181987">
<ele>386.0000000</ele>
<time>2014-12-04T13:04:18Z</time>
<extensions>
<tp1:TrackPointExtension>
<tp1:hr>122</tp1:hr>
</tp1:TrackPointExtension>
</extensions>
</trkpt>
<trkpt lat="46.1707022" lon="6.1182575">
<ele>385.6000000</ele>
<time>2014-12-04T13:04:19Z</time>
<extensions>
<tp1:TrackPointExtension>
<tp1:hr>122</tp1:hr>
</tp1:TrackPointExtension>
</extensions>
</trkpt>
<trkpt lat="46.1707759" lon="6.1183792">
<ele>385.6000000</ele>
<time>2014-12-04T13:04:21Z</time>
<extensions>
<tp1:TrackPointExtension>
<tp1:hr>123</tp1:hr>
</tp1:TrackPointExtension>
</extensions>
</trkpt>
<trkpt lat="46.1709227" lon="6.1185824">
<ele>385.6000000</ele>
<time>2014-12-04T13:04:26Z</time>
<extensions>
<tp1:TrackPointExtension>
<tp1:hr>123</tp1:hr>
</tp1:TrackPointExtension>
</extensions>
</trkpt>
<trkpt lat="46.1710416" lon="6.1184929">
<ele>385.6000000</ele>
<time>2014-12-04T13:04:29Z</time>
<extensions>
<tp1:TrackPointExtension>
<tp1:hr>122</tp1:hr>
</tp1:TrackPointExtension>
</extensions>
</trkpt>
<trkpt lat="46.1711407" lon="6.1183059">
<ele>385.6000000</ele>
<time>2014-12-04T13:04:32Z</time>
<extensions>
<tp1:TrackPointExtension>
<tp1:hr>124</tp1:hr>
</tp1:TrackPointExtension>
</extensions>
</trkpt>
<trkpt lat="46.1712136" lon="6.1181772">
<ele>385.6000000</ele>
<time>2014-12-04T13:04:34Z</time>
<extensions>
<tp1:TrackPointExtension>
<tp1:hr>124</tp1:hr>
</tp1:TrackPointExtension>
</extensions>
</trkpt>
<trkpt lat="46.1712529" lon="6.1181183">
<ele>385.6000000</ele>
<time>2014-12-04T13:04:35Z</time>
<extensions>
<tp1:TrackPointExtension>
<tp1:hr>125</tp1:hr>
</tp1:TrackPointExtension>
</extensions>
</trkpt>
<trkpt lat="46.1714085" lon="6.1178233">
<ele>385.6000000</ele>
<time>2014-12-04T13:04:40Z</time>
<extensions>
<tp1:TrackPointExtension>
<tp1:hr>128</tp1:hr>
</tp1:TrackPointExtension>
</extensions>
</trkpt>
<trkpt lat="46.1716686" lon="6.1173812">
<ele>385.6000000</ele>
<time>2014-12-04T13:04:47Z</time>
<extensions>
<tp1:TrackPointExtension>
<tp1:hr>129</tp1:hr>
</tp1:TrackPointExtension>
</extensions>
</trkpt>
<trkpt lat="46.1718331" lon="6.1170964">
<ele>385.6000000</ele>
<time>2014-12-04T13:04:52Z</time>
<extensions>
<tp1:TrackPointExtension>
<tp1:hr>129</tp1:hr>
</tp1:TrackPointExtension>
</extensions>
</trkpt>
</trkseg>
</trk>
</gpx>
